# Wetter Temperatur Luftdruck Luftfeuchtigkeit Sichtweite Windgeschwindigkeit Windrichtung Zeit
1 Clear 10 1022 93 10000 2.6 300 07:20 11.07.2020
2 Clear 10 1022 93 10000 2.6 300 06:53 11.07.2020
3 Clear 10 1022 93 10000 3.1 300 06:20 11.07.2020
4 Clouds 11 1021 93 10000 3.6 300 05:21 11.07.2020
5 Clouds 11 1021 93 10000 3.6 300 04:55 11.07.2020
6 Clouds 11 1021 93 10000 3.6 300 04:31 11.07.2020
7 Clouds 14 1021 87 10000 1.61 36 02:59 11.07.2020
8 Clear 10 1014 82 0 1.42 40 02:37 11.07.2020
9 Clear 13 1023 87 10000 1 310 01:32 11.07.2020
10 Clear 13 1023 87 10000 1 310 00:59 11.07.2020
11 Clear 13 1023 87 10000 1 310 00:40 11.07.2020
12 Clear 13 1023 87 10000 2.6 50 00:21 11.07.2020
13 Clear 13 1023 87 10000 2.6 50 23:57 10.07.2020
14 Clear 14 1023 87 10000 2.91 53 23:39 10.07.2020
15 Clear 14 1023 87 10000 3.36 69 23:18 10.07.2020
16 Clear 14 1023 87 10000 3.36 69 22:43 10.07.2020
17 Clear 15 1022 82 10000 4 86 22:20 10.07.2020
18 Clear 15 1022 82 10000 4 86 21:56 10.07.2020
19 Clear 15 1022 82 10000 4.04 80 21:36 10.07.2020
20 Clear 15 1022 77 10000 4.26 91 21:18 10.07.2020
21 Clear 15 1022 77 10000 4.26 91 20:41 10.07.2020
22 Clouds 15 1022 77 10000 4.06 100 20:23 10.07.2020
23 Clouds 16 1021 72 10000 4.06 100 19:57 10.07.2020
24 Clouds 16 1021 72 10000 4.06 100 19:57 10.07.2020
25 Clouds 17 1021 72 10000 2.6 70 19:39 10.07.2020
26 Clouds 17 1021 72 10000 2.6 70 19:20 10.07.2020
27 Clouds 17 1022 77 10000 2.6 60 18:42 10.07.2020
28 Clouds 18 1021 68 10000 2.6 90 18:21 10.07.2020
29 Clouds 19 1021 68 10000 3.6 90 17:58 10.07.2020
30 Clouds 19 1020 68 10000 6.2 100 17:39 10.07.2020
31 Clouds 19 1020 68 10000 6.2 100 17:21 10.07.2020
32 Clouds 19 1020 68 10000 6.2 100 16:43 10.07.2020
33 Clouds 18 1021 77 10000 2.6 100 16:21 10.07.2020
34 Clouds 19 1021 68 10000 3.6 60 15:48 10.07.2020
35 Clouds 18 1021 77 10000 5.1 120 15:27 10.07.2020
36 Clouds 18 1021 77 10000 5.1 120 14:59 10.07.2020
37 Clouds 18 1021 77 10000 5.1 120 14:40 10.07.2020
38 Clouds 18 1021 77 10000 5.1 120 14:20 10.07.2020
39 Clouds 18 1021 77 10000 4.1 80 13:58 10.07.2020
40 Clouds 18 1022 72 10000 3.1 140 13:38 10.07.2020
41 Clouds 18 1022 72 10000 3.1 140 13:20 10.07.2020
42 Clouds 18 1022 72 10000 3.1 140 12:56 10.07.2020
43 Clouds 18 1022 72 10000 3.1 140 12:37 10.07.2020
44 Clouds 19 1022 68 10000 5.1 150 12:19 10.07.2020
45 Clouds 19 1022 68 10000 5.1 150 11:41 10.07.2020
46 Clouds 18 1023 77 10000 3.6 170 11:21 10.07.2020
47 Clouds 18 1023 77 10000 3.6 170 10:57 10.07.2020
48 Clouds 18 1023 77 10000 3.6 170 10:38 10.07.2020
49 Clouds 17 1023 77 10000 3.1 140 10:19 10.07.2020
50 Clouds 16 1014 80 0 1.79 169 09:40 10.07.2020
51 Clouds 16 1023 82 10000 3.6 160 09:22 10.07.2020
52 Clouds 16 1023 82 10000 3.6 160 08:58 10.07.2020
53 Clouds 16 1023 82 10000 3.6 160 08:40 10.07.2020
54 Clouds 15 1023 87 10000 2.6 160 08:22 10.07.2020
55 Clouds 14 1023 87 10000 2.6 160 07:45 10.07.2020
56 Clouds 14 1022 93 10000 3.6 210 07:23 10.07.2020
57 Clouds 14 1022 93 10000 3.6 210 06:54 10.07.2020
58 Clouds 14 1022 93 10000 3.6 210 06:54 10.07.2020
59 Clouds 14 1022 93 10000 3.6 210 06:36 10.07.2020
60 Clouds 16 1021 93 10000 5.1 180 05:27 10.07.2020
61 Clouds 16 1021 93 10000 4.1 160 03:54 10.07.2020
62 Clouds 16 1021 93 10000 2.51 88 02:54 10.07.2020
63 Clouds 16 1021 93 10000 1.5 250 01:57 10.07.2020
64 Clouds 16 1022 93 10000 3.6 210 00:55 10.07.2020
65 Clouds 16 1022 93 10000 3.6 200 00:23 10.07.2020
66 Clouds 16 1022 93 10000 3.6 200 23:56 09.07.2020
67 Clouds 16 1022 93 10000 3.6 200 23:37 09.07.2020
68 Clouds 16 1022 93 10000 3.1 190 23:19 09.07.2020
69 Clouds 16 1022 93 10000 3.1 190 22:56 09.07.2020
70 Clouds 16 1022 93 10000 3.1 190 22:38 09.07.2020
71 Clouds 17 1022 88 10000 3.1 180 22:19 09.07.2020
72 Clouds 17 1022 88 10000 3.1 180 21:54 09.07.2020
73 Clouds 17 1022 88 10000 3.1 180 21:36 09.07.2020
74 Clouds 17 1021 88 10000 4.05 91 21:18 09.07.2020
75 Clouds 17 1021 88 10000 4.05 91 20:41 09.07.2020
76 Clouds 19 1021 77 10000 3.6 100 20:22 09.07.2020
77 Clouds 19 1021 77 10000 3.6 100 19:43 09.07.2020
78 Clouds 19 1021 77 10000 3.6 100 19:22 09.07.2020
79 Clouds 20 1020 68 10000 4.1 90 18:58 09.07.2020
80 Clouds 20 1020 68 10000 4.1 90 18:40 09.07.2020
81 Clouds 22 1020 56 10000 4.1 120 18:19 09.07.2020
82 Clouds 22 1020 56 10000 4.1 120 17:43 09.07.2020
83 Clouds 22 1020 56 10000 4.1 120 17:24 09.07.2020
84 Clouds 24 1020 50 10000 5.1 130 16:59 09.07.2020
85 Clouds 24 1020 50 10000 5.1 130 16:39 09.07.2020
86 Clouds 23 1020 49 10000 5.1 120 16:19 09.07.2020
87 Clouds 23 1020 49 10000 5.1 120 16:19 09.07.2020
88 Clouds 23 1020 49 10000 5.1 120 15:59 09.07.2020
89 Clouds 23 1020 53 10000 5.1 110 15:40 09.07.2020
90 Clouds 22 1020 56 10000 3.6 100 15:21 09.07.2020
91 Clouds 22 1021 60 10000 4.1 100 14:58 09.07.2020
92 Clouds 22 1021 56 10000 4.1 150 14:40 09.07.2020
93 Clouds 22 1021 56 10000 4.1 150 14:22 09.07.2020
94 Clouds 22 1021 56 10000 4.1 150 13:57 09.07.2020
95 Clouds 21 1022 60 10000 4.6 100 13:38 09.07.2020
96 Clouds 21 1022 64 10000 2.6 100 13:19 09.07.2020
97 Clouds 22 1023 64 10000 3.1 100 12:42 09.07.2020
98 Clouds 21 1023 60 10000 4.1 100 12:24 09.07.2020
99 Clouds 21 1023 60 10000 4.1 100 11:59 09.07.2020
100 Clouds 21 1023 60 10000 4.1 100 11:41 09.07.2020
101 Clouds 20 1023 64 10000 5.7 140 11:21 09.07.2020
102 Clouds 20 1023 64 10000 5.7 140 10:57 09.07.2020
103 Clouds 20 1023 64 10000 5.7 140 10:38 09.07.2020
104 Clouds 20 1024 68 10000 3.1 110 10:20 09.07.2020
105 Clouds 20 1024 64 10000 3.6 90 09:43 09.07.2020
106 Clouds 19 1023 68 10000 3.1 120 09:23 09.07.2020
107 Clouds 20 1023 68 10000 3.1 120 08:52 09.07.2020
108 Clouds 19 1023 68 10000 3.1 120 08:27 09.07.2020
109 Clouds 16 1023 87 10000 2.47 66 07:58 09.07.2020
110 Clouds 15 1023 87 10000 2.47 66 07:40 09.07.2020
111 Clouds 13 1023 93 10000 2.18 61 07:21 09.07.2020
112 Clouds 13 1023 87 10000 3.1 270 06:21 09.07.2020
113 Clouds 12 1023 93 10000 1.5 250 05:57 09.07.2020
114 Clouds 14 1023 87 10000 2.1 280 04:29 09.07.2020
115 Clouds 16 1022 82 10000 1.44 41 03:24 09.07.2020
116 Clouds 16 1023 82 10000 2.6 240 01:58 09.07.2020
117 Clouds 16 1023 82 10000 2.1 210 01:21 09.07.2020
118 Clouds 17 1023 72 10000 3.1 240 00:43 09.07.2020
119 Clouds 17 1023 72 10000 3.1 240 00:23 09.07.2020
120 Clouds 17 1023 72 10000 3.1 240 23:44 08.07.2020
121 Clouds 17 1023 72 10000 3.1 240 23:26 08.07.2020
122 Clouds 17 1023 72 10000 1.94 114 22:57 08.07.2020
123 Clouds 17 1023 72 10000 1.94 114 22:38 08.07.2020
124 Clouds 17 1023 72 10000 2.44 136 22:20 08.07.2020
125 Clouds 18 1023 72 10000 2.1 180 21:57 08.07.2020
126 Clouds 18 1022 72 10000 2.44 136 21:38 08.07.2020
127 Clouds 18 1022 72 10000 2.99 132 21:20 08.07.2020
128 Clouds 19 1023 63 10000 2.6 100 20:43 08.07.2020
129 Clouds 18 1022 72 10000 3.17 122 20:25 08.07.2020
130 Clouds 18 1022 72 10000 3.17 122 19:58 08.07.2020
131 Clouds 17 1022 72 10000 3.17 122 19:40 08.07.2020
132 Clouds 18 1022 72 10000 3.1 140 19:21 08.07.2020
133 Clouds 20 1021 60 10000 3.6 140 18:55 08.07.2020
134 Clouds 21 1021 56 10000 3.6 140 18:36 08.07.2020
135 Clouds 21 1021 56 10000 3.6 140 18:18 08.07.2020
136 Clouds 21 1021 56 10000 3.6 140 17:55 08.07.2020
137 Clouds 22 1021 53 10000 3.1 140 17:36 08.07.2020
138 Clouds 22 1021 53 10000 3.1 140 17:18 08.07.2020
139 Clouds 22 1021 53 10000 3.1 140 16:39 08.07.2020
140 Clouds 22 1021 53 10000 2.6 180 16:20 08.07.2020
141 Clouds 22 1021 53 10000 2.6 180 15:58 08.07.2020
142 Clouds 22 1021 53 10000 2.6 180 15:39 08.07.2020
143 Clouds 22 1021 53 10000 3.1 170 15:19 08.07.2020
144 Clouds 22 1021 53 10000 3.1 170 14:46 08.07.2020
145 Clouds 22 1021 53 10000 3.1 170 14:28 08.07.2020
146 Clouds 21 1022 56 10000 2.6 130 13:58 08.07.2020
147 Clouds 22 1023 56 10000 2.1 150 13:40 08.07.2020
148 Clouds 21 1023 60 10000 2.1 150 13:20 08.07.2020
149 Clouds 21 1023 60 10000 4.14 151 12:43 08.07.2020
150 Clouds 21 1023 60 10000 3.72 165 12:21 08.07.2020
151 Clouds 21 1023 60 10000 3.72 165 11:57 08.07.2020
152 Clouds 19 1024 63 10000 3.1 120 11:38 08.07.2020
153 Clouds 19 1024 63 10000 3.1 120 11:20 08.07.2020
154 Clouds 19 1024 63 10000 3.1 120 10:44 08.07.2020
155 Clouds 19 1023 68 10000 2.1 170 10:26 08.07.2020
156 Clouds 19 1023 68 10000 2.1 170 09:47 08.07.2020
157 Clouds 19 1023 68 10000 2.1 170 09:26 08.07.2020
158 Clouds 17 1024 82 10000 2.52 149 08:58 08.07.2020
159 Clouds 16 1024 82 10000 2.52 149 08:39 08.07.2020
160 Clouds 16 1024 82 10000 2.6 240 08:20 08.07.2020
161 Clouds 15 1024 87 10000 3.1 230 07:46 08.07.2020
162 Clouds 15 1024 87 10000 3.1 230 07:22 08.07.2020
163 Clouds 15 1023 87 10000 2.6 220 06:53 08.07.2020
164 Clouds 14 1022 93 10000 2.6 180 06:32 08.07.2020
165 Clouds 14 1022 93 10000 2.6 180 05:50 08.07.2020
166 Clouds 14 1023 87 10000 3.1 200 04:58 08.07.2020
167 Clouds 14 1022 87 10000 2.6 220 04:20 08.07.2020
168 Clouds 15 1022 82 10000 2.1 260 02:20 08.07.2020
169 Clouds 15 1022 87 10000 3.1 270 01:39 08.07.2020
170 Clouds 16 1022 77 10000 3.1 240 00:59 08.07.2020
171 Clouds 13 1016 87 0 2.24 118 00:22 08.07.2020
172 Clouds 17 1022 77 10000 2.1 210 23:44 07.07.2020
173 Clouds 17 1022 77 10000 2.1 210 23:24 07.07.2020
174 Clouds 17 1022 77 10000 2.1 210 22:58 07.07.2020
175 Clouds 18 1023 72 10000 3.39 93 22:40 07.07.2020
176 Clouds 18 1023 72 10000 3.39 93 22:20 07.07.2020
177 Clouds 18 1023 72 10000 3.39 93 21:58 07.07.2020
178 Clouds 18 1023 72 10000 3.07 96 21:38 07.07.2020
179 Clouds 18 1021 72 10000 2.6 190 21:19 07.07.2020
180 Clouds 18 1021 72 10000 2.6 190 20:56 07.07.2020
181 Clouds 19 1021 72 10000 2.6 190 20:37 07.07.2020
182 Clouds 19 1022 68 10000 2.1 190 20:19 07.07.2020
183 Clouds 19 1022 68 10000 2.1 190 19:39 07.07.2020
184 Clouds 20 1021 60 10000 3.1 140 19:20 07.07.2020
185 Clouds 20 1020 64 10000 3.6 160 18:55 07.07.2020
186 Clouds 21 1019 60 10000 2.43 110 18:37 07.07.2020
187 Clouds 21 1019 60 10000 3.02 110 18:19 07.07.2020
188 Clouds 21 1019 60 10000 3.02 110 17:57 07.07.2020
189 Clouds 21 1019 60 10000 3.02 110 17:38 07.07.2020
190 Clouds 22 1019 53 10000 2.6 180 17:20 07.07.2020
191 Clouds 22 1019 53 10000 2.6 180 16:43 07.07.2020
192 Clouds 22 1019 60 10000 4.1 170 16:23 07.07.2020
193 Clouds 22 1019 60 10000 4.1 170 15:57 07.07.2020
194 Clouds 22 1020 60 10000 2.6 200 15:37 07.07.2020
195 Clouds 22 1020 60 10000 2.6 200 15:19 07.07.2020
196 Clouds 22 1020 56 10000 4.6 160 14:46 07.07.2020
197 Clouds 22 1021 56 10000 4.1 230 14:25 07.07.2020
198 Clouds 22 1021 56 10000 4.1 230 13:46 07.07.2020
199 Clouds 21 1021 60 10000 3.6 230 13:22 07.07.2020
200 Clouds 21 1021 60 10000 3.6 230 12:58 07.07.2020
201 Clouds 21 1021 60 10000 3.6 230 12:40 07.07.2020
202 Clouds 20 1022 68 10000 1.44 187 12:21 07.07.2020
203 Clouds 19 1022 68 10000 1.44 187 11:48 07.07.2020
204 Clouds 19 1022 68 10000 1.46 204 11:24 07.07.2020
205 Clouds 18 1022 88 10000 1.46 204 10:59 07.07.2020
206 Clouds 18 1022 88 10000 1.46 204 10:41 07.07.2020
207 Clouds 18 1022 88 10000 1.48 186 10:21 07.07.2020
208 Clouds 17 1023 72 10000 3.1 210 09:55 07.07.2020
209 Clouds 16 1022 77 10000 2.1 230 09:37 07.07.2020
210 Clouds 15 1022 77 10000 2.1 230 09:18 07.07.2020
211 Clouds 15 1022 77 10000 2.1 230 08:40 07.07.2020
212 Clouds 15 1022 82 10000 2.1 210 08:22 07.07.2020
213 Clouds 15 1022 82 10000 2.1 210 07:41 07.07.2020
214 Clouds 14 1021 87 10000 2.1 160 07:21 07.07.2020
215 Clouds 14 1021 87 10000 2.1 160 06:49 07.07.2020
216 Clouds 14 1021 87 10000 1.05 114 06:28 07.07.2020
217 Clouds 14 1021 87 10000 1.05 114 05:51 07.07.2020
218 Clouds 14 1021 87 10000 1.35 114 05:21 07.07.2020
219 Clouds 15 1020 87 10000 1.35 114 04:38 07.07.2020
220 Clouds 15 1020 87 10000 0.68 118 03:35 07.07.2020
221 Clouds 16 1021 77 10000 1.5 150 02:21 07.07.2020
222 Clouds 17 1021 72 10000 3.1 190 01:22 07.07.2020
223 Clouds 17 1021 72 10000 3.1 190 00:42 07.07.2020
224 Clouds 17 1021 77 10000 2.6 170 00:24 07.07.2020
225 Clouds 17 1021 77 10000 2.6 170 23:46 06.07.2020
226 Clouds 17 1021 77 10000 2.6 170 23:26 06.07.2020
227 Clouds 18 1021 72 10000 2.21 75 22:59 06.07.2020
228 Clouds 18 1021 72 10000 2.21 75 22:40 06.07.2020
229 Clouds 18 1020 72 10000 2.1 210 22:20 06.07.2020
230 Clouds 18 1020 72 10000 2.1 210 21:57 06.07.2020
231 Clouds 18 1020 72 10000 2.1 210 21:38 06.07.2020
232 Clouds 19 1020 77 10000 2.33 83 21:19 06.07.2020
233 Clouds 19 1020 77 10000 2.33 83 20:59 06.07.2020
234 Clouds 19 1020 77 10000 2.33 83 20:37 06.07.2020
235 Clouds 20 1019 64 10000 2.1 180 20:19 06.07.2020
236 Clouds 20 1019 64 10000 2.1 180 19:56 06.07.2020
237 Clouds 20 1019 64 10000 2.1 180 19:38 06.07.2020
238 Clouds 19 1019 72 10000 2.4 121 19:20 06.07.2020
239 Clouds 19 1019 72 10000 2.4 121 18:55 06.07.2020
240 Clouds 19 1019 72 10000 2.4 121 18:36 06.07.2020
241 Clouds 21 1018 60 10000 3.1 180 18:18 06.07.2020
242 Clouds 21 1018 60 10000 3.1 180 17:41 06.07.2020
243 Clouds 22 1018 56 10000 4.6 160 17:23 06.07.2020
244 Clouds 22 1018 56 10000 4.6 160 16:55 06.07.2020
245 Clouds 22 1018 56 10000 4.6 160 16:37 06.07.2020
246 Clouds 22 1018 56 10000 5.1 170 16:18 06.07.2020
247 Clouds 22 1018 56 10000 5.1 170 15:42 06.07.2020
248 Clouds 22 1018 56 10000 5.1 170 15:24 06.07.2020
249 Clouds 22 1018 56 10000 3.1 190 14:57 06.07.2020
250 Clouds 22 1018 56 10000 3.1 190 14:37 06.07.2020
251 Clouds 22 1019 56 10000 3.1 210 14:19 06.07.2020
252 Clouds 22 1019 56 10000 3.1 210 13:51 06.07.2020
253 Clouds 22 1020 56 10000 4.6 270 13:28 06.07.2020
254 Clouds 22 1020 56 10000 4.6 270 12:59 06.07.2020
255 Clouds 22 1020 56 10000 4.6 270 12:41 06.07.2020
256 Clouds 22 1020 56 10000 4.1 210 12:18 06.07.2020
257 Clouds 22 1020 56 10000 4.1 210 11:57 06.07.2020
258 Clouds 22 1020 56 10000 4.1 210 11:37 06.07.2020
259 Clouds 20 1021 64 10000 3.6 210 11:19 06.07.2020
260 Clouds 20 1021 64 10000 3.6 210 10:42 06.07.2020
261 Clouds 18 1021 72 10000 2.1 230 10:22 06.07.2020
262 Clouds 18 1021 72 10000 2.1 230 09:58 06.07.2020
263 Clouds 18 1021 72 10000 2.1 230 09:39 06.07.2020
264 Clouds 17 1021 82 10000 2.1 220 09:21 06.07.2020
265 Clouds 16 1021 82 10000 2.1 220 08:55 06.07.2020
266 Clouds 16 1021 82 10000 2.1 220 08:36 06.07.2020
267 Clouds 15 1021 87 10000 3.6 210 08:18 06.07.2020
268 Clouds 15 1021 87 10000 3.6 210 07:40 06.07.2020
269 Clouds 14 1021 93 10000 1.5 210 07:22 06.07.2020
270 Clouds 14 1021 93 10000 2.6 220 06:39 06.07.2020
271 Clouds 14 1022 93 10000 2.6 220 06:20 06.07.2020
272 Clouds 14 1022 93 10000 2.6 220 06:20 06.07.2020
273 Clouds 14 1021 93 10000 2.6 210 05:33 06.07.2020
274 Clouds 15 1021 87 10000 1.5 250 04:52 06.07.2020
275 Clouds 15 1020 87 10000 1.21 148 03:26 06.07.2020
276 Clouds 16 1021 82 10000 2.1 240 02:22 06.07.2020
277 Clouds 16 1021 82 10000 2.1 240 01:28 06.07.2020
278 Clouds 15 1022 87 10000 2.6 290 00:36 06.07.2020
279 Clouds 16 1022 82 10000 4.1 200 00:18 06.07.2020
280 Clouds 17 1021 72 10000 2.6 180 23:41 05.07.2020
281 Clouds 17 1021 72 10000 2.6 180 23:23 05.07.2020
282 Clouds 17 1021 72 10000 2.6 180 22:59 05.07.2020
283 Clouds 17 1021 72 10000 2.6 180 22:40 05.07.2020
284 Clouds 17 1021 77 10000 2.37 117 22:20 05.07.2020
285 Clouds 17 1021 77 10000 2.37 117 21:57 05.07.2020
286 Clouds 18 1021 72 10000 2.37 117 21:38 05.07.2020
287 Clouds 18 1021 72 10000 2.18 100 21:18 05.07.2020
288 Clouds 18 1021 72 10000 2.18 100 20:57 05.07.2020
289 Clouds 18 1021 72 10000 2.18 100 20:38 05.07.2020
290 Clouds 18 1021 72 10000 2.04 115 20:20 05.07.2020
291 Clouds 18 1021 72 10000 2.04 115 19:42 05.07.2020
292 Clouds 18 1020 72 10000 2.6 150 19:21 05.07.2020
293 Clouds 18 1020 72 10000 2.6 150 18:56 05.07.2020
294 Clouds 18 1020 72 10000 2.6 150 18:37 05.07.2020
295 Clouds 18 1020 72 10000 2.6 150 18:37 05.07.2020
296 Clouds 20 1019 60 10000 3.6 150 18:19 05.07.2020
297 Clouds 20 1019 60 10000 3.6 150 17:43 05.07.2020
298 Clouds 21 1019 56 10000 4.6 130 17:20 05.07.2020
299 Clouds 21 1019 56 10000 4.6 130 16:59 05.07.2020
300 Clouds 21 1019 56 10000 4.6 130 16:40 05.07.2020
301 Clouds 21 1019 56 10000 4.6 130 16:21 05.07.2020
302 Clouds 21 1019 60 10000 2.6 180 15:41 05.07.2020
303 Clouds 21 1019 60 10000 2.6 180 15:20 05.07.2020
304 Clouds 21 1019 60 10000 2.6 180 15:20 05.07.2020
305 Clouds 21 1020 56 10000 2.6 140 14:57 05.07.2020
306 Clouds 21 1020 56 10000 2.6 140 14:38 05.07.2020
307 Clouds 22 1020 53 10000 2.1 90 14:20 05.07.2020
308 Clouds 21 1021 64 10000 2.1 110 13:41 05.07.2020
309 Clouds 21 1021 64 10000 2.1 110 13:23 05.07.2020
310 Clouds 20 1022 63 10000 3.09 164 12:46 05.07.2020
311 Clouds 19 1022 63 10000 2.5 170 12:22 05.07.2020
312 Clouds 19 1022 63 10000 2.5 170 11:57 05.07.2020
313 Clouds 20 1023 64 10000 2.1 0 11:38 05.07.2020
314 Clouds 20 1023 64 10000 2.1 0 11:38 05.07.2020
315 Clouds 19 1023 68 10000 2.1 170 11:20 05.07.2020
316 Clouds 19 1023 68 10000 2.1 170 10:56 05.07.2020
317 Clouds 18 1022 77 10000 2.1 170 10:37 05.07.2020
318 Clouds 17 1022 77 10000 2.1 170 10:18 05.07.2020
319 Clouds 17 1022 77 10000 2.1 170 09:42 05.07.2020
320 Clouds 15 1022 82 10000 2.1 180 09:21 05.07.2020
321 Clouds 15 1022 82 10000 2.1 180 08:58 05.07.2020
322 Clouds 15 1022 82 10000 2.1 180 08:38 05.07.2020
323 Clouds 15 1021 82 10000 1.54 183 08:19 05.07.2020
324 Clouds 15 1021 82 10000 1.54 183 07:43 05.07.2020
325 Clouds 14 1021 87 10000 0.73 164 07:22 05.07.2020
326 Clouds 14 1021 87 10000 0.73 164 06:47 05.07.2020
327 Clouds 13 1021 93 10000 0.89 154 04:42 05.07.2020
328 Clouds 13 1021 93 10000 1.58 144 03:19 05.07.2020
329 Clouds 13 1021 93 10000 0.96 117 02:41 05.07.2020
330 Clouds 13 1022 87 10000 1.23 78 01:59 05.07.2020
331 Clouds 13 1022 87 10000 1.86 92 01:31 05.07.2020
332 Clouds 14 1022 87 10000 2.6 230 00:53 05.07.2020
333 Clouds 14 1022 87 10000 2.6 230 00:31 05.07.2020
334 Clouds 14 1022 87 10000 2.25 106 23:58 04.07.2020
335 Clouds 14 1022 87 10000 2.25 106 23:40 04.07.2020
336 Clouds 14 1022 87 10000 1.99 119 23:22 04.07.2020
337 Clouds 17 1023 72 10000 4.1 0 22:43 04.07.2020
338 Clouds 17 1022 77 10000 2.6 210 22:25 04.07.2020
339 Clouds 17 1022 77 10000 2.6 210 21:58 04.07.2020
340 Clouds 18 1022 77 10000 2.6 210 21:40 04.07.2020
341 Clouds 18 1022 77 10000 2.6 210 21:22 04.07.2020
342 Clouds 18 1021 72 10000 2.6 150 20:43 04.07.2020
343 Rain 19 1021 59 10000 2.74 128 20:22 04.07.2020
344 Rain 19 1021 59 10000 2.74 128 20:00 04.07.2020
345 Rain 19 1021 59 10000 2.74 128 19:41 04.07.2020
346 Clouds 21 1021 56 10000 4.1 140 19:21 04.07.2020
347 Clouds 21 1021 56 10000 4.1 140 19:21 04.07.2020
348 Clouds 21 1021 56 10000 4.1 140 18:46 04.07.2020
349 Clouds 22 1020 56 10000 3.1 150 18:24 04.07.2020
350 Clouds 22 1020 56 10000 3.1 150 17:59 04.07.2020
351 Clouds 22 1020 56 10000 3.1 150 17:41 04.07.2020
352 Clouds 23 1020 49 10000 5.1 150 17:22 04.07.2020
353 Clouds 23 1020 49 10000 5.1 150 16:56 04.07.2020
354 Clouds 23 1020 49 10000 5.1 150 16:37 04.07.2020
355 Clouds 23 1020 46 10000 2.6 150 16:18 04.07.2020
356 Clouds 23 1020 46 10000 2.6 150 15:42 04.07.2020
357 Clouds 23 1020 46 10000 2.6 150 15:24 04.07.2020
358 Clouds 23 1021 49 10000 5.1 180 14:58 04.07.2020
359 Clouds 23 1021 49 10000 5.1 180 14:37 04.07.2020
360 Clouds 23 1021 49 10000 4.1 170 14:18 04.07.2020
361 Clouds 23 1021 49 10000 4.1 170 13:43 04.07.2020
362 Clouds 22 1022 56 10000 3.21 175 13:20 04.07.2020
363 Clouds 22 1022 56 10000 3.21 175 12:59 04.07.2020
364 Clouds 22 1022 56 10000 3.06 173 12:40 04.07.2020
365 Clouds 20 1023 60 10000 3.06 173 12:20 04.07.2020
366 Clouds 20 1023 60 10000 3.06 173 11:45 04.07.2020
367 Clouds 20 1023 60 10000 2.78 176 11:24 04.07.2020
368 Clouds 15 1017 84 0 2.78 176 10:57 04.07.2020
369 Clouds 18 1023 68 10000 2.78 176 10:38 04.07.2020
370 Clouds 18 1023 68 10000 2.52 183 10:19 04.07.2020
371 Clouds 18 1023 68 10000 2.52 183 09:54 04.07.2020
372 Clouds 18 1023 68 10000 2.52 183 09:36 04.07.2020
373 Clouds 16 1023 77 10000 2.22 182 09:18 04.07.2020
374 Clouds 16 1023 77 10000 2.22 182 08:43 04.07.2020
375 Clouds 13 1023 87 10000 1.51 177 08:24 04.07.2020
376 Clouds 13 1023 87 10000 1.51 177 07:43 04.07.2020
377 Clouds 13 1023 87 10000 0.65 183 07:25 04.07.2020
378 Clouds 13 1022 87 10000 0.65 183 06:48 04.07.2020
379 Clouds 11 1022 93 10000 0.61 159 06:20 04.07.2020
380 Clouds 10 1022 93 10000 0.75 154 05:32 04.07.2020
381 Clouds 11 1021 87 10000 0.78 117 04:23 04.07.2020
382 Clouds 11 1022 87 10000 1 0 02:48 04.07.2020
383 Clouds 13 1022 87 10000 2.1 300 01:51 04.07.2020
384 Clouds 14 1023 82 10000 3.1 20 00:59 04.07.2020
385 Clouds 16 1022 72 10000 2.15 72 00:40 04.07.2020
386 Clouds 16 1022 72 10000 2.19 52 00:21 04.07.2020
387 Clouds 16 1022 72 10000 2.19 52 23:39 03.07.2020
388 Clouds 17 1022 72 10000 2.6 60 23:18 03.07.2020
389 Clouds 17 1022 72 10000 2.6 60 23:18 03.07.2020
390 Clouds 17 1022 72 10000 2.6 60 22:43 03.07.2020
391 Clouds 17 1022 72 10000 2.6 60 22:25 03.07.2020
392 Clouds 17 1022 72 10000 2.71 78 22:00 03.07.2020
393 Clouds 17 1022 72 10000 2.71 78 21:39 03.07.2020
394 Clouds 17 1022 72 10000 2.45 88 21:19 03.07.2020
395 Clouds 18 1022 72 10000 2.45 88 20:46 03.07.2020
396 Clouds 18 1022 72 10000 2.01 98 20:27 03.07.2020
397 Clouds 19 1021 68 10000 2.6 70 19:59 03.07.2020
398 Clouds 19 1021 68 10000 2.6 70 19:40 03.07.2020
399 Clouds 19 1020 63 10000 3.6 120 19:18 03.07.2020
400 Clouds 19 1020 63 10000 3.6 120 18:45 03.07.2020
401 Clouds 19 1020 63 10000 3.6 120 18:24 03.07.2020
402 Clouds 20 1020 60 10000 5.1 130 17:59 03.07.2020
403 Clouds 20 1020 60 10000 5.1 130 17:41 03.07.2020
404 Clouds 20 1020 60 10000 5.1 130 17:20 03.07.2020
405 Clouds 22 1020 60 10000 2.57 146 16:41 03.07.2020
406 Clouds 22 1020 60 10000 3.37 152 16:23 03.07.2020
407 Clouds 22 1020 60 10000 3.37 152 15:46 03.07.2020
408 Clouds 22 1020 60 10000 3.66 155 15:24 03.07.2020
409 Clouds 22 1020 53 10000 2.1 210 14:57 03.07.2020
410 Clouds 22 1020 53 10000 2.1 210 14:39 03.07.2020
411 Clouds 21 1020 60 10000 5.1 160 14:19 03.07.2020
412 Clouds 22 1021 56 10000 3.6 190 13:47 03.07.2020
413 Clouds 22 1021 56 10000 3.6 190 13:29 03.07.2020
414 Clouds 22 1021 56 10000 3.6 200 12:54 03.07.2020
415 Clouds 20 1023 64 10000 3.6 190 12:36 03.07.2020
416 Clouds 21 1023 60 10000 4.1 180 12:18 03.07.2020
417 Clouds 20 1023 68 10000 3.6 180 11:42 03.07.2020
418 Clouds 19 1023 68 10000 2.02 189 11:23 03.07.2020
419 Clouds 19 1023 68 10000 2.02 189 10:58 03.07.2020
420 Clouds 19 1023 68 10000 2.02 189 10:39 03.07.2020
421 Clouds 17 1024 82 10000 2.1 194 10:20 03.07.2020
422 Clouds 17 1024 82 10000 2.1 194 09:54 03.07.2020
423 Clouds 16 1024 82 10000 2.18 179 09:36 03.07.2020
424 Clouds 15 1023 82 10000 2.18 179 09:18 03.07.2020
425 Clouds 15 1023 82 10000 2.18 179 08:39 03.07.2020
426 Clouds 14 1023 87 10000 2.17 169 08:19 03.07.2020
427 Clouds 14 1023 87 10000 2.17 169 07:48 03.07.2020
428 Clouds 14 1023 87 10000 2.1 153 07:26 03.07.2020
429 Clouds 14 1022 87 10000 2.1 153 06:49 03.07.2020
430 Clouds 13 1022 100 10000 1.21 134 06:19 03.07.2020
431 Clouds 14 1021 93 10000 4.1 180 04:55 03.07.2020
432 Clouds 16 1021 77 10000 4.1 150 03:32 03.07.2020
433 Clouds 16 1021 77 10000 4.1 150 02:47 03.07.2020
434 Clouds 16 1021 77 10000 4.1 150 02:27 03.07.2020
435 Clouds 16 1022 82 10000 2.6 30 01:28 03.07.2020
436 Clouds 17 1022 77 10000 1.6 72 00:50 03.07.2020
437 Clouds 17 1022 77 10000 1.6 72 00:32 03.07.2020
438 Clouds 17 1022 77 10000 2.09 72 23:47 02.07.2020
439 Clouds 17 1022 77 10000 2.06 81 23:20 02.07.2020
440 Clouds 17 1023 77 10000 2.6 270 22:58 02.07.2020
441 Clouds 17 1022 77 10000 2.06 81 22:40 02.07.2020
442 Clouds 17 1022 77 10000 2.27 95 22:20 02.07.2020
443 Clouds 17 1022 77 10000 2.27 95 21:56 02.07.2020
444 Clouds 17 1022 77 10000 2.27 95 21:38 02.07.2020
445 Clouds 18 1021 77 10000 2.69 87 21:18 02.07.2020
446 Clouds 18 1021 77 10000 2.69 87 20:57 02.07.2020
447 Clouds 18 1021 77 10000 2.69 87 20:39 02.07.2020
448 Clouds 18 1021 72 10000 2.6 120 20:18 02.07.2020
449 Clouds 18 1021 72 10000 2.6 120 19:41 02.07.2020
450 Clouds 19 1020 68 10000 2.6 180 19:22 02.07.2020
451 Clouds 19 1020 68 10000 2.6 180 18:58 02.07.2020
452 Clouds 19 1020 68 10000 2.6 180 18:40 02.07.2020
453 Clouds 20 1020 64 10000 4.1 140 18:21 02.07.2020
454 Clouds 20 1020 64 10000 4.1 140 17:54 02.07.2020
455 Clouds 20 1020 64 10000 4.1 140 17:36 02.07.2020
456 Clouds 20 1020 64 10000 4.1 140 17:36 02.07.2020
457 Clouds 22 1019 53 10000 4.1 150 17:18 02.07.2020
458 Clouds 22 1019 53 10000 4.1 150 16:41 02.07.2020
459 Clouds 21 1019 60 10000 5.1 180 16:20 02.07.2020
460 Clouds 21 1019 60 10000 5.1 180 15:55 02.07.2020
461 Clouds 21 1019 60 10000 5.1 180 15:36 02.07.2020
462 Clouds 22 1020 56 10000 5.1 210 15:18 02.07.2020
463 Clouds 22 1020 56 10000 5.1 210 14:44 02.07.2020
464 Clouds 22 1020 56 10000 5.1 210 14:44 02.07.2020
465 Clouds 22 1020 56 10000 5.1 210 14:21 02.07.2020
466 Clouds 21 1021 56 10000 4.1 210 13:56 02.07.2020
467 Clouds 21 1021 56 10000 4.1 210 13:37 02.07.2020
468 Clouds 20 1021 60 10000 2.6 250 13:18 02.07.2020
469 Clouds 20 1021 60 10000 2.6 250 12:41 02.07.2020
470 Clouds 19 1022 63 10000 2.1 180 12:22 02.07.2020
471 Clouds 19 1022 63 10000 2.1 180 11:55 02.07.2020
472 Clouds 19 1022 63 10000 2.1 180 11:37 02.07.2020
473 Clouds 18 1023 68 10000 2.6 240 11:19 02.07.2020
474 Clouds 18 1023 68 10000 2.6 240 10:42 02.07.2020
475 Clouds 18 1023 68 10000 2.6 240 10:23 02.07.2020
476 Clouds 18 1023 72 10000 4.1 180 09:44 02.07.2020
477 Clouds 18 1023 72 10000 4.1 180 09:23 02.07.2020
478 Clouds 16 1024 87 10000 2.3 219 08:59 02.07.2020
479 Clouds 15 1024 87 10000 2.3 219 08:40 02.07.2020
480 Clouds 15 1023 87 10000 1.96 211 08:20 02.07.2020
481 Clouds 15 1023 87 10000 1.96 211 07:42 02.07.2020
482 Clouds 15 1023 87 10000 0.98 201 07:22 02.07.2020
483 Clouds 14 1023 93 10000 3.1 190 06:47 02.07.2020
484 Clouds 14 1023 93 10000 3.1 190 06:27 02.07.2020
485 Clouds 15 1022 87 10000 0.73 143 05:49 02.07.2020
486 Clouds 15 1022 87 10000 1 0 04:55 02.07.2020
487 Clouds 15 1022 87 10000 3.1 200 03:34 02.07.2020
488 Clouds 15 1022 87 10000 3.6 190 01:51 02.07.2020
489 Clouds 15 1023 87 10000 2.1 210 00:44 02.07.2020
490 Clouds 15 1023 82 10000 1.31 143 00:19 02.07.2020
491 Clouds 15 1023 82 10000 1.31 143 23:43 01.07.2020
492 Clouds 17 1022 72 10000 0.88 147 23:23 01.07.2020
493 Clouds 17 1022 72 10000 0.88 147 22:55 01.07.2020
494 Clouds 17 1022 72 10000 0.88 147 22:37 01.07.2020
495 Clouds 18 1023 77 10000 1.5 200 22:18 01.07.2020
496 Clouds 18 1023 77 10000 1.5 200 22:18 01.07.2020
497 Clouds 18 1023 77 10000 1.5 200 21:56 01.07.2020
498 Clouds 19 1022 68 10000 2.1 210 21:38 01.07.2020
499 Clouds 19 1022 68 10000 2.1 210 21:19 01.07.2020
500 Clouds 19 1022 68 10000 2.1 210 20:46 01.07.2020
501 Clouds 18 1021 72 10000 3.1 180 20:26 01.07.2020
502 Clouds 18 1021 72 10000 3.1 180 19:58 01.07.2020
503 Clouds 18 1021 72 10000 3.1 180 19:39 01.07.2020
504 Clouds 19 1021 77 10000 3.1 170 19:20 01.07.2020
505 Clouds 19 1021 77 10000 3.1 170 18:56 01.07.2020
506 Clouds 19 1020 68 10000 2.47 123 18:38 01.07.2020
507 Clouds 19 1020 68 10000 3.04 126 18:20 01.07.2020
508 Clouds 20 1021 64 10000 3.1 140 17:41 01.07.2020
509 Clouds 22 1020 53 10000 5.1 190 17:21 01.07.2020
510 Clouds 22 1020 53 10000 5.1 190 16:57 01.07.2020
511 Clouds 22 1020 53 10000 5.1 190 16:39 01.07.2020
512 Clouds 21 1020 60 10000 3.81 140 16:20 01.07.2020
513 Clouds 21 1020 60 10000 3.81 140 15:42 01.07.2020
514 Clouds 20 1021 64 10000 4.1 190 15:23 01.07.2020
515 Clouds 20 1021 64 10000 4.1 190 14:58 01.07.2020
516 Clouds 20 1021 64 10000 4.1 190 14:38 01.07.2020
517 Clouds 19 1021 68 10000 5.1 180 14:19 01.07.2020
518 Clouds 20 1022 64 10000 5.1 160 13:40 01.07.2020
519 Clouds 20 1022 64 10000 5.1 160 13:22 01.07.2020
520 Clouds 20 1022 64 10000 5.1 160 12:59 01.07.2020
521 Clouds 20 1022 64 10000 5.1 160 12:41 01.07.2020
522 Clouds 20 1023 64 10000 5.1 240 12:22 01.07.2020
523 Clouds 20 1023 64 10000 5.1 240 11:58 01.07.2020
524 Clouds 19 1024 68 10000 3.75 172 11:40 01.07.2020
525 Clouds 18 1024 68 10000 3.77 173 11:21 01.07.2020
526 Clouds 18 1024 68 10000 3.77 173 10:43 01.07.2020
527 Clouds 17 1024 77 10000 5.1 180 10:24 01.07.2020
528 Clouds 17 1024 77 10000 5.1 180 09:59 01.07.2020
529 Clouds 17 1024 77 10000 5.1 180 09:38 01.07.2020
530 Clouds 17 1024 77 10000 2.1 180 09:20 01.07.2020
531 Clouds 17 1024 77 10000 2.1 180 09:20 01.07.2020
532 Clouds 17 1024 77 10000 2.1 180 08:57 01.07.2020
533 Clouds 17 1024 77 10000 2.1 180 08:38 01.07.2020
534 Clouds 16 1023 87 10000 2.1 230 08:19 01.07.2020
535 Clouds 15 1023 87 10000 2.1 230 07:41 01.07.2020
536 Clouds 15 1023 87 10000 2.6 200 07:21 01.07.2020
537 Clouds 15 1023 87 10000 2.6 200 06:54 01.07.2020
538 Clouds 15 1023 87 10000 2.6 200 06:32 01.07.2020
539 Clouds 14 1023 93 10000 3.6 220 05:35 01.07.2020
540 Clouds 13 1022 93 10000 2.6 230 03:55 01.07.2020
541 Clouds 13 1021 82 10000 2.6 210 03:36 01.07.2020
542 Clouds 13 1021 82 10000 2.6 210 03:18 01.07.2020
543 Clouds 13 1022 87 10000 3.6 240 01:56 01.07.2020
544 Clear 14 1022 82 10000 3.6 240 00:48 01.07.2020
545 Clear 14 1022 82 10000 3.6 240 00:27 01.07.2020
546 Clear 15 1022 82 10000 4.1 220 23:57 30.06.2020
547 Clear 16 1022 72 10000 2.17 79 23:39 30.06.2020
548 Clear 16 1022 72 10000 2.17 79 23:19 30.06.2020
549 Clear 16 1022 72 10000 2.17 79 22:42 30.06.2020
550 Clear 16 1023 67 10000 2.86 89 22:19 30.06.2020
551 Clear 17 1023 67 10000 2.86 89 21:42 30.06.2020
552 Clouds 18 1021 63 10000 1.5 180 21:19 30.06.2020
553 Clouds 19 1021 63 10000 1.5 180 20:59 30.06.2020
554 Clouds 19 1021 63 10000 1.5 180 20:40 30.06.2020
555 Clouds 19 1021 59 10000 1.5 150 20:20 30.06.2020
556 Clouds 19 1021 59 10000 1.5 150 19:43 30.06.2020
557 Clouds 19 1021 59 10000 2.6 150 19:20 30.06.2020
558 Clouds 19 1021 59 10000 2.6 150 19:20 30.06.2020
559 Clouds 19 1021 59 10000 2.6 150 18:54 30.06.2020
560 Clouds 20 1021 59 10000 2.6 150 18:36 30.06.2020
561 Clouds 21 1020 52 10000 3.1 140 18:18 30.06.2020
562 Clouds 24 1019 38 10000 4.1 150 17:38 30.06.2020
563 Clouds 24 1019 38 10000 4.1 150 17:20 30.06.2020
564 Clouds 24 1019 38 10000 4.1 150 16:55 30.06.2020
565 Clouds 24 1019 38 10000 4.1 150 16:36 30.06.2020
566 Clouds 25 1020 36 10000 5.1 150 16:18 30.06.2020
567 Clouds 25 1020 36 10000 5.1 150 15:42 30.06.2020
568 Clouds 25 1020 36 10000 5.1 150 15:22 30.06.2020
569 Clouds 25 1020 36 10000 4.1 120 14:58 30.06.2020
570 Clouds 25 1020 36 10000 4.1 120 14:40 30.06.2020
571 Clouds 24 1021 36 10000 3.8 129 14:18 30.06.2020
572 Clouds 24 1021 36 10000 3.8 129 13:42 30.06.2020
573 Clouds 23 1022 40 10000 3.1 90 13:21 30.06.2020
574 Clouds 23 1022 40 10000 3.1 90 12:59 30.06.2020
575 Clouds 23 1022 40 10000 3.1 90 12:40 30.06.2020
576 Clouds 22 1023 40 10000 4.1 180 12:21 30.06.2020
577 Clouds 22 1023 40 10000 4.1 180 11:59 30.06.2020
578 Clouds 22 1023 40 10000 4.1 180 11:39 30.06.2020
579 Clouds 21 1023 43 10000 4.1 150 11:20 30.06.2020
580 Clouds 21 1023 43 10000 4.1 150 10:59 30.06.2020
581 Clouds 24 1020 41 10000 4.1 170 16:44 28.06.2020
582 Clouds 24 1020 41 10000 4.1 170 16:26 28.06.2020
583 Clouds 24 1020 44 10000 3.1 90 15:58 28.06.2020
584 Clouds 24 1020 44 10000 3.1 90 15:39 28.06.2020
585 Clouds 25 1020 44 10000 2.6 160 15:19 28.06.2020
586 Clouds 25 1020 44 10000 2.6 160 15:19 28.06.2020
587 Clouds 24 1021 47 10000 2.1 0 14:46 28.06.2020
588 Clouds 24 1021 47 10000 6.2 160 14:28 28.06.2020
589 Clouds 24 1021 50 10000 3.1 180 13:59 28.06.2020
590 Clouds 24 1022 50 10000 6.2 180 13:38 28.06.2020
591 Clouds 24 1022 53 10000 2.6 0 13:20 28.06.2020
592 Clouds 24 1022 53 10000 2.6 0 13:20 28.06.2020
593 Clouds 24 1022 53 10000 2.6 0 12:56 28.06.2020
594 Clouds 23 1023 56 10000 3.1 70 12:37 28.06.2020
595 Clouds 22 1023 56 10000 3.1 70 12:19 28.06.2020
596 Clouds 22 1023 56 10000 3.1 70 11:56 28.06.2020
597 Clouds 22 1023 56 10000 3.1 70 11:38 28.06.2020
598 Clouds 22 1023 56 10000 3.1 70 11:19 28.06.2020
599 Clouds 20 1024 64 10000 4.1 190 10:55 28.06.2020
600 Clouds 20 1024 64 10000 4.1 190 10:36 28.06.2020
601 Clouds 20 1024 64 10000 4.1 190 10:36 28.06.2020
602 Clouds 20 1024 68 10000 3.1 190 10:18 28.06.2020
603 Clouds 20 1024 68 10000 3.1 190 09:40 28.06.2020
604 Clouds 20 1024 68 10000 3.1 190 09:21 28.06.2020
605 Clouds 17 1025 88 10000 2.1 220 08:48 28.06.2020
606 Clouds 16 1024 87 10000 1.52 134 08:26 28.06.2020
607 Clouds 16 1024 87 10000 1.52 134 07:50 28.06.2020
608 Clouds 16 1024 87 10000 1.09 165 07:30 28.06.2020
609 Clouds 15 1023 93 10000 2.6 210 06:44 28.06.2020
610 Clouds 15 1022 93 10000 2.1 170 06:24 28.06.2020
611 Clouds 16 1022 93 10000 0.48 155 05:26 28.06.2020
612 Clouds 16 1021 93 10000 2.1 210 03:33 28.06.2020
613 Clouds 16 1021 93 10000 2.1 210 02:40 28.06.2020
614 Clouds 16 1022 93 10000 1 0 01:53 28.06.2020
615 Clouds 16 1022 93 10000 1 0 01:27 28.06.2020
616 Clouds 16 1022 93 10000 1.49 94 00:48 28.06.2020
617 Clouds 17 1023 88 10000 2.1 190 00:26 28.06.2020
618 Clouds 17 1023 88 10000 2.1 190 23:42 27.06.2020
619 Clouds 17 1023 88 10000 2.1 190 23:24 27.06.2020
620 Clouds 17 1023 82 10000 2.1 210 22:58 27.06.2020
621 Clouds 17 1023 82 10000 2.1 210 22:40 27.06.2020
622 Clouds 17 1023 82 10000 2.1 210 22:21 27.06.2020
623 Clouds 18 1022 82 10000 1 0 21:56 27.06.2020
624 Clouds 18 1022 82 10000 1 0 21:38 27.06.2020
625 Clouds 18 1022 77 10000 2.1 80 21:19 27.06.2020
626 Clouds 19 1022 72 10000 2.6 90 20:44 27.06.2020
627 Clouds 20 1021 68 10000 5.1 110 20:19 27.06.2020
628 Clouds 20 1021 68 10000 5.1 110 19:56 27.06.2020
629 Clouds 20 1021 68 10000 5.1 110 19:37 27.06.2020
630 Clouds 21 1021 64 10000 4.1 110 19:18 27.06.2020
631 Clouds 21 1021 64 10000 4.1 110 18:46 27.06.2020
632 Clouds 21 1021 64 10000 4.1 110 18:28 27.06.2020
633 Clouds 21 1020 64 10000 5.1 160 17:58 27.06.2020
634 Clouds 21 1020 64 10000 5.1 160 17:38 27.06.2020
635 Clouds 22 1020 53 10000 4.1 130 17:19 27.06.2020
636 Clouds 23 1020 56 10000 4.1 90 16:46 27.06.2020
637 Clouds 24 1019 47 10000 3.39 121 16:28 27.06.2020
638 Clouds 24 1019 47 10000 3.39 121 15:59 27.06.2020
639 Clouds 24 1019 47 10000 3.39 121 15:41 27.06.2020
640 Clouds 24 1020 50 10000 4.1 200 15:21 27.06.2020
641 Clouds 24 1020 50 10000 4.1 200 14:43 27.06.2020
642 Clouds 24 1020 50 10000 4.1 200 14:25 27.06.2020
643 Clouds 23 1021 53 10000 4.01 136 13:59 27.06.2020
644 Clouds 23 1021 53 10000 4.01 136 13:38 27.06.2020
645 Clouds 23 1021 53 10000 4.01 136 13:38 27.06.2020
646 Clouds 22 1021 56 10000 3.1 130 13:19 27.06.2020
647 Clouds 22 1021 56 10000 3.1 130 12:57 27.06.2020
648 Clouds 22 1021 56 10000 3.1 130 12:39 27.06.2020
649 Clouds 21 1023 68 10000 5.1 220 12:21 27.06.2020
650 Clouds 21 1023 68 10000 5.1 220 11:54 27.06.2020
651 Clouds 21 1023 68 10000 5.1 220 11:36 27.06.2020
652 Clouds 20 1023 64 10000 3.59 156 11:18 27.06.2020
653 Clouds 20 1023 64 10000 3.59 156 10:38 27.06.2020
654 Clouds 18 1024 72 10000 3.1 180 10:19 27.06.2020
655 Clouds 18 1024 72 10000 3.1 180 09:41 27.06.2020
656 Clouds 18 1024 72 10000 3.1 180 09:22 27.06.2020
657 Clouds 17 1023 77 10000 1.23 178 08:57 27.06.2020
658 Clouds 17 1023 77 10000 1.23 178 08:39 27.06.2020
659 Clouds 16 1022 87 10000 1.03 175 08:20 27.06.2020
660 Clouds 16 1022 87 10000 1.03 175 07:41 27.06.2020
661 Clouds 15 1022 93 10000 0.75 197 07:23 27.06.2020
662 Clouds 15 1022 93 10000 0.75 197 06:38 27.06.2020
663 Clouds 15 1022 87 10000 0.73 195 06:19 27.06.2020
664 Clouds 15 1021 93 10000 1.47 157 04:22 27.06.2020
665 Clouds 15 1021 93 10000 1.47 157 03:51 27.06.2020
666 Clouds 15 1021 87 10000 3.1 200 02:49 27.06.2020
667 Clouds 15 1021 87 10000 3.1 200 02:30 27.06.2020
668 Clouds 13 1021 93 10000 3.1 240 01:42 27.06.2020
669 Clouds 14 1022 87 10000 2.6 240 00:56 27.06.2020
670 Clouds 15 1021 77 10000 1.61 98 00:28 27.06.2020
671 Clouds 16 1021 77 10000 1.61 98 23:41 26.06.2020
672 Clouds 18 1021 72 10000 2.06 104 23:22 26.06.2020
673 Clouds 18 1021 72 10000 2.06 104 22:56 26.06.2020
674 Clouds 18 1021 72 10000 2.06 104 22:37 26.06.2020
675 Clouds 19 1021 68 10000 2.69 118 22:19 26.06.2020
676 Clouds 19 1021 68 10000 2.69 118 21:57 26.06.2020
677 Clouds 19 1021 68 10000 2.69 118 21:37 26.06.2020
678 Clouds 19 1020 68 10000 3.2 117 21:19 26.06.2020
679 Clouds 19 1020 68 10000 3.2 117 21:19 26.06.2020
680 Clouds 19 1020 68 10000 3.2 117 20:42 26.06.2020
681 Clouds 19 1020 68 10000 3.43 122 20:19 26.06.2020
682 Clouds 19 1020 68 10000 3.43 122 19:43 26.06.2020
683 Clouds 21 1019 56 10000 3.6 130 19:23 26.06.2020
684 Clouds 21 1019 56 10000 3.6 130 18:55 26.06.2020
685 Clouds 21 1019 56 10000 3.6 130 18:37 26.06.2020
686 Clouds 21 1019 56 10000 1.5 130 18:18 26.06.2020
687 Clouds 21 1019 56 10000 1.5 130 17:43 26.06.2020
688 Clouds 21 1019 56 10000 1.5 130 17:24 26.06.2020
689 Clouds 23 1018 46 10000 7.7 160 16:48 26.06.2020
690 Clouds 23 1018 46 10000 7.7 160 16:26 26.06.2020
691 Clouds 23 1018 46 10000 4.1 170 15:55 26.06.2020
692 Clouds 23 1018 46 10000 4.1 170 15:37 26.06.2020
693 Clouds 24 1019 50 10000 4.5 137 15:18 26.06.2020
694 Clouds 24 1019 50 10000 4.5 137 14:55 26.06.2020
695 Clouds 24 1019 50 10000 4.5 137 14:37 26.06.2020
696 Clouds 23 1020 53 10000 2.6 180 14:19 26.06.2020
697 Clouds 23 1020 53 10000 2.6 180 13:43 26.06.2020
698 Clouds 22 1021 53 10000 3.81 144 13:18 26.06.2020
699 Clouds 22 1021 53 10000 3.81 144 13:18 26.06.2020
700 Clouds 22 1021 53 10000 3.81 144 12:41 26.06.2020
701 Clouds 22 1021 56 10000 3.1 190 12:23 26.06.2020
702 Clouds 22 1021 56 10000 3.1 190 11:59 26.06.2020
703 Clouds 22 1021 56 10000 3.1 190 11:40 26.06.2020
704 Clouds 20 1023 68 10000 2.1 240 11:22 26.06.2020
705 Clouds 20 1023 68 10000 2.1 240 10:58 26.06.2020
706 Clouds 20 1023 68 10000 2.1 240 10:39 26.06.2020
707 Clouds 18 1023 77 10000 3.6 230 10:19 26.06.2020
708 Clouds 18 1023 77 10000 3.6 230 09:45 26.06.2020
709 Clouds 18 1023 77 10000 3.6 230 09:26 26.06.2020
710 Clouds 17 1023 87 10000 3.1 240 08:59 26.06.2020
711 Clouds 17 1023 87 10000 3.1 240 08:41 26.06.2020
712 Clouds 17 1023 87 10000 3.1 240 08:23 26.06.2020
713 Clouds 15 1023 87 10000 4.1 210 07:44 26.06.2020
714 Clouds 13 1022 87 10000 2.1 230 07:22 26.06.2020
715 Clouds 12 1022 87 10000 2.1 230 06:47 26.06.2020
716 Clouds 11 1021 93 10000 2.6 220 06:28 26.06.2020
717 Clear 10 1022 93 10000 2.6 250 05:49 26.06.2020
718 Clear 11 1022 93 10000 2.6 240 04:44 26.06.2020
719 Clouds 13 1021 93 10000 1.5 330 02:27 26.06.2020
720 Clouds 12 1022 87 10000 3.1 250 01:25 26.06.2020
721 Clouds 13 1022 87 10000 2.1 260 00:42 26.06.2020
722 Clouds 13 1022 93 10000 3.1 260 00:22 26.06.2020
723 Clouds 13 1022 93 10000 3.1 260 23:46 25.06.2020
724 Clouds 15 1023 72 10000 2.6 240 23:21 25.06.2020
725 Clouds 15 1023 72 10000 2.6 240 22:57 25.06.2020
726 Clouds 15 1023 72 10000 2.6 240 22:38 25.06.2020
727 Clouds 15 1023 77 10000 2.6 240 22:20 25.06.2020
728 Clouds 15 1023 77 10000 2.6 240 21:57 25.06.2020
729 Clouds 17 1021 77 10000 2.6 170 21:39 25.06.2020
730 Clouds 17 1021 77 10000 2.6 170 21:20 25.06.2020
731 Clouds 17 1021 77 10000 2.6 170 20:55 25.06.2020
732 Clouds 17 1021 77 10000 2.6 170 20:37 25.06.2020
733 Clouds 19 1021 63 10000 2.6 140 20:19 25.06.2020
734 Clouds 19 1020 63 10000 2.6 140 19:41 25.06.2020
735 Clouds 20 1020 60 10000 2.6 140 19:20 25.06.2020
736 Clouds 21 1020 56 10000 3.1 140 18:59 25.06.2020
737 Clouds 22 1019 53 10000 6.2 150 18:38 25.06.2020
738 Clouds 22 1019 53 10000 6.2 150 18:19 25.06.2020
739 Clouds 22 1019 53 10000 6.2 150 17:44 25.06.2020
740 Clouds 22 1019 53 10000 6.2 150 17:44 25.06.2020
741 Clouds 23 1019 43 10000 4.1 150 17:20 25.06.2020
742 Clouds 23 1019 43 10000 4.1 150 16:58 25.06.2020
743 Clouds 23 1019 43 10000 4.1 150 16:37 25.06.2020
744 Clouds 23 1019 46 10000 5.1 170 16:19 25.06.2020
745 Clouds 23 1019 46 10000 5.1 170 15:42 25.06.2020
746 Clouds 23 1020 49 10000 6.2 160 15:22 25.06.2020
747 Clouds 24 1020 47 10000 2.1 170 14:46 25.06.2020
748 Clouds 23 1021 53 10000 4.1 190 14:25 25.06.2020
749 Clouds 23 1021 53 10000 4.1 190 13:59 25.06.2020
750 Clouds 22 1021 53 10000 4.1 190 13:41 25.06.2020
751 Clouds 22 1022 60 10000 6.2 170 13:20 25.06.2020
752 Clouds 22 1022 60 10000 6.2 170 12:57 25.06.2020
753 Clouds 22 1022 60 10000 6.2 170 12:39 25.06.2020
754 Clouds 21 1022 60 10000 5.7 220 12:19 25.06.2020
755 Clouds 21 1022 60 10000 5.7 220 11:42 25.06.2020
756 Clouds 20 1022 64 10000 4.1 190 11:21 25.06.2020
757 Clouds 20 1022 64 10000 4.1 190 10:44 25.06.2020
758 Clouds 20 1022 64 10000 4.1 190 10:26 25.06.2020
759 Clouds 18 1023 77 10000 3.6 200 09:58 25.06.2020
760 Clouds 18 1023 77 10000 3.6 200 09:40 25.06.2020
761 Clouds 17 1023 82 10000 1.5 180 09:18 25.06.2020
762 Clouds 17 1023 82 10000 1.5 180 08:43 25.06.2020
763 Clouds 15 1023 93 10000 3.1 200 08:19 25.06.2020
764 Clouds 15 1023 93 10000 3.1 200 07:44 25.06.2020
765 Clouds 15 1023 87 10000 2.6 200 07:26 25.06.2020
766 Clouds 15 1023 87 10000 2.6 200 06:45 25.06.2020
767 Clouds 15 1023 87 10000 2.6 200 06:25 25.06.2020
768 Clouds 12 1022 93 10000 2.6 230 05:39 25.06.2020
769 Clouds 11 1013 92 0 0.48 187 03:55 25.06.2020
770 Clouds 12 1013 91 0 0.69 186 03:25 25.06.2020
771 Clouds 12 1022 100 10000 3.6 240 02:41 25.06.2020
772 Clouds 13 1022 87 10000 2.1 260 01:46 25.06.2020
773 Clouds 13 1023 87 10000 3.1 270 01:19 25.06.2020
774 Clouds 13 1023 87 10000 3.1 270 01:19 25.06.2020
775 Clouds 13 1023 93 10000 2.6 240 00:40 25.06.2020
776 Clouds 14 1023 87 10000 2.6 230 00:18 25.06.2020
777 Clouds 14 1023 87 10000 2.6 250 23:42 24.06.2020
778 Clouds 14 1023 87 10000 2.6 250 23:42 24.06.2020
779 Clouds 14 1023 87 10000 2.6 250 23:23 24.06.2020
780 Clouds 16 1023 77 10000 1 220 22:57 24.06.2020
781 Clouds 17 1023 77 10000 1.5 200 22:38 24.06.2020
782 Clouds 18 1023 77 10000 1.5 200 22:19 24.06.2020
783 Clouds 18 1023 77 10000 1.5 200 21:55 24.06.2020
784 Clouds 18 1023 77 10000 1.5 200 21:36 24.06.2020
785 Clouds 19 1021 72 10000 4.1 180 21:18 24.06.2020
786 Clouds 19 1021 72 10000 4.1 180 20:56 24.06.2020
787 Clouds 19 1021 72 10000 4.1 180 20:38 24.06.2020
788 Clouds 19 1022 72 10000 2.81 137 20:19 24.06.2020
789 Clouds 19 1022 72 10000 2.81 137 19:55 24.06.2020
790 Clouds 19 1022 72 10000 2.81 137 19:36 24.06.2020
791 Clouds 20 1021 64 10000 3.1 120 19:18 24.06.2020
792 Clouds 20 1021 64 10000 3.1 120 18:56 24.06.2020
793 Clouds 20 1021 64 10000 3.1 120 18:37 24.06.2020
794 Clouds 22 1021 53 10000 8.2 140 18:19 24.06.2020
795 Clouds 23 1021 53 10000 8.2 140 17:41 24.06.2020
796 Clouds 23 1021 53 10000 8.2 140 17:19 24.06.2020
797 Clouds 23 1021 53 10000 8.2 140 16:58 24.06.2020
798 Clouds 23 1021 53 10000 8.2 140 16:39 24.06.2020
799 Clouds 24 1022 50 10000 7.2 150 16:21 24.06.2020
800 Clouds 24 1022 50 10000 7.2 150 15:57 24.06.2020
801 Clouds 24 1022 50 10000 7.2 150 15:38 24.06.2020
802 Clouds 24 1021 47 10000 5.1 170 15:20 24.06.2020
803 Clouds 24 1021 47 10000 5.1 170 14:54 24.06.2020
804 Clouds 24 1021 47 10000 5.1 170 14:36 24.06.2020
805 Clouds 23 1023 60 10000 4.1 160 14:18 24.06.2020
806 Clouds 23 1023 60 10000 4.1 160 13:41 24.06.2020
807 Clouds 23 1023 60 10000 3.1 150 13:19 24.06.2020
808 Clouds 23 1023 60 10000 3.1 150 12:41 24.06.2020
809 Clouds 22 1023 60 10000 2.6 170 12:20 24.06.2020
810 Clouds 22 1023 60 10000 2.6 170 11:57 24.06.2020
811 Clouds 22 1023 60 10000 2.6 170 11:38 24.06.2020
812 Clouds 22 1023 60 10000 2.6 170 11:38 24.06.2020
813 Clouds 20 1024 72 10000 3.04 157 11:19 24.06.2020
814 Clouds 20 1024 72 10000 3.04 157 10:43 24.06.2020
815 Clouds 19 1025 77 10000 3.25 166 10:19 24.06.2020
816 Clouds 19 1025 77 10000 3.25 166 09:45 24.06.2020
817 Clouds 17 1024 88 10000 2.82 171 09:23 24.06.2020
818 Clouds 17 1024 88 10000 2.82 171 08:54 24.06.2020
819 Clouds 17 1024 88 10000 2.82 171 08:36 24.06.2020
820 Clouds 16 1024 93 10000 2.48 159 08:18 24.06.2020
821 Clouds 16 1024 93 10000 2.48 159 07:42 24.06.2020
822 Clouds 16 1025 87 10000 1.94 137 07:23 24.06.2020
823 Clouds 16 1025 87 10000 1.94 137 06:40 24.06.2020
824 Clouds 15 1023 87 10000 0.71 134 06:22 24.06.2020
825 Clouds 14 1023 93 10000 2.6 210 05:38 24.06.2020
826 Clouds 16 1023 93 10000 2.1 220 04:38 24.06.2020
827 Clouds 16 1022 93 10000 2.6 190 03:37 24.06.2020
828 Clouds 16 1022 93 10000 2.6 190 02:53 24.06.2020
829 Clouds 13 1014 92 0 1.1 121 02:18 24.06.2020
830 Clouds 16 1023 93 10000 3.6 200 00:52 24.06.2020
831 Clouds 16 1023 93 10000 3.6 200 00:33 24.06.2020
832 Clouds 16 1023 93 10000 2.6 240 23:49 23.06.2020
833 Clouds 17 1024 93 10000 2.6 180 23:22 23.06.2020
834 Clouds 17 1024 93 10000 2.6 180 22:59 23.06.2020
835 Clouds 18 1024 93 10000 2.6 180 22:41 23.06.2020
836 Clouds 18 1023 93 10000 2.6 170 22:18 23.06.2020
837 Clouds 18 1023 93 10000 2.6 170 21:54 23.06.2020
838 Clouds 18 1022 88 10000 2.11 139 21:36 23.06.2020
839 Clouds 18 1022 88 10000 2.75 134 21:18 23.06.2020
840 Clouds 18 1022 88 10000 2.75 134 20:54 23.06.2020
841 Clouds 18 1022 88 10000 2.75 134 20:36 23.06.2020
842 Clouds 20 1022 72 10000 3.6 180 20:18 23.06.2020
843 Clouds 20 1022 72 10000 3.6 180 19:41 23.06.2020
844 Clouds 20 1020 72 10000 2.2 148 19:23 23.06.2020
845 Clouds 20 1020 72 10000 2.2 148 18:38 23.06.2020
846 Clouds 23 1020 53 10000 3.6 160 18:19 23.06.2020
847 Clouds 23 1020 53 10000 3.6 160 18:19 23.06.2020
848 Clouds 23 1020 53 10000 3.6 160 17:43 23.06.2020
849 Clouds 23 1020 53 10000 3.6 160 17:25 23.06.2020
850 Clouds 23 1020 56 10000 3.6 140 16:57 23.06.2020
851 Clouds 23 1020 56 10000 3.6 140 16:38 23.06.2020
852 Clouds 23 1020 49 10000 4.6 180 16:20 23.06.2020
853 Clouds 23 1020 49 10000 4.6 180 15:57 23.06.2020
854 Clouds 23 1020 49 10000 4.6 180 15:39 23.06.2020
855 Clouds 23 1021 60 10000 3.6 180 15:18 23.06.2020
856 Clouds 23 1021 60 10000 3.6 180 14:43 23.06.2020
857 Clouds 22 1021 60 10000 5.1 290 14:20 23.06.2020
858 Clouds 22 1021 60 10000 5.1 290 13:58 23.06.2020
859 Clouds 22 1021 60 10000 5.1 290 13:40 23.06.2020
860 Clouds 22 1022 60 10000 3.43 182 13:22 23.06.2020
861 Clouds 22 1022 60 10000 3.43 182 12:45 23.06.2020
862 Clouds 21 1023 64 10000 2.97 180 12:23 23.06.2020
863 Clouds 21 1023 64 10000 2.97 180 11:59 23.06.2020
864 Clouds 21 1023 64 10000 2.97 180 11:40 23.06.2020
865 Clouds 20 1023 68 10000 3.6 280 11:19 23.06.2020
866 Clouds 20 1023 68 10000 3.6 280 10:58 23.06.2020
867 Clouds 20 1023 72 10000 5.1 200 10:39 23.06.2020
868 Clouds 19 1023 72 10000 5.1 200 10:21 23.06.2020
869 Clouds 19 1023 72 10000 5.1 200 09:55 23.06.2020
870 Clouds 19 1023 72 10000 5.1 200 09:36 23.06.2020
871 Clouds 17 1023 82 10000 0.97 157 09:18 23.06.2020
872 Clouds 17 1023 82 10000 0.97 157 08:42 23.06.2020
873 Clouds 15 1023 87 10000 0.91 154 08:22 23.06.2020
874 Clouds 15 1023 87 10000 0.91 154 07:44 23.06.2020
875 Clouds 13 1015 93 0 0.45 200 07:24 23.06.2020
876 Clouds 13 1014 93 0 0.45 200 06:51 23.06.2020
877 Clouds 13 1014 92 0 0.45 200 06:31 23.06.2020
878 Clouds 13 1014 92 0 0.71 177 05:48 23.06.2020
879 Clouds 13 1013 92 0 0.98 172 04:41 23.06.2020
880 Clouds 15 1021 93 10000 1.33 167 03:19 23.06.2020
881 Clouds 15 1021 93 10000 1.33 167 02:46 23.06.2020
882 Clouds 15 1021 93 10000 1.25 149 02:26 23.06.2020
883 Clouds 17 1021 82 10000 1 100 01:44 23.06.2020
884 Clouds 17 1022 88 10000 1.5 60 01:20 23.06.2020
885 Clouds 18 1021 82 10000 0.92 92 00:25 23.06.2020
886 Clouds 18 1021 82 10000 0.92 92 23:59 22.06.2020
887 Clouds 18 1021 82 10000 0.92 92 23:39 22.06.2020
888 Clouds 18 1022 88 10000 1.5 310 23:19 22.06.2020
889 Clouds 18 1022 88 10000 1.5 310 22:58 22.06.2020
890 Clouds 18 1023 88 10000 3.6 330 22:40 22.06.2020
891 Clouds 18 1023 88 10000 3.6 330 22:40 22.06.2020
892 Clouds 18 1022 88 10000 1.5 340 22:20 22.06.2020
893 Clouds 18 1022 88 10000 1.5 340 21:58 22.06.2020
894 Clouds 18 1021 88 10000 1.33 115 21:39 22.06.2020
895 Clouds 18 1021 88 10000 1.38 94 21:21 22.06.2020
896 Clouds 18 1021 88 10000 1.38 94 20:54 22.06.2020
897 Clouds 18 1021 88 10000 1.24 81 20:36 22.06.2020
898 Clouds 19 1021 82 10000 1.24 81 20:18 22.06.2020
899 Clouds 19 1021 82 10000 1.24 81 19:42 22.06.2020
900 Rain 14 1014 91 0 1.13 98 19:19 22.06.2020
901 Rain 14 1014 91 0 1.13 98 18:56 22.06.2020
902 Clouds 21 1019 68 10000 3.1 330 18:36 22.06.2020
903 Clouds 21 1019 68 10000 3.1 330 18:18 22.06.2020
904 Clouds 21 1019 68 10000 3.1 330 17:55 22.06.2020
905 Clouds 23 1019 60 10000 3.1 180 17:36 22.06.2020
906 Clouds 23 1019 60 10000 3.1 180 17:18 22.06.2020
907 Clouds 24 1019 57 10000 3.6 190 16:41 22.06.2020
908 Clouds 23 1020 56 10000 4.1 150 16:18 22.06.2020
909 Clouds 24 1020 56 10000 4.1 150 15:55 22.06.2020
910 Clouds 24 1020 57 10000 4.1 210 15:37 22.06.2020
911 Clouds 24 1020 57 10000 4.1 210 15:19 22.06.2020
912 Clouds 23 1021 64 10000 2.1 270 14:39 22.06.2020
913 Clouds 23 1021 64 10000 2.1 270 14:20 22.06.2020
914 Clouds 23 1021 64 10000 2.1 270 13:56 22.06.2020
915 Clouds 22 1021 68 10000 4.1 180 13:37 22.06.2020
916 Clouds 22 1021 68 10000 4.1 180 13:19 22.06.2020
917 Clouds 21 1023 73 10000 5.1 210 12:42 22.06.2020
918 Clouds 21 1023 73 10000 5.1 210 12:23 22.06.2020
919 Clouds 21 1023 73 10000 5.1 210 11:57 22.06.2020
920 Clouds 20 1023 72 10000 5.1 150 11:37 22.06.2020
921 Clouds 20 1023 72 10000 5.1 150 11:18 22.06.2020
922 Clouds 20 1023 72 10000 5.1 150 10:54 22.06.2020
923 Clouds 19 1023 82 10000 2.6 150 10:36 22.06.2020
924 Clouds 18 1023 82 10000 2.6 150 10:18 22.06.2020
925 Clouds 17 1024 82 10000 3.6 180 09:41 22.06.2020
926 Clouds 17 1023 88 10000 2.6 170 09:20 22.06.2020
927 Clouds 17 1023 88 10000 2.6 170 08:58 22.06.2020
928 Clouds 15 1022 93 10000 3.1 150 08:39 22.06.2020
929 Clouds 15 1022 93 10000 3.1 150 08:39 22.06.2020
930 Clouds 15 1022 93 10000 3.1 150 08:39 22.06.2020
931 Clouds 15 1022 93 10000 3.1 150 08:20 22.06.2020
932 Clouds 15 1022 93 10000 3.1 150 07:52 22.06.2020
933 Clouds 13 1015 94 0 0.45 187 07:33 22.06.2020
934 Clouds 13 1014 94 0 1.4 215 06:45 22.06.2020
935 Clouds 12 1014 94 0 0.66 218 06:26 22.06.2020
936 Clouds 12 1014 94 0 0.66 218 05:58 22.06.2020
937 Clouds 12 1014 94 0 0.7 253 05:30 22.06.2020
938 Clouds 12 1013 94 0 1.53 291 02:55 22.06.2020
939 Rain 13 1014 94 0 0.86 228 01:25 22.06.2020
940 Rain 13 1014 94 0 0.86 228 00:41 22.06.2020
941 Rain 13 1015 94 0 0.42 168 23:59 21.06.2020
942 Rain 13 1015 94 0 0.42 168 23:39 21.06.2020
943 Rain 13 1015 94 0 1.23 135 23:21 21.06.2020
944 Rain 13 1015 94 0 1.23 135 22:57 21.06.2020
945 Rain 13 1015 93 0 1.23 135 22:38 21.06.2020
946 Rain 13 1015 93 0 1.71 143 22:19 21.06.2020
947 Rain 13 1015 93 0 1.71 143 21:58 21.06.2020
948 Rain 13 1015 93 0 1.71 143 21:40 21.06.2020
949 Rain 13 1015 93 0 1.88 101 21:21 21.06.2020
950 Rain 13 1015 93 0 1.88 101 20:59 21.06.2020
951 Rain 13 1015 93 0 1.88 101 20:38 21.06.2020
952 Rain 13 1015 93 0 1.23 97 20:19 21.06.2020
953 Rain 13 1015 92 0 1.23 97 19:56 21.06.2020
954 Rain 13 1015 92 0 1.23 97 19:38 21.06.2020
955 Rain 13 1014 92 0 0.45 187 19:19 21.06.2020
956 Rain 13 1014 92 0 0.38 37 18:54 21.06.2020
957 Rain 13 1014 92 0 0.45 187 18:36 21.06.2020
958 Rain 14 1014 91 0 0.48 90 18:18 21.06.2020
959 Rain 15 1014 90 0 0.48 90 17:40 21.06.2020
960 Rain 16 1014 89 0 0.87 98 17:20 21.06.2020
961 Clouds 22 1020 83 10000 3.1 240 16:56 21.06.2020
962 Clouds 22 1020 60 10000 3.6 220 16:37 21.06.2020
963 Clouds 22 1020 60 10000 3.6 220 16:19 21.06.2020
964 Clouds 22 1020 60 10000 6.2 220 15:38 21.06.2020
965 Clouds 22 1020 60 10000 6.2 220 15:20 21.06.2020
966 Clouds 22 1020 60 10000 6.2 220 14:55 21.06.2020
967 Clouds 22 1021 83 10000 4.6 220 14:36 21.06.2020
968 Clouds 22 1021 83 10000 4.6 220 14:18 21.06.2020
969 Clouds 23 1022 73 10000 5.1 210 13:41 21.06.2020
970 Clouds 23 1021 60 10000 4.6 220 13:23 21.06.2020
971 Clouds 23 1021 60 10000 4.6 220 12:57 21.06.2020
972 Clouds 22 1022 64 10000 6.7 290 12:39 21.06.2020
973 Clouds 22 1022 64 10000 6.7 290 12:20 21.06.2020
974 Clouds 22 1023 64 10000 3.54 203 11:42 21.06.2020
975 Clouds 22 1023 64 10000 3.51 213 11:24 21.06.2020
976 Clouds 22 1023 64 10000 3.51 213 10:58 21.06.2020
977 Clouds 19 1023 68 10000 3.1 180 10:39 21.06.2020
978 Clouds 19 1023 68 10000 3.1 180 10:21 21.06.2020
979 Clouds 19 1023 68 10000 3.1 180 09:44 21.06.2020
980 Clouds 17 1023 88 10000 2.6 150 09:24 21.06.2020
981 Clouds 17 1023 88 10000 2.6 150 08:59 21.06.2020
982 Clouds 21 1017 63 0 3.82 230 08:41 21.06.2020
983 Clouds 14 1024 93 10000 3.54 247 08:20 21.06.2020
984 Clouds 14 1024 93 10000 3.54 247 07:58 21.06.2020
985 Clouds 14 1023 87 10000 3.54 247 07:39 21.06.2020
986 Clouds 14 1023 87 10000 2.92 258 07:18 21.06.2020
987 Clouds 13 1022 93 10000 2.1 230 06:45 21.06.2020
988 Clouds 13 1022 93 10000 2.63 263 05:57 21.06.2020
989 Clouds 14 1022 93 10000 1 210 04:48 21.06.2020
990 Clouds 15 1023 87 10000 2.6 330 03:20 21.06.2020
991 Clouds 15 1023 87 10000 2.6 330 02:46 21.06.2020
992 Clouds 15 1022 87 10000 1.5 310 01:48 21.06.2020
993 Clouds 15 1022 87 10000 1.5 250 01:20 21.06.2020
994 Clouds 16 1022 87 10000 1.5 280 00:46 21.06.2020
995 Clouds 16 1023 87 10000 2.6 260 00:27 21.06.2020
996 Clouds 16 1023 87 10000 2.1 250 23:57 20.06.2020
997 Clouds 17 1023 82 10000 2.1 180 23:37 20.06.2020
998 Clouds 17 1023 82 10000 2.1 180 23:18 20.06.2020
999 Clouds 17 1024 82 10000 1.5 190 22:55 20.06.2020
1000 Clouds 18 1024 72 10000 1.07 155 22:36 20.06.2020
1001 Clouds 18 1024 72 10000 0.54 138 22:18 20.06.2020
1002 Clouds 18 1024 72 10000 0.54 138 21:55 20.06.2020
1003 Clouds 19 1024 68 10000 0.54 138 21:37 20.06.2020
1004 Clouds 19 1024 68 10000 1.37 66 21:18 20.06.2020
1005 Clouds 19 1024 68 10000 1.37 66 20:54 20.06.2020
1006 Clouds 20 1023 72 10000 3.1 330 20:36 20.06.2020
1007 Clouds 20 1023 72 10000 3.1 330 20:36 20.06.2020
1008 Clouds 20 1023 72 10000 3.1 330 20:18 20.06.2020
1009 Clouds 20 1023 72 10000 3.1 330 20:18 20.06.2020
1010 Clouds 18 1023 82 10000 3.1 270 19:42 20.06.2020
1011 Clouds 20 1022 60 10000 2.6 280 19:21 20.06.2020
1012 Clouds 22 1022 60 10000 2.6 240 18:43 20.06.2020
1013 Clouds 22 1022 60 10000 2.6 240 18:21 20.06.2020
1014 Clouds 22 1022 60 10000 2.6 240 17:59 20.06.2020
1015 Clouds 23 1022 56 10000 2.6 180 17:40 20.06.2020
1016 Clouds 23 1022 56 10000 2.6 180 17:21 20.06.2020
1017 Clouds 23 1022 56 10000 2.6 180 16:58 20.06.2020
1018 Clouds 23 1022 60 10000 4.1 240 16:38 20.06.2020
1019 Clouds 23 1022 60 10000 4.1 240 16:18 20.06.2020
1020 Clouds 24 1021 57 10000 3.1 200 15:42 20.06.2020
1021 Clouds 23 1022 60 10000 3.6 230 15:18 20.06.2020
1022 Clouds 23 1022 60 10000 3.6 230 14:55 20.06.2020
1023 Clouds 22 1023 60 10000 3.6 250 14:36 20.06.2020
1024 Clouds 22 1023 60 10000 3.6 250 14:18 20.06.2020
1025 Rain 17 1015 83 0 3.64 220 13:41 20.06.2020
1026 Clouds 22 1023 60 10000 3.6 180 13:19 20.06.2020
1027 Rain 23 1014 57 0 4.04 227 12:43 20.06.2020
1028 Clouds 21 1024 64 10000 7.2 240 12:22 20.06.2020
1029 Clouds 21 1024 64 10000 7.2 240 11:58 20.06.2020
1030 Clouds 21 1024 64 10000 5.7 210 11:38 20.06.2020
1031 Clouds 21 1024 64 10000 5.7 210 11:20 20.06.2020
1032 Clouds 21 1024 64 10000 5.7 210 10:55 20.06.2020
1033 Clouds 18 1024 82 10000 7.2 240 10:37 20.06.2020
1034 Clouds 18 1024 82 10000 7.2 240 10:18 20.06.2020
1035 Clouds 17 1024 82 10000 6.2 200 09:40 20.06.2020
1036 Clouds 17 1024 82 10000 6.2 200 09:22 20.06.2020
1037 Clouds 17 1024 82 10000 6.2 200 08:56 20.06.2020
1038 Clouds 15 1023 93 10000 3.6 190 08:37 20.06.2020
1039 Clouds 15 1023 93 10000 3.6 190 08:18 20.06.2020
1040 Clouds 15 1023 93 10000 3.6 190 07:44 20.06.2020
1041 Clouds 14 1023 87 10000 3.78 250 07:25 20.06.2020
1042 Clouds 14 1023 87 10000 3.06 255 06:24 20.06.2020
1043 Clouds 14 1023 87 10000 3.06 255 05:55 20.06.2020
1044 Clouds 15 1021 87 10000 2.73 259 05:30 20.06.2020
1045 Clouds 16 1021 77 10000 4.1 300 03:21 20.06.2020
1046 Clouds 15 1023 87 10000 2.1 270 01:52 20.06.2020
1047 Clouds 15 1023 87 10000 1.5 270 01:33 20.06.2020
1048 Drizzle 17 1023 77 10000 0.46 4 00:22 20.06.2020
1049 Drizzle 17 1023 77 10000 0.46 4 23:58 19.06.2020
1050 Clouds 18 1023 77 10000 2.6 210 23:39 19.06.2020
1051 Clouds 18 1023 77 10000 2.6 210 23:19 19.06.2020
1052 Clouds 18 1023 77 10000 2.6 210 22:54 19.06.2020
1053 Clouds 18 1023 77 10000 3.1 200 22:36 19.06.2020
1054 Clouds 18 1023 77 10000 3.1 200 22:18 19.06.2020
1055 Clouds 19 1024 77 10000 2.1 240 21:40 19.06.2020
1056 Clouds 19 1022 72 10000 1.48 72 21:19 19.06.2020
1057 Clouds 19 1022 72 10000 1.94 83 20:59 19.06.2020
1058 Clouds 19 1021 72 10000 1.94 83 20:40 19.06.2020
1059 Clouds 19 1021 72 10000 1.82 102 20:22 19.06.2020
1060 Clouds 19 1021 72 10000 1.82 102 19:59 19.06.2020
1061 Clouds 21 1022 68 10000 3.1 160 19:41 19.06.2020
1062 Clouds 20 1021 77 10000 2.6 190 19:41 19.06.2020
1063 Clouds 20 1021 77 10000 2.6 190 19:23 19.06.2020
1064 Clouds 20 1021 77 10000 2.6 190 18:59 19.06.2020
1065 Clouds 22 1021 60 10000 3.1 190 18:39 19.06.2020
1066 Clouds 22 1021 60 10000 3.1 190 18:20 19.06.2020
1067 Clouds 23 1020 53 10000 4.1 160 17:42 19.06.2020
1068 Clouds 23 1020 53 10000 4.1 160 17:23 19.06.2020
1069 Clouds 23 1020 53 10000 4.1 160 16:57 19.06.2020
1070 Clouds 24 1021 53 10000 3.1 190 16:39 19.06.2020
1071 Clouds 24 1021 53 10000 3.1 190 16:21 19.06.2020
1072 Clouds 23 1021 56 10000 2.6 180 15:45 19.06.2020
1073 Clouds 23 1021 53 10000 6.2 150 15:26 19.06.2020
1074 Clouds 23 1021 53 10000 6.2 150 14:58 19.06.2020
1075 Clouds 24 1022 53 10000 3.6 160 14:39 19.06.2020
1076 Clouds 23 1023 56 10000 2.6 150 14:21 19.06.2020
1077 Clouds 23 1023 56 10000 2.6 150 13:58 19.06.2020
1078 Clouds 22 1023 56 10000 3.6 180 13:40 19.06.2020
1079 Clouds 21 1023 60 10000 3.6 230 13:22 19.06.2020
1080 Clouds 21 1023 60 10000 3.6 230 12:45 19.06.2020
1081 Clouds 21 1024 60 10000 4.1 200 12:21 19.06.2020
1082 Clouds 21 1025 60 10000 3.6 170 11:56 19.06.2020
1083 Clouds 20 1024 64 10000 2.1 150 11:36 19.06.2020
1084 Clouds 20 1024 64 10000 2.1 150 11:18 19.06.2020
1085 Clouds 18 1025 72 10000 2.1 240 10:41 19.06.2020
1086 Clouds 18 1025 72 10000 2.1 240 10:21 19.06.2020
1087 Clouds 18 1025 72 10000 2.1 240 09:56 19.06.2020
1088 Clouds 16 1025 82 10000 2.35 203 09:37 19.06.2020
1089 Clouds 16 1025 82 10000 1.93 193 09:19 19.06.2020
1090 Clouds 15 1024 87 10000 1.93 193 08:41 19.06.2020
1091 Clouds 15 1024 87 10000 1.49 200 08:23 19.06.2020
1092 Clouds 14 1025 87 10000 2.1 260 07:42 19.06.2020
1093 Clouds 14 1023 87 10000 1.11 202 07:22 19.06.2020
1094 Clouds 14 1023 87 10000 1.11 202 06:59 19.06.2020
1095 Clouds 14 1023 87 10000 0.88 185 06:23 19.06.2020
1096 Clouds 12 1024 93 10000 3.6 220 05:34 19.06.2020
1097 Clouds 13 1024 93 10000 2.6 240 04:21 19.06.2020
1098 Clouds 14 1023 93 10000 1.17 153 02:27 19.06.2020
1099 Clouds 16 1024 87 10000 2.1 240 00:47 19.06.2020
1100 Clouds 16 1024 87 10000 2.1 240 00:22 19.06.2020
1101 Clouds 16 1024 87 10000 2.1 240 23:58 18.06.2020
1102 Clouds 16 1024 87 10000 2.1 240 23:40 18.06.2020
1103 Clouds 16 1025 87 10000 1.51 155 23:22 18.06.2020
1104 Clouds 16 1025 87 10000 1.51 155 22:57 18.06.2020
1105 Clouds 16 1024 82 10000 1.51 155 22:36 18.06.2020
1106 Clouds 16 1024 82 10000 1.81 146 22:18 18.06.2020
1107 Clouds 17 1023 77 10000 1.81 146 21:38 18.06.2020
1108 Clouds 17 1023 77 10000 2.03 144 21:19 18.06.2020
1109 Clouds 17 1023 77 10000 2.03 144 20:55 18.06.2020
1110 Clouds 17 1023 77 10000 2.6 210 20:36 18.06.2020
1111 Clouds 17 1023 77 10000 2.6 210 20:18 18.06.2020
1112 Clouds 18 1022 72 10000 1.5 150 19:42 18.06.2020
1113 Clouds 18 1022 72 10000 1.5 150 19:20 18.06.2020
1114 Clouds 18 1022 72 10000 1.5 150 18:57 18.06.2020
1115 Clouds 19 1022 68 10000 1.5 150 18:36 18.06.2020
1116 Clouds 19 1022 68 10000 1.5 150 18:18 18.06.2020
1117 Clouds 21 1022 60 10000 3.6 150 17:43 18.06.2020
1118 Clouds 21 1021 60 10000 1.5 150 17:25 18.06.2020
1119 Clouds 21 1021 60 10000 1.5 150 16:55 18.06.2020
1120 Clouds 21 1021 60 10000 1.5 180 16:37 18.06.2020
1121 Clouds 21 1021 60 10000 1.5 180 16:18 18.06.2020
1122 Clouds 21 1022 60 10000 6.2 120 15:40 18.06.2020
1123 Clouds 21 1022 60 10000 6.2 120 15:21 18.06.2020
1124 Clouds 21 1022 60 10000 6.2 120 14:58 18.06.2020
1125 Clouds 21 1022 60 10000 6.2 120 14:58 18.06.2020
1126 Clouds 22 1022 60 10000 4.1 150 14:40 18.06.2020
1127 Clouds 22 1022 60 10000 4.1 150 14:21 18.06.2020
1128 Clouds 22 1022 60 10000 4.1 150 13:56 18.06.2020
1129 Clouds 21 1023 60 10000 4.1 210 13:38 18.06.2020
1130 Clouds 21 1023 60 10000 4.1 210 13:19 18.06.2020
1131 Clouds 21 1023 60 10000 4.1 210 12:55 18.06.2020
1132 Clouds 21 1024 60 10000 2.6 120 12:36 18.06.2020
1133 Clouds 21 1024 60 10000 2.6 120 12:18 18.06.2020
1134 Clouds 19 1024 68 10000 2.81 168 11:44 18.06.2020
1135 Clouds 19 1024 68 10000 2.25 175 11:21 18.06.2020
1136 Clouds 18 1025 72 10000 3.1 200 10:41 18.06.2020
1137 Clouds 17 1024 77 10000 1.97 188 10:20 18.06.2020
1138 Clouds 17 1024 77 10000 1.97 188 09:58 18.06.2020
1139 Clouds 16 1025 82 10000 1.97 188 09:40 18.06.2020
1140 Clouds 15 1025 82 10000 1.54 205 09:21 18.06.2020
1141 Clouds 14 1024 93 10000 1.54 205 08:41 18.06.2020
1142 Clouds 14 1024 93 10000 1.41 181 08:22 18.06.2020
1143 Clouds 14 1024 93 10000 1.41 181 07:57 18.06.2020
1144 Clouds 13 1023 93 10000 1.41 181 07:37 18.06.2020
1145 Clouds 13 1023 93 10000 1.41 181 07:37 18.06.2020
1146 Clouds 13 1023 93 10000 1.25 160 07:19 18.06.2020
1147 Clouds 14 1023 87 10000 0.71 149 06:22 18.06.2020
1148 Clouds 15 1023 82 10000 3.1 170 04:26 18.06.2020
1149 Clear 15 1022 87 10000 1.5 210 02:51 18.06.2020
1150 Clouds 14 1023 93 10000 3.1 240 01:30 18.06.2020
1151 Clouds 13 1024 87 10000 4.1 230 00:59 18.06.2020
1152 Clouds 13 1024 87 10000 3.1 240 00:39 18.06.2020
1153 Clouds 13 1024 87 10000 3.1 240 00:21 18.06.2020
1154 Clouds 14 1024 87 10000 3.1 230 23:45 17.06.2020
1155 Clouds 15 1023 87 10000 2.6 230 23:21 17.06.2020
1156 Clouds 15 1023 87 10000 2.6 230 22:58 17.06.2020
1157 Clouds 16 1023 82 10000 2.6 220 22:40 17.06.2020
1158 Clouds 16 1023 82 10000 2.6 220 22:21 17.06.2020
1159 Clouds 16 1023 82 10000 2.6 220 22:21 17.06.2020
1160 Clouds 16 1023 82 10000 2.6 220 22:21 17.06.2020
1161 Clouds 17 1023 82 10000 2.6 220 21:55 17.06.2020
1162 Clouds 17 1023 82 10000 0.9 72 21:37 17.06.2020
1163 Clouds 17 1023 82 10000 1.25 100 21:19 17.06.2020
1164 Clouds 18 1023 82 10000 2.6 180 20:38 17.06.2020
1165 Clouds 18 1023 82 10000 2.6 180 20:38 17.06.2020
1166 Clouds 18 1023 82 10000 2.6 180 20:20 17.06.2020
1167 Clouds 18 1023 82 10000 2.6 180 19:57 17.06.2020
1168 Clouds 19 1022 72 10000 2.6 180 19:39 17.06.2020
1169 Clouds 19 1022 72 10000 2.6 180 19:19 17.06.2020
1170 Clouds 21 1020 64 10000 3.6 150 18:45 17.06.2020
1171 Clouds 21 1020 64 10000 3.6 150 18:27 17.06.2020
1172 Clouds 21 1020 64 10000 3.6 150 17:46 17.06.2020
1173 Clouds 22 1021 60 10000 4.1 160 17:23 17.06.2020
1174 Clouds 22 1021 60 10000 4.1 160 16:58 17.06.2020
1175 Clouds 22 1021 60 10000 5.7 180 16:39 17.06.2020
1176 Clouds 22 1021 60 10000 5.7 180 16:21 17.06.2020
1177 Clouds 22 1021 60 10000 5.7 180 15:58 17.06.2020
1178 Clouds 22 1021 56 10000 5.1 190 15:39 17.06.2020
1179 Clouds 22 1021 56 10000 5.1 190 15:20 17.06.2020
1180 Clouds 22 1021 56 10000 5.1 190 14:58 17.06.2020
1181 Clouds 21 1021 60 10000 3.1 130 14:39 17.06.2020
1182 Clouds 21 1021 60 10000 3.1 130 14:19 17.06.2020
1183 Clouds 21 1021 60 10000 3.1 130 13:56 17.06.2020
1184 Clouds 20 1023 68 10000 2.6 190 13:37 17.06.2020
1185 Clouds 20 1023 68 10000 2.6 190 13:19 17.06.2020
1186 Clouds 20 1023 64 10000 3.6 200 12:42 17.06.2020
1187 Clouds 20 1023 64 10000 3.6 200 12:23 17.06.2020
1188 Clouds 20 1023 64 10000 3.6 200 11:57 17.06.2020
1189 Clouds 19 1024 68 10000 2.1 200 11:38 17.06.2020
1190 Clouds 19 1024 68 10000 2.1 200 11:20 17.06.2020
1191 Clouds 18 1024 77 10000 2.6 250 10:38 17.06.2020
1192 Clouds 18 1024 77 10000 2.6 250 10:19 17.06.2020
1193 Clouds 18 1024 77 10000 2.6 250 09:58 17.06.2020
1194 Clouds 17 1024 87 10000 2.37 183 09:40 17.06.2020
1195 Clouds 17 1024 87 10000 2.26 184 09:20 17.06.2020
1196 Clouds 16 1024 87 10000 2.05 180 08:45 17.06.2020
1197 Clouds 14 1023 93 10000 2.13 190 08:20 17.06.2020
1198 Clouds 14 1023 93 10000 2.13 190 07:56 17.06.2020
1199 Clouds 14 1022 93 10000 2.13 190 07:37 17.06.2020
1200 Clouds 14 1022 93 10000 1.34 158 07:19 17.06.2020
1201 Clouds 13 1022 93 10000 1.34 158 06:55 17.06.2020
1202 Clouds 13 1022 93 10000 1.34 158 06:36 17.06.2020
1203 Clouds 13 1022 93 10000 0.81 170 06:18 17.06.2020
1204 Clouds 14 1022 87 10000 2.1 190 04:53 17.06.2020
1205 Clouds 14 1022 93 10000 1.5 240 02:49 17.06.2020
1206 Clouds 16 1023 87 10000 2.1 270 01:29 17.06.2020
1207 Clouds 15 1023 87 10000 0.59 105 00:38 17.06.2020
1208 Clouds 15 1023 87 10000 0.88 26 00:19 17.06.2020
1209 Clouds 15 1023 87 10000 0.88 26 23:55 16.06.2020
1210 Clouds 16 1023 87 10000 0.88 26 23:37 16.06.2020
1211 Clouds 16 1023 87 10000 0.78 35 23:18 16.06.2020
1212 Clouds 16 1023 87 10000 3.6 230 22:40 16.06.2020
1213 Clouds 16 1023 87 10000 3.6 230 22:19 16.06.2020
1214 Clouds 16 1023 87 10000 3.6 230 22:19 16.06.2020
1215 Clouds 16 1023 87 10000 3.6 230 21:58 16.06.2020
1216 Clouds 17 1024 82 10000 2.1 160 21:40 16.06.2020
1217 Clouds 17 1023 82 10000 2.1 180 21:22 16.06.2020
1218 Clouds 17 1023 82 10000 2.1 180 20:57 16.06.2020
1219 Clouds 17 1022 88 10000 1.69 90 20:39 16.06.2020
1220 Clouds 17 1022 88 10000 1.32 103 20:18 16.06.2020
1221 Clouds 17 1022 88 10000 1.32 103 19:56 16.06.2020
1222 Clouds 17 1022 82 10000 1.32 103 19:38 16.06.2020
1223 Clouds 17 1022 82 10000 1.19 111 19:18 16.06.2020
1224 Clouds 17 1022 82 10000 1.19 111 18:45 16.06.2020
1225 Clouds 18 1022 77 10000 3.6 190 18:45 16.06.2020
1226 Clouds 19 1021 72 10000 4.6 170 18:21 16.06.2020
1227 Clouds 19 1021 72 10000 4.6 170 17:58 16.06.2020
1228 Clouds 20 1021 68 10000 4.6 180 17:39 16.06.2020
1229 Clouds 20 1021 68 10000 4.6 180 17:21 16.06.2020
1230 Clouds 20 1021 68 10000 4.6 180 16:59 16.06.2020
1231 Clouds 21 1021 64 10000 5.1 170 16:40 16.06.2020
1232 Clouds 21 1021 64 10000 5.1 170 16:20 16.06.2020
1233 Clouds 21 1021 64 10000 5.1 170 15:57 16.06.2020
1234 Clouds 21 1021 64 10000 5.7 170 15:39 16.06.2020
1235 Clouds 21 1021 64 10000 5.7 170 15:21 16.06.2020
1236 Clouds 21 1021 64 10000 5.7 170 14:56 16.06.2020
1237 Clouds 16 1015 87 0 3.3 163 14:38 16.06.2020
1238 Clouds 16 1015 88 0 3.06 161 14:19 16.06.2020
1239 Clouds 16 1016 89 0 1.34 163 13:45 16.06.2020
1240 Clouds 20 1023 68 10000 2.93 178 13:25 16.06.2020
1241 Clouds 19 1023 68 10000 2.93 178 12:43 16.06.2020
1242 Clouds 19 1023 68 10000 2.96 193 12:23 16.06.2020
1243 Clouds 19 1023 68 10000 2.96 193 11:59 16.06.2020
1244 Clouds 18 1023 77 10000 2.6 220 11:40 16.06.2020
1245 Clouds 18 1023 77 10000 2.6 220 11:22 16.06.2020
1246 Clouds 18 1023 77 10000 2.6 220 10:59 16.06.2020
1247 Clouds 17 1024 87 10000 4.6 90 10:39 16.06.2020
1248 Clouds 17 1024 87 10000 4.6 90 10:20 16.06.2020
1249 Clouds 16 1024 93 10000 2.38 205 09:45 16.06.2020
1250 Clouds 16 1024 93 10000 1.99 203 09:23 16.06.2020
1251 Clouds 15 1024 93 10000 1.99 203 08:55 16.06.2020
1252 Clouds 14 1023 93 10000 1.99 203 08:34 16.06.2020
1253 Clouds 14 1023 93 10000 1.69 208 07:55 16.06.2020
1254 Clouds 14 1023 93 10000 1.69 208 07:37 16.06.2020
1255 Clouds 14 1023 93 10000 1.4 223 07:19 16.06.2020
1256 Clouds 14 1023 93 10000 1.4 223 06:34 16.06.2020
1257 Clouds 14 1023 93 10000 1.29 228 05:52 16.06.2020
1258 Clouds 15 1023 93 10000 2.1 220 05:19 16.06.2020
1259 Clouds 15 1023 87 10000 1.5 240 04:26 16.06.2020
1260 Clouds 15 1023 87 10000 3.6 200 02:46 16.06.2020
1261 Clouds 15 1023 87 10000 3.6 180 01:34 16.06.2020
1262 Clouds 15 1024 93 10000 2.6 210 00:58 16.06.2020
1263 Clouds 16 1023 87 10000 0.44 92 00:29 16.06.2020
1264 Clouds 16 1023 87 10000 0.44 92 23:59 15.06.2020
1265 Clouds 16 1024 87 10000 2.1 210 23:41 15.06.2020
1266 Clouds 16 1024 87 10000 2.1 210 23:21 15.06.2020
1267 Clouds 16 1024 87 10000 2.1 220 23:21 15.06.2020
1268 Clouds 16 1024 87 10000 1.5 220 22:42 15.06.2020
1269 Clouds 16 1024 87 10000 1.5 220 22:42 15.06.2020
1270 Clouds 16 1024 87 10000 1.5 220 22:23 15.06.2020
1271 Clouds 17 1024 82 10000 1.5 210 21:59 15.06.2020
1272 Clouds 17 1023 82 10000 2.6 210 21:38 15.06.2020
1273 Clouds 17 1023 82 10000 2.6 210 21:20 15.06.2020
1274 Clouds 17 1023 82 10000 2.6 210 20:59 15.06.2020
1275 Clouds 17 1023 82 10000 2.6 210 20:59 15.06.2020
1276 Clouds 18 1023 77 10000 0.64 53 20:39 15.06.2020
1277 Clouds 18 1023 77 10000 1.36 76 20:20 15.06.2020
1278 Clouds 18 1024 77 10000 1.5 180 20:00 15.06.2020
1279 Clouds 18 1023 77 10000 1.36 76 19:40 15.06.2020
1280 Clouds 18 1023 77 10000 2.1 88 19:22 15.06.2020
1281 Clouds 18 1023 77 10000 2.1 88 18:57 15.06.2020
1282 Clouds 12 1017 95 0 2.1 88 18:39 15.06.2020
1283 Clouds 18 1023 72 10000 1.83 100 18:19 15.06.2020
1284 Clouds 18 1023 72 10000 1.83 100 17:57 15.06.2020
1285 Clouds 18 1022 77 10000 5.1 180 17:39 15.06.2020
1286 Clouds 18 1022 77 10000 5.1 180 17:19 15.06.2020
1287 Clouds 18 1022 77 10000 5.1 180 17:19 15.06.2020
1288 Clouds 19 1022 68 10000 3.6 190 16:43 15.06.2020
1289 Clouds 18 1022 72 10000 2.6 210 16:20 15.06.2020
1290 Clouds 19 1023 72 10000 3.6 170 15:58 15.06.2020
1291 Clouds 19 1023 72 10000 4.1 160 15:40 15.06.2020
1292 Clouds 18 1023 77 10000 5.1 180 15:20 15.06.2020
1293 Clouds 18 1023 77 10000 5.1 180 14:57 15.06.2020
1294 Clouds 19 1024 68 10000 5.1 200 14:39 15.06.2020
1295 Clouds 19 1024 68 10000 5.1 200 14:18 15.06.2020
1296 Rain 19 1015 72 0 3.53 151 13:43 15.06.2020
1297 Clouds 19 1024 72 10000 4.1 180 13:24 15.06.2020
1298 Clouds 19 1024 72 10000 4.1 180 12:59 15.06.2020
1299 Clouds 19 1025 72 10000 5.1 170 12:41 15.06.2020
1300 Clouds 19 1025 72 10000 5.1 170 12:21 15.06.2020
1301 Rain 21 1016 63 0 2.94 168 11:46 15.06.2020
1302 Clouds 18 1025 72 10000 2.21 188 11:26 15.06.2020
1303 Clouds 18 1025 72 10000 2.21 188 10:58 15.06.2020
1304 Clouds 17 1025 77 10000 3.6 170 10:39 15.06.2020
1305 Clouds 17 1025 77 10000 3.6 170 10:20 15.06.2020
1306 Clouds 17 1025 77 10000 3.6 170 09:43 15.06.2020
1307 Clouds 16 1025 82 10000 3.6 230 09:23 15.06.2020
1308 Clouds 16 1025 82 10000 3.6 230 08:47 15.06.2020
1309 Clouds 15 1024 87 10000 2.67 208 08:27 15.06.2020
1310 Clouds 15 1024 87 10000 2.67 208 07:57 15.06.2020
1311 Clouds 15 1024 87 10000 2.67 208 07:37 15.06.2020
1312 Clouds 15 1024 87 10000 2.1 210 07:19 15.06.2020
1313 Clouds 15 1024 93 10000 2.6 200 06:28 15.06.2020
1314 Clouds 15 1024 93 10000 2.6 200 05:51 15.06.2020
1315 Clouds 15 1023 93 10000 1.41 161 05:29 15.06.2020
1316 Clouds 16 1024 93 10000 1.23 140 04:22 15.06.2020
1317 Clouds 16 1024 93 10000 1.23 140 03:49 15.06.2020
1318 Clouds 16 1024 93 10000 1.5 340 02:57 15.06.2020
1319 Clouds 16 1023 93 10000 0.82 141 02:32 15.06.2020
1320 Clouds 16 1024 93 10000 0.82 141 01:47 15.06.2020
1321 Clouds 16 1024 93 10000 0.83 120 01:27 15.06.2020
1322 Clouds 16 1024 93 10000 0.83 120 00:45 15.06.2020
1323 Clouds 16 1023 93 10000 1.05 88 00:23 15.06.2020
1324 Clouds 16 1023 93 10000 1.05 88 23:58 14.06.2020
1325 Rain 16 1019 85 0 1.05 88 23:40 14.06.2020
1326 Clouds 17 1024 88 10000 1.22 69 23:22 14.06.2020
1327 Clouds 17 1024 88 10000 1.22 69 22:57 14.06.2020
1328 Clouds 17 1024 93 10000 1.22 69 22:38 14.06.2020
1329 Clouds 17 1024 93 10000 1.43 66 22:18 14.06.2020
1330 Clouds 17 1024 93 10000 1.43 66 21:56 14.06.2020
1331 Clouds 17 1023 93 10000 2.6 130 21:38 14.06.2020
1332 Clouds 17 1023 93 10000 2.6 130 21:18 14.06.2020
1333 Clouds 17 1023 93 10000 2.6 130 20:57 14.06.2020
1334 Clouds 17 1023 93 10000 1.42 100 20:38 14.06.2020
1335 Clouds 17 1023 93 10000 1.9 122 20:19 14.06.2020
1336 Clouds 17 1023 93 10000 1.9 122 19:56 14.06.2020
1337 Clouds 18 1023 77 10000 5.1 40 19:37 14.06.2020
1338 Clouds 19 1023 77 10000 5.1 40 19:19 14.06.2020
1339 Clouds 19 1023 77 10000 5.1 40 18:56 14.06.2020
1340 -273 0 0 0 0 0 18:37 14.06.2020
1341 Clouds 19 1022 72 10000 3.1 170 18:19 14.06.2020
1342 Clouds 20 1022 72 10000 3.1 170 17:55 14.06.2020
1343 Clouds 21 1021 64 10000 5.1 170 17:37 14.06.2020
1344 Clouds 21 1021 64 10000 5.1 170 17:18 14.06.2020
1345 Clouds 21 1022 64 10000 4.6 190 16:40 14.06.2020
1346 Clouds 21 1021 68 10000 5.1 210 16:20 14.06.2020
1347 Clouds 21 1021 68 10000 5.1 210 15:58 14.06.2020
1348 Clouds 20 1021 72 10000 7.7 210 15:40 14.06.2020
1349 Clouds 20 1021 72 10000 7.7 210 15:18 14.06.2020
1350 Clouds 20 1021 72 10000 7.7 210 14:57 14.06.2020
1351 Clouds 20 1022 77 10000 5.1 160 14:38 14.06.2020
1352 Clouds 20 1022 77 10000 5.1 160 14:18 14.06.2020
1353 Clouds 18 1023 88 10000 7.7 180 13:42 14.06.2020
1354 Clouds 18 1023 88 10000 7.7 180 13:22 14.06.2020
1355 Clouds 18 1023 88 10000 7.7 180 12:59 14.06.2020
1356 Clouds 19 1024 77 10000 6.7 180 12:41 14.06.2020
1357 Clouds 18 1023 88 10000 5.1 190 12:23 14.06.2020
1358 Clouds 18 1023 88 10000 5.1 190 11:59 14.06.2020
1359 Clouds 17 1024 93 10000 3.6 170 11:40 14.06.2020
1360 Clouds 17 1024 93 10000 3.6 170 11:22 14.06.2020
1361 Clouds 17 1024 93 10000 3.6 170 10:59 14.06.2020
1362 Clouds 16 1024 93 10000 5.1 160 10:40 14.06.2020
1363 Clouds 16 1024 93 10000 5.1 160 10:18 14.06.2020
1364 Clouds 16 1024 93 10000 5.1 160 09:44 14.06.2020
1365 Clouds 16 1025 93 10000 3.1 140 09:24 14.06.2020
1366 Clouds 16 1024 93 10000 2.6 140 08:43 14.06.2020
1367 Clouds 16 1024 93 10000 2.6 140 08:22 14.06.2020
1368 Clouds 16 1024 93 10000 2.6 140 07:56 14.06.2020
1369 Clouds 16 1024 93 10000 2.34 189 07:35 14.06.2020
1370 Clouds 16 1024 93 10000 1.94 180 06:59 14.06.2020
1371 Clouds 15 1023 100 10000 2.04 173 05:56 14.06.2020
1372 Clouds 15 1022 100 10000 2.02 169 05:34 14.06.2020
1373 Clouds 13 1015 95 0 2.02 169 04:41 14.06.2020
1374 Clouds 13 1014 95 0 1.4 150 03:57 14.06.2020
1375 Clouds 16 1022 100 10000 1.12 160 02:44 14.06.2020
1376 Clouds 16 1022 100 10000 1.08 125 02:23 14.06.2020
1377 Rain 13 1015 94 0 1.34 112 01:31 14.06.2020
1378 Rain 13 1015 94 0 1.34 109 00:49 14.06.2020
1379 Rain 13 1015 94 0 1.26 93 00:30 14.06.2020
1380 Rain 13 1015 94 0 1.26 93 23:56 13.06.2020
1381 Clouds 17 1023 93 10000 1.7 82 23:38 13.06.2020
1382 Clouds 17 1023 93 10000 1.7 82 23:20 13.06.2020
1383 Clouds 17 1023 93 10000 1.7 82 22:54 13.06.2020
1384 Clouds 17 1023 93 10000 1.7 82 22:36 13.06.2020
1385 Clouds 17 1023 93 10000 1.72 65 22:18 13.06.2020
1386 Rain 14 1016 94 0 1.72 65 21:42 13.06.2020
1387 Clouds 17 1022 93 10000 1.8 72 21:24 13.06.2020
1388 Clouds 17 1022 93 10000 1.8 72 20:57 13.06.2020
1389 Clouds 16 1021 100 10000 1.8 72 20:39 13.06.2020
1390 Clouds 16 1021 100 10000 2.05 93 20:18 13.06.2020
1391 Rain 17 1022 93 10000 4.1 210 19:41 13.06.2020
1392 Rain 17 1021 82 5000 5.1 220 19:20 13.06.2020
1393 Rain 17 1021 82 5000 5.1 220 18:59 13.06.2020
1394 Clouds 17 1021 93 9000 3.1 220 18:40 13.06.2020
1395 Rain 17 1020 82 5000 5.1 90 18:20 13.06.2020
1396 Rain 17 1020 82 5000 5.1 90 17:57 13.06.2020
1397 Clouds 22 1020 57 10000 6.2 170 17:39 13.06.2020
1398 Clouds 22 1020 57 10000 6.2 170 17:20 13.06.2020
1399 Clouds 22 1020 57 10000 6.2 170 16:55 13.06.2020
1400 Clouds 23 1019 57 10000 7.2 240 16:37 13.06.2020
1401 Clouds 23 1019 57 10000 7.2 240 16:18 13.06.2020
1402 Clouds 23 1019 64 10000 3.1 190 15:44 13.06.2020
1403 Clouds 24 1020 57 10000 3.1 210 15:25 13.06.2020
1404 Clouds 24 1020 57 10000 3.1 210 14:45 13.06.2020
1405 Clouds 23 1020 60 10000 5.1 210 14:26 13.06.2020
1406 Clouds 23 1020 60 10000 5.1 210 13:59 13.06.2020
1407 Clouds 23 1021 73 10000 1.5 0 13:40 13.06.2020
1408 Clouds 23 1021 60 10000 6.2 210 13:22 13.06.2020
1409 Clouds 21 1022 73 10000 1.5 180 12:44 13.06.2020
1410 Clouds 21 1022 73 10000 1.5 180 12:44 13.06.2020
1411 Clouds 21 1022 68 10000 5.1 230 12:26 13.06.2020
1412 Clouds 21 1022 68 10000 5.1 230 11:59 13.06.2020
1413 Clouds 19 1022 82 10000 3.1 240 11:39 13.06.2020
1414 Clouds 19 1022 82 10000 3.1 240 11:19 13.06.2020
1415 Clouds 19 1022 82 10000 3.1 240 10:57 13.06.2020
1416 Clouds 18 1024 88 10000 2.1 190 10:38 13.06.2020
1417 Clouds 18 1024 88 10000 2.1 190 10:19 13.06.2020
1418 Clouds 17 1023 93 10000 1 0 09:44 13.06.2020
1419 Clouds 16 1024 93 10000 1.66 198 09:25 13.06.2020
1420 Clouds 16 1024 93 10000 1.13 191 08:50 13.06.2020
1421 Clouds 16 1023 93 10000 1.13 191 08:32 13.06.2020
1422 Clouds 16 1023 93 10000 0.53 160 07:55 13.06.2020
1423 Clouds 16 1022 93 10000 3.1 180 07:30 13.06.2020
1424 Clouds 16 1022 93 10000 3.1 180 06:51 13.06.2020
1425 Clouds 16 1021 93 10000 3.1 220 06:33 13.06.2020
1426 Clouds 16 1021 93 10000 3.1 220 05:53 13.06.2020
1427 Clouds 15 1022 100 10000 1 0 05:25 13.06.2020
1428 Clouds 15 1021 93 10000 2.1 240 03:55 13.06.2020
1429 Clouds 16 1021 93 10000 0.81 244 02:55 13.06.2020
1430 Clouds 16 1021 93 10000 0.71 245 02:35 13.06.2020
1431 Clouds 16 1021 87 10000 1 90 01:46 13.06.2020
1432 Clouds 16 1021 87 10000 1 90 01:21 13.06.2020
1433 Clouds 16 1022 87 10000 4.1 310 00:42 13.06.2020
1434 Clouds 16 1022 87 10000 4.1 310 00:42 13.06.2020
1435 Clouds 16 1022 87 10000 4.1 310 00:23 13.06.2020
1436 Clouds 16 1023 87 10000 4.6 190 23:42 12.06.2020
1437 Clouds 17 1023 88 10000 2.6 210 23:19 12.06.2020
1438 Clouds 17 1023 88 10000 2.6 210 22:59 12.06.2020
1439 Clouds 16 1023 93 10000 3.1 240 22:40 12.06.2020
1440 Clouds 16 1023 93 10000 3.1 240 22:19 12.06.2020
1441 Clouds 16 1023 93 10000 3.6 230 21:50 12.06.2020
1442 Clouds 16 1023 87 10000 4.1 210 21:26 12.06.2020
1443 Clouds 16 1023 87 10000 4.1 210 20:59 12.06.2020
1444 Clouds 17 1022 82 10000 3.1 190 20:41 12.06.2020
1445 Clouds 17 1022 82 10000 3.1 190 20:22 12.06.2020
1446 Clouds 17 1022 82 10000 3.1 190 19:57 12.06.2020
1447 Clouds 17 1022 88 10000 2.1 70 19:38 12.06.2020
1448 Clouds 17 1022 88 10000 2.1 70 19:18 12.06.2020
1449 Clouds 18 1019 77 10000 0.99 120 18:39 12.06.2020
1450 Clouds 18 1019 77 10000 1.14 161 18:19 12.06.2020
1451 Rain 18 1014 76 0 1.14 161 17:58 12.06.2020
1452 Rain 18 1014 76 0 1.14 161 17:38 12.06.2020
1453 Rain 21 1013 70 0 1.02 178 17:18 12.06.2020
1454 Rain 21 1013 70 0 1.02 178 16:41 12.06.2020
1455 Rain 22 1012 61 0 1.56 183 16:20 12.06.2020
1456 Thunderstorm 25 1019 47 10000 4.6 220 15:48 12.06.2020
1457 Rain 23 1012 59 0 2.16 191 15:25 12.06.2020
1458 Rain 23 1012 59 0 2.16 191 14:56 12.06.2020
1459 Rain 23 1012 60 0 2.1 164 14:38 12.06.2020
1460 Rain 23 1012 58 0 2.09 171 14:20 12.06.2020
1461 Clouds 24 1021 60 10000 3.6 210 13:42 12.06.2020
1462 Clouds 24 1021 53 10000 5.1 230 13:21 12.06.2020
1463 Rain 18 1013 83 0 0.45 113 12:41 12.06.2020
1464 Rain 18 1013 83 0 0.45 113 12:41 12.06.2020
1465 Rain 18 1013 83 0 0.45 113 12:41 12.06.2020
1466 Clouds 21 1022 73 10000 3.1 180 12:20 12.06.2020
1467 Clouds 21 1022 73 10000 3.1 180 11:58 12.06.2020
1468 Clouds 20 1022 82 10000 4.1 190 11:40 12.06.2020
1469 Clouds 20 1022 82 10000 4.1 190 11:21 12.06.2020
1470 Clouds 17 1015 85 0 0.45 113 10:46 12.06.2020
1471 Clouds 17 1015 85 0 0.45 113 10:25 12.06.2020
1472 Clouds 16 1015 88 0 0.89 113 09:47 12.06.2020
1473 Clouds 16 1015 89 0 1.45 202 09:22 12.06.2020
1474 Clouds 16 1021 93 10000 1.45 202 08:46 12.06.2020
1475 Clouds 16 1021 93 10000 0.63 205 08:25 12.06.2020
1476 Clouds 16 1021 93 10000 0.63 205 07:56 12.06.2020
1477 Clouds 13 1014 95 0 0.13 244 07:38 12.06.2020
1478 Clouds 12 1014 95 0 0.13 244 07:19 12.06.2020
1479 Clouds 12 1013 95 0 0.39 268 06:31 12.06.2020
1480 Clouds 12 1013 95 0 0.39 268 05:57 12.06.2020
1481 Clouds 12 1013 94 0 0.39 268 05:37 12.06.2020
1482 Clouds 12 1013 94 0 0.59 272 05:19 12.06.2020
1483 Clouds 13 1013 94 0 0.88 265 03:33 12.06.2020
1484 Clouds 13 1013 94 0 0.82 243 01:58 12.06.2020
1485 Clouds 13 1013 94 0 0.82 243 01:32 12.06.2020
1486 Clouds 13 1014 94 0 0.22 233 00:55 12.06.2020
1487 Clouds 13 1014 94 0 0.22 233 00:37 12.06.2020
1488 Clouds 13 1014 94 0 0.84 58 00:18 12.06.2020
1489 Clouds 13 1015 93 0 0.84 58 23:41 11.06.2020
1490 Clouds 13 1015 94 0 1.2 88 23:22 11.06.2020
1491 Clouds 13 1015 93 0 1.2 88 22:59 11.06.2020
1492 Clouds 13 1015 93 0 1.2 88 22:39 11.06.2020
1493 Rain 13 1015 93 0 1.96 91 22:20 11.06.2020
1494 Rain 13 1015 93 0 1.96 91 22:20 11.06.2020
1495 Rain 14 1015 92 0 0.45 113 21:57 11.06.2020
1496 Rain 14 1015 92 0 1.96 91 21:38 11.06.2020
1497 Rain 15 1015 90 0 2.62 85 21:20 11.06.2020
1498 Rain 15 1015 90 0 2.62 85 20:45 11.06.2020
1499 Rain 15 1014 88 0 2.85 80 20:22 11.06.2020
1500 Rain 15 1014 89 0 1.34 113 19:58 11.06.2020
1501 Rain 14 1014 90 0 0.45 130 19:40 11.06.2020
1502 Rain 14 1014 90 0 0.45 130 19:22 11.06.2020
1503 Clouds 22 1019 68 10000 7.2 130 18:42 11.06.2020
1504 Clouds 22 1019 68 10000 7.2 130 18:24 11.06.2020
1505 Clouds 22 1019 68 10000 7.2 130 17:57 11.06.2020
1506 Clouds 22 1019 68 10000 7.2 130 17:38 11.06.2020
1507 Clouds 24 1019 50 10000 2.72 88 17:20 11.06.2020
1508 Clouds 24 1019 50 10000 2.72 88 17:20 11.06.2020
1509 Clouds 24 1019 50 10000 2.72 88 16:58 11.06.2020
1510 Clouds 24 1019 50 10000 2.72 88 16:40 11.06.2020
1511 Clouds 24 1019 50 10000 3.03 107 16:21 11.06.2020
1512 Clouds 24 1019 50 10000 3.03 107 15:55 11.06.2020
1513 Clouds 24 1019 50 10000 3.03 107 15:37 11.06.2020
1514 Clouds 25 1019 50 10000 3.6 150 15:18 11.06.2020
1515 Clouds 25 1019 50 10000 3.6 150 14:42 11.06.2020
1516 Clouds 23 1020 56 10000 3.6 210 14:20 11.06.2020
1517 Clouds 23 1020 56 10000 3.6 210 13:56 11.06.2020
1518 Clouds 23 1020 56 10000 3.6 210 13:37 11.06.2020
1519 Clouds 23 1021 64 10000 3.1 150 13:18 11.06.2020
1520 Clouds 23 1021 64 10000 3.1 150 13:18 11.06.2020
1521 Clouds 23 1021 64 10000 3.1 150 12:55 11.06.2020
1522 Clouds 23 1021 64 10000 3.1 150 12:37 11.06.2020
1523 Clouds 22 1022 64 10000 2.6 120 12:18 11.06.2020
1524 Clouds 22 1022 64 10000 2.6 120 11:56 11.06.2020
1525 Clouds 22 1022 64 10000 2.6 120 11:37 11.06.2020
1526 Clouds 21 1022 68 10000 2.1 90 11:18 11.06.2020
1527 Clouds 21 1022 68 10000 2.1 90 10:43 11.06.2020
1528 Clouds 21 1023 68 10000 3.1 210 10:20 11.06.2020
1529 Clouds 21 1023 68 10000 3.1 210 09:59 11.06.2020
1530 Clouds 18 1022 88 10000 20.6 190 09:40 11.06.2020
1531 Clouds 18 1022 88 10000 20.6 190 09:21 11.06.2020
1532 Clouds 17 1022 88 10000 20.6 190 08:42 11.06.2020
1533 Clouds 15 1022 93 10000 20.6 190 08:19 11.06.2020
1534 Clouds 15 1021 93 10000 0.82 176 07:42 11.06.2020
1535 Clouds 15 1021 93 10000 0.28 99 07:24 11.06.2020
1536 Clouds 15 1021 93 10000 0.28 99 06:38 11.06.2020
1537 Clouds 15 1022 93 10000 0.13 43 05:58 11.06.2020
1538 Clouds 15 1021 93 10000 2.6 240 04:52 11.06.2020
1539 Clouds 16 1021 93 10000 2.6 240 03:26 11.06.2020
1540 Clouds 16 1021 93 10000 2.1 250 02:49 11.06.2020
1541 Clouds 16 1021 93 10000 2.1 240 01:58 11.06.2020
1542 Clouds 16 1022 93 10000 1.5 250 01:39 11.06.2020
1543 Clouds 16 1022 93 10000 1.5 270 01:19 11.06.2020
1544 Clouds 16 1022 93 10000 2.1 290 00:43 11.06.2020
1545 Clouds 16 1023 100 10000 0.49 91 00:24 11.06.2020
1546 Clouds 17 1023 88 10000 2.1 340 23:43 10.06.2020
1547 Clouds 16 1023 100 10000 1.18 112 23:24 10.06.2020
1548 Clouds 16 1023 100 10000 1.18 112 22:56 10.06.2020
1549 Clouds 16 1023 100 10000 1.18 112 22:37 10.06.2020
1550 Clouds 17 1023 93 10000 1.5 340 22:18 10.06.2020
1551 Clouds 17 1023 93 10000 1.5 30 21:55 10.06.2020
1552 Clouds 17 1023 93 10000 3.1 90 21:37 10.06.2020
1553 Clouds 17 1023 93 10000 3.1 90 21:18 10.06.2020
1554 Clouds 17 1023 93 10000 3.1 90 20:56 10.06.2020
1555 Clouds 17 1023 93 10000 3.1 90 20:37 10.06.2020
1556 Clouds 18 1022 88 10000 2.6 60 20:19 10.06.2020
1557 Clouds 18 1022 82 10000 4.6 60 19:40 10.06.2020
1558 Clouds 18 1022 82 10000 4.6 60 19:19 10.06.2020
1559 Clouds 19 1022 82 10000 2.6 50 18:57 10.06.2020
1560 Clouds 18 1021 82 10000 2.33 103 18:39 10.06.2020
1561 Clouds 18 1021 82 10000 2.49 108 18:19 10.06.2020
1562 Clouds 19 1022 77 10000 2.1 260 17:55 10.06.2020
1563 Clouds 19 1022 77 10000 2.1 260 17:36 10.06.2020
1564 Clouds 20 1022 77 10000 1.5 140 17:18 10.06.2020
1565 Clouds 20 1022 77 10000 1.5 140 16:56 10.06.2020
1566 Clouds 19 1021 82 10000 1.5 140 16:38 10.06.2020
1567 Clouds 19 1022 77 10000 1.5 220 16:18 10.06.2020
1568 Clouds 19 1022 77 10000 2.1 200 15:40 10.06.2020
1569 Clouds 18 1021 82 10000 4.1 230 15:21 10.06.2020
1570 Clouds 18 1021 82 10000 4.1 230 14:56 10.06.2020
1571 Clouds 18 1023 93 10000 2.85 135 14:37 10.06.2020
1572 Clouds 18 1023 93 10000 2.91 130 14:19 10.06.2020
1573 Clouds 17 1023 93 10000 2.91 130 13:40 10.06.2020
1574 Drizzle 17 1023 93 10000 3.1 140 13:21 10.06.2020
1575 Drizzle 17 1023 93 10000 3.1 140 12:43 10.06.2020
1576 Clouds 16 1023 93 10000 4.1 130 12:20 10.06.2020
1577 Clouds 16 1023 93 10000 4.1 130 11:57 10.06.2020
1578 Clouds 16 1023 93 10000 4.1 130 11:39 10.06.2020
1579 Clouds 16 1024 93 10000 3.6 140 11:19 10.06.2020
1580 Clouds 16 1024 93 10000 3.6 140 10:57 10.06.2020
1581 Clouds 16 1024 93 10000 3.6 140 10:39 10.06.2020
1582 Rain 16 1024 93 6000 3.1 140 10:20 10.06.2020
1583 Rain 16 1024 93 6000 3.1 140 09:41 10.06.2020
1584 Rain 15 1023 100 6000 4.1 160 09:22 10.06.2020
1585 Rain 15 1023 100 6000 4.1 160 08:44 10.06.2020
1586 Rain 15 1023 100 7000 5.1 120 08:24 10.06.2020
1587 Rain 15 1023 100 7000 5.1 120 07:57 10.06.2020
1588 Rain 15 1023 100 7000 5.1 120 07:38 10.06.2020
1589 Rain 15 1022 100 8000 5.1 150 07:18 10.06.2020
1590 Clouds 13 1014 94 0 1.99 81 06:44 10.06.2020
1591 Rain 15 1021 100 10000 3.1 170 06:22 10.06.2020
1592 Rain 15 1021 100 10000 3.1 170 05:55 10.06.2020
1593 Rain 15 1021 100 10000 3.1 170 05:23 10.06.2020
1594 Rain 16 1021 93 10000 5.1 170 04:34 10.06.2020
1595 Clouds 15 1021 93 10000 4.1 150 02:55 10.06.2020
1596 Rain 15 1021 100 10000 2.34 102 01:59 10.06.2020
1597 Rain 15 1021 100 10000 3.07 102 01:35 10.06.2020
1598 Rain 15 1023 100 10000 3.07 102 00:39 10.06.2020
1599 Rain 16 1023 93 10000 3.71 97 00:21 10.06.2020
1600 Rain 16 1023 93 10000 3.71 97 23:55 09.06.2020
1601 Rain 16 1023 93 10000 3.71 97 23:37 09.06.2020
1602 Rain 16 1022 93 10000 2.6 160 23:18 09.06.2020
1603 Rain 16 1022 93 10000 2.6 160 22:55 09.06.2020
1604 Rain 16 1022 93 10000 2.6 160 22:36 09.06.2020
1605 Clouds 17 1022 93 10000 2.6 130 22:18 09.06.2020
1606 Clouds 17 1022 93 10000 2.6 130 21:55 09.06.2020
1607 Rain 18 1021 88 10000 4.21 84 21:36 09.06.2020
1608 Rain 18 1021 88 10000 4.21 84 21:36 09.06.2020
1609 Rain 18 1021 88 10000 3.91 79 21:18 09.06.2020
1610 Rain 18 1021 88 10000 3.91 79 20:56 09.06.2020
1611 Rain 18 1021 88 10000 3.91 79 20:37 09.06.2020
1612 Rain 18 1021 88 10000 3.19 76 20:18 09.06.2020
1613 Rain 18 1021 88 10000 3.19 76 19:55 09.06.2020
1614 Rain 18 1021 88 10000 3.34 86 19:36 09.06.2020
1615 Rain 18 1020 88 10000 2.6 100 19:18 09.06.2020
1616 Rain 18 1020 88 10000 2.6 100 18:44 09.06.2020
1617 Rain 18 1020 88 10000 2.6 100 18:25 09.06.2020
1618 Rain 19 1020 82 10000 5.1 120 17:57 09.06.2020
1619 Rain 19 1020 82 10000 5.1 120 17:39 09.06.2020
1620 Rain 21 1020 68 10000 5.7 120 17:21 09.06.2020
1621 Rain 21 1020 68 10000 5.7 120 16:55 09.06.2020
1622 Rain 21 1020 68 10000 5.7 120 16:36 09.06.2020
1623 Clouds 23 1019 53 10000 3.6 120 16:18 09.06.2020
1624 Clouds 23 1019 53 10000 3.6 120 15:40 09.06.2020
1625 Clouds 23 1020 53 10000 2.6 120 15:21 09.06.2020
1626 Clouds 23 1020 53 10000 2.6 120 14:57 09.06.2020
1627 Clouds 23 1020 53 10000 2.6 120 14:37 09.06.2020
1628 Clouds 23 1021 56 10000 3.76 137 14:18 09.06.2020
1629 Clouds 23 1021 53 10000 3.1 150 13:46 09.06.2020
1630 Clouds 23 1021 53 10000 4.1 140 13:22 09.06.2020
1631 Clouds 23 1021 53 10000 4.1 140 12:59 09.06.2020
1632 Clouds 23 1021 53 10000 4.1 140 12:41 09.06.2020
1633 Clouds 22 1022 60 10000 2.6 180 12:19 09.06.2020
1634 Clouds 22 1022 60 10000 2.6 180 11:56 09.06.2020
1635 Clouds 22 1022 60 10000 2.6 180 11:37 09.06.2020
1636 Clouds 21 1023 64 10000 3.6 160 11:19 09.06.2020
1637 Clouds 21 1023 64 10000 3.6 160 11:19 09.06.2020
1638 Clouds 21 1023 64 10000 3.6 160 10:45 09.06.2020
1639 Clouds 21 1023 64 10000 3.6 160 10:27 09.06.2020
1640 Clouds 20 1023 68 10000 1.47 162 09:57 09.06.2020
1641 Clouds 20 1023 68 10000 1.47 162 09:38 09.06.2020
1642 Clouds 19 1024 72 10000 1 0 09:18 09.06.2020
1643 Clouds 17 1023 87 10000 1.19 144 08:39 09.06.2020
1644 Clouds 17 1023 87 10000 1.19 144 08:39 09.06.2020
1645 Clouds 17 1023 87 10000 1.19 144 08:39 09.06.2020
1646 Clouds 16 1023 87 10000 1.13 144 08:20 09.06.2020
1647 Clouds 16 1023 87 10000 1.13 144 07:42 09.06.2020
1648 Clouds 15 1023 93 10000 1.01 146 07:22 09.06.2020
1649 Clouds 15 1023 93 10000 1.01 146 06:55 09.06.2020
1650 Clouds 15 1023 93 10000 1.01 146 06:36 09.06.2020
1651 Clouds 15 1022 93 10000 2.6 220 05:37 09.06.2020
1652 Clouds 16 1022 87 10000 2.1 220 03:55 09.06.2020
1653 Clouds 17 1023 88 10000 1 0 02:22 09.06.2020
1654 Clouds 17 1023 88 10000 1 0 01:37 09.06.2020
1655 Clouds 17 1023 88 10000 2.1 200 01:18 09.06.2020
1656 Clouds 17 1023 88 10000 2.1 200 00:42 09.06.2020
1657 Clouds 18 1023 82 10000 2.1 180 00:19 09.06.2020
1658 Clouds 18 1023 82 10000 2.1 180 23:42 08.06.2020
1659 Clouds 18 1024 82 10000 2.1 160 23:21 08.06.2020
1660 Clouds 18 1024 82 10000 2.1 160 22:59 08.06.2020
1661 Clouds 18 1024 82 10000 2.1 160 22:38 08.06.2020
1662 Clouds 18 1024 82 10000 1.5 0 22:20 08.06.2020
1663 Clouds 18 1024 82 10000 1.5 0 21:56 08.06.2020
1664 Clouds 17 1023 88 10000 2.1 160 21:37 08.06.2020
1665 Clouds 17 1023 88 10000 2.1 160 21:19 08.06.2020
1666 Clouds 18 1023 88 10000 2.1 160 20:55 08.06.2020
1667 Clouds 18 1023 88 10000 2.1 160 20:55 08.06.2020
1668 Clouds 18 1023 88 10000 2.1 160 20:36 08.06.2020
1669 Clouds 18 1022 82 10000 3.77 93 20:18 08.06.2020
1670 Clouds 18 1022 82 10000 3.77 93 19:43 08.06.2020
1671 Clouds 18 1022 82 10000 3.77 93 19:43 08.06.2020
1672 Rain 19 1021 77 10000 4.1 140 19:21 08.06.2020
1673 Rain 19 1021 77 10000 4.1 140 18:44 08.06.2020
1674 Clouds 19 1021 77 10000 3.1 140 18:21 08.06.2020
1675 Clouds 19 1021 77 10000 3.1 140 17:58 08.06.2020
1676 Clouds 20 1022 72 10000 3.6 140 17:40 08.06.2020
1677 Clouds 21 1021 68 10000 4.6 150 17:22 08.06.2020
1678 Clouds 21 1021 68 10000 4.6 150 16:58 08.06.2020
1679 Clouds 21 1021 68 10000 4.6 150 16:58 08.06.2020
1680 Clouds 20 1021 72 10000 4.6 160 16:39 08.06.2020
1681 Clouds 20 1021 72 10000 4.6 160 16:21 08.06.2020
1682 Clouds 20 1021 72 10000 4.6 160 15:43 08.06.2020
1683 Clouds 20 1021 72 10000 5.1 150 15:22 08.06.2020
1684 Clouds 20 1021 72 10000 5.1 150 14:58 08.06.2020
1685 Clouds 20 1021 72 10000 5.1 150 14:39 08.06.2020
1686 Clouds 21 1021 64 10000 4.1 150 14:19 08.06.2020
1687 Clouds 21 1021 64 10000 4.1 150 13:43 08.06.2020
1688 Clouds 20 1022 72 10000 3.1 180 13:24 08.06.2020
1689 Clouds 20 1022 72 10000 3.1 180 12:43 08.06.2020
1690 Clouds 19 1023 77 10000 4.1 120 12:20 08.06.2020
1691 Clouds 19 1023 77 10000 4.1 120 11:59 08.06.2020
1692 Clouds 19 1023 77 10000 4.1 120 11:40 08.06.2020
1693 Clouds 19 1024 77 10000 2.1 150 11:22 08.06.2020
1694 Clouds 19 1024 77 10000 2.1 150 10:58 08.06.2020
1695 Clouds 19 1024 77 10000 2.1 150 10:38 08.06.2020
1696 Rain 14 1015 93 0 2.38 158 10:20 08.06.2020
1697 Clouds 19 1024 77 10000 3.6 0 09:57 08.06.2020
1698 Clouds 18 1023 88 10000 3.1 150 09:39 08.06.2020
1699 Clouds 18 1023 88 10000 3.1 150 09:20 08.06.2020
1700 Clouds 17 1023 88 10000 3.1 150 08:44 08.06.2020
1701 Clouds 16 1023 93 10000 3.1 170 08:21 08.06.2020
1702 Clouds 16 1023 93 10000 3.1 170 07:46 08.06.2020
1703 Clouds 16 1022 93 10000 3.1 140 07:22 08.06.2020
1704 Clouds 16 1022 93 10000 3.1 140 06:50 08.06.2020
1705 Clouds 16 1022 93 10000 3.1 140 06:28 08.06.2020
1706 Clouds 16 1022 93 10000 2.1 160 05:47 08.06.2020
1707 Clouds 16 1021 93 10000 3.1 180 04:29 08.06.2020
1708 Clouds 17 1022 93 10000 2.6 200 02:32 08.06.2020
1709 Clouds 16 1022 93 10000 2.1 190 01:46 08.06.2020
1710 Clouds 16 1022 93 10000 2.1 190 01:26 08.06.2020
1711 Clouds 17 1022 77 10000 2.6 180 00:30 08.06.2020
1712 Clouds 18 1022 77 10000 2.6 180 23:42 07.06.2020
1713 Clouds 18 1022 72 10000 4.6 150 23:20 07.06.2020
1714 Clouds 18 1022 72 10000 4.6 150 22:59 07.06.2020
1715 Clouds 19 1021 72 10000 2.93 139 22:39 07.06.2020
1716 Clouds 19 1021 72 10000 3.73 139 22:19 07.06.2020
1717 Clouds 19 1021 72 10000 3.73 139 21:59 07.06.2020
1718 Clouds 19 1021 72 10000 3.73 139 21:38 07.06.2020
1719 Clouds 19 1021 72 10000 3.73 139 21:38 07.06.2020
1720 Clouds 20 1021 68 10000 2.6 150 21:20 07.06.2020
1721 Clouds 20 1021 68 10000 2.6 150 20:56 07.06.2020
1722 Clouds 20 1021 68 10000 2.6 150 20:37 07.06.2020
1723 Clouds 21 1021 68 10000 3.6 110 20:18 07.06.2020
1724 Clouds 21 1021 68 10000 3.6 110 19:55 07.06.2020
1725 Clouds 21 1021 68 10000 3.6 110 19:37 07.06.2020
1726 Clouds 22 1020 64 10000 6.2 100 19:18 07.06.2020
1727 Clouds 22 1020 64 10000 6.2 100 18:42 07.06.2020
1728 Clouds 23 1019 56 10000 6.2 110 18:23 07.06.2020
1729 Clouds 23 1019 56 10000 6.2 110 17:59 07.06.2020
1730 Clouds 23 1019 56 10000 6.2 110 17:40 07.06.2020
1731 Clouds 25 1019 47 10000 5.7 110 17:22 07.06.2020
1732 Clouds 25 1019 47 10000 5.7 110 16:44 07.06.2020
1733 Clouds 25 1019 44 10000 4.6 170 16:22 07.06.2020
1734 Clouds 25 1019 44 10000 4.6 170 15:45 07.06.2020
1735 Clouds 25 1020 47 10000 3.6 130 15:24 07.06.2020
1736 Clouds 25 1020 47 10000 3.6 130 15:00 07.06.2020
1737 Clouds 25 1020 47 10000 3.6 130 14:38 07.06.2020
1738 Clouds 25 1021 50 10000 3.1 120 14:18 07.06.2020
1739 Clouds 25 1021 50 10000 3.1 120 13:45 07.06.2020
1740 Clouds 25 1021 50 10000 3.1 120 13:45 07.06.2020
1741 Clouds 25 1021 50 10000 3.1 120 13:45 07.06.2020
1742 Clouds 24 1022 53 10000 3.51 157 13:19 07.06.2020
1743 Clouds 23 1022 53 10000 3.51 157 12:44 07.06.2020
1744 Clouds 23 1022 53 10000 3.51 157 12:44 07.06.2020
1745 Clouds 23 1023 56 10000 3.16 154 12:26 07.06.2020
1746 Clouds 23 1023 56 10000 3.16 154 11:56 07.06.2020
1747 Clouds 22 1023 56 10000 3.16 154 11:38 07.06.2020
1748 Clouds 22 1023 56 10000 3.16 154 11:38 07.06.2020
1749 Clouds 22 1024 60 10000 2.34 152 11:20 07.06.2020
1750 Clouds 22 1024 60 10000 2.34 152 10:58 07.06.2020
1751 Clouds 22 1024 60 10000 2.34 152 10:58 07.06.2020
1752 Clouds 22 1024 60 10000 2.34 152 10:39 07.06.2020
1753 Clouds 20 1024 72 10000 1.67 154 10:19 07.06.2020
1754 Clouds 19 1024 72 10000 1.67 154 09:56 07.06.2020
1755 Clouds 19 1024 72 10000 1.67 154 09:37 07.06.2020
1756 Clouds 18 1024 82 10000 1.56 143 09:19 07.06.2020
1757 Clouds 17 1024 82 10000 1.56 143 08:44 07.06.2020
1758 Clouds 17 1024 87 10000 2.6 200 08:23 07.06.2020
1759 Clouds 17 1024 82 10000 3.1 220 07:46 07.06.2020
1760 Clouds 16 1023 87 10000 3.6 210 07:28 07.06.2020
1761 Clouds 16 1022 87 10000 4.1 210 06:38 07.06.2020
1762 Clouds 16 1022 87 10000 4.1 210 05:36 07.06.2020
1763 Clouds 12 1023 93 10000 2.6 240 04:20 07.06.2020
1764 Clouds 12 1023 93 10000 2.6 240 04:20 07.06.2020
1765 Clouds 14 1022 82 10000 0.61 34 02:31 07.06.2020
1766 Clouds 14 1022 82 10000 0.4 337 02:31 07.06.2020
1767 Clouds 14 1023 87 10000 3.1 270 01:44 07.06.2020
1768 Clouds 14 1023 87 10000 3.1 270 01:24 07.06.2020
1769 Clouds 14 1023 87 10000 2.1 250 00:41 07.06.2020
1770 Clouds 16 1023 72 10000 2.6 250 00:18 07.06.2020
1771 Clouds 16 1023 72 10000 2.6 250 00:18 07.06.2020
1772 Clouds 16 1023 72 10000 2.6 250 23:56 06.06.2020
1773 Clouds 17 1023 72 10000 2.6 250 23:36 06.06.2020
1774 Clouds 18 1023 68 10000 3.6 190 23:18 06.06.2020
1775 Clouds 18 1023 68 10000 3.6 190 22:55 06.06.2020
1776 Clouds 18 1023 68 10000 5.1 190 22:37 06.06.2020
1777 Clouds 19 1024 72 10000 3.1 220 22:18 06.06.2020
1778 Clouds 20 1023 64 10000 1.2 149 21:43 06.06.2020
1779 Clouds 20 1023 64 10000 2.02 128 21:22 06.06.2020
1780 Clouds 20 1023 64 10000 2.1 122 20:55 06.06.2020
1781 Clouds 20 1023 64 10000 2.1 122 20:36 06.06.2020
1782 Clouds 21 1021 64 10000 2.05 123 20:18 06.06.2020
1783 Clouds 21 1021 64 10000 2.05 123 19:54 06.06.2020
1784 Clouds 21 1021 64 10000 2.05 123 19:36 06.06.2020
1785 Clouds 22 1022 49 10000 3.1 170 19:18 06.06.2020
1786 Clouds 23 1022 46 10000 3.6 150 18:42 06.06.2020
1787 Clouds 23 1021 60 10000 2.66 151 18:23 06.06.2020
1788 Clouds 23 1021 60 10000 2.66 151 18:23 06.06.2020
1789 Clouds 23 1021 60 10000 2.66 151 17:44 06.06.2020
1790 Clouds 24 1021 53 10000 6.2 180 17:21 06.06.2020
1791 Clouds 24 1021 53 10000 6.2 180 16:58 06.06.2020
1792 Clouds 24 1021 53 10000 6.2 180 16:39 06.06.2020
1793 Clouds 26 1021 47 10000 2.6 240 16:21 06.06.2020
1794 Clouds 26 1021 47 10000 2.6 240 15:55 06.06.2020
1795 Clouds 26 1021 47 10000 2.6 240 15:36 06.06.2020
1796 Clouds 25 1022 50 10000 3.1 240 15:18 06.06.2020
1797 Clouds 26 1022 47 10000 4.1 230 14:39 06.06.2020
1798 Clouds 25 1023 50 10000 2.6 200 14:20 06.06.2020
1799 Clouds 25 1023 50 10000 2.6 200 13:54 06.06.2020
1800 Clouds 25 1023 50 10000 2.6 200 13:36 06.06.2020
1801 Clouds 25 1024 50 10000 6.2 210 13:18 06.06.2020
1802 Clouds 25 1024 50 10000 6.2 210 12:41 06.06.2020
1803 Clouds 24 1024 50 10000 4.1 160 12:22 06.06.2020
1804 Clouds 24 1024 50 10000 4.1 160 11:58 06.06.2020
1805 Clouds 24 1024 50 10000 4.1 160 11:58 06.06.2020
1806 Clouds 24 1024 50 10000 4.1 160 11:38 06.06.2020
1807 Clouds 23 1025 53 10000 3.1 280 11:19 06.06.2020
1808 Clouds 23 1025 53 10000 3.1 280 10:57 06.06.2020
1809 Clouds 23 1025 53 10000 3.1 280 10:39 06.06.2020
1810 Clouds 23 1025 53 10000 3.1 280 10:20 06.06.2020
1811 Clouds 21 1026 64 10000 2.6 240 09:45 06.06.2020
1812 Clouds 21 1026 64 10000 2.6 240 09:27 06.06.2020
1813 Clouds 19 1025 72 10000 2.6 220 08:56 06.06.2020
1814 Clouds 19 1025 72 10000 2.6 220 08:38 06.06.2020
1815 Clouds 16 1026 87 10000 2.6 220 08:18 06.06.2020
1816 Clouds 16 1025 87 10000 2.6 230 07:44 06.06.2020
1817 Clouds 14 1024 87 10000 4.1 300 07:20 06.06.2020
1818 Clouds 13 1024 87 10000 4.1 300 06:46 06.06.2020
1819 Clouds 13 1024 87 10000 4.1 300 06:27 06.06.2020
1820 Clouds 13 1024 82 10000 4.1 320 05:50 06.06.2020
1821 Clouds 13 1024 82 10000 4.1 320 05:25 06.06.2020
1822 Clear 12 1024 93 10000 2.6 250 04:38 06.06.2020
1823 Clear 15 1023 82 10000 0.53 189 02:36 06.06.2020
1824 Clouds 16 1024 77 10000 1.5 250 01:41 06.06.2020
1825 Clouds 16 1024 77 10000 1.5 250 01:18 06.06.2020
1826 Clouds 16 1025 72 10000 0.45 183 00:41 06.06.2020
1827 Clouds 17 1025 72 10000 0.44 179 00:22 06.06.2020
1828 Clouds 17 1025 72 10000 0.44 179 23:40 05.06.2020
1829 Clouds 17 1025 72 10000 0.42 175 23:21 05.06.2020
1830 Clouds 16 1025 77 10000 2.1 270 22:58 05.06.2020
1831 Clouds 17 1025 72 10000 2.1 240 22:40 05.06.2020
1832 Clouds 18 1024 72 10000 2.6 200 22:22 05.06.2020
1833 Clouds 19 1024 77 10000 2.1 350 21:57 05.06.2020
1834 Clouds 18 1024 72 10000 0.8 140 21:39 05.06.2020
1835 Clouds 19 1024 72 10000 1.28 136 21:19 05.06.2020
1836 Clouds 19 1024 72 10000 1.28 136 20:54 05.06.2020
1837 Clouds 18 1024 72 10000 1.28 136 20:36 05.06.2020
1838 Clouds 19 1023 72 10000 1.6 154 20:18 05.06.2020
1839 Clouds 19 1023 72 10000 1.6 154 19:39 05.06.2020
1840 Clouds 21 1022 64 10000 1.93 167 19:21 05.06.2020
1841 Clouds 21 1022 64 10000 1.93 167 18:40 05.06.2020
1842 Clouds 22 1021 64 10000 2.6 160 18:21 05.06.2020
1843 Clouds 22 1021 64 10000 2.6 160 17:59 05.06.2020
1844 Clouds 22 1021 64 10000 2.6 160 17:41 05.06.2020
1845 Clouds 24 1021 50 10000 5.1 140 17:21 05.06.2020
1846 Clouds 24 1021 50 10000 5.1 140 16:58 05.06.2020
1847 Clouds 24 1021 50 10000 5.1 140 16:37 05.06.2020
1848 Clouds 26 1021 44 10000 7.7 150 16:19 05.06.2020
1849 Clouds 26 1021 44 10000 7.7 150 15:39 05.06.2020
1850 Clouds 26 1022 44 10000 5.1 140 15:20 05.06.2020
1851 Clouds 26 1022 44 10000 5.1 140 14:58 05.06.2020
1852 Clouds 26 1022 44 10000 5.1 140 14:39 05.06.2020
1853 Clouds 26 1022 44 10000 5.1 140 14:39 05.06.2020
1854 Clouds 25 1023 44 10000 3.36 183 14:21 05.06.2020
1855 Clouds 25 1023 44 10000 3.36 183 13:47 05.06.2020
1856 Clouds 25 1023 44 10000 3.13 182 13:28 05.06.2020
1857 Clouds 24 1023 50 10000 2.6 150 12:57 05.06.2020
1858 Clouds 24 1023 50 10000 2.6 150 12:38 05.06.2020
1859 Clouds 24 1025 56 10000 2.96 176 12:19 05.06.2020
1860 Clouds 23 1025 56 10000 2.96 176 11:43 05.06.2020
1861 Clouds 22 1025 56 10000 2.59 185 11:24 05.06.2020
1862 Clouds 22 1025 56 10000 2.59 185 10:59 05.06.2020
1863 Clouds 22 1025 56 10000 2.59 185 10:41 05.06.2020
1864 Clouds 21 1026 60 10000 2.48 191 10:20 05.06.2020
1865 Clouds 21 1026 60 10000 2.48 191 09:57 05.06.2020
1866 Clouds 21 1026 60 10000 2.48 191 09:39 05.06.2020
1867 Clouds 19 1026 72 10000 3.6 220 09:19 05.06.2020
1868 Clouds 19 1026 72 10000 3.6 220 08:57 05.06.2020
1869 Clouds 17 1025 82 10000 2.22 196 08:39 05.06.2020
1870 Clouds 16 1025 82 10000 1.42 179 08:18 05.06.2020
1871 Clouds 16 1025 82 10000 1.42 179 07:50 05.06.2020
1872 Clouds 16 1025 82 10000 1.42 179 07:31 05.06.2020
1873 Clouds 11 1025 93 10000 2.6 230 06:48 05.06.2020
1874 Clouds 13 1023 93 10000 0.74 151 05:23 05.06.2020
1875 Clouds 14 1023 93 10000 0.9 136 04:28 05.06.2020
1876 Clouds 14 1023 93 10000 0.9 136 03:30 05.06.2020
1877 Clouds 15 1023 82 10000 0.82 115 02:29 05.06.2020
1878 Clouds 15 1023 82 10000 0.82 115 01:58 05.06.2020
1879 Clouds 15 1023 77 10000 0.82 115 01:33 05.06.2020
1880 Clouds 15 1023 77 10000 0.42 154 00:46 05.06.2020
1881 Clouds 16 1024 72 10000 0.47 157 00:22 05.06.2020
1882 Clouds 16 1024 72 10000 0.47 157 23:55 04.06.2020
1883 Clouds 16 1024 72 10000 0.47 157 23:37 04.06.2020
1884 Clouds 16 1024 77 10000 2.6 240 23:18 04.06.2020
1885 Clouds 16 1024 77 10000 2.6 240 22:42 04.06.2020
1886 Clouds 17 1024 72 10000 3.1 190 22:21 04.06.2020
1887 Clouds 17 1024 72 10000 3.1 190 21:58 04.06.2020
1888 Clouds 17 1024 72 10000 3.1 190 21:38 04.06.2020
1889 Clouds 17 1024 72 10000 3.1 190 21:38 04.06.2020
1890 Clouds 18 1023 68 10000 2.22 117 21:20 04.06.2020
1891 Clouds 18 1023 68 10000 2.22 117 20:57 04.06.2020
1892 Clouds 18 1023 68 10000 2.22 117 20:38 04.06.2020
1893 Clouds 19 1022 68 10000 2.24 118 20:19 04.06.2020
1894 Clouds 19 1022 68 10000 2.24 118 19:55 04.06.2020
1895 Clouds 19 1022 68 10000 2.24 118 19:36 04.06.2020
1896 Clouds 20 1021 60 10000 2.6 150 19:18 04.06.2020
1897 Clouds 23 1021 49 10000 4.6 150 18:38 04.06.2020
1898 Clouds 23 1021 49 10000 4.6 150 18:20 04.06.2020
1899 Clouds 23 1021 49 10000 4.6 150 17:56 04.06.2020
1900 Clouds 23 1021 49 10000 4.6 150 17:38 04.06.2020
1901 Clouds 25 1020 38 10000 5.1 150 17:19 04.06.2020
1902 Clouds 25 1020 38 10000 5.1 150 16:40 04.06.2020
1903 Clouds 26 1020 41 10000 5.1 170 16:20 04.06.2020
1904 Clouds 26 1021 41 10000 4.1 160 15:46 04.06.2020
1905 Clouds 26 1021 41 10000 3.6 190 15:27 04.06.2020
1906 Clouds 26 1021 41 10000 3.6 190 14:55 04.06.2020
1907 Clouds 26 1021 41 10000 3.6 190 14:37 04.06.2020
1908 Clouds 25 1023 44 10000 5.1 180 14:18 04.06.2020
1909 Clouds 25 1023 44 10000 3.6 170 13:41 04.06.2020
1910 Clouds 25 1023 38 10000 2.6 160 13:21 04.06.2020
1911 Clouds 25 1023 38 10000 2.6 160 12:59 04.06.2020
1912 Clouds 25 1023 38 10000 2.6 160 12:41 04.06.2020
1913 Clouds 24 1024 41 10000 3.1 140 12:22 04.06.2020
1914 Clouds 24 1024 41 10000 3.1 140 11:56 04.06.2020
1915 Clouds 24 1024 41 10000 3.1 140 11:38 04.06.2020
1916 Clouds 23 1024 49 10000 2.6 150 11:19 04.06.2020
1917 Clouds 22 1025 56 10000 2.6 220 10:43 04.06.2020
1918 Clouds 20 1025 72 10000 2.6 260 10:23 04.06.2020
1919 Clouds 20 1025 72 10000 2.6 260 09:58 04.06.2020
1920 Clouds 19 1025 72 10000 2.6 260 09:40 04.06.2020
1921 Clouds 17 1025 82 10000 1.86 159 09:22 04.06.2020
1922 Clouds 17 1025 82 10000 1.86 159 08:44 04.06.2020
1923 Clouds 17 1025 82 10000 1.34 152 08:26 04.06.2020
1924 Clouds 15 1024 87 10000 1.34 152 07:47 04.06.2020
1925 Clouds 14 1023 87 10000 0.44 142 07:27 04.06.2020
1926 Clouds 14 1023 87 10000 0.44 142 06:44 04.06.2020
1927 Clouds 13 1023 93 10000 2.6 240 06:25 04.06.2020
1928 Clouds 14 1022 93 10000 2.6 210 05:35 04.06.2020
1929 Clouds 14 1022 93 10000 2.6 210 04:33 04.06.2020
1930 Clouds 14 1023 87 10000 2.6 210 03:24 04.06.2020
1931 Clouds 16 1023 87 10000 1.5 230 01:56 04.06.2020
1932 Clouds 16 1024 82 10000 2.1 260 01:19 04.06.2020
1933 Clouds 15 1024 87 10000 2.6 270 00:40 04.06.2020
1934 Clouds 15 1024 82 10000 3.1 230 23:44 03.06.2020
1935 Clouds 16 1023 87 10000 2.13 81 23:21 03.06.2020
1936 Clouds 16 1023 87 10000 2.13 81 22:59 03.06.2020
1937 Clouds 16 1023 87 10000 2.13 81 22:39 03.06.2020
1938 Clouds 17 1024 82 10000 2.97 87 22:19 03.06.2020
1939 Clouds 17 1024 82 10000 2.97 87 22:19 03.06.2020
1940 Clouds 17 1024 82 10000 2.97 87 21:57 03.06.2020
1941 Clouds 17 1024 82 10000 2.97 87 21:39 03.06.2020
1942 Clouds 18 1023 77 10000 3.1 190 21:20 03.06.2020
1943 Clouds 18 1023 77 10000 3.1 190 20:55 03.06.2020
1944 Clouds 18 1023 77 10000 3.1 190 20:37 03.06.2020
1945 Clouds 19 1023 68 10000 3.17 110 20:19 03.06.2020
1946 Clouds 19 1023 68 10000 3.17 110 19:55 03.06.2020
1947 Clouds 19 1023 68 10000 3.17 110 19:36 03.06.2020
1948 Clouds 21 1021 60 10000 5.1 120 19:18 03.06.2020
1949 Clouds 21 1021 60 10000 5.1 120 18:41 03.06.2020
1950 Clouds 21 1021 64 10000 5.1 120 18:22 03.06.2020
1951 Clouds 21 1021 64 10000 5.1 120 17:57 03.06.2020
1952 Clouds 21 1021 64 10000 5.1 120 17:37 03.06.2020
1953 Clouds 22 1020 60 10000 5.1 150 17:18 03.06.2020
1954 Clouds 22 1020 60 10000 5.1 150 16:42 03.06.2020
1955 Clouds 22 1020 60 10000 5.1 150 16:20 03.06.2020
1956 Clouds 23 1020 56 10000 6.2 150 15:58 03.06.2020
1957 Clouds 23 1020 56 10000 6.2 150 15:40 03.06.2020
1958 Clouds 23 1021 56 10000 2.6 90 15:20 03.06.2020
1959 Clouds 23 1021 56 10000 2.6 90 14:46 03.06.2020
1960 Clouds 23 1021 56 10000 2.6 90 14:24 03.06.2020
1961 Clouds 22 1022 60 10000 2.6 150 13:56 03.06.2020
1962 Clouds 22 1022 56 10000 5.1 100 13:38 03.06.2020
1963 Clouds 22 1022 56 10000 5.1 100 13:18 03.06.2020
1964 Clouds 22 1022 56 10000 5.1 100 12:42 03.06.2020
1965 Clouds 22 1023 56 10000 5.1 150 12:21 03.06.2020
1966 Clouds 22 1023 56 10000 5.1 150 11:45 03.06.2020
1967 Clouds 22 1023 56 10000 5.1 150 11:27 03.06.2020
1968 Clouds 21 1024 64 10000 5.1 180 10:57 03.06.2020
1969 Clouds 21 1024 64 10000 5.1 180 10:38 03.06.2020
1970 Clouds 20 1024 68 10000 4.1 150 10:20 03.06.2020
1971 Clouds 20 1024 68 10000 4.1 150 09:42 03.06.2020
1972 Clouds 17 1024 87 10000 2.45 164 09:20 03.06.2020
1973 Clouds 16 1024 87 10000 2.45 164 08:48 03.06.2020
1974 Clouds 16 1024 87 10000 1.67 158 08:25 03.06.2020
1975 Clouds 15 1024 93 10000 2.6 190 07:59 03.06.2020
1976 Clouds 15 1024 93 10000 2.6 190 07:40 03.06.2020
1977 Clouds 15 1023 93 10000 2.6 180 07:19 03.06.2020
1978 Clouds 15 1023 93 10000 2.6 180 06:48 03.06.2020
1979 Clouds 15 1023 93 10000 2.6 180 06:29 03.06.2020
1980 Clouds 14 1023 93 10000 2.6 240 05:46 03.06.2020
1981 Clouds 13 1023 93 10000 2.6 250 04:44 03.06.2020
1982 Clouds 13 1023 93 10000 2.6 260 03:50 03.06.2020
1983 Clouds 14 1023 93 10000 3.1 270 02:46 03.06.2020
1984 Clouds 14 1023 93 10000 2.1 240 01:48 03.06.2020
1985 Clouds 15 1024 93 10000 3.1 230 00:41 03.06.2020
1986 Rain 16 1024 87 10000 3.6 230 00:23 03.06.2020
1987 Rain 16 1024 87 10000 3.6 230 23:51 02.06.2020
1988 Clouds 17 1023 88 10000 2.6 220 23:27 02.06.2020
1989 Clouds 17 1023 88 10000 2.6 220 22:56 02.06.2020
1990 Clouds 17 1023 88 10000 2.6 220 22:37 02.06.2020
1991 Clouds 18 1024 77 10000 3.1 190 22:18 02.06.2020
1992 Clouds 18 1024 77 10000 3.1 190 21:56 02.06.2020
1993 Clouds 19 1023 72 10000 5.1 120 21:37 02.06.2020
1994 Clouds 19 1023 72 10000 5.1 120 21:19 02.06.2020
1995 Clouds 19 1023 72 10000 5.1 120 20:55 02.06.2020
1996 Clouds 19 1023 72 10000 5.1 120 20:36 02.06.2020
1997 Clouds 20 1022 68 10000 3.6 170 20:18 02.06.2020
1998 Clouds 20 1022 68 10000 3.6 170 19:42 02.06.2020
1999 Clouds 21 1021 60 10000 3.1 120 19:23 02.06.2020
2000 Clouds 21 1021 60 10000 3.1 120 18:56 02.06.2020
2001 Clouds 21 1021 60 10000 3.1 120 18:38 02.06.2020
2002 Clouds 22 1021 56 10000 4.1 150 18:19 02.06.2020
2003 Clouds 23 1022 53 10000 4.1 120 17:43 02.06.2020
2004 Clouds 24 1020 47 10000 5.1 120 17:23 02.06.2020
2005 Clouds 24 1020 47 10000 5.1 120 16:57 02.06.2020
2006 Clouds 24 1020 47 10000 5.1 120 16:39 02.06.2020
2007 Clouds 25 1021 44 10000 6.2 150 16:21 02.06.2020
2008 Clouds 25 1021 44 10000 6.2 150 15:57 02.06.2020
2009 Clouds 25 1021 44 10000 6.2 150 15:37 02.06.2020
2010 Clouds 25 1021 44 10000 4.1 170 15:18 02.06.2020
2011 Clouds 25 1021 44 10000 4.1 170 14:42 02.06.2020
2012 Clouds 25 1021 44 10000 4.1 170 14:23 02.06.2020
2013 Clouds 24 1022 47 10000 3.1 120 13:54 02.06.2020
2014 Clouds 24 1023 50 10000 5.1 180 13:36 02.06.2020
2015 Clouds 24 1023 50 10000 5.1 180 13:18 02.06.2020
2016 Clouds 24 1023 50 10000 5.1 180 12:40 02.06.2020
2017 Clouds 23 1024 53 10000 5.1 180 12:21 02.06.2020
2018 Clouds 23 1024 53 10000 5.1 180 11:59 02.06.2020
2019 Clouds 23 1024 53 10000 5.1 180 11:39 02.06.2020
2020 Clouds 22 1024 56 10000 4.1 230 11:20 02.06.2020
2021 Clouds 22 1024 56 10000 4.1 230 10:48 02.06.2020
2022 Clouds 22 1024 56 10000 4.1 230 10:28 02.06.2020
2023 Clouds 21 1025 64 10000 2.6 210 09:58 02.06.2020
2024 Clouds 20 1025 64 10000 2.6 210 09:39 02.06.2020
2025 Clouds 18 1025 77 10000 2.96 144 09:20 02.06.2020
2026 Clouds 17 1025 77 10000 2.96 144 08:51 02.06.2020
2027 Clouds 17 1025 77 10000 2.23 146 08:23 02.06.2020
2028 Clouds 15 1024 87 10000 2.23 146 07:53 02.06.2020
2029 Clouds 15 1024 87 10000 2.23 146 07:28 02.06.2020
2030 Fog 12 1025 93 6000 2.6 250 06:48 02.06.2020
2031 Clouds 13 1023 93 10000 2.1 260 06:24 02.06.2020
2032 Clouds 12 1024 93 10000 2.1 240 05:27 02.06.2020
2033 Clouds 14 1023 82 10000 2.6 240 03:29 02.06.2020
2034 Clouds 13 1023 93 10000 3.1 210 02:30 02.06.2020
2035 Clouds 16 1024 87 10000 2.1 230 01:33 02.06.2020
2036 Clouds 18 1024 72 10000 2.6 180 00:26 02.06.2020
2037 Clouds 18 1024 72 10000 2.6 180 23:59 01.06.2020
2038 Clouds 18 1024 72 10000 2.6 180 23:38 01.06.2020
2039 Clouds 19 1024 72 10000 1.93 104 23:18 01.06.2020
2040 Clouds 19 1024 72 10000 1.93 104 22:56 01.06.2020
2041 Clouds 19 1024 72 10000 1.21 87 22:37 01.06.2020
2042 Clouds 19 1024 72 10000 1.21 87 22:18 01.06.2020
2043 Clouds 19 1024 72 10000 2 118 21:41 01.06.2020
2044 Clouds 20 1023 68 10000 1.04 79 21:20 01.06.2020
2045 Clouds 20 1023 68 10000 1.41 96 20:58 01.06.2020
2046 Clouds 20 1023 68 10000 1.41 96 20:40 01.06.2020
2047 Clouds 20 1023 68 10000 1.5 85 20:19 01.06.2020
2048 Clouds 20 1023 68 10000 1.5 85 19:57 01.06.2020
2049 Clouds 20 1023 68 10000 1.5 85 19:39 01.06.2020
2050 Clouds 22 1022 56 10000 6.2 110 19:19 01.06.2020
2051 Clouds 22 1022 56 10000 6.2 110 18:56 01.06.2020
2052 Clouds 22 1022 56 10000 6.2 110 18:56 01.06.2020
2053 Clouds 22 1022 56 10000 6.2 110 18:38 01.06.2020
2054 Clouds 23 1021 53 10000 7.7 140 18:18 01.06.2020
2055 Clouds 23 1021 53 10000 7.7 140 17:41 01.06.2020
2056 Clouds 24 1021 50 10000 6.7 140 17:20 01.06.2020
2057 Clouds 24 1021 50 10000 6.7 140 16:48 01.06.2020
2058 Clouds 24 1021 50 10000 6.7 140 16:26 01.06.2020
2059 Clouds 24 1021 50 10000 6.2 160 15:59 01.06.2020
2060 Clouds 24 1021 50 10000 6.2 160 15:40 01.06.2020
2061 Clouds 24 1022 50 10000 5.1 210 15:21 01.06.2020
2062 Clouds 24 1022 50 10000 5.1 210 14:59 01.06.2020
2063 Clouds 24 1022 50 10000 5.1 210 14:59 01.06.2020
2064 Clouds 24 1022 50 10000 5.1 210 14:41 01.06.2020
2065 Clouds 24 1023 56 10000 5.1 170 14:21 01.06.2020
2066 Clouds 24 1023 56 10000 5.1 170 14:21 01.06.2020
2067 Clouds 24 1023 56 10000 5.1 170 13:56 01.06.2020
2068 Clouds 23 1024 56 10000 3.1 240 13:38 01.06.2020
2069 Clouds 23 1024 56 10000 3.1 240 13:19 01.06.2020
2070 Clouds 24 1024 56 10000 3.1 240 12:57 01.06.2020
2071 Clouds 23 1024 56 10000 5.1 230 12:38 01.06.2020
2072 Clouds 23 1024 56 10000 5.1 230 12:20 01.06.2020
2073 Clouds 21 1025 60 10000 5.7 240 11:40 01.06.2020
2074 Clouds 21 1025 60 10000 5.7 240 11:22 01.06.2020
2075 Rain 22 1017 59 0 2.8 164 10:57 01.06.2020
2076 Rain 22 1017 59 0 2.8 164 10:38 01.06.2020
2077 Clouds 22 1018 60 0 2.84 163 10:19 01.06.2020
2078 Clouds 22 1018 60 0 2.84 163 09:55 01.06.2020
2079 Clouds 22 1018 60 0 2.84 163 09:37 01.06.2020
2080 Clouds 22 1018 60 0 2.84 163 09:37 01.06.2020
2081 Clouds 14 1018 86 0 2.74 156 09:19 01.06.2020
2082 Clouds 14 1018 85 0 2.62 165 08:42 01.06.2020
2083 Clouds 14 1018 87 0 2.02 175 08:23 01.06.2020
2084 Clouds 13 1018 91 0 2.02 175 07:44 01.06.2020
2085 Clouds 12 1018 92 0 1.07 193 07:26 01.06.2020
2086 Clouds 11 1017 92 0 1.07 193 06:52 01.06.2020
2087 Clouds 11 1017 91 0 0.63 209 06:20 01.06.2020
2088 Clouds 11 1017 89 0 0.63 209 05:49 01.06.2020
2089 Clouds 12 1016 89 0 0.94 186 04:23 01.06.2020
2090 Clouds 13 1015 88 0 1.34 112 03:45 01.06.2020
2091 Clouds 13 1015 88 0 1.34 111 03:18 01.06.2020
2092 Clouds 13 1015 87 0 2.24 93 01:47 01.06.2020
2093 Clouds 13 1015 87 0 2.68 89 01:28 01.06.2020
2094 Clouds 13 1015 86 0 2.24 89 00:57 01.06.2020
2095 Clouds 13 1015 86 0 2.24 96 00:39 01.06.2020
2096 Clouds 13 1016 86 0 2.68 99 00:20 01.06.2020
2097 Clouds 13 1016 85 0 2.68 101 23:55 31.05.2020
2098 Clouds 13 1016 85 0 2.68 101 23:55 31.05.2020
2099 Clouds 13 1016 85 0 3.13 109 23:36 31.05.2020
2100 Clouds 14 1016 84 0 3.13 113 23:18 31.05.2020
2101 Clouds 14 1017 83 0 3.58 96 22:42 31.05.2020
2102 Clouds 14 1017 82 0 3.13 103 22:24 31.05.2020
2103 Clouds 18 1025 72 10000 1.5 30 21:58 31.05.2020
2104 Clouds 18 1025 72 10000 1.5 30 21:39 31.05.2020
2105 Clouds 18 1025 72 10000 1.5 30 21:39 31.05.2020
2106 Clouds 18 1024 68 10000 2.54 99 21:21 31.05.2020
2107 Clouds 18 1024 68 10000 2.3 103 21:21 31.05.2020
2108 Clouds 18 1024 68 10000 2.54 99 21:21 31.05.2020
2109 Clouds 18 1024 68 10000 2.54 99 21:21 31.05.2020
2110 Clouds 19 1024 68 10000 2.6 110 20:48 31.05.2020
2111 Clouds 18 1023 68 10000 3.21 106 20:25 31.05.2020
2112 Clouds 18 1023 68 10000 3.21 106 19:57 31.05.2020
2113 Clouds 20 1024 60 10000 4.1 100 19:39 31.05.2020
2114 Clouds 20 1024 60 10000 4.1 100 19:21 31.05.2020
2115 Clouds 21 1023 56 10000 3.6 90 18:58 31.05.2020
2116 Clouds 23 1022 46 10000 5.1 150 18:40 31.05.2020
2117 Clouds 23 1022 46 10000 5.1 150 18:21 31.05.2020
2118 Clouds 25 1022 44 10000 4.1 140 17:43 31.05.2020
2119 Clouds 25 1021 41 10000 7.7 150 17:24 31.05.2020
2120 Clouds 25 1022 41 10000 5.7 150 16:43 31.05.2020
2121 Clouds 25 1021 38 10000 5.1 120 16:23 31.05.2020
2122 Clouds 25 1021 38 10000 5.1 120 15:59 31.05.2020
2123 Clouds 26 1022 39 10000 4.6 160 15:38 31.05.2020
2124 Clouds 25 1022 41 10000 4.1 180 15:20 31.05.2020
2125 Clouds 25 1022 41 10000 4.1 180 14:45 31.05.2020
2126 Clouds 25 1023 44 10000 3.1 180 14:20 31.05.2020
2127 Clouds 25 1023 44 10000 3.1 180 13:56 31.05.2020
2128 Clouds 24 1023 41 10000 5.1 200 13:37 31.05.2020
2129 Clouds 24 1023 41 10000 5.1 200 13:19 31.05.2020
2130 Clouds 24 1023 41 10000 5.1 200 12:55 31.05.2020
2131 Clouds 23 1024 53 10000 4.1 150 12:37 31.05.2020
2132 Clouds 23 1024 53 10000 4.1 150 12:18 31.05.2020
2133 Clouds 23 1024 53 10000 4.1 150 11:47 31.05.2020
2134 Clouds 22 1025 53 10000 2.6 180 11:23 31.05.2020
2135 Clouds 22 1025 53 10000 2.6 180 10:55 31.05.2020
2136 Clouds 20 1025 64 10000 2.6 150 10:37 31.05.2020
2137 Clouds 20 1025 64 10000 2.6 150 10:18 31.05.2020
2138 Clouds 18 1026 77 10000 2.1 190 09:42 31.05.2020
2139 Clouds 18 1025 77 10000 1.92 149 09:22 31.05.2020
2140 Clouds 18 1025 77 10000 1.92 149 08:57 31.05.2020
2141 Clear 16 1024 77 10000 1.92 149 08:37 31.05.2020
2142 Clear 15 1024 77 10000 1.29 140 08:19 31.05.2020
2143 Clear 13 1025 93 10000 1.5 240 07:40 31.05.2020
2144 Clear 13 1024 87 10000 2.6 310 07:20 31.05.2020
2145 Clear 12 1024 87 10000 2.6 310 06:50 31.05.2020
2146 Clouds 10 1024 100 10000 3.6 230 06:31 31.05.2020
2147 Clouds 10 1024 100 10000 3.6 230 06:31 31.05.2020
2148 Clouds 12 1023 87 10000 2.6 290 05:40 31.05.2020
2149 Clouds 13 1023 82 10000 2.6 290 04:25 31.05.2020
2150 Clouds 13 1023 82 10000 2.6 290 03:48 31.05.2020
2151 Clouds 13 1024 87 10000 2.6 290 02:59 31.05.2020
2152 Clear 15 1024 77 10000 3.1 230 01:48 31.05.2020
2153 Clear 14 1023 87 10000 1.75 41 01:00 31.05.2020
2154 Clear 16 1023 77 10000 2.14 63 00:30 31.05.2020
2155 Clear 16 1023 77 10000 2.14 63 23:55 30.05.2020
2156 Clear 17 1023 68 10000 2.14 63 23:36 30.05.2020
2157 Clear 17 1023 68 10000 2.73 77 23:18 30.05.2020
2158 Clear 17 1024 67 10000 1.5 30 22:41 30.05.2020
2159 Clouds 18 1023 59 10000 2.6 80 22:22 30.05.2020
2160 Clouds 19 1023 59 10000 2.6 80 21:56 30.05.2020
2161 Clouds 18 1023 68 10000 2.81 86 21:37 30.05.2020
2162 Clouds 18 1023 68 10000 3.17 90 21:18 30.05.2020
2163 Clouds 18 1023 68 10000 3.17 90 20:56 30.05.2020
2164 Clouds 19 1022 59 10000 2.1 150 20:37 30.05.2020
2165 Clouds 19 1022 59 10000 2.1 150 20:19 30.05.2020
2166 Clouds 20 1023 60 10000 3.6 70 19:42 30.05.2020
2167 Clouds 19 1021 55 10000 3.45 109 19:21 30.05.2020
2168 Clouds 20 1021 55 10000 3.45 109 18:45 30.05.2020
2169 Clouds 24 1021 36 10000 6.2 150 18:24 30.05.2020
2170 Clouds 24 1021 36 10000 6.2 150 17:55 30.05.2020
2171 Clouds 25 1020 33 10000 5.1 150 17:37 30.05.2020
2172 Clouds 25 1020 33 10000 5.1 150 17:18 30.05.2020
2173 Clouds 25 1020 33 10000 5.7 150 16:41 30.05.2020
2174 Clouds 25 1020 33 10000 5.7 150 16:22 30.05.2020
2175 Clouds 25 1020 33 10000 5.7 150 15:48 30.05.2020
2176 Clouds 26 1021 26 10000 6.2 130 15:29 30.05.2020
2177 Clouds 26 1021 26 10000 6.2 130 14:48 30.05.2020
2178 Clouds 26 1021 29 10000 5.1 170 14:30 30.05.2020
2179 Clouds 26 1021 29 10000 5.1 170 13:58 30.05.2020
2180 Clouds 25 1022 36 10000 5.1 170 13:40 30.05.2020
2181 Clouds 26 1022 29 10000 6.2 180 13:18 30.05.2020
2182 Clouds 25 1023 38 10000 5.1 170 12:39 30.05.2020
2183 Clouds 25 1023 38 10000 5.1 170 12:20 30.05.2020
2184 Clouds 25 1023 38 10000 5.1 170 11:42 30.05.2020
2185 Clouds 24 1023 33 10000 5.1 100 11:23 30.05.2020
2186 Clouds 24 1023 33 10000 5.1 100 10:58 30.05.2020
2187 Clouds 23 1024 56 10000 2.1 170 10:38 30.05.2020
2188 Clouds 22 1024 56 10000 2.6 140 10:20 30.05.2020
2189 Clouds 22 1024 56 10000 2.6 140 10:20 30.05.2020
2190 Clouds 22 1024 56 10000 2.6 140 09:45 30.05.2020
2191 Clouds 20 1023 72 10000 2.11 178 09:26 30.05.2020
2192 Clear 18 1024 82 10000 1 0 08:45 30.05.2020
2193 Clouds 17 1023 82 10000 1.2 185 08:27 30.05.2020
2194 Clear 15 1023 93 10000 1.5 230 07:41 30.05.2020
2195 Clouds 16 1022 82 10000 1.5 300 07:20 30.05.2020
2196 Clouds 13 1022 93 10000 0.11 182 06:31 30.05.2020
2197 Clouds 13 1022 93 10000 0.27 6 05:52 30.05.2020
2198 Clouds 13 1022 93 10000 2.1 240 05:19 30.05.2020
2199 Clouds 16 1021 93 10000 1.03 45 02:56 30.05.2020
2200 Clouds 16 1022 87 10000 1.75 46 02:23 30.05.2020
2201 Clouds 15 1022 87 10000 2.21 56 01:20 30.05.2020
2202 Clouds 16 1022 87 10000 2.6 350 00:36 30.05.2020
2203 Clouds 16 1022 87 10000 2.6 350 00:18 30.05.2020
2204 Clouds 14 1012 88 0 3.13 112 23:41 29.05.2020
2205 Clouds 17 1023 82 10000 1.5 360 23:20 29.05.2020
2206 Clouds 17 1023 82 10000 1.5 360 22:56 29.05.2020
2207 Clouds 18 1022 77 10000 3.1 60 22:38 29.05.2020
2208 Clouds 18 1022 77 10000 3.1 60 22:18 29.05.2020
2209 Clouds 18 1023 77 10000 1.5 60 21:41 29.05.2020
2210 Clouds 19 1022 72 10000 3.1 90 21:21 29.05.2020
2211 Clouds 19 1022 72 10000 3.1 90 20:59 29.05.2020
2212 Clouds 19 1022 68 10000 3.03 85 20:40 29.05.2020
2213 Clouds 19 1022 68 10000 3 90 20:19 29.05.2020
2214 Clouds 19 1022 68 10000 3 90 19:44 29.05.2020
2215 Clouds 20 1021 64 10000 2.6 150 19:26 29.05.2020
2216 Clouds 20 1021 64 10000 2.6 150 18:55 29.05.2020
2217 Clouds 23 1020 53 10000 5.1 150 18:37 29.05.2020
2218 Clouds 23 1020 53 10000 5.1 150 18:18 29.05.2020
2219 Clouds 25 1021 47 10000 4.6 140 17:40 29.05.2020
2220 Clouds 24 1020 50 10000 5.1 170 17:21 29.05.2020
2221 Clouds 24 1020 50 10000 5.1 170 16:58 29.05.2020
2222 Clouds 25 1020 44 10000 6.2 170 16:40 29.05.2020
2223 Clouds 25 1020 44 10000 6.2 170 16:21 29.05.2020
2224 Clouds 26 1021 47 10000 4.6 150 15:42 29.05.2020
2225 Clouds 25 1020 44 10000 6.2 170 15:22 29.05.2020
2226 Clouds 26 1021 47 10000 4.1 150 14:59 29.05.2020
2227 Clouds 25 1021 47 10000 6.2 150 14:39 29.05.2020
2228 Clouds 25 1021 47 10000 6.2 150 14:20 29.05.2020
2229 Clouds 25 1023 47 10000 5.1 170 13:43 29.05.2020
2230 Clouds 25 1023 47 10000 5.1 170 13:24 29.05.2020
2231 Clouds 25 1023 47 10000 5.1 170 12:58 29.05.2020
2232 Clouds 23 1024 60 10000 3.6 170 12:39 29.05.2020
2233 Clouds 23 1023 53 10000 5.1 150 12:21 29.05.2020
2234 Clouds 23 1023 53 10000 5.1 150 11:44 29.05.2020
2235 Clouds 22 1024 64 10000 5.1 160 11:25 29.05.2020
2236 Clouds 22 1024 64 10000 5.1 160 10:56 29.05.2020
2237 Clouds 21 1024 73 10000 5.1 160 10:36 29.05.2020
2238 Clouds 21 1024 73 10000 5.1 160 10:18 29.05.2020
2239 Clouds 19 1024 82 10000 3.1 150 09:42 29.05.2020
2240 Clouds 19 1024 82 10000 3.1 150 09:19 29.05.2020
2241 Clouds 19 1024 82 10000 3.1 150 08:48 29.05.2020
2242 Clouds 18 1024 93 10000 3.1 210 08:26 29.05.2020
2243 Clouds 17 1024 93 10000 3.1 210 07:58 29.05.2020
2244 Clouds 16 1023 93 10000 1.5 200 07:37 29.05.2020
2245 Clouds 16 1023 93 10000 1.5 200 07:18 29.05.2020
2246 Clouds 16 1023 93 10000 1.5 200 06:46 29.05.2020
2247 Clouds 16 1022 93 10000 1.31 66 06:26 29.05.2020
2248 Clouds 16 1022 93 10000 1.31 66 05:45 29.05.2020
2249 Clouds 16 1022 87 10000 3.1 220 02:35 29.05.2020
2250 Clouds 17 1023 93 10000 2.1 290 01:29 29.05.2020
2251 Clouds 18 1023 88 10000 1.5 360 00:54 29.05.2020
2252 Clouds 18 1023 82 10000 1.5 0 00:34 29.05.2020
2253 Clouds 18 1023 88 10000 2.1 40 23:59 28.05.2020
2254 Clouds 18 1023 88 10000 2.6 30 23:39 28.05.2020
2255 Clouds 18 1023 88 10000 2.6 30 23:18 28.05.2020
2256 Clouds 19 1023 77 10000 1.5 50 22:42 28.05.2020
2257 Clouds 20 1023 68 10000 5.1 100 22:24 28.05.2020
2258 Clouds 21 1023 68 10000 5.1 100 21:57 28.05.2020
2259 Clouds 21 1022 68 10000 5.1 90 21:38 28.05.2020
2260 Clouds 21 1022 68 10000 5.1 90 21:19 28.05.2020
2261 Clouds 21 1022 68 10000 5.1 90 20:57 28.05.2020
2262 Clouds 22 1021 64 10000 6.2 90 20:38 28.05.2020
2263 Clouds 22 1021 64 10000 6.2 90 20:18 28.05.2020
2264 Clouds 22 1021 64 10000 6.2 90 19:54 28.05.2020
2265 Clouds 22 1021 64 10000 6.2 90 19:54 28.05.2020
2266 Clouds 23 1020 60 10000 6.2 100 19:36 28.05.2020
2267 Clouds 23 1020 60 10000 6.2 100 19:18 28.05.2020
2268 Clouds 24 1020 57 10000 7.7 120 18:41 28.05.2020
2269 Clouds 24 1020 57 10000 7.7 120 18:22 28.05.2020
2270 Clouds 24 1021 57 10000 5.1 100 17:43 28.05.2020
2271 Clouds 25 1020 44 10000 5.1 150 17:22 28.05.2020
2272 Clouds 26 1020 44 10000 5.1 150 16:58 28.05.2020
2273 Clouds 26 1020 41 10000 5.1 150 16:38 28.05.2020
2274 Clouds 26 1020 41 10000 5.1 150 16:20 28.05.2020
2275 Clouds 26 1020 41 10000 5.1 150 15:42 28.05.2020
2276 Clouds 26 1020 41 10000 5.1 150 15:24 28.05.2020
2277 Clouds 26 1020 41 10000 5.1 150 14:57 28.05.2020
2278 Clouds 25 1021 47 10000 2.6 170 14:38 28.05.2020
2279 Clouds 25 1021 47 10000 5.1 130 14:20 28.05.2020
2280 Clouds 25 1022 50 10000 3.1 120 13:40 28.05.2020
2281 Clouds 25 1023 50 10000 3.6 150 13:21 28.05.2020
2282 Clouds 25 1023 50 10000 3.6 150 12:42 28.05.2020
2283 Clouds 23 1023 60 10000 4.1 130 12:19 28.05.2020
2284 Clouds 23 1025 60 10000 2.6 60 11:44 28.05.2020
2285 Clouds 22 1024 64 10000 2.1 180 11:26 28.05.2020
2286 Clouds 22 1024 64 10000 2.1 180 10:57 28.05.2020
2287 Clouds 21 1025 68 10000 2.1 80 10:39 28.05.2020
2288 Clouds 21 1025 68 10000 2.1 80 10:20 28.05.2020
2289 Clouds 19 1025 82 10000 2.88 79 09:39 28.05.2020
2290 Clouds 19 1025 82 10000 2.7 70 09:21 28.05.2020
2291 Clouds 18 1025 82 10000 2.7 70 08:50 28.05.2020
2292 Clouds 17 1025 88 10000 2.18 55 08:27 28.05.2020
2293 Clouds 17 1025 88 10000 2.18 55 07:46 28.05.2020
2294 Clouds 17 1024 88 10000 4.1 40 07:26 28.05.2020
2295 Clouds 17 1024 88 10000 4.1 40 06:59 28.05.2020
2296 Clouds 17 1024 93 10000 1.8 42 06:38 28.05.2020
2297 Clouds 17 1024 93 10000 1.31 55 06:19 28.05.2020
2298 Clouds 17 1023 88 10000 1.31 55 05:36 28.05.2020
2299 Clouds 17 1023 88 10000 1.5 93 04:32 28.05.2020
2300 Clouds 17 1023 88 10000 1.83 96 03:46 28.05.2020
2301 Clouds 17 1024 88 10000 3.1 250 02:45 28.05.2020
2302 Clouds 17 1024 88 10000 3.1 250 02:45 28.05.2020
2303 Clouds 17 1024 88 10000 2.1 260 01:53 28.05.2020
2304 Clouds 17 1024 88 10000 2.1 350 00:55 28.05.2020
2305 Clouds 19 1023 72 10000 4.1 70 00:37 28.05.2020
2306 Clouds 19 1023 72 10000 4.1 70 00:18 28.05.2020
2307 Clouds 20 1023 72 10000 2.6 50 23:39 27.05.2020
2308 Clouds 20 1023 72 10000 2.6 50 23:21 27.05.2020
2309 Clouds 20 1023 72 10000 2.6 50 23:21 27.05.2020
2310 Clouds 20 1023 72 10000 2.6 50 22:58 27.05.2020
2311 Clouds 20 1023 72 10000 5.1 80 22:40 27.05.2020
2312 Clouds 20 1023 72 10000 5.1 80 22:21 27.05.2020
2313 Rain 19 1024 82 10000 3.1 50 21:42 27.05.2020
2314 Clouds 20 1023 73 10000 3.1 80 21:24 27.05.2020
2315 Clouds 21 1023 73 10000 3.1 80 20:59 27.05.2020
2316 Clouds 21 1022 64 10000 3.1 90 20:41 27.05.2020
2317 Clouds 21 1022 64 10000 3.1 90 20:21 27.05.2020
2318 Clouds 21 1022 64 10000 3.1 90 19:57 27.05.2020
2319 Clouds 22 1021 68 10000 4.6 100 19:39 27.05.2020
2320 Clouds 22 1021 68 10000 4.6 100 19:19 27.05.2020
2321 Clouds 23 1022 60 10000 4.6 100 18:40 27.05.2020
2322 Clouds 22 1021 68 10000 5.1 130 18:19 27.05.2020
2323 Clouds 23 1021 68 10000 5.1 130 17:56 27.05.2020
2324 Clouds 25 1021 47 10000 7.7 190 17:37 27.05.2020
2325 Clouds 25 1021 47 10000 7.7 190 17:18 27.05.2020
2326 Clouds 25 1021 47 10000 7.7 190 16:54 27.05.2020
2327 Clouds 26 1021 44 10000 4.6 120 16:36 27.05.2020
2328 Clouds 26 1021 44 10000 4.6 120 16:18 27.05.2020
2329 Clouds 26 1022 47 10000 4.1 120 15:40 27.05.2020
2330 Clouds 26 1021 47 10000 3.41 120 15:21 27.05.2020
2331 Clouds 25 1022 53 10000 1.5 0 14:44 27.05.2020
2332 Clouds 25 1022 50 10000 2.1 180 14:22 27.05.2020
2333 Clouds 25 1022 50 10000 2.1 180 13:55 27.05.2020
2334 Clouds 24 1023 53 10000 3.6 160 13:36 27.05.2020
2335 Clouds 24 1023 53 10000 3.6 160 13:18 27.05.2020
2336 Clouds 23 1024 56 10000 2.6 190 12:40 27.05.2020
2337 Clouds 23 1024 56 10000 2.6 190 12:22 27.05.2020
2338 Clouds 23 1025 64 10000 1.5 0 11:40 27.05.2020
2339 Clouds 22 1025 68 10000 2.6 140 11:22 27.05.2020
2340 Clouds 22 1025 68 10000 2.6 140 10:58 27.05.2020
2341 Clouds 20 1025 77 10000 2.6 220 10:39 27.05.2020
2342 Clouds 20 1025 77 10000 2.6 220 10:39 27.05.2020
2343 Clouds 20 1025 77 10000 2.6 220 10:20 27.05.2020
2344 Clouds 19 1026 82 10000 3.1 210 09:42 27.05.2020
2345 Clouds 19 1025 82 10000 4.1 210 09:22 27.05.2020
2346 Clouds 19 1025 82 10000 4.1 210 08:58 27.05.2020
2347 Clouds 17 1024 93 10000 1.97 160 08:38 27.05.2020
2348 Clouds 17 1024 93 10000 1.41 160 08:19 27.05.2020
2349 Clouds 17 1024 93 10000 1.41 160 07:51 27.05.2020
2350 Clouds 17 1024 93 10000 1.41 160 07:51 27.05.2020
2351 Clouds 17 1023 93 10000 1.41 160 07:33 27.05.2020
2352 Clouds 16 1023 93 10000 1.05 157 06:52 27.05.2020
2353 Clouds 16 1023 93 10000 0.79 158 06:24 27.05.2020
2354 Clouds 17 1023 93 10000 0.79 158 05:50 27.05.2020
2355 Clouds 17 1023 93 10000 2.6 210 05:23 27.05.2020
2356 Clouds 18 1023 88 10000 2.1 190 02:42 27.05.2020
2357 Clouds 18 1023 88 10000 2.1 190 02:18 27.05.2020
2358 Clouds 18 1023 88 10000 2.6 20 01:31 27.05.2020
2359 Clouds 18 1023 88 10000 2.6 20 00:47 27.05.2020
2360 Clouds 18 1023 88 10000 0.97 53 00:20 27.05.2020
2361 Clouds 18 1023 88 10000 0.97 53 23:57 26.05.2020
2362 Clouds 18 1024 77 10000 4.1 60 23:39 26.05.2020
2363 Clouds 19 1024 77 10000 4.1 60 23:20 26.05.2020
2364 Clouds 19 1024 77 10000 3.1 60 22:42 26.05.2020
2365 Clouds 20 1023 72 10000 2.6 60 22:23 26.05.2020
2366 Clouds 19 1023 72 10000 2.6 60 21:59 26.05.2020
2367 Clouds 18 1024 82 10000 2.1 60 21:41 26.05.2020
2368 Clouds 20 1022 68 10000 4.1 80 21:22 26.05.2020
2369 Clouds 20 1022 68 10000 4.1 80 20:59 26.05.2020
2370 Clouds 21 1022 68 10000 3.6 90 20:41 26.05.2020
2371 Clouds 21 1022 68 10000 3.6 90 20:20 26.05.2020
2372 Clouds 22 1021 68 10000 5.7 100 19:41 26.05.2020
2373 Clouds 22 1021 68 10000 5.7 100 19:21 26.05.2020
2374 Clouds 22 1021 68 10000 5.7 100 18:59 26.05.2020
2375 Clouds 23 1021 56 10000 4.1 80 18:39 26.05.2020
2376 Clouds 23 1021 56 10000 4.1 80 18:21 26.05.2020
2377 Clouds 24 1022 53 10000 4.6 90 17:42 26.05.2020
2378 Clouds 25 1021 53 10000 3.1 90 17:23 26.05.2020
2379 Clouds 25 1021 53 10000 3.1 90 16:49 26.05.2020
2380 Clouds 25 1021 53 10000 6.2 150 16:23 26.05.2020
2381 Clouds 25 1021 53 10000 6.2 150 15:59 26.05.2020
2382 Clouds 26 1021 54 10000 4.1 60 15:41 26.05.2020
2383 Clouds 25 1021 50 10000 2.6 130 15:20 26.05.2020
2384 Clouds 25 1021 50 10000 2.6 130 14:55 26.05.2020
2385 Clouds 24 1021 53 10000 2.6 140 14:37 26.05.2020
2386 Clouds 24 1021 53 10000 2.6 140 14:18 26.05.2020
2387 Clouds 23 1023 60 10000 2.6 110 13:41 26.05.2020
2388 Clouds 24 1023 53 10000 2.6 130 13:22 26.05.2020
2389 Clouds 23 1024 60 10000 2.1 130 12:44 26.05.2020
2390 Clouds 22 1023 60 10000 3.13 107 12:23 26.05.2020
2391 Clouds 22 1023 60 10000 3.13 107 11:59 26.05.2020
2392 Clouds 21 1024 68 10000 2.76 96 11:41 26.05.2020
2393 Clouds 21 1024 68 10000 2.76 96 11:20 26.05.2020
2394 Clouds 20 1024 68 10000 1 0 10:47 26.05.2020
2395 Clouds 19 1024 72 10000 2.52 87 10:20 26.05.2020
2396 Clouds 19 1024 72 10000 2.52 87 09:59 26.05.2020
2397 Clouds 19 1024 77 10000 2.6 90 09:38 26.05.2020
2398 Clouds 19 1024 77 10000 2.6 90 09:19 26.05.2020
2399 Clouds 18 1024 88 10000 1 0 08:41 26.05.2020
2400 Clouds 16 1015 77 0 2.42 66 08:22 26.05.2020
2401 Clouds 15 1015 86 0 2.42 66 07:43 26.05.2020
2402 Clouds 13 1015 91 0 1.74 78 07:23 26.05.2020
2403 Clouds 11 1015 91 0 1.74 78 06:53 26.05.2020
2404 Clouds 11 1014 91 0 1.74 78 06:31 26.05.2020
2405 Clouds 12 1014 90 0 1.39 82 05:43 26.05.2020
2406 Clouds 16 1022 93 10000 3.1 70 05:21 26.05.2020
2407 Clouds 12 1014 88 0 1.34 78 04:48 26.05.2020
2408 Clouds 13 1013 87 0 0.98 96 04:30 26.05.2020
2409 Clouds 13 1013 88 0 1.34 64 03:50 26.05.2020
2410 Clouds 13 1012 86 0 1.34 68 02:40 26.05.2020
2411 Clouds 13 1012 88 0 1.79 88 01:47 26.05.2020
2412 Clouds 14 1012 86 0 2.24 152 00:48 26.05.2020
2413 Clouds 14 1012 86 0 2.68 83 00:29 26.05.2020
2414 Clouds 14 1013 86 0 4.92 105 23:59 25.05.2020
2415 Clouds 14 1013 86 0 2.68 115 23:39 25.05.2020
2416 Clouds 14 1013 87 0 4.47 115 23:20 25.05.2020
2417 Clouds 14 1014 87 0 4.47 94 22:56 25.05.2020
2418 Clouds 14 1014 87 0 4.47 94 22:38 25.05.2020
2419 Clear 14 1014 87 0 5.36 111 22:20 25.05.2020
2420 Clear 14 1014 87 0 3.13 98 21:59 25.05.2020
2421 Clear 14 1014 87 0 3.13 98 21:59 25.05.2020
2422 Clear 14 1014 87 0 3.13 113 21:39 25.05.2020
2423 Clouds 15 1014 86 0 3.13 108 21:20 25.05.2020
2424 Clouds 15 1014 85 0 2.68 105 20:59 25.05.2020
2425 Clouds 15 1014 85 0 3.58 111 20:41 25.05.2020
2426 Clouds 15 1014 84 0 4.02 92 20:21 25.05.2020
2427 Clouds 15 1014 84 0 4.47 95 19:58 25.05.2020
2428 Clouds 16 1013 83 0 4.92 102 19:39 25.05.2020
2429 Clouds 16 1014 82 0 4.02 107 19:18 25.05.2020
2430 Clouds 16 1013 82 0 4.47 107 18:45 25.05.2020
2431 Clouds 23 1021 49 10000 6.2 90 18:22 25.05.2020
2432 Rain 16 1013 81 0 2.24 111 17:58 25.05.2020
2433 Clouds 24 1021 50 10000 5.1 70 17:39 25.05.2020
2434 Clouds 24 1021 50 10000 5.1 70 17:21 25.05.2020
2435 Clouds 18 1013 69 0 3.86 101 16:56 25.05.2020
2436 Clouds 18 1013 67 0 0.45 131 16:38 25.05.2020
2437 Clouds 19 1013 66 0 1.79 132 16:19 25.05.2020
2438 Clouds 25 1022 47 10000 4.1 70 15:42 25.05.2020
2439 Clouds 25 1021 44 10000 5.1 90 15:19 25.05.2020
2440 Clouds 25 1021 44 10000 5.1 90 14:56 25.05.2020
2441 Clouds 24 1022 60 10000 5.1 60 14:38 25.05.2020
2442 Clouds 24 1022 60 10000 5.1 60 14:18 25.05.2020
2443 Clouds 24 1023 53 10000 4.1 90 13:39 25.05.2020
2444 Clouds 23 1023 60 10000 5.1 150 13:20 25.05.2020
2445 Clouds 23 1023 60 10000 5.1 150 12:57 25.05.2020
2446 Clouds 23 1023 60 10000 5.1 150 12:57 25.05.2020
2447 Clouds 23 1023 60 10000 4.1 180 12:37 25.05.2020
2448 Clouds 23 1023 60 10000 4.1 180 12:19 25.05.2020
2449 Clouds 22 1025 64 10000 1.5 0 11:39 25.05.2020
2450 Clouds 21 1024 72 10000 2.6 100 11:20 25.05.2020
2451 Clouds 20 1024 72 10000 2.6 100 10:56 25.05.2020
2452 Clouds 20 1025 77 10000 2.64 105 10:37 25.05.2020
2453 Clouds 20 1025 77 10000 2.63 112 10:18 25.05.2020
2454 Clouds 19 1025 77 10000 2.63 112 09:54 25.05.2020
2455 Clouds 18 1024 82 10000 2.63 112 09:36 25.05.2020
2456 Clouds 18 1024 82 10000 2.35 118 09:18 25.05.2020
2457 Clouds 16 1024 93 10000 3.1 240 08:39 25.05.2020
2458 Clouds 16 1024 93 10000 3.1 240 08:20 25.05.2020
2459 Clouds 16 1024 93 10000 3.1 240 07:48 25.05.2020
2460 Clouds 15 1023 87 10000 2.6 210 07:26 25.05.2020
2461 Clouds 15 1023 87 10000 2.6 210 06:57 25.05.2020
2462 Clouds 15 1023 87 10000 2.6 180 06:35 25.05.2020
2463 Clouds 16 1023 93 10000 3.1 240 05:24 25.05.2020
2464 Clouds 16 1022 93 10000 1.78 126 03:26 25.05.2020
2465 Clouds 16 1022 93 10000 1.78 126 02:47 25.05.2020
2466 Clouds 17 1023 93 10000 1.65 92 02:20 25.05.2020
2467 Rain 13 1014 92 0 1.79 100 01:41 25.05.2020
2468 Clouds 18 1024 88 10000 2.1 230 00:47 25.05.2020
2469 Clouds 17 1023 93 10000 1.02 57 00:26 25.05.2020
2470 Clouds 17 1023 93 10000 1.02 57 23:58 24.05.2020
2471 Clouds 17 1023 93 10000 1.34 67 23:39 24.05.2020
2472 Clouds 17 1023 93 10000 1.02 57 23:39 24.05.2020
2473 Clouds 17 1023 93 10000 1.34 67 23:20 24.05.2020
2474 Clouds 18 1024 88 10000 3.1 240 22:55 24.05.2020
2475 Clouds 18 1024 88 10000 3.1 240 22:55 24.05.2020
2476 Clouds 18 1024 88 10000 1.34 67 22:37 24.05.2020
2477 Clouds 18 1024 88 10000 1.51 74 22:18 24.05.2020
2478 Clouds 18 1024 88 10000 1.51 74 21:54 24.05.2020
2479 Clouds 19 1023 77 10000 1.51 74 21:36 24.05.2020
2480 Clouds 19 1023 77 10000 1.31 84 21:18 24.05.2020
2481 Clouds 20 1022 72 10000 2.6 180 20:41 24.05.2020
2482 Clouds 20 1022 72 10000 2.6 180 20:19 24.05.2020
2483 Clouds 20 1022 72 10000 2.6 180 19:56 24.05.2020
2484 Clouds 21 1021 68 10000 3.1 120 19:36 24.05.2020
2485 Clouds 21 1021 68 10000 3.1 120 19:18 24.05.2020
2486 Clouds 22 1021 64 10000 3.1 150 18:42 24.05.2020
2487 Clouds 22 1021 64 10000 3.1 150 18:23 24.05.2020
2488 Clouds 22 1021 64 10000 3.1 150 17:57 24.05.2020
2489 Clouds 23 1021 60 10000 5.1 130 17:38 24.05.2020
2490 Clouds 23 1021 60 10000 5.1 130 17:19 24.05.2020
2491 Clouds 23 1021 60 10000 5.1 130 16:56 24.05.2020
2492 Clouds 24 1021 57 10000 5.1 160 16:37 24.05.2020
2493 Clouds 24 1021 57 10000 5.1 160 16:19 24.05.2020
2494 Clouds 24 1021 57 10000 5.1 160 15:55 24.05.2020
2495 Clouds 24 1021 57 10000 5.1 160 15:37 24.05.2020
2496 Clouds 24 1021 57 10000 5.1 160 15:18 24.05.2020
2497 Rain 18 1012 84 0 3.23 125 14:41 24.05.2020
2498 Rain 18 1013 83 0 3.13 137 14:22 24.05.2020
2499 Rain 18 1013 82 0 0.45 101 13:56 24.05.2020
2500 Rain 18 1013 82 0 0.45 101 13:38 24.05.2020
2501 Rain 18 1013 81 0 3.14 140 13:20 24.05.2020
2502 Rain 19 1014 80 0 0.45 101 12:57 24.05.2020
2503 Rain 19 1014 79 0 0.45 101 12:38 24.05.2020
2504 Clouds 18 1015 82 0 3.02 128 12:19 24.05.2020
2505 Clouds 18 1015 83 0 3.02 128 11:56 24.05.2020
2506 Clouds 18 1015 83 0 3.02 128 11:56 24.05.2020
2507 Clouds 18 1015 83 0 0.45 101 11:37 24.05.2020
2508 Clouds 17 1015 84 0 2.68 126 11:19 24.05.2020
2509 Clouds 16 1016 87 0 2.68 126 10:43 24.05.2020
2510 Clouds 16 1016 86 0 1.92 134 10:24 24.05.2020
2511 Clouds 19 1025 77 10000 3.1 200 09:59 24.05.2020
2512 Clouds 18 1025 82 10000 1.5 116 09:41 24.05.2020
2513 Clouds 17 1025 82 10000 1.22 121 09:18 24.05.2020
2514 Clouds 17 1025 82 10000 1.22 121 08:43 24.05.2020
2515 Clouds 16 1024 87 10000 1.32 132 08:25 24.05.2020
2516 Clouds 16 1024 87 10000 1.32 132 07:59 24.05.2020
2517 Clouds 16 1024 93 10000 3.6 180 07:41 24.05.2020
2518 Clouds 15 1023 93 10000 1.15 131 07:21 24.05.2020
2519 Clouds 15 1023 93 10000 1.15 131 06:45 24.05.2020
2520 Clouds 15 1023 93 10000 2.6 180 05:50 24.05.2020
2521 Clouds 16 1023 93 10000 3.1 200 04:51 24.05.2020
2522 Clouds 16 1023 93 10000 2.6 240 03:41 24.05.2020
2523 Clouds 16 1024 87 10000 2.6 240 02:30 24.05.2020
2524 Clouds 17 1024 88 10000 1.5 210 01:46 24.05.2020
2525 Clouds 17 1024 82 10000 1.62 92 00:39 24.05.2020
2526 Clouds 17 1024 82 10000 1.65 88 00:21 24.05.2020
2527 Clouds 17 1024 82 10000 1.65 88 23:43 23.05.2020
2528 Clouds 17 1024 77 10000 1.44 94 23:23 23.05.2020
2529 Clouds 18 1025 82 10000 2.1 240 22:57 23.05.2020
2530 Clouds 18 1024 82 10000 1.44 94 22:38 23.05.2020
2531 Clouds 18 1024 82 10000 1.56 111 22:20 23.05.2020
2532 Clouds 18 1024 82 10000 1.56 111 21:57 23.05.2020
2533 Clouds 19 1024 77 10000 1.56 111 21:37 23.05.2020
2534 Clouds 19 1024 77 10000 1.74 118 21:19 23.05.2020
2535 Clouds 19 1024 77 10000 1.74 118 21:19 23.05.2020
2536 Clouds 19 1024 77 10000 1.74 118 20:57 23.05.2020
2537 Clouds 19 1023 72 10000 1.74 118 20:38 23.05.2020
2538 Clouds 19 1023 72 10000 2.04 121 20:19 23.05.2020
2539 Clouds 19 1023 72 10000 2.04 121 19:42 23.05.2020
2540 Clouds 20 1023 68 10000 2.6 150 19:20 23.05.2020
2541 Clouds 20 1023 68 10000 2.6 150 18:59 23.05.2020
2542 Clouds 22 1022 56 10000 4.1 150 18:40 23.05.2020
2543 Clouds 22 1022 56 10000 4.1 150 18:22 23.05.2020
2544 Clouds 22 1022 56 10000 4.1 150 17:55 23.05.2020
2545 Clouds 22 1022 56 10000 4.1 150 17:55 23.05.2020
2546 Clouds 23 1022 53 10000 5.1 150 17:37 23.05.2020
2547 Clouds 23 1022 53 10000 5.1 150 17:19 23.05.2020
2548 Clouds 23 1022 53 10000 5.1 150 16:56 23.05.2020
2549 Clouds 24 1022 50 10000 5.1 150 16:38 23.05.2020
2550 Clouds 24 1022 50 10000 5.1 150 16:19 23.05.2020
2551 Clouds 24 1022 50 10000 5.1 150 15:42 23.05.2020
2552 Clouds 23 1023 53 10000 5.1 180 15:24 23.05.2020
2553 Clouds 23 1023 53 10000 5.1 180 15:24 23.05.2020
2554 Clouds 23 1023 53 10000 5.1 180 14:58 23.05.2020
2555 Clouds 23 1024 56 10000 5.1 220 14:39 23.05.2020
2556 Clouds 23 1024 56 10000 5.1 220 14:21 23.05.2020
2557 Clouds 22 1025 56 10000 2.6 130 13:40 23.05.2020
2558 Clouds 22 1025 56 10000 2.6 130 13:19 23.05.2020
2559 Clouds 22 1025 56 10000 2.6 130 12:56 23.05.2020
2560 Clouds 21 1026 60 10000 2.82 153 12:38 23.05.2020
2561 Clouds 21 1026 60 10000 2.51 153 12:18 23.05.2020
2562 Clouds 21 1026 56 10000 2.6 200 11:43 23.05.2020
2563 Clouds 21 1026 56 10000 2.6 200 11:22 23.05.2020
2564 Clouds 21 1026 56 10000 2.6 200 10:57 23.05.2020
2565 Clouds 22 1018 62 0 2.17 160 10:39 23.05.2020
2566 Clouds 19 1026 72 10000 1.5 170 10:20 23.05.2020
2567 Clouds 18 1026 72 10000 1.5 170 09:58 23.05.2020
2568 Clouds 17 1026 82 10000 2.13 152 09:39 23.05.2020
2569 Clouds 17 1026 82 10000 1.92 152 09:21 23.05.2020
2570 Clouds 16 1026 87 10000 3.1 200 08:43 23.05.2020
2571 Clouds 15 1025 93 10000 1.63 152 08:20 23.05.2020
2572 Clouds 15 1025 93 10000 1.63 152 07:54 23.05.2020
2573 Clouds 15 1024 93 10000 1.63 152 07:31 23.05.2020
2574 Clouds 15 1024 93 10000 1.09 170 06:56 23.05.2020
2575 Clouds 15 1024 93 10000 1.09 170 06:56 23.05.2020
2576 Clouds 15 1024 93 10000 2.1 200 06:37 23.05.2020
2577 Clouds 15 1024 87 10000 3.1 230 05:26 23.05.2020
2578 Clouds 16 1023 82 10000 1.19 158 03:30 23.05.2020
2579 Clouds 16 1024 82 10000 1.5 200 02:58 23.05.2020
2580 Clouds 16 1024 87 10000 1.5 230 01:58 23.05.2020
2581 Clouds 16 1025 82 10000 2.6 250 01:23 23.05.2020
2582 Clouds 16 1025 82 10000 2.1 310 00:47 23.05.2020
2583 Clouds 18 1025 77 10000 1.46 142 00:26 23.05.2020
2584 Clouds 18 1025 77 10000 1.46 142 23:57 22.05.2020
2585 Clouds 18 1025 77 10000 1.46 142 23:39 22.05.2020
2586 Clouds 18 1025 77 10000 1.49 150 23:19 22.05.2020
2587 Clouds 18 1025 77 10000 1.49 150 23:19 22.05.2020
2588 Clouds 18 1026 82 10000 2.1 250 22:44 22.05.2020
2589 Clouds 19 1025 72 10000 1.5 146 22:22 22.05.2020
2590 Clouds 19 1025 72 10000 1.5 146 21:57 22.05.2020
2591 Clouds 19 1024 72 10000 1.5 146 21:39 22.05.2020
2592 Clouds 19 1024 72 10000 1.77 139 21:20 22.05.2020
2593 Clouds 20 1023 68 10000 2.1 170 20:46 22.05.2020
2594 Clouds 20 1023 68 10000 2.1 170 20:21 22.05.2020
2595 Clouds 20 1023 68 10000 2.1 170 19:59 22.05.2020
2596 Clouds 20 1023 68 10000 2.15 138 19:40 22.05.2020
2597 Clouds 20 1023 68 10000 2.52 153 19:22 22.05.2020
2598 Clouds 23 1022 56 10000 3.1 230 18:39 22.05.2020
2599 Clouds 23 1022 56 10000 3.1 230 18:20 22.05.2020
2600 Clouds 23 1022 56 10000 3.1 230 17:57 22.05.2020
2601 Clouds 24 1022 50 10000 3.6 180 17:37 22.05.2020
2602 Clouds 24 1022 50 10000 3.6 180 17:18 22.05.2020
2603 Clouds 24 1022 50 10000 3.6 180 16:43 22.05.2020
2604 Clouds 24 1022 47 10000 3.6 190 16:20 22.05.2020
2605 Clouds 24 1022 47 10000 3.6 190 15:59 22.05.2020
2606 Clouds 24 1023 53 10000 5.7 180 15:40 22.05.2020
2607 Clouds 24 1023 53 10000 5.7 180 15:40 22.05.2020
2608 Clouds 24 1023 53 10000 5.7 180 15:19 22.05.2020
2609 Clouds 24 1023 47 10000 1.5 0 14:43 22.05.2020
2610 Clouds 23 1023 56 10000 4.6 180 14:24 22.05.2020
2611 Clouds 23 1025 56 10000 4.6 170 13:45 22.05.2020
2612 Clouds 23 1025 56 10000 4.6 170 13:20 22.05.2020
2613 Clouds 22 1025 56 10000 4.6 170 12:54 22.05.2020
2614 Clouds 21 1025 60 10000 3.1 80 12:36 22.05.2020
2615 Clouds 21 1025 60 10000 3.1 80 12:18 22.05.2020
2616 Clouds 21 1025 60 10000 3.1 80 11:42 22.05.2020
2617 Clouds 21 1025 60 10000 3.1 80 11:42 22.05.2020
2618 Clouds 21 1026 72 10000 3.42 176 11:20 22.05.2020
2619 Clouds 20 1026 72 10000 3.42 176 10:55 22.05.2020
2620 Clouds 18 1026 82 10000 3.42 176 10:36 22.05.2020
2621 Clouds 18 1026 82 10000 2.45 180 10:18 22.05.2020
2622 Clouds 18 1027 82 10000 2.1 220 09:42 22.05.2020
2623 Clouds 17 1026 88 10000 2.25 164 09:19 22.05.2020
2624 Clouds 17 1026 88 10000 2.25 164 08:44 22.05.2020
2625 Clouds 16 1024 87 10000 2.11 146 08:21 22.05.2020
2626 Clouds 16 1024 87 10000 2.11 146 07:57 22.05.2020
2627 Clouds 15 1024 93 10000 1.85 139 07:27 22.05.2020
2628 Clouds 15 1024 93 10000 1.85 139 06:58 22.05.2020
2629 Clouds 15 1024 93 10000 1.59 141 06:40 22.05.2020
2630 Clouds 15 1023 93 10000 1.59 141 05:40 22.05.2020
2631 Clouds 15 1023 93 10000 1.41 144 04:51 22.05.2020
2632 Clouds 16 1024 87 10000 3.1 190 04:32 22.05.2020
2633 Clouds 16 1024 100 10000 3.1 180 03:48 22.05.2020
2634 Clouds 17 1024 93 10000 3.1 150 02:59 22.05.2020
2635 Clouds 13 1015 92 0 1.74 152 01:57 22.05.2020
2636 Clouds 17 1024 93 10000 1 0 01:29 22.05.2020
2637 Clouds 17 1024 93 10000 1.96 150 00:49 22.05.2020
2638 Clouds 17 1024 93 10000 2.18 146 00:28 22.05.2020
2639 Clouds 17 1024 88 10000 3.1 260 23:45 21.05.2020
2640 Clouds 17 1024 93 10000 2.37 136 23:25 21.05.2020
2641 Clouds 17 1024 93 10000 2.37 136 22:59 21.05.2020
2642 Clouds 17 1024 93 10000 2.37 136 22:59 21.05.2020
2643 Clouds 17 1024 93 10000 2.37 136 22:40 21.05.2020
2644 Clouds 17 1024 93 10000 1.97 130 22:22 21.05.2020
2645 Clouds 17 1024 93 10000 1.97 130 21:59 21.05.2020
2646 Clouds 17 1024 93 10000 1.97 130 21:59 21.05.2020
2647 Clouds 18 1024 88 10000 2.6 190 21:41 21.05.2020
2648 Clouds 18 1023 88 10000 1.97 136 21:22 21.05.2020
2649 Clouds 18 1023 88 10000 2.44 124 20:45 21.05.2020
2650 Clouds 19 1024 77 10000 2.65 123 20:22 21.05.2020
2651 Clouds 19 1024 77 10000 2.65 123 19:55 21.05.2020
2652 Clouds 19 1023 77 10000 2.65 123 19:36 21.05.2020
2653 Clouds 19 1023 77 10000 2.97 129 19:18 21.05.2020
2654 Clouds 21 1023 73 10000 2.97 129 18:40 21.05.2020
2655 Clouds 21 1023 73 10000 3.34 129 18:20 21.05.2020
2656 Clouds 21 1023 73 10000 3.34 129 17:58 21.05.2020
2657 Clouds 22 1021 64 10000 3.34 129 17:40 21.05.2020
2658 Clouds 22 1021 64 10000 3.35 126 17:22 21.05.2020
2659 Clouds 22 1021 64 10000 3.35 126 16:46 21.05.2020
2660 Clouds 22 1021 64 10000 3.76 131 16:24 21.05.2020
2661 Clouds 22 1021 64 10000 3.76 131 15:54 21.05.2020
2662 Clouds 21 1022 68 10000 3.76 131 15:36 21.05.2020
2663 Clouds 21 1022 68 10000 3.54 133 15:18 21.05.2020
2664 Clouds 21 1023 68 10000 3.67 128 14:39 21.05.2020
2665 Clouds 21 1023 68 10000 3.67 128 14:18 21.05.2020
2666 Clouds 21 1024 68 10000 3.67 128 13:41 21.05.2020
2667 Clouds 21 1024 68 10000 3.48 134 13:22 21.05.2020
2668 Clouds 21 1024 68 10000 3.48 134 12:57 21.05.2020
2669 Clouds 21 1025 68 10000 3.48 134 12:37 21.05.2020
2670 Clouds 21 1025 68 10000 3.46 136 12:19 21.05.2020
2671 Clouds 20 1025 72 10000 3.46 136 11:42 21.05.2020
2672 Clouds 20 1025 72 10000 3.2 127 11:23 21.05.2020
2673 Clouds 20 1025 72 10000 3.2 127 10:58 21.05.2020
2674 Clouds 20 1026 72 10000 2.1 130 10:39 21.05.2020
2675 Clouds 20 1026 72 10000 2.1 130 10:19 21.05.2020
2676 Clouds 20 1026 72 10000 2.1 160 09:54 21.05.2020
2677 Clouds 19 1026 77 10000 3.6 160 09:36 21.05.2020
2678 Clouds 19 1026 77 10000 3.6 160 09:18 21.05.2020
2679 Clouds 17 1025 88 10000 2.53 98 08:42 21.05.2020
2680 Clouds 17 1025 88 10000 2.14 97 08:23 21.05.2020
2681 Clouds 17 1025 88 10000 1.5 230 07:44 21.05.2020
2682 Clouds 16 1024 93 10000 2.16 100 07:25 21.05.2020
2683 Clouds 16 1024 93 10000 2.16 100 06:52 21.05.2020
2684 Clouds 17 1024 93 10000 2.37 107 05:54 21.05.2020
2685 Clouds 17 1023 93 10000 2.43 114 04:58 21.05.2020
2686 Clouds 17 1023 93 10000 2.02 115 03:22 21.05.2020
2687 Clouds 17 1023 93 10000 2.02 115 03:22 21.05.2020
2688 Clouds 17 1023 93 10000 2.02 115 03:22 21.05.2020
2689 Clouds 17 1024 88 10000 3.1 170 02:42 21.05.2020
2690 Clouds 17 1023 93 10000 2 108 02:21 21.05.2020
2691 Clouds 18 1025 88 10000 2 108 01:43 21.05.2020
2692 Clouds 18 1025 88 10000 1.96 113 01:19 21.05.2020
2693 Clouds 18 1025 88 10000 1.96 113 00:48 21.05.2020
2694 Clouds 18 1025 88 10000 2 116 00:23 21.05.2020
2695 Clouds 18 1025 88 10000 2 116 23:41 20.05.2020
2696 Clouds 18 1025 88 10000 1.98 110 23:20 20.05.2020
2697 Clouds 18 1025 88 10000 1.98 110 22:57 20.05.2020
2698 Clouds 18 1024 88 10000 1.98 110 22:38 20.05.2020
2699 Clouds 18 1024 88 10000 2.07 102 22:20 20.05.2020
2700 Clouds 18 1023 88 10000 2.07 102 21:40 20.05.2020
2701 Clouds 18 1023 88 10000 2.11 80 21:21 20.05.2020
2702 Clouds 18 1023 88 10000 2.11 80 20:44 20.05.2020
2703 Clouds 19 1023 88 10000 2.13 82 20:25 20.05.2020
2704 Clouds 19 1023 88 10000 2.13 82 19:57 20.05.2020
2705 Clouds 20 1022 77 10000 2.13 82 19:38 20.05.2020
2706 Clouds 20 1022 77 10000 2.07 96 19:19 20.05.2020
2707 Clouds 20 1022 77 10000 2.07 96 18:44 20.05.2020
2708 Clouds 22 1021 64 10000 2.44 110 18:26 20.05.2020
2709 Clouds 21 1021 64 10000 2.44 110 17:46 20.05.2020
2710 Clouds 23 1021 53 10000 2.99 121 17:24 20.05.2020
2711 Clouds 24 1021 53 10000 2.99 121 16:59 20.05.2020
2712 Rain 24 1022 60 10000 5.1 90 16:39 20.05.2020
2713 Clouds 25 1021 53 10000 5.1 160 16:39 20.05.2020
2714 Clouds 25 1021 53 10000 5.1 160 16:21 20.05.2020
2715 Clouds 25 1021 53 10000 5.1 160 15:55 20.05.2020
2716 Clouds 25 1021 53 10000 6.2 140 15:36 20.05.2020
2717 Clouds 25 1021 53 10000 6.2 140 15:18 20.05.2020
2718 Rain 17 1013 80 0 3.54 145 14:41 20.05.2020
2719 Rain 17 1013 80 0 3.78 161 14:20 20.05.2020
2720 Rain 18 1013 84 0 0.45 121 13:40 20.05.2020
2721 Clouds 23 1023 60 10000 4.6 150 13:19 20.05.2020
2722 Clouds 22 1025 68 10000 2.6 200 12:43 20.05.2020
2723 Clouds 22 1025 64 10000 5.1 140 12:21 20.05.2020
2724 Clouds 22 1025 64 10000 5.1 140 11:57 20.05.2020
2725 Clouds 21 1025 73 10000 2.6 180 11:36 20.05.2020
2726 Clouds 21 1025 73 10000 2.6 180 11:18 20.05.2020
2727 Clouds 21 1025 73 10000 2.6 180 10:42 20.05.2020
2728 Clouds 20 1025 77 10000 4.1 140 10:20 20.05.2020
2729 Clouds 19 1025 77 10000 4.1 140 09:44 20.05.2020
2730 Clouds 19 1025 77 10000 4.1 160 09:21 20.05.2020
2731 Clouds 19 1025 77 10000 4.1 160 09:21 20.05.2020
2732 Clouds 19 1025 77 10000 4.1 160 08:54 20.05.2020
2733 Clouds 17 1025 93 10000 1.91 166 08:36 20.05.2020
2734 Clouds 17 1025 93 10000 1.65 177 08:18 20.05.2020
2735 Clouds 15 1024 93 10000 1.65 177 07:41 20.05.2020
2736 Clouds 15 1024 93 10000 1.39 181 07:19 20.05.2020
2737 Clouds 15 1023 93 10000 1.39 181 06:34 20.05.2020
2738 Clouds 16 1023 87 10000 1.05 176 05:22 20.05.2020
2739 Clouds 16 1023 93 10000 4.1 210 04:26 20.05.2020
2740 Clouds 17 1023 88 10000 5.1 180 03:38 20.05.2020
2741 Clouds 16 1024 93 10000 2.1 240 02:23 20.05.2020
2742 Clouds 17 1024 88 10000 2.6 230 01:28 20.05.2020
2743 Clouds 18 1025 82 10000 3.6 220 00:44 20.05.2020
2744 Clouds 18 1024 82 10000 1.64 148 00:23 20.05.2020
2745 Clouds 18 1025 82 10000 3.6 240 23:41 19.05.2020
2746 Clouds 18 1025 82 10000 3.6 240 23:19 19.05.2020
2747 Clouds 18 1024 82 10000 3.1 250 22:56 19.05.2020
2748 Clouds 20 1024 72 10000 1.23 149 22:38 19.05.2020
2749 Clouds 20 1024 72 10000 1.55 133 22:18 19.05.2020
2750 Clouds 20 1024 72 10000 1.55 133 21:56 19.05.2020
2751 Clouds 21 1023 64 10000 4.1 90 21:37 19.05.2020
2752 Clouds 21 1023 64 10000 4.1 90 21:19 19.05.2020
2753 Clouds 21 1023 64 10000 4.1 90 21:19 19.05.2020
2754 Clouds 21 1023 64 10000 4.1 90 20:56 19.05.2020
2755 Clouds 21 1023 64 10000 2.6 90 20:38 19.05.2020
2756 Clouds 21 1023 64 10000 2.6 90 20:19 19.05.2020
2757 Clouds 21 1023 64 10000 3.6 90 19:39 19.05.2020
2758 Clouds 22 1022 60 10000 5.1 90 19:21 19.05.2020
2759 Clouds 22 1022 60 10000 5.1 90 18:58 19.05.2020
2760 Clouds 23 1021 50 10000 5.1 60 18:40 19.05.2020
2761 Clouds 23 1021 50 10000 5.1 60 18:20 19.05.2020
2762 Clouds 24 1021 53 10000 5.1 80 17:43 19.05.2020
2763 Clouds 24 1021 47 10000 4.1 100 17:21 19.05.2020
2764 Clouds 24 1021 47 10000 4.1 100 16:58 19.05.2020
2765 Clouds 24 1021 47 10000 2.6 90 16:38 19.05.2020
2766 Clouds 24 1021 47 10000 2.6 90 16:19 19.05.2020
2767 Clouds 24 1021 47 10000 2.6 90 15:46 19.05.2020
2768 Clouds 24 1021 47 10000 5.1 90 15:21 19.05.2020
2769 Clouds 24 1021 47 10000 5.1 90 14:57 19.05.2020
2770 Clouds 24 1023 50 10000 4.1 90 14:38 19.05.2020
2771 Clouds 24 1023 50 10000 4.1 90 14:20 19.05.2020
2772 Clouds 24 1023 50 10000 4.1 90 13:57 19.05.2020
2773 Clouds 24 1024 50 10000 4.1 110 13:38 19.05.2020
2774 Clouds 24 1024 50 10000 4.1 110 13:20 19.05.2020
2775 Clouds 24 1024 50 10000 4.1 110 12:56 19.05.2020
2776 Clouds 24 1024 53 10000 2.6 120 12:37 19.05.2020
2777 Clouds 21 1015 63 0 1.34 78 12:19 19.05.2020
2778 Clouds 19 1016 69 0 3.72 117 11:43 19.05.2020
2779 Clouds 19 1016 69 0 3.72 117 11:43 19.05.2020
2780 Clouds 21 1025 60 10000 3.46 119 11:23 19.05.2020
2781 Clouds 21 1025 60 10000 3.46 119 10:59 19.05.2020
2782 Clouds 21 1025 64 10000 5.1 110 10:40 19.05.2020
2783 Clouds 21 1025 64 10000 5.1 110 10:22 19.05.2020
2784 Clouds 21 1025 64 10000 5.1 110 09:47 19.05.2020
2785 Clouds 20 1025 68 0 2.58 113 09:25 19.05.2020
2786 Clouds 20 1025 68 0 2.58 113 08:48 19.05.2020
2787 Clouds 18 1024 82 0 1.81 111 08:26 19.05.2020
2788 Clouds 17 1024 82 0 1.81 111 07:59 19.05.2020
2789 Clouds 14 1025 93 10000 2.1 220 07:41 19.05.2020
2790 Clouds 14 1023 87 0 0.72 114 07:23 19.05.2020
2791 Clouds 12 1024 93 10000 1.5 210 06:41 19.05.2020
2792 Clouds 12 1024 93 10000 1.5 210 06:41 19.05.2020
2793 Clouds 13 1023 93 0 1.5 300 06:19 19.05.2020
2794 Clear 13 1024 93 10000 1.5 350 05:39 19.05.2020
2795 Clear 13 1023 93 10000 1.5 340 04:54 19.05.2020
2796 Clear 15 1022 87 0 0.68 72 02:59 19.05.2020
2797 Clouds 14 1023 93 10000 1.5 10 01:21 19.05.2020
2798 Clouds 15 1024 87 10000 1.5 250 00:41 19.05.2020
2799 Clouds 15 1024 87 10000 1.5 250 00:19 19.05.2020
2800 Clouds 15 1024 93 10000 1 300 23:40 18.05.2020
2801 Clouds 16 1023 87 10000 1.5 190 23:20 18.05.2020
2802 Clouds 16 1023 87 10000 1.5 190 22:59 18.05.2020
2803 Clouds 17 1023 77 10000 1.5 170 22:39 18.05.2020
2804 Clouds 17 1023 77 10000 1.5 170 22:20 18.05.2020
2805 Clouds 18 1023 77 10000 1.5 170 21:43 18.05.2020
2806 Clouds 18 1023 77 10000 1.5 170 21:22 18.05.2020
2807 Clouds 18 1023 77 10000 1.5 170 20:58 18.05.2020
2808 Clouds 19 1022 77 10000 4.1 90 20:39 18.05.2020
2809 Clouds 19 1022 77 10000 4.1 90 20:20 18.05.2020
2810 Clouds 19 1022 77 10000 4.1 90 19:56 18.05.2020
2811 Clouds 20 1021 72 10000 5.1 100 19:38 18.05.2020
2812 Clouds 20 1021 72 10000 5.1 100 19:18 18.05.2020
2813 Clouds 21 1022 64 10000 4.1 90 18:45 18.05.2020
2814 Clouds 22 1021 56 10000 5.1 120 18:22 18.05.2020
2815 Clouds 23 1021 56 10000 4.1 120 17:40 18.05.2020
2816 Clouds 23 1021 56 10000 4.1 120 17:18 18.05.2020
2817 Clouds 23 1021 56 10000 4.1 120 16:57 18.05.2020
2818 Clouds 22 1021 64 10000 4.1 120 16:38 18.05.2020
2819 Clouds 22 1021 64 10000 4.1 120 16:18 18.05.2020
2820 Clouds 22 1021 64 10000 4.1 120 15:56 18.05.2020
2821 Clouds 22 1021 64 10000 5.1 120 15:37 18.05.2020
2822 Clouds 22 1021 64 10000 5.1 120 15:19 18.05.2020
2823 Clouds 24 1022 50 10000 2.1 90 14:43 18.05.2020
2824 Clouds 23 1023 53 10000 5.1 90 14:25 18.05.2020
2825 Clouds 23 1023 53 10000 5.1 90 13:58 18.05.2020
2826 Clouds 22 1023 56 10000 5.1 90 13:39 18.05.2020
2827 Clouds 22 1023 56 10000 5.1 90 13:19 18.05.2020
2828 Clouds 22 1023 56 10000 5.1 90 12:56 18.05.2020
2829 Clouds 22 1024 64 10000 5.1 180 12:38 18.05.2020
2830 Clouds 22 1024 64 10000 5.1 180 12:18 18.05.2020
2831 Clouds 22 1024 64 10000 5.1 180 11:47 18.05.2020
2832 Clouds 21 1025 64 10000 4.1 120 11:27 18.05.2020
2833 Clouds 21 1025 64 10000 4.1 120 10:58 18.05.2020
2834 Clouds 20 1026 72 10000 2.1 40 10:40 18.05.2020
2835 Clouds 19 1025 77 10000 2.15 105 10:22 18.05.2020
2836 Clouds 19 1025 77 10000 2.15 105 09:44 18.05.2020
2837 Clouds 17 1025 88 10000 1.87 68 09:25 18.05.2020
2838 Clouds 16 1017 82 0 1.87 68 08:45 18.05.2020
2839 Clouds 16 1017 81 0 1.91 51 08:27 18.05.2020
2840 Clouds 15 1017 82 0 1.91 51 07:55 18.05.2020
2841 Clouds 12 1017 93 0 1.85 46 07:26 18.05.2020
2842 Clouds 11 1016 92 0 1.85 46 06:54 18.05.2020
2843 Clouds 11 1016 92 0 1.85 46 06:34 18.05.2020
2844 Clouds 10 1016 92 0 1.46 46 05:49 18.05.2020
2845 Clouds 11 1015 91 0 1.24 59 05:21 18.05.2020
2846 Clouds 11 1014 91 0 1.27 61 03:31 18.05.2020
2847 Clouds 12 1013 90 0 1.86 59 02:30 18.05.2020
2848 Clouds 13 1013 89 0 0.89 74 01:22 18.05.2020
2849 Clouds 13 1014 89 0 2.83 76 00:25 18.05.2020
2850 Clouds 13 1014 87 0 0.45 67 23:57 17.05.2020
2851 Clouds 14 1014 87 0 1.34 68 23:39 17.05.2020
2852 Clouds 14 1014 87 0 2.68 78 23:20 17.05.2020
2853 Clouds 18 1025 82 10000 2.6 60 22:56 17.05.2020
2854 Clouds 18 1024 82 10000 2.6 70 22:37 17.05.2020
2855 Clouds 18 1024 82 10000 2.6 70 22:37 17.05.2020
2856 Clouds 14 1016 88 0 2.24 110 22:19 17.05.2020
2857 Clouds 14 1016 88 0 1.34 107 21:56 17.05.2020
2858 Clouds 14 1016 88 0 3.58 103 21:38 17.05.2020
2859 Clouds 14 1016 88 0 4.02 123 21:18 17.05.2020
2860 Clouds 14 1015 87 0 4.02 115 20:42 17.05.2020
2861 Clouds 20 1023 68 10000 5.1 80 20:22 17.05.2020
2862 Clouds 15 1015 86 0 4.02 117 19:58 17.05.2020
2863 Clouds 15 1015 86 0 3.58 104 19:39 17.05.2020
2864 Rain 15 1015 86 0 3.13 107 19:20 17.05.2020
2865 Rain 15 1014 86 0 2.68 107 18:54 17.05.2020
2866 Rain 16 1014 86 0 3.13 105 18:36 17.05.2020
2867 Rain 16 1014 86 0 4.02 114 18:18 17.05.2020
2868 Rain 16 1013 84 0 4.02 113 17:40 17.05.2020
2869 Rain 16 1013 83 0 4.47 112 17:21 17.05.2020
2870 Clouds 23 1021 60 10000 5.1 70 16:40 17.05.2020
2871 Clouds 23 1021 60 10000 5.1 70 16:21 17.05.2020
2872 Clouds 23 1021 60 10000 5.1 70 15:59 17.05.2020
2873 Clouds 24 1022 60 10000 4.6 70 15:40 17.05.2020
2874 Clouds 24 1021 60 10000 5.1 80 15:22 17.05.2020
2875 Clouds 24 1021 60 10000 5.1 80 14:56 17.05.2020
2876 Clouds 23 1023 68 10000 4.01 98 14:37 17.05.2020
2877 Clouds 23 1023 68 10000 4.19 105 14:19 17.05.2020
2878 Clouds 22 1023 68 10000 3.1 90 13:41 17.05.2020
2879 Clouds 22 1023 68 10000 3.1 90 13:20 17.05.2020
2880 Clouds 13 1015 94 0 0.8 62 04:53 17.05.2020
2881 Clouds 13 1014 93 0 1.04 77 03:19 17.05.2020
2882 Clouds 13 1014 92 0 1.3 68 02:22 17.05.2020
2883 Clouds 13 1014 92 0 1.2 64 01:49 17.05.2020
2884 Clouds 13 1014 92 0 1.79 84 00:43 17.05.2020
2885 Clouds 13 1015 93 0 2.68 77 00:21 17.05.2020
2886 Clouds 13 1015 92 0 3.58 94 23:42 16.05.2020
2887 Clouds 13 1016 92 0 2.68 108 23:21 16.05.2020
2888 Clouds 13 1016 92 0 3.13 103 22:59 16.05.2020
2889 Clouds 14 1016 92 0 3.13 109 22:41 16.05.2020
2890 Clouds 14 1016 92 0 2.68 96 22:20 16.05.2020
2891 Rain 17 1024 100 9000 4.6 120 21:55 16.05.2020
2892 Rain 17 1024 100 9000 4.6 120 21:37 16.05.2020
2893 Rain 17 1024 100 9000 4.6 120 21:18 16.05.2020
2894 Clouds 18 1024 93 10000 2.6 90 20:54 16.05.2020
2895 Clouds 18 1024 93 10000 1 0 20:36 16.05.2020
2896 Clouds 18 1024 93 10000 1 0 20:18 16.05.2020
2897 Clouds 18 1021 88 10000 2.6 360 19:40 16.05.2020
2898 Clouds 18 1021 88 10000 2.6 360 19:22 16.05.2020
2899 Clouds 18 1021 88 10000 2.6 360 18:55 16.05.2020
2900 Rain 18 1021 93 10000 3.04 83 18:36 16.05.2020
2901 Rain 18 1021 93 10000 3.11 91 18:18 16.05.2020
2902 Clouds 18 1022 93 10000 5.1 10 17:40 16.05.2020
2903 Clouds 19 1021 88 10000 4.1 280 17:20 16.05.2020
2904 Thunderstorm 20 1021 82 7000 5.1 30 16:42 16.05.2020
2905 Thunderstorm 20 1021 82 7000 5.1 30 16:23 16.05.2020
2906 Thunderstorm 20 1021 82 7000 5.1 30 15:59 16.05.2020
2907 Clouds 21 1021 77 10000 3.1 220 15:40 16.05.2020
2908 Clouds 21 1020 73 10000 5.1 240 15:20 16.05.2020
2909 Clouds 23 1021 64 10000 3.6 210 14:55 16.05.2020
2910 Thunderstorm 24 1022 64 10000 7.2 180 14:37 16.05.2020
2911 Thunderstorm 24 1022 64 10000 7.2 180 14:19 16.05.2020
2912 Clouds 23 1022 69 10000 3.6 200 13:42 16.05.2020
2913 Clouds 23 1022 64 10000 5.1 180 13:23 16.05.2020
2914 Clouds 23 1022 64 10000 5.1 180 12:57 16.05.2020
2915 Clouds 22 1023 68 10000 5.1 240 12:39 16.05.2020
2916 Clouds 22 1023 68 10000 5.1 240 12:18 16.05.2020
2917 Clouds 22 1023 68 10000 3.6 210 11:41 16.05.2020
2918 Clouds 23 1024 69 10000 3.1 210 11:41 16.05.2020
2919 Clouds 22 1023 68 10000 3.6 210 11:22 16.05.2020
2920 Clouds 22 1023 68 10000 3.6 210 10:57 16.05.2020
2921 Clouds 21 1024 77 10000 2.9 138 10:39 16.05.2020
2922 Clouds 21 1024 77 10000 2.54 136 10:20 16.05.2020
2923 Clouds 21 1024 77 10000 2.54 136 09:46 16.05.2020
2924 Clouds 19 1024 82 10000 1.98 134 09:28 16.05.2020
2925 Clouds 18 1024 93 10000 1.5 210 08:46 16.05.2020
2926 Clouds 17 1023 93 10000 1.52 119 08:24 16.05.2020
2927 Clouds 17 1023 93 10000 1.52 119 07:59 16.05.2020
2928 Clouds 17 1023 93 10000 1 0 07:40 16.05.2020
2929 Clouds 17 1023 93 10000 0.98 128 07:21 16.05.2020
2930 Clouds 17 1023 93 10000 0.98 128 06:47 16.05.2020
2931 Clouds 17 1023 93 10000 1 260 06:19 16.05.2020
2932 Clouds 17 1021 93 10000 0.77 133 05:42 16.05.2020
2933 Clouds 17 1021 93 10000 0.63 136 05:20 16.05.2020
2934 Clouds 18 1022 93 10000 2.6 200 03:28 16.05.2020
2935 Clouds 18 1022 93 10000 4.1 190 02:45 16.05.2020
2936 Clouds 18 1022 93 10000 4.1 190 02:19 16.05.2020
2937 Clouds 18 1023 93 10000 3.1 180 01:40 16.05.2020
2938 Clouds 18 1023 93 10000 3.1 180 00:58 16.05.2020
2939 Clouds 18 1023 93 10000 2.6 170 00:40 16.05.2020
2940 Clouds 18 1023 93 10000 2.6 170 00:20 16.05.2020
2941 Clouds 18 1023 93 10000 2.6 200 23:40 15.05.2020
2942 Clouds 18 1023 93 10000 2.1 170 23:19 15.05.2020
2943 Clouds 18 1024 93 10000 2.6 200 22:42 15.05.2020
2944 Clouds 17 1023 100 10000 2.1 190 22:21 15.05.2020
2945 Clouds 17 1023 100 10000 2.1 190 21:57 15.05.2020
2946 Rain 17 1023 100 10000 4.1 180 21:39 15.05.2020
2947 Rain 17 1023 100 10000 4.1 180 21:21 15.05.2020
2948 Rain 17 1023 100 10000 4.1 180 20:56 15.05.2020
2949 Rain 18 1021 93 5000 5.1 160 20:37 15.05.2020
2950 Rain 18 1021 93 5000 5.1 160 20:37 15.05.2020
2951 Rain 18 1021 93 5000 5.1 160 20:19 15.05.2020
2952 Rain 18 1020 93 5000 5.1 200 19:43 15.05.2020
2953 Rain 18 1020 93 5000 5.1 200 19:24 15.05.2020
2954 Rain 20 1020 93 5000 5.1 200 18:54 15.05.2020
2955 Clouds 22 1020 73 10000 3.1 90 18:36 15.05.2020
2956 Clouds 22 1020 73 10000 3.1 90 18:18 15.05.2020
2957 Clouds 23 1019 64 10000 5.1 70 17:38 15.05.2020
2958 Clouds 23 1019 64 10000 5.1 70 17:19 15.05.2020
2959 Clouds 23 1019 64 10000 5.1 70 16:56 15.05.2020
2960 Clouds 22 1020 77 10000 4.1 70 16:38 15.05.2020
2961 Clouds 22 1020 77 10000 4.1 70 16:18 15.05.2020
2962 Rain 21 1012 75 0 3.71 100 15:41 15.05.2020
2963 Rain 23 1020 69 10000 6.2 60 15:21 15.05.2020
2964 Rain 23 1020 69 10000 6.2 60 14:58 15.05.2020
2965 Clouds 23 1021 64 10000 8.2 110 14:40 15.05.2020
2966 Clouds 23 1021 64 10000 8.2 110 14:22 15.05.2020
2967 Clouds 23 1022 69 10000 7.7 120 13:43 15.05.2020
2968 Clouds 24 1022 64 10000 4.14 106 13:22 15.05.2020
2969 Clouds 24 1022 64 10000 4.14 106 12:59 15.05.2020
2970 Clouds 24 1023 64 10000 2.1 190 12:39 15.05.2020
2971 Clouds 24 1023 64 10000 2.1 190 12:18 15.05.2020
2972 Clouds 23 1023 64 10000 2.1 190 11:56 15.05.2020
2973 Clouds 22 1024 77 10000 3.55 102 11:38 15.05.2020
2974 Clouds 22 1024 77 10000 2.65 100 11:19 15.05.2020
2975 Clouds 22 1024 77 10000 2.65 100 10:56 15.05.2020
2976 Clouds 21 1025 82 10000 2.65 100 10:38 15.05.2020
2977 Clouds 20 1025 82 10000 2.3 102 10:20 15.05.2020
2978 Clouds 19 1024 88 10000 2.1 120 09:40 15.05.2020
2979 Clouds 19 1024 88 10000 2.1 120 09:20 15.05.2020
2980 Clouds 19 1024 88 10000 2.1 120 08:59 15.05.2020
2981 Clouds 18 1024 93 10000 2 95 08:38 15.05.2020
2982 Clouds 18 1024 93 10000 1.39 106 08:19 15.05.2020
2983 Clouds 18 1024 93 10000 1.39 106 07:46 15.05.2020
2984 Clouds 17 1023 100 10000 1.28 127 07:28 15.05.2020
2985 Clouds 17 1023 100 10000 1.28 127 06:58 15.05.2020
2986 Clouds 17 1023 93 10000 1.46 117 05:56 15.05.2020
2987 Clouds 18 1023 93 10000 1.41 102 04:38 15.05.2020
2988 Clouds 18 1022 93 10000 1.52 84 03:49 15.05.2020
2989 Clouds 19 1023 88 10000 1.64 70 02:44 15.05.2020
2990 Clouds 19 1023 88 10000 28.8 50 01:36 15.05.2020
2991 Clouds 19 1023 88 10000 3.1 60 00:58 15.05.2020
2992 Clouds 20 1023 82 10000 1.98 45 00:39 15.05.2020
2993 Clouds 20 1023 82 10000 2.1 37 00:21 15.05.2020
2994 Clouds 20 1022 82 10000 2.1 37 23:41 14.05.2020
2995 Clouds 20 1022 82 10000 2.46 42 23:18 14.05.2020
2996 Clouds 21 1022 77 10000 4.1 60 22:42 14.05.2020
2997 Clouds 21 1022 77 10000 4.1 60 22:23 14.05.2020
2998 Clouds 21 1022 77 10000 4.1 60 21:58 14.05.2020
2999 Clouds 21 1022 73 10000 7.7 80 21:40 14.05.2020
3000 Clouds 21 1022 73 10000 7.7 80 21:19 14.05.2020
3001 Clouds 21 1022 73 10000 7.7 80 20:56 14.05.2020
3002 Clouds 22 1021 64 10000 4.1 80 20:38 14.05.2020
3003 Clouds 22 1021 64 10000 4.1 80 20:19 14.05.2020
3004 Clouds 22 1021 64 10000 4.1 80 19:56 14.05.2020
3005 Clouds 22 1021 56 10000 5.1 120 19:37 14.05.2020
3006 Clouds 22 1021 56 10000 5.1 120 19:19 14.05.2020
3007 Clouds 23 1021 56 10000 5.1 120 18:54 14.05.2020
3008 Clouds 24 1020 47 10000 6.2 70 18:36 14.05.2020
3009 Clouds 24 1020 47 10000 6.2 70 18:18 14.05.2020
3010 Clouds 25 1020 47 10000 6.2 70 17:55 14.05.2020
3011 Clouds 27 1020 34 10000 5.1 90 17:36 14.05.2020
3012 Clouds 27 1020 34 10000 5.1 90 17:18 14.05.2020
3013 Clouds 27 1020 34 10000 5.1 60 16:39 14.05.2020
3014 Clouds 27 1020 34 10000 5.1 60 16:20 14.05.2020
3015 Clouds 27 1020 34 10000 5.1 60 15:57 14.05.2020
3016 Clouds 27 1020 39 10000 6.2 80 15:39 14.05.2020
3017 Clouds 27 1020 39 10000 6.2 80 15:20 14.05.2020
3018 Clouds 27 1020 39 10000 6.2 80 14:56 14.05.2020
3019 Clouds 27 1021 39 10000 5.1 90 14:38 14.05.2020
3020 Clouds 27 1021 39 10000 5.1 90 14:19 14.05.2020
3021 Clouds 27 1021 39 10000 5.1 90 14:19 14.05.2020
3022 Clouds 27 1021 39 10000 5.1 90 13:55 14.05.2020
3023 Clouds 27 1022 39 10000 5.1 60 13:37 14.05.2020
3024 Clouds 27 1022 39 10000 5.1 60 13:18 14.05.2020
3025 Clouds 27 1022 39 10000 5.1 60 12:57 14.05.2020
3026 Clouds 25 1023 53 10000 2.6 120 12:37 14.05.2020
3027 Clouds 25 1023 53 10000 2.6 120 12:18 14.05.2020
3028 Clouds 25 1023 53 10000 2.6 120 11:55 14.05.2020
3029 Clouds 23 1024 69 10000 3.12 81 11:37 14.05.2020
3030 Clouds 23 1024 69 10000 3.12 81 11:19 14.05.2020
3031 Clouds 23 1024 69 10000 1.5 0 10:41 14.05.2020
3032 Clouds 22 1024 77 10000 2.6 160 10:22 14.05.2020
3033 Clouds 21 1024 77 10000 2.6 160 09:43 14.05.2020
3034 Clouds 20 1024 82 10000 3.1 150 09:24 14.05.2020
3035 Clouds 19 1024 82 10000 3.1 150 08:56 14.05.2020
3036 Clouds 18 1023 88 10000 3.1 180 08:37 14.05.2020
3037 Clouds 18 1023 88 10000 3.1 180 08:18 14.05.2020
3038 Clouds 18 1023 88 10000 3.1 220 07:44 14.05.2020
3039 Clouds 17 1023 93 10000 0.33 32 07:21 14.05.2020
3040 Clouds 17 1023 93 10000 0.33 32 06:43 14.05.2020
3041 Clouds 16 1022 93 10000 0.54 16 06:23 14.05.2020
3042 Clouds 16 1023 93 10000 2.6 220 05:37 14.05.2020
3043 Clouds 17 1023 93 10000 2.1 220 04:45 14.05.2020
3044 Clouds 18 1023 93 10000 2.6 250 03:39 14.05.2020
3045 Clouds 18 1023 93 10000 2.6 250 03:19 14.05.2020
3046 Clouds 18 1023 93 10000 1 280 02:34 14.05.2020
3047 Clouds 18 1023 93 10000 1.38 58 01:49 14.05.2020
3048 Clouds 18 1023 93 10000 2.1 30 00:53 14.05.2020
3049 Clouds 19 1023 82 10000 2.4 55 00:27 14.05.2020
3050 Clouds 19 1023 82 10000 2.4 55 23:45 13.05.2020
3051 Clouds 18 1023 93 10000 1 0 23:24 13.05.2020
3052 Clouds 19 1023 82 10000 3.1 90 22:59 13.05.2020
3053 Clouds 19 1023 88 10000 2.6 70 22:41 13.05.2020
3054 Clouds 19 1023 88 10000 2.6 70 22:22 13.05.2020
3055 Clouds 19 1023 88 10000 3.6 90 21:58 13.05.2020
3056 Clouds 19 1023 88 10000 3.6 90 21:58 13.05.2020
3057 Clouds 20 1023 82 10000 5.7 80 21:39 13.05.2020
3058 Clouds 21 1022 73 10000 4.1 70 21:19 13.05.2020
3059 Clouds 21 1022 73 10000 4.1 70 20:55 13.05.2020
3060 Clouds 22 1021 60 10000 3.26 65 20:37 13.05.2020
3061 Clouds 22 1021 60 10000 3.4 64 20:19 13.05.2020
3062 Clouds 23 1021 53 10000 3.4 64 19:41 13.05.2020
3063 Clouds 23 1021 53 10000 3.43 66 19:23 13.05.2020
3064 Clouds 23 1021 60 10000 4.1 80 18:44 13.05.2020
3065 Clouds 24 1020 50 10000 7.2 70 18:22 13.05.2020
3066 Clouds 25 1020 50 10000 7.2 70 17:58 13.05.2020
3067 Clouds 26 1019 44 10000 4.1 70 17:38 13.05.2020
3068 Clouds 26 1019 44 10000 4.1 70 17:18 13.05.2020
3069 Clouds 27 1020 42 10000 5.7 60 16:41 13.05.2020
3070 Clouds 27 1020 42 10000 5.7 60 16:20 13.05.2020
3071 Clouds 27 1020 42 10000 5.7 60 15:57 13.05.2020
3072 Clouds 27 1020 39 10000 4.6 50 15:39 13.05.2020
3073 Clouds 27 1020 39 10000 5.1 50 15:18 13.05.2020
3074 Clouds 27 1020 39 10000 5.1 50 14:55 13.05.2020
3075 Clouds 26 1020 39 10000 6.2 110 14:36 13.05.2020
3076 Clouds 26 1020 39 10000 6.2 110 14:18 13.05.2020
3077 Clouds 27 1022 39 10000 5.7 70 13:42 13.05.2020
3078 Clouds 26 1022 47 10000 2.6 40 13:22 13.05.2020
3079 Clouds 25 1022 47 10000 2.6 40 12:59 13.05.2020
3080 Clouds 25 1022 53 10000 2.6 190 12:41 13.05.2020
3081 Clouds 25 1022 53 10000 2.6 190 12:21 13.05.2020
3082 Clouds 25 1022 53 10000 2.6 190 11:56 13.05.2020
3083 Clouds 24 1023 60 10000 2.1 150 11:38 13.05.2020
3084 Clouds 24 1023 60 10000 2.1 150 11:20 13.05.2020
3085 Clouds 24 1023 60 10000 2.1 150 10:58 13.05.2020
3086 Clouds 22 1024 73 10000 3.1 190 10:38 13.05.2020
3087 Clouds 22 1024 73 10000 3.1 190 10:19 13.05.2020
3088 Clouds 22 1024 73 10000 3.1 190 09:47 13.05.2020
3089 Clouds 21 1023 68 10000 2.1 280 09:24 13.05.2020
3090 Clouds 21 1023 68 10000 2.1 280 08:58 13.05.2020
3091 Clouds 18 1023 88 10000 1.63 221 08:39 13.05.2020
3092 Clouds 18 1023 88 10000 1.7 224 08:20 13.05.2020
3093 Clouds 18 1023 88 10000 1.7 224 07:52 13.05.2020
3094 Clouds 16 1023 100 10000 1.7 224 07:33 13.05.2020
3095 Clouds 16 1023 100 10000 1.42 231 06:55 13.05.2020
3096 Clouds 17 1022 93 10000 1.42 231 06:35 13.05.2020
3097 Clouds 12 1016 95 0 1.07 244 05:43 13.05.2020
3098 Clouds 17 1021 93 10000 1.09 216 03:58 13.05.2020
3099 Clouds 18 1022 93 10000 0.47 299 02:38 13.05.2020
3100 Clouds 18 1023 88 10000 2.6 320 01:46 13.05.2020
3101 Clouds 18 1022 93 10000 1.49 33 00:58 13.05.2020
3102 Clouds 18 1023 93 10000 1.58 49 00:25 13.05.2020
3103 Clouds 18 1023 93 10000 1.58 49 23:59 12.05.2020
3104 Clouds 18 1023 93 10000 1.58 49 23:59 12.05.2020
3105 Clouds 19 1024 88 10000 1.58 49 23:39 12.05.2020
3106 Clouds 19 1024 88 10000 1.56 46 23:20 12.05.2020
3107 Clouds 19 1022 88 10000 1.56 46 22:42 12.05.2020
3108 Clouds 19 1022 88 10000 1.7 50 22:23 12.05.2020
3109 Clouds 19 1022 88 10000 1.7 50 22:23 12.05.2020
3110 Clouds 19 1022 88 10000 1.7 50 21:57 12.05.2020
3111 Clouds 19 1022 93 10000 1.7 50 21:38 12.05.2020
3112 Clouds 19 1022 93 10000 2.53 56 21:20 12.05.2020
3113 Clouds 19 1022 93 10000 2.53 56 20:59 12.05.2020
3114 Clouds 19 1022 93 10000 2.53 56 20:59 12.05.2020
3115 Rain 14 1015 92 0 2.53 56 20:40 12.05.2020
3116 Clouds 14 1015 92 0 2.24 115 20:22 12.05.2020
3117 Clouds 13 1014 93 0 2.68 117 19:59 12.05.2020
3118 Thunderstorm 20 1020 88 10000 2.1 180 19:40 12.05.2020
3119 Thunderstorm 20 1020 88 10000 2.1 180 19:21 12.05.2020
3120 Thunderstorm 20 1020 88 10000 2.1 180 18:56 12.05.2020
3121 Clouds 21 1020 77 10000 2.6 150 18:38 12.05.2020
3122 Rain 18 1015 85 0 2.2 68 18:20 12.05.2020
3123 Rain 18 1015 85 0 2.2 68 17:43 12.05.2020
3124 Rain 20 1014 81 0 2.5 89 17:24 12.05.2020
3125 Rain 20 1014 81 0 2.5 89 16:47 12.05.2020
3126 Rain 21 1013 74 0 3.31 109 16:26 12.05.2020
3127 Rain 21 1013 74 0 3.31 109 15:57 12.05.2020
3128 Rain 21 1013 74 0 3.31 109 15:39 12.05.2020
3129 Rain 22 1012 68 0 3.67 125 15:20 12.05.2020
3130 Clouds 25 1021 53 10000 3.1 70 14:58 12.05.2020
3131 Clouds 24 1021 56 10000 2.6 160 14:39 12.05.2020
3132 Clouds 24 1021 56 10000 2.6 160 14:21 12.05.2020
3133 Clouds 24 1021 56 10000 2.6 160 13:59 12.05.2020
3134 Clouds 25 1022 53 10000 2.6 0 13:41 12.05.2020
3135 Clouds 24 1022 60 10000 2.6 140 13:20 12.05.2020
3136 Rain 22 1014 66 0 3.28 121 12:58 12.05.2020
3137 Rain 22 1014 66 0 3.28 121 12:40 12.05.2020
3138 Clouds 18 1013 89 0 3.35 126 12:22 12.05.2020
3139 Clouds 18 1013 90 0 3.35 126 11:59 12.05.2020
3140 Clouds 22 1023 64 10000 3.35 126 11:39 12.05.2020
3141 Clouds 22 1023 64 10000 3.15 132 11:21 12.05.2020
3142 Clouds 22 1023 64 10000 3.15 132 10:59 12.05.2020
3143 Clouds 22 1023 64 10000 3.15 132 10:59 12.05.2020
3144 Clouds 21 1024 68 10000 3.15 132 10:40 12.05.2020
3145 Clouds 21 1024 68 10000 2.96 136 10:22 12.05.2020
3146 Clouds 21 1024 68 10000 2.96 136 09:59 12.05.2020
3147 Clouds 18 1024 93 10000 2.96 136 09:40 12.05.2020
3148 Clouds 18 1024 93 10000 2.81 126 09:21 12.05.2020
3149 Clouds 18 1024 93 10000 2.81 126 08:57 12.05.2020
3150 Clouds 17 1024 93 10000 3.1 190 08:38 12.05.2020
3151 Clouds 17 1024 93 10000 3.1 190 08:19 12.05.2020
3152 Clouds 17 1024 93 10000 1.5 220 07:42 12.05.2020
3153 Clouds 16 1023 93 10000 2.1 160 07:23 12.05.2020
3154 Clouds 16 1023 93 10000 2.1 160 06:49 12.05.2020
3155 Clouds 17 1023 93 10000 2.1 170 06:27 12.05.2020
3156 Clouds 17 1023 93 10000 2.1 170 05:51 12.05.2020
3157 Clouds 17 1023 93 10000 3.1 170 05:30 12.05.2020
3158 Clouds 17 1022 93 10000 2.6 190 03:27 12.05.2020
3159 Clouds 17 1022 93 10000 3.1 200 02:52 12.05.2020
3160 Clouds 17 1023 93 10000 2.6 200 02:25 12.05.2020
3161 Clouds 15 1023 93 10000 3.1 220 01:27 12.05.2020
3162 Clouds 15 1023 93 10000 3.1 240 00:28 12.05.2020
3163 Clouds 15 1023 93 10000 2.6 250 23:59 11.05.2020
3164 Clouds 15 1023 100 10000 2.6 250 23:40 11.05.2020
3165 Clouds 15 1023 100 10000 2.6 250 23:21 11.05.2020
3166 -273 0 0 0 0 0 22:59 11.05.2020
3167 Clouds 16 1023 93 10000 2.6 240 22:59 11.05.2020
3168 Clouds 16 1024 100 10000 1.5 280 22:40 11.05.2020
3169 Clouds 16 1024 100 10000 1.5 280 22:20 11.05.2020
3170 Clouds 16 1024 100 10000 3.6 220 21:58 11.05.2020
3171 Clouds 17 1023 93 10000 2.1 220 21:40 11.05.2020
3172 Clouds 17 1023 93 10000 2.1 220 21:19 11.05.2020
3173 Clouds 18 1023 88 10000 1.5 0 20:59 11.05.2020
3174 Clouds 18 1022 88 10000 2.1 220 20:40 11.05.2020
3175 Clouds 18 1022 88 10000 2.1 220 20:21 11.05.2020
3176 Rain 15 1013 93 0 3.23 81 19:56 11.05.2020
3177 Clouds 20 1021 77 10000 5.1 150 19:38 11.05.2020
3178 Clouds 20 1021 77 10000 5.1 150 19:20 11.05.2020
3179 Clouds 20 1021 77 10000 5.1 150 18:56 11.05.2020
3180 Clouds 21 1020 73 10000 2.1 160 18:37 11.05.2020
3181 Clouds 21 1020 73 10000 2.1 160 18:18 11.05.2020
3182 Clouds 21 1020 73 10000 2.1 160 17:55 11.05.2020
3183 Clouds 24 1020 60 10000 7.7 120 17:36 11.05.2020
3184 Clouds 24 1020 60 10000 7.7 120 17:18 11.05.2020
3185 Clouds 24 1020 60 10000 7.7 120 16:42 11.05.2020
3186 Clouds 23 1020 64 10000 4.1 150 16:22 11.05.2020
3187 Clouds 23 1020 64 10000 4.1 150 16:22 11.05.2020
3188 Clouds 23 1020 64 10000 4.1 150 15:58 11.05.2020
3189 Clouds 23 1020 60 10000 6.2 140 15:39 11.05.2020
3190 Clouds 23 1020 60 10000 6.2 140 15:19 11.05.2020
3191 Clouds 23 1020 60 10000 6.2 140 14:55 11.05.2020
3192 Clouds 22 1021 60 10000 6.2 110 14:37 11.05.2020
3193 Clouds 22 1021 60 10000 6.2 110 14:19 11.05.2020
3194 Clouds 22 1022 68 10000 2.6 120 13:42 11.05.2020
3195 Clouds 21 1022 72 10000 5.1 130 13:22 11.05.2020
3196 Clouds 21 1022 72 10000 5.1 130 12:58 11.05.2020
3197 Clouds 21 1023 77 10000 5.1 140 12:40 11.05.2020
3198 Clouds 21 1023 77 10000 5.1 140 12:22 11.05.2020
3199 Clouds 21 1023 77 10000 5.1 140 11:57 11.05.2020
3200 Clouds 21 1023 77 10000 5.1 140 11:57 11.05.2020
3201 Clouds 20 1024 77 10000 3.1 140 11:38 11.05.2020
3202 Clouds 20 1024 77 10000 3.1 140 11:20 11.05.2020
3203 Clouds 20 1024 77 10000 3.1 140 10:56 11.05.2020
3204 Clouds 20 1024 77 10000 5.1 130 10:38 11.05.2020
3205 Clouds 20 1024 77 10000 5.1 130 10:20 11.05.2020
3206 Clouds 20 1024 77 10000 5.1 130 09:56 11.05.2020
3207 Clouds 20 1024 72 10000 5.1 120 09:37 11.05.2020
3208 Clouds 20 1024 72 10000 5.1 120 09:18 11.05.2020
3209 Clouds 18 1023 88 10000 2.57 124 08:42 11.05.2020
3210 Clouds 18 1023 88 10000 1.73 120 08:23 11.05.2020
3211 Clouds 18 1023 88 10000 1.73 120 07:56 11.05.2020
3212 Clouds 16 1023 93 10000 1.73 120 07:38 11.05.2020
3213 Clouds 16 1023 93 10000 1.48 121 07:19 11.05.2020
3214 Clouds 16 1023 93 10000 1.48 121 06:34 11.05.2020
3215 Clouds 16 1023 93 10000 1.96 121 05:51 11.05.2020
3216 Clouds 16 1023 93 10000 2.39 121 05:21 11.05.2020
3217 Clouds 17 1023 93 10000 3.6 180 03:52 11.05.2020
3218 Clouds 17 1023 93 10000 1.71 133 02:36 11.05.2020
3219 Clouds 18 1023 93 10000 3.1 180 01:59 11.05.2020
3220 Clouds 18 1024 93 10000 3.1 200 01:18 11.05.2020
3221 Clouds 18 1024 93 10000 1.5 230 00:40 11.05.2020
3222 Clouds 18 1024 93 10000 1.5 230 00:18 11.05.2020
3223 Clouds 18 1024 93 10000 2.1 230 23:39 10.05.2020
3224 Clouds 18 1024 93 10000 2.1 240 23:20 10.05.2020
3225 Clouds 18 1024 93 10000 2.1 240 22:54 10.05.2020
3226 Clouds 17 1024 93 10000 2.1 230 22:36 10.05.2020
3227 Clouds 17 1024 93 10000 2.1 230 22:18 10.05.2020
3228 Clouds 18 1023 93 10000 2.6 220 21:42 10.05.2020
3229 Clouds 17 1023 93 10000 3.01 82 21:18 10.05.2020
3230 Clouds 18 1022 88 10000 2.6 200 20:43 10.05.2020
3231 Clouds 18 1022 88 10000 2.6 200 20:24 10.05.2020
3232 Clouds 18 1022 88 10000 2.6 200 19:58 10.05.2020
3233 Clouds 18 1022 88 10000 2.6 150 19:39 10.05.2020
3234 Clouds 18 1022 88 10000 2.6 150 19:39 10.05.2020
3235 Clouds 18 1022 88 10000 2.6 150 19:21 10.05.2020
3236 Clouds 18 1022 88 10000 2.6 150 19:21 10.05.2020
3237 Clouds 18 1022 88 10000 2.6 150 18:56 10.05.2020
3238 Clouds 19 1021 82 10000 6.2 150 18:36 10.05.2020
3239 Clouds 20 1021 82 10000 6.2 150 18:18 10.05.2020
3240 Clouds 20 1021 82 10000 6.2 150 17:58 10.05.2020
3241 Clouds 21 1021 77 10000 5.7 150 17:39 10.05.2020
3242 Clouds 20 1021 82 10000 5.1 150 17:20 10.05.2020
3243 Clouds 20 1021 82 10000 5.1 150 16:54 10.05.2020
3244 Clouds 21 1020 73 10000 5.1 120 16:36 10.05.2020
3245 Clouds 21 1020 73 10000 5.1 120 16:18 10.05.2020
3246 Clouds 22 1021 69 10000 5.1 150 15:41 10.05.2020
3247 Clouds 22 1021 69 10000 5.1 150 15:22 10.05.2020
3248 Clouds 23 1021 69 10000 5.1 150 14:57 10.05.2020
3249 Clouds 21 1022 77 10000 5.1 120 14:38 10.05.2020
3250 Clouds 21 1022 77 10000 5.1 120 14:19 10.05.2020
3251 Clouds 20 1022 77 10000 5.1 120 13:58 10.05.2020
3252 Clouds 22 1023 64 10000 2.6 130 13:37 10.05.2020
3253 Clouds 22 1023 64 10000 2.6 130 13:19 10.05.2020
3254 Clouds 23 1023 64 10000 2.6 130 12:56 10.05.2020
3255 Clouds 22 1024 68 10000 5.1 110 12:37 10.05.2020
3256 Clouds 22 1024 68 10000 5.1 110 12:19 10.05.2020
3257 Clouds 22 1024 68 10000 5.1 110 11:54 10.05.2020
3258 Clouds 22 1024 64 10000 5.1 120 11:36 10.05.2020
3259 Clouds 22 1024 64 10000 5.1 120 11:18 10.05.2020
3260 Clouds 22 1024 64 10000 5.1 120 10:42 10.05.2020
3261 Clouds 20 1023 77 10000 2.6 230 10:24 10.05.2020
3262 Clouds 20 1023 77 10000 2.6 230 09:56 10.05.2020
3263 Clouds 19 1023 82 10000 3.1 170 09:38 10.05.2020
3264 Clouds 19 1023 82 10000 3.1 170 09:19 10.05.2020
3265 Clouds 19 1023 82 10000 3.1 170 08:44 10.05.2020
3266 Clouds 17 1024 93 10000 2.6 210 08:23 10.05.2020
3267 Clouds 16 1023 100 8000 2.1 180 07:44 10.05.2020
3268 Clouds 16 1023 100 8000 2.1 180 07:19 10.05.2020
3269 Clouds 16 1023 100 8000 2.1 180 06:51 10.05.2020
3270 Clouds 16 1023 93 10000 2.6 210 06:29 10.05.2020
3271 Mist 16 1022 93 2500 2.6 210 05:48 10.05.2020
3272 Mist 16 1022 93 5000 2.6 220 04:49 10.05.2020
3273 Clouds 16 1022 93 10000 1.5 270 04:29 10.05.2020
3274 Clouds 16 1022 93 10000 1.5 270 03:52 10.05.2020
3275 Clouds 16 1023 93 10000 1.5 250 03:30 10.05.2020
3276 Clouds 17 1023 93 10000 2.1 250 02:26 10.05.2020
3277 Clouds 17 1023 93 10000 2.1 230 01:59 10.05.2020
3278 Clouds 17 1023 93 10000 2.1 230 01:40 10.05.2020
3279 Clouds 17 1023 93 10000 2.1 230 01:19 10.05.2020
3280 Clouds 17 1023 93 10000 2.1 240 00:53 10.05.2020
3281 Clouds 17 1023 93 10000 2.6 200 00:23 10.05.2020
3282 Clouds 17 1023 93 10000 2.6 210 23:57 09.05.2020
3283 Clouds 17 1023 93 10000 2.6 210 23:57 09.05.2020
3284 Clouds 17 1023 93 10000 2.6 250 23:38 09.05.2020
3285 Clouds 17 1023 93 10000 2.6 250 23:19 09.05.2020
3286 Clouds 17 1023 93 10000 2.6 250 23:19 09.05.2020
3287 Clouds 18 1022 93 10000 1.95 117 22:41 09.05.2020
3288 Clouds 18 1022 93 10000 1.91 131 22:23 09.05.2020
3289 Clouds 18 1022 93 10000 1.91 131 21:58 09.05.2020
3290 Clouds 18 1021 93 10000 1.91 131 21:40 09.05.2020
3291 Clouds 18 1021 93 10000 1.97 90 21:20 09.05.2020
3292 Clouds 18 1021 93 10000 1.97 90 20:57 09.05.2020
3293 Rain 19 1020 93 10000 1.97 90 20:38 09.05.2020
3294 Rain 19 1020 93 10000 2.35 90 20:20 09.05.2020
3295 Rain 19 1020 93 10000 2.35 90 19:55 09.05.2020
3296 Rain 19 1020 93 10000 2.35 90 19:37 09.05.2020
3297 Rain 18 1020 93 10000 2.41 92 19:18 09.05.2020
3298 Rain 18 1020 93 10000 2.41 92 18:42 09.05.2020
3299 Rain 18 1020 93 10000 2.41 92 18:42 09.05.2020
3300 Clouds 20 1019 88 10000 2.1 140 18:23 09.05.2020
3301 Clouds 20 1019 88 10000 2.1 140 17:46 09.05.2020
3302 Clouds 22 1018 68 10000 2.1 140 17:23 09.05.2020
3303 Clouds 22 1018 68 10000 2.1 140 16:57 09.05.2020
3304 Clouds 24 1019 57 10000 6.2 90 16:38 09.05.2020
3305 Clouds 24 1019 57 10000 6.2 90 16:19 09.05.2020
3306 Clouds 24 1019 57 10000 4.1 110 15:44 09.05.2020
3307 Clouds 24 1019 57 10000 4.1 110 15:22 09.05.2020
3308 Clouds 24 1019 57 10000 4.1 110 14:56 09.05.2020
3309 Rain 19 1011 77 0 0.45 117 14:38 09.05.2020
3310 Rain 19 1012 76 0 3.48 127 14:18 09.05.2020
3311 Rain 19 1011 77 0 0.45 117 14:18 09.05.2020
3312 Rain 19 1012 76 0 3.48 127 14:18 09.05.2020
3313 Rain 19 1012 75 0 0.89 117 13:56 09.05.2020
3314 Rain 19 1012 72 0 0.45 117 13:38 09.05.2020
3315 Rain 20 1013 71 0 1.34 117 13:18 09.05.2020
3316 Rain 19 1013 75 0 0.45 117 12:40 09.05.2020
3317 Rain 19 1013 75 0 0.45 117 12:22 09.05.2020
3318 Rain 23 1014 63 0 3.41 135 11:45 09.05.2020
3319 Rain 22 1015 63 0 3.19 133 11:20 09.05.2020
3320 Rain 22 1015 63 0 3.19 133 10:56 09.05.2020
3321 Rain 22 1015 63 0 3.19 133 10:38 09.05.2020
3322 Clouds 22 1016 63 0 3.07 131 10:20 09.05.2020
3323 Clouds 22 1016 63 0 3.07 131 09:54 09.05.2020
3324 Clouds 22 1016 63 0 3.07 131 09:36 09.05.2020
3325 Clouds 15 1015 89 0 2.59 128 09:18 09.05.2020
3326 Clouds 15 1015 92 0 2.59 128 08:43 09.05.2020
3327 Clouds 14 1015 94 0 1.68 123 08:25 09.05.2020
3328 Clouds 14 1015 95 0 1.68 123 07:48 09.05.2020
3329 Clouds 13 1015 95 0 1.68 123 07:30 09.05.2020
3330 Clouds 13 1014 95 0 0.92 112 06:47 09.05.2020
3331 Clouds 13 1014 95 0 0.79 121 06:22 09.05.2020
3332 Clouds 17 1021 93 10000 1 220 05:45 09.05.2020
3333 Clouds 18 1021 93 10000 1 0 03:44 09.05.2020
3334 Clouds 17 1021 93 10000 0.8 105 03:21 09.05.2020
3335 Clouds 17 1021 93 10000 0.8 105 02:30 09.05.2020
3336 Clouds 17 1021 93 10000 1.28 83 01:51 09.05.2020
3337 Clouds 17 1022 93 10000 1.27 86 01:23 09.05.2020
3338 Clouds 17 1022 93 10000 1.27 86 00:47 09.05.2020
3339 Clouds 17 1022 93 10000 1.6 101 00:29 09.05.2020
3340 Clouds 17 1022 93 10000 1.6 101 23:49 08.05.2020
3341 Clouds 17 1022 93 10000 1.6 101 23:29 08.05.2020
3342 Clouds 17 1022 93 10000 2.1 107 22:58 08.05.2020
3343 Clouds 18 1021 93 10000 2.1 107 22:40 08.05.2020
3344 Clouds 18 1021 93 10000 2.41 96 22:19 08.05.2020
3345 Clouds 18 1021 93 10000 2.41 96 21:58 08.05.2020
3346 Clouds 18 1021 93 10000 2.6 150 21:39 08.05.2020
3347 Clouds 18 1021 93 10000 2.6 150 21:18 08.05.2020
3348 Clouds 18 1021 93 10000 2.6 150 20:56 08.05.2020
3349 Clouds 18 1021 93 10000 2.46 100 20:38 08.05.2020
3350 Clouds 18 1021 93 10000 2.59 93 20:20 08.05.2020
3351 Clouds 18 1021 93 10000 2.59 93 19:44 08.05.2020
3352 Rain 20 1020 82 10000 2.78 96 19:23 08.05.2020
3353 Rain 19 1020 82 10000 2.78 96 18:55 08.05.2020
3354 Clouds 20 1019 73 10000 7.2 120 18:37 08.05.2020
3355 Clouds 20 1019 73 10000 7.2 120 18:18 08.05.2020
3356 Clouds 21 1019 64 10000 2.6 150 17:41 08.05.2020
3357 Clouds 21 1019 64 10000 2.6 150 17:18 08.05.2020
3358 Clouds 23 1020 60 10000 2.6 110 16:44 08.05.2020
3359 Clouds 22 1019 64 10000 3.1 110 16:26 08.05.2020
3360 Clouds 22 1019 64 10000 3.1 110 15:57 08.05.2020
3361 Clouds 22 1020 64 10000 3.88 134 15:39 08.05.2020
3362 Clouds 22 1020 64 10000 4.5 127 15:18 08.05.2020
3363 Clouds 22 1020 64 10000 4.5 127 14:54 08.05.2020
3364 Clouds 21 1021 68 10000 5.1 130 14:36 08.05.2020
3365 Clouds 21 1021 68 10000 5.1 130 14:18 08.05.2020
3366 Clouds 22 1021 64 10000 3.6 120 13:39 08.05.2020
3367 Clouds 22 1021 64 10000 3.6 120 13:19 08.05.2020
3368 Clouds 22 1021 64 10000 3.6 120 12:45 08.05.2020
3369 Clouds 22 1023 64 10000 4.1 100 12:25 08.05.2020
3370 Clouds 22 1023 64 10000 4.1 100 11:59 08.05.2020
3371 Clouds 21 1023 73 10000 5.1 140 11:41 08.05.2020
3372 Clouds 21 1023 73 10000 5.1 140 11:21 08.05.2020
3373 Clouds 21 1023 73 10000 5.1 140 10:57 08.05.2020
3374 Clouds 20 1023 72 10000 5.1 180 10:39 08.05.2020
3375 Clouds 20 1023 72 10000 5.1 180 10:18 08.05.2020
3376 Clouds 20 1023 72 10000 5.1 180 10:18 08.05.2020
3377 Clouds 18 1023 88 10000 5.1 150 09:42 08.05.2020
3378 Clouds 18 1023 88 10000 5.1 150 09:19 08.05.2020
3379 Clouds 18 1023 88 10000 5.1 150 08:57 08.05.2020
3380 Clouds 18 1022 82 10000 3.19 118 08:39 08.05.2020
3381 Clouds 18 1022 82 10000 2.37 111 08:20 08.05.2020
3382 Clouds 17 1022 93 10000 2.37 111 07:39 08.05.2020
3383 Clouds 17 1022 93 10000 1.56 111 07:19 08.05.2020
3384 Clouds 16 1022 93 10000 1.56 111 06:47 08.05.2020
3385 Clouds 17 1021 88 10000 1.16 112 06:20 08.05.2020
3386 Clouds 17 1021 93 10000 1.5 160 05:34 08.05.2020
3387 Clouds 17 1021 88 10000 2.6 180 03:50 08.05.2020
3388 Clouds 18 1022 88 10000 1.5 140 02:30 08.05.2020
3389 Clouds 17 1022 93 10000 3.1 210 01:41 08.05.2020
3390 Clouds 17 1022 93 10000 3.1 210 01:21 08.05.2020
3391 Clouds 18 1022 88 10000 2.6 220 00:48 08.05.2020
3392 Clouds 17 1023 93 10000 1.79 93 00:27 08.05.2020
3393 Clouds 17 1023 93 10000 1.79 93 23:57 07.05.2020
3394 Clouds 17 1022 93 10000 1.79 93 23:38 07.05.2020
3395 Clouds 17 1022 93 10000 2.18 92 23:20 07.05.2020
3396 Clouds 18 1023 88 10000 3.1 210 22:42 07.05.2020
3397 Clouds 18 1022 88 10000 2.18 92 22:42 07.05.2020
3398 Clouds 18 1022 88 10000 2.52 96 22:20 07.05.2020
3399 Clouds 18 1022 88 10000 2.52 96 21:57 07.05.2020
3400 Clouds 18 1022 88 10000 2.6 150 21:39 07.05.2020
3401 Clouds 18 1022 88 10000 2.6 150 21:20 07.05.2020
3402 Clouds 18 1022 88 10000 2.6 150 20:58 07.05.2020
3403 Clouds 19 1021 88 10000 2.6 150 20:40 07.05.2020
3404 Clouds 19 1021 88 10000 2.6 150 20:20 07.05.2020
3405 Clouds 19 1021 88 10000 2.6 150 20:20 07.05.2020
3406 Clouds 19 1021 88 10000 2.6 150 19:48 07.05.2020
3407 Clouds 19 1020 77 10000 5.1 130 19:23 07.05.2020
3408 Clouds 19 1020 77 10000 5.1 130 18:57 07.05.2020
3409 Clouds 21 1020 73 10000 5.1 120 18:38 07.05.2020
3410 Clouds 21 1020 73 10000 5.1 120 18:38 07.05.2020
3411 Clouds 21 1020 73 10000 5.1 120 18:20 07.05.2020
3412 Clouds 22 1019 64 10000 5.1 140 17:41 07.05.2020
3413 Clouds 22 1019 64 10000 5.1 140 17:20 07.05.2020
3414 Clouds 22 1019 64 10000 5.1 140 16:43 07.05.2020
3415 Clouds 23 1019 60 10000 7.7 150 16:20 07.05.2020
3416 Clouds 23 1019 60 10000 7.7 150 15:58 07.05.2020
3417 Clouds 23 1019 60 10000 7.7 150 15:58 07.05.2020
3418 Clouds 23 1020 56 10000 4.1 90 15:39 07.05.2020
3419 Clouds 24 1020 56 10000 4.1 90 15:19 07.05.2020
3420 Clouds 24 1020 56 10000 4.1 90 14:59 07.05.2020
3421 Clouds 24 1021 57 10000 4.6 150 14:41 07.05.2020
3422 Clouds 24 1021 60 10000 5.1 120 14:19 07.05.2020
3423 Clouds 24 1021 57 10000 5.1 150 13:42 07.05.2020
3424 Clouds 23 1022 64 10000 5.1 150 13:24 07.05.2020
3425 Clouds 22 1022 64 10000 4.1 160 12:44 07.05.2020
3426 Clouds 23 1022 60 10000 5.1 150 12:20 07.05.2020
3427 Clouds 23 1022 60 10000 5.1 150 11:58 07.05.2020
3428 Clouds 21 1023 73 10000 3.98 114 11:38 07.05.2020
3429 Clouds 21 1023 73 10000 3.89 117 11:20 07.05.2020
3430 Clouds 20 1023 77 10000 3.89 117 10:41 07.05.2020
3431 Clouds 20 1023 77 10000 3.76 123 10:22 07.05.2020
3432 Clouds 19 1023 88 10000 3.76 123 09:41 07.05.2020
3433 Clouds 19 1023 88 10000 3.13 130 09:20 07.05.2020
3434 Clouds 19 1023 88 10000 3.13 130 08:57 07.05.2020
3435 Clouds 19 1023 88 10000 3.13 130 08:57 07.05.2020
3436 Clouds 18 1023 93 10000 3.13 130 08:38 07.05.2020
3437 Clouds 18 1023 93 10000 2.01 136 08:20 07.05.2020
3438 Clouds 18 1023 93 10000 2.01 136 07:45 07.05.2020
3439 Clouds 16 1021 100 10000 1.33 168 07:26 07.05.2020
3440 Clouds 16 1021 100 10000 1.33 168 06:52 07.05.2020
3441 Clouds 17 1022 93 10000 1 0 06:33 07.05.2020
3442 Clouds 17 1022 93 10000 1.5 150 05:32 07.05.2020
3443 Clouds 17 1021 100 10000 2.1 170 03:55 07.05.2020
3444 Clouds 17 1021 93 10000 3.1 170 03:25 07.05.2020
3445 Clouds 17 1021 93 10000 3.1 170 02:53 07.05.2020
3446 Rain 18 1022 93 10000 3.1 190 01:45 07.05.2020
3447 Rain 18 1022 93 10000 3.1 190 01:24 07.05.2020
3448 Clouds 18 1023 100 10000 2.6 200 00:47 07.05.2020
3449 Clouds 18 1022 93 10000 2.6 180 00:28 07.05.2020
3450 Clouds 18 1022 93 10000 2.6 180 23:48 06.05.2020
3451 Clouds 19 1023 93 10000 2.6 200 23:26 06.05.2020
3452 Clouds 19 1023 77 10000 2.6 180 22:58 06.05.2020
3453 Clouds 18 1022 93 10000 5.1 180 22:40 06.05.2020
3454 Clouds 18 1022 93 10000 5.1 180 22:20 06.05.2020
3455 Clouds 18 1022 93 10000 5.1 180 21:58 06.05.2020
3456 Clouds 20 1023 82 10000 4.1 160 21:40 06.05.2020
3457 Clouds 20 1023 82 10000 4.1 160 21:40 06.05.2020
3458 Clouds 19 1021 100 10000 5.1 170 21:21 06.05.2020
3459 Clouds 20 1021 82 10000 4.1 150 20:43 06.05.2020
3460 Clouds 20 1021 88 5000 7.2 180 20:25 06.05.2020
3461 Clouds 20 1021 88 5000 7.2 180 19:59 06.05.2020
3462 Clouds 20 1020 82 10000 4.1 190 19:39 06.05.2020
3463 Clouds 20 1020 82 10000 4.1 190 19:21 06.05.2020
3464 Clouds 20 1020 82 10000 4.1 190 19:21 06.05.2020
3465 Clouds 20 1020 82 10000 4.1 190 18:59 06.05.2020
3466 Clouds 21 1020 77 10000 4.6 140 18:41 06.05.2020
3467 Rain 20 1019 82 10000 5.1 180 18:22 06.05.2020
3468 Rain 21 1019 82 10000 5.1 180 17:59 06.05.2020
3469 Clouds 23 1019 64 10000 5.1 110 17:40 06.05.2020
3470 Clouds 23 1018 64 10000 7.2 110 17:22 06.05.2020
3471 Clouds 23 1018 64 10000 7.2 110 16:59 06.05.2020
3472 Clouds 24 1019 60 10000 6.7 90 16:41 06.05.2020
3473 Clouds 25 1018 57 10000 5.1 110 16:41 06.05.2020
3474 Clouds 25 1018 57 10000 5.1 110 16:22 06.05.2020
3475 Clouds 25 1018 57 10000 5.1 110 15:59 06.05.2020
3476 Clouds 24 1019 60 10000 5.7 110 15:41 06.05.2020
3477 Clouds 25 1019 53 10000 5.1 160 15:22 06.05.2020
3478 Clouds 25 1019 53 10000 5.1 160 15:22 06.05.2020
3479 Clouds 25 1019 53 10000 5.1 160 14:56 06.05.2020
3480 Clouds 25 1020 53 10000 4.1 170 14:38 06.05.2020
3481 Clouds 25 1020 53 10000 4.1 170 14:18 06.05.2020
3482 Clouds 25 1020 53 10000 4.1 170 14:18 06.05.2020
3483 Clouds 25 1020 53 10000 4.1 170 13:56 06.05.2020
3484 Clouds 25 1021 57 10000 4.1 160 13:37 06.05.2020
3485 Clouds 25 1021 57 10000 4.1 160 13:18 06.05.2020
3486 Clouds 23 1023 68 10000 4.1 120 12:42 06.05.2020
3487 Clouds 23 1023 68 10000 4.1 120 12:24 06.05.2020
3488 Clouds 22 1023 68 10000 4.1 170 11:41 06.05.2020
3489 Clouds 22 1023 68 10000 4.1 170 11:21 06.05.2020
3490 Clouds 22 1023 68 10000 4.1 170 10:58 06.05.2020
3491 Clouds 21 1023 73 10000 5.1 170 10:39 06.05.2020
3492 Clouds 21 1023 73 10000 5.1 170 10:19 06.05.2020
3493 Clouds 21 1024 77 10000 3.6 190 09:45 06.05.2020
3494 Clouds 20 1023 88 10000 3.1 170 09:26 06.05.2020
3495 Clouds 19 1023 88 10000 3.1 170 08:55 06.05.2020
3496 Clouds 18 1023 93 10000 3.1 160 08:36 06.05.2020
3497 Clouds 18 1023 93 10000 3.1 160 08:18 06.05.2020
3498 Clouds 18 1023 93 10000 2.1 240 07:40 06.05.2020
3499 Clouds 18 1023 93 10000 2.1 240 07:21 06.05.2020
3500 Clouds 18 1023 93 10000 1.5 160 06:58 06.05.2020
3501 Clouds 18 1022 93 10000 2.6 180 06:40 06.05.2020
3502 Clouds 18 1022 93 10000 2.6 180 06:19 06.05.2020
3503 Clouds 18 1022 93 10000 2.6 0 05:37 06.05.2020
3504 Clouds 13 1013 92 0 0.45 107 04:41 06.05.2020
3505 Clouds 13 1012 92 0 0.45 107 03:49 06.05.2020
3506 Clouds 14 1012 92 0 1.79 107 03:24 06.05.2020
3507 Clouds 14 1013 92 0 0.89 107 02:38 06.05.2020
3508 Rain 13 1013 92 0 0.89 107 02:20 06.05.2020
3509 Rain 13 1013 92 0 1.34 107 01:41 06.05.2020
3510 Rain 14 1013 93 0 0.89 107 00:56 06.05.2020
3511 Rain 14 1014 92 0 1.84 87 00:31 06.05.2020
3512 Rain 14 1014 92 0 2.68 107 23:58 05.05.2020
3513 Rain 14 1014 92 0 1.79 107 23:39 05.05.2020
3514 Rain 14 1014 92 0 2.02 68 23:19 05.05.2020
3515 Rain 14 1014 92 0 2.02 68 23:19 05.05.2020
3516 Rain 14 1014 93 0 2.02 68 22:42 05.05.2020
3517 Rain 15 1014 93 0 2.31 60 22:20 05.05.2020
3518 Rain 20 1022 88 10000 3.6 100 21:59 05.05.2020
3519 Rain 20 1022 88 10000 3.6 100 21:41 05.05.2020
3520 Clouds 20 1022 77 10000 2.24 61 21:21 05.05.2020
3521 Clouds 20 1022 77 10000 1.89 79 20:59 05.05.2020
3522 Clouds 21 1020 68 10000 1.89 79 20:39 05.05.2020
3523 Clouds 21 1020 68 10000 2.19 92 20:19 05.05.2020
3524 Rain 21 1021 77 10000 4.1 90 19:57 05.05.2020
3525 Clouds 22 1020 68 10000 2.19 92 19:37 05.05.2020
3526 Clouds 22 1020 68 10000 2.32 103 19:18 05.05.2020
3527 Clouds 22 1020 68 10000 2.32 103 18:55 05.05.2020
3528 Clouds 22 1020 68 10000 4.1 100 18:37 05.05.2020
3529 Clouds 22 1020 68 10000 4.1 100 18:19 05.05.2020
3530 Clouds 24 1020 60 10000 4.1 130 17:43 05.05.2020
3531 Clouds 24 1020 60 10000 4.1 130 17:25 05.05.2020
3532 Rain 25 1020 57 10000 5.7 130 16:58 05.05.2020
3533 Clouds 26 1019 47 10000 3.1 170 16:37 05.05.2020
3534 Clouds 26 1019 47 10000 3.1 170 16:18 05.05.2020
3535 Clouds 26 1019 50 10000 5.1 160 15:56 05.05.2020
3536 Clouds 25 1020 50 10000 2.1 140 15:38 05.05.2020
3537 Clouds 25 1020 50 10000 2.1 140 15:19 05.05.2020
3538 Clouds 26 1021 47 10000 6.2 120 14:43 05.05.2020
3539 Clouds 26 1021 47 10000 6.2 120 14:25 05.05.2020
3540 Clouds 26 1021 47 10000 6.2 120 13:59 05.05.2020
3541 Clouds 26 1021 47 10000 6.2 120 13:59 05.05.2020
3542 Clouds 25 1022 53 10000 3.1 140 13:41 05.05.2020
3543 Clouds 24 1021 57 10000 5.1 120 13:21 05.05.2020
3544 Clouds 24 1023 57 10000 3.1 0 12:59 05.05.2020
3545 Clouds 24 1023 57 10000 3.1 0 12:59 05.05.2020
3546 Clouds 23 1023 56 10000 3.57 146 12:40 05.05.2020
3547 Clouds 23 1023 56 10000 3.49 150 12:20 05.05.2020
3548 Clouds 23 1023 56 10000 3.49 150 11:59 05.05.2020
3549 Clouds 22 1023 64 10000 5.1 190 11:40 05.05.2020
3550 Clouds 22 1023 64 10000 5.1 190 11:19 05.05.2020
3551 Clouds 22 1023 64 10000 5.1 190 10:54 05.05.2020
3552 Clouds 21 1024 73 10000 3.1 160 10:36 05.05.2020
3553 Clouds 21 1024 73 10000 3.1 160 10:18 05.05.2020
3554 Clouds 20 1023 88 10000 2.81 155 09:43 05.05.2020
3555 Clouds 20 1023 88 10000 1.87 149 09:25 05.05.2020
3556 Clouds 18 1022 88 10000 1.87 149 08:43 05.05.2020
3557 Clouds 18 1022 88 10000 0.4 153 08:21 05.05.2020
3558 Clouds 18 1022 88 10000 0.4 153 07:59 05.05.2020
3559 Clouds 18 1023 93 10000 0.4 153 07:41 05.05.2020
3560 Clouds 17 1021 93 10000 0.34 37 07:19 05.05.2020
3561 Clouds 17 1021 93 10000 0.34 37 06:50 05.05.2020
3562 Clouds 18 1021 88 10000 0.34 37 06:29 05.05.2020
3563 Clouds 18 1021 88 10000 0.97 47 05:50 05.05.2020
3564 Clouds 18 1021 88 10000 1.48 53 04:54 05.05.2020
3565 Clouds 18 1022 93 10000 1.5 250 02:37 05.05.2020
3566 Clouds 19 1022 88 10000 7.7 60 00:56 05.05.2020
3567 Clouds 19 1024 93 10000 3.1 70 00:28 05.05.2020
3568 Clouds 19 1022 88 10000 4.6 60 23:48 04.05.2020
3569 Clouds 19 1022 88 10000 4.6 60 23:48 04.05.2020
3570 Clouds 19 1022 88 10000 4.6 60 23:25 04.05.2020
3571 Clouds 19 1022 88 10000 4.6 60 22:58 04.05.2020
3572 Clouds 19 1023 93 10000 2.6 50 22:40 04.05.2020
3573 Clouds 19 1022 88 10000 6.7 60 22:21 04.05.2020
3574 Clouds 19 1022 88 10000 6.7 60 21:57 04.05.2020
3575 Clouds 19 1022 88 10000 6.7 60 21:57 04.05.2020
3576 Clouds 20 1021 82 10000 3.6 60 21:37 04.05.2020
3577 Clouds 20 1021 82 10000 3.6 60 21:18 04.05.2020
3578 Clouds 21 1020 77 10000 5.7 120 20:40 04.05.2020
3579 Clouds 20 1022 88 10000 2.6 80 20:40 04.05.2020
3580 Clouds 21 1020 77 10000 5.7 120 20:40 04.05.2020
3581 Clouds 21 1020 77 10000 5.7 120 20:20 04.05.2020
3582 Clouds 21 1020 77 10000 5.7 120 19:55 04.05.2020
3583 Clouds 21 1019 77 10000 3.6 130 19:37 04.05.2020
3584 Clouds 21 1019 77 10000 3.6 130 19:18 04.05.2020
3585 Clouds 21 1019 77 10000 4.1 110 18:39 04.05.2020
3586 Clouds 21 1019 77 10000 4.1 110 18:39 04.05.2020
3587 Clouds 21 1019 77 10000 4.1 110 18:20 04.05.2020
3588 Clouds 21 1019 77 10000 4.1 110 17:56 04.05.2020
3589 Clouds 23 1018 53 10000 7.2 110 17:37 04.05.2020
3590 Clouds 23 1018 53 10000 7.2 110 17:19 04.05.2020
3591 Clouds 24 1018 53 10000 7.2 110 16:43 04.05.2020
3592 Clouds 27 1018 47 10000 3.1 160 16:23 04.05.2020
3593 Clouds 27 1018 47 10000 3.1 160 15:58 04.05.2020
3594 Clouds 27 1019 51 10000 4.1 130 15:40 04.05.2020
3595 Clouds 26 1019 47 10000 2.6 110 15:21 04.05.2020
3596 Clouds 26 1019 47 10000 2.6 110 14:48 04.05.2020
3597 Clouds 26 1020 50 10000 2.6 140 14:21 04.05.2020
3598 Clouds 25 1021 53 10000 5.1 150 13:21 04.05.2020
3599 Clouds 25 1021 53 10000 5.1 150 13:21 04.05.2020
3600 Clouds 25 1021 53 10000 5.1 150 13:21 04.05.2020
3601 Clouds 25 1021 53 10000 5.1 150 13:21 04.05.2020
3602 Clouds 25 1023 57 10000 2.6 0 12:44 04.05.2020
3603 Clouds 25 1023 57 10000 2.6 0 12:44 04.05.2020
3604 Clouds 24 1022 57 10000 2.6 180 12:44 04.05.2020
3605 Clouds 23 1023 60 10000 2.6 180 11:21 04.05.2020
3606 Clouds 23 1023 60 10000 2.6 180 11:21 04.05.2020
3607 Clouds 21 1024 82 10000 1.5 180 09:28 04.05.2020
3608 Clouds 21 1024 82 10000 1.5 180 09:28 04.05.2020
3609 Clouds 17 1023 93 10000 1.99 188 07:53 04.05.2020
3610 Clouds 16 1022 93 10000 1.99 188 07:34 04.05.2020
3611 Clouds 16 1022 93 10000 1.14 201 05:49 04.05.2020
3612 Clouds 17 1022 93 10000 0.5 0 04:52 04.05.2020
3613 Clouds 17 1022 93 10000 0.5 0 04:52 04.05.2020
3614 Clouds 18 1021 88 10000 2 184 02:54 04.05.2020
3615 Clouds 18 1023 88 10000 2.6 220 01:39 04.05.2020
3616 Clouds 19 1023 88 10000 0.59 145 00:18 04.05.2020
3617 Clouds 19 1023 88 10000 0.59 145 23:43 03.05.2020
3618 Clouds 18 1024 93 10000 3.1 190 23:43 03.05.2020
3619 Clouds 19 1023 88 10000 0.76 132 23:23 03.05.2020
3620 Clouds 19 1023 88 10000 2.6 240 22:44 03.05.2020
3621 Clouds 19 1023 88 10000 2.6 240 22:43 03.05.2020
3622 Clouds 19 1023 88 10000 2.6 240 22:25 03.05.2020
3623 Clouds 19 1023 88 10000 2.6 240 22:25 03.05.2020
3624 Clouds 19 1023 82 10000 2.6 260 21:54 03.05.2020
3625 Clouds 19 1022 82 10000 1.55 103 21:36 03.05.2020
3626 Clouds 19 1022 82 10000 1.92 90 21:18 03.05.2020
3627 Clouds 20 1022 82 10000 3.1 190 20:42 03.05.2020
3628 Clouds 20 1021 77 10000 1.92 90 20:42 03.05.2020
3629 Clouds 20 1021 77 10000 2.23 99 20:20 03.05.2020
3630 Clouds 20 1021 77 10000 2.23 99 19:48 03.05.2020
3631 Clouds 20 1021 77 10000 2.23 99 19:48 03.05.2020
3632 Clouds 22 1020 73 10000 2.6 210 19:30 03.05.2020
3633 Clouds 22 1020 73 10000 2.6 210 19:30 03.05.2020
3634 Clouds 23 1020 73 10000 2.6 210 18:56 03.05.2020
3635 Clouds 23 1020 73 10000 2.6 210 18:56 03.05.2020
3636 Clouds 23 1019 64 10000 2.34 113 18:37 03.05.2020
3637 Clouds 23 1019 64 10000 2.34 113 18:37 03.05.2020
3638 Clouds 23 1019 64 10000 2.18 117 18:19 03.05.2020
3639 Clouds 23 1019 64 10000 2.18 117 18:19 03.05.2020
3640 Clouds 23 1019 64 10000 2.18 117 18:18 03.05.2020
3641 Clouds 23 1019 64 10000 2.18 117 18:18 03.05.2020
3642 Clouds 23 1019 64 10000 2.18 117 18:18 03.05.2020
3643 Clouds 24 1019 64 10000 4.1 170 17:41 03.05.2020
3644 Clouds 24 1019 64 10000 4.1 170 17:41 03.05.2020
3645 Clouds 24 1019 64 10000 4.1 170 17:40 03.05.2020
3646 Clouds 24 1019 64 10000 4.1 170 17:21 03.05.2020
3647 Clouds 24 1019 64 10000 4.1 170 16:45 03.05.2020
3648 Clouds 24 1019 60 10000 6.2 180 16:20 03.05.2020
3649 Clouds 24 1019 60 10000 6.2 180 15:58 03.05.2020
3650 Clouds 24 1019 60 10000 6.2 180 15:58 03.05.2020
3651 Clouds 24 1019 60 10000 6.2 180 15:58 03.05.2020
3652 Clouds 25 1019 53 10000 4.1 190 15:39 03.05.2020
3653 Clouds 24 1020 57 10000 5.1 170 15:20 03.05.2020
3654 Clouds 24 1020 57 10000 5.1 170 15:20 03.05.2020
3655 Clouds 25 1020 57 10000 5.1 170 14:58 03.05.2020
3656 Clouds 24 1021 60 10000 2.6 180 14:40 03.05.2020
3657 Clouds 24 1021 60 10000 2.6 180 14:21 03.05.2020
3658 Clouds 24 1022 60 10000 5.1 150 13:51 03.05.2020
3659 Clouds 24 1021 60 10000 2.6 180 13:51 03.05.2020
3660 Clouds 24 1021 60 10000 2.6 180 13:51 03.05.2020
3661 Clouds 24 1021 60 10000 2.6 180 13:51 03.05.2020
3662 Clouds 24 1021 60 10000 2.6 180 13:51 03.05.2020
3663 Clouds 24 1022 60 10000 5.1 150 13:18 03.05.2020
3664 Clouds 23 1023 64 10000 5.1 150 12:43 03.05.2020
3665 Clouds 23 1023 64 10000 5.1 150 12:18 03.05.2020
3666 Clouds 23 1023 64 10000 5.1 150 11:55 03.05.2020
3667 Clouds 23 1023 64 10000 5.1 150 11:55 03.05.2020
3668 Clouds 22 1024 68 10000 2.57 163 11:37 03.05.2020
3669 Clouds 22 1024 68 10000 2.65 170 11:18 03.05.2020
3670 Clouds 22 1024 68 10000 2.65 170 10:46 03.05.2020
3671 Clouds 22 1024 68 10000 2.65 170 10:46 03.05.2020
3672 Clouds 22 1024 68 10000 2.65 170 10:46 03.05.2020
3673 Clouds 22 1024 68 10000 2.65 170 10:46 03.05.2020
3674 Clouds 20 1024 82 10000 4.1 170 09:57 03.05.2020
3675 Clouds 20 1024 82 10000 4.1 170 09:57 03.05.2020
3676 Clouds 20 1024 82 10000 4.1 170 09:57 03.05.2020
3677 Clouds 20 1024 82 10000 4.1 170 09:57 03.05.2020
3678 Clouds 20 1024 82 10000 4.1 170 09:57 03.05.2020
3679 Clouds 19 1024 88 10000 3.1 170 09:33 03.05.2020
3680 Clouds 19 1024 88 10000 3.1 170 09:33 03.05.2020
3681 Clouds 19 1024 88 10000 3.1 170 09:33 03.05.2020
3682 Clouds 19 1024 88 10000 3.1 170 09:33 03.05.2020
3683 Clouds 19 1024 88 10000 3.6 200 08:55 03.05.2020
3684 Clouds 19 1024 88 10000 3.6 200 08:55 03.05.2020
3685 Clouds 19 1024 88 10000 3.6 200 08:55 03.05.2020
3686 Clouds 19 1024 88 10000 3.6 180 08:55 03.05.2020
3687 Clouds 18 1023 93 10000 0.99 171 08:25 03.05.2020
3688 Clouds 18 1023 93 10000 0.99 171 08:25 03.05.2020
3689 Clouds 18 1023 93 10000 0.99 171 08:25 03.05.2020
3690 Clouds 18 1023 93 10000 0.99 171 08:25 03.05.2020
3691 Clouds 18 1023 93 10000 0.99 171 08:25 03.05.2020
3692 Clouds 17 1023 93 10000 2.1 230 07:39 03.05.2020
3693 Clouds 17 1021 93 10000 0.82 183 06:19 03.05.2020
3694 Clouds 17 1021 93 10000 0.82 183 05:46 03.05.2020
3695 Clouds 18 1022 93 10000 2.6 200 04:46 03.05.2020
3696 Clouds 18 1022 93 10000 2.6 200 04:23 03.05.2020
3697 Clouds 18 1021 93 10000 0.74 196 02:58 03.05.2020
3698 Clouds 18 1022 93 10000 1.5 230 02:24 03.05.2020
3699 Clouds 18 1022 93 10000 2.1 270 01:44 03.05.2020
3700 Clouds 18 1022 93 10000 2.1 250 01:24 03.05.2020
3701 Clouds 18 1023 93 10000 1.5 230 00:42 03.05.2020
3702 Clouds 18 1020 93 10000 1.44 168 00:21 03.05.2020
3703 Clouds 18 1020 93 10000 1.44 168 00:21 03.05.2020
3704 Clouds 18 1020 93 10000 1.44 168 00:21 03.05.2020
3705 Clouds 18 1020 93 10000 1.44 168 23:59 02.05.2020
3706 Clouds 19 1020 88 10000 1.44 168 23:41 02.05.2020
3707 Clouds 19 1020 88 10000 1.33 158 23:21 02.05.2020
3708 Clouds 19 1023 88 10000 3.1 190 22:43 02.05.2020
3709 Clouds 20 1020 82 10000 1.63 145 22:23 02.05.2020
3710 Clouds 20 1020 82 10000 1.63 145 21:56 02.05.2020
3711 Clouds 21 1020 77 10000 1.63 145 21:38 02.05.2020
3712 Clouds 21 1020 77 10000 1.84 109 21:18 02.05.2020
3713 Clouds 21 1020 77 10000 1.84 109 20:56 02.05.2020
3714 Clouds 21 1021 77 10000 1.84 109 20:37 02.05.2020
3715 Clouds 21 1021 77 10000 2.17 113 20:19 02.05.2020
3716 Clouds 21 1021 77 10000 2.17 113 19:55 02.05.2020
3717 Clouds 21 1021 77 10000 2.17 113 19:37 02.05.2020
3718 Clouds 21 1021 77 10000 2.32 120 19:18 02.05.2020
3719 Clouds 21 1021 77 10000 2.6 40 18:40 02.05.2020
3720 Clouds 22 1020 68 10000 3.1 190 18:22 02.05.2020
3721 Clouds 22 1020 68 10000 3.1 190 17:57 02.05.2020
3722 Clouds 23 1019 60 10000 3.1 130 17:39 02.05.2020
3723 Clouds 23 1019 60 10000 3.1 130 17:20 02.05.2020
3724 Clouds 23 1019 60 10000 3.1 130 16:57 02.05.2020
3725 Clouds 24 1020 60 10000 5.1 110 16:39 02.05.2020
3726 Clouds 24 1020 60 10000 5.1 110 16:21 02.05.2020
3727 Clouds 24 1020 60 10000 5.1 110 15:42 02.05.2020
3728 Clouds 23 1020 64 10000 3.1 100 15:20 02.05.2020
3729 Clouds 23 1020 64 10000 3.1 100 14:46 02.05.2020
3730 Clouds 24 1021 64 10000 4.1 150 14:28 02.05.2020
3731 Clouds 22 1022 68 10000 1.5 0 13:59 02.05.2020
3732 Clouds 21 1022 77 10000 4.1 140 13:40 02.05.2020
3733 Clouds 21 1022 77 10000 4.1 140 13:21 02.05.2020
3734 Clouds 22 1023 73 10000 5.1 100 12:43 02.05.2020
3735 Clouds 22 1023 73 10000 5.1 100 12:25 02.05.2020
3736 Clouds 22 1023 73 10000 5.1 100 11:59 02.05.2020
3737 Clouds 22 1024 68 10000 2.1 140 11:41 02.05.2020
3738 Clouds 21 1024 77 10000 3.44 141 11:22 02.05.2020
3739 Clouds 21 1024 77 10000 3.44 141 11:22 02.05.2020
3740 Clouds 21 1024 77 10000 3.44 141 10:58 02.05.2020
3741 Clouds 20 1024 82 10000 3.44 141 10:38 02.05.2020
3742 Clouds 20 1024 82 10000 2.71 145 10:20 02.05.2020
3743 Clouds 20 1024 82 10000 2.71 145 09:56 02.05.2020
3744 Clouds 19 1024 93 10000 2.71 145 09:37 02.05.2020
3745 Clouds 19 1024 93 10000 2.22 151 09:19 02.05.2020
3746 Clouds 18 1024 93 10000 2.22 151 08:46 02.05.2020
3747 Drizzle 17 1023 93 5000 1.86 150 08:26 02.05.2020
3748 Drizzle 17 1023 93 5000 1.86 150 07:47 02.05.2020
3749 Clouds 17 1023 93 10000 1.3 140 07:28 02.05.2020
3750 Clouds 17 1023 93 10000 1.3 140 06:51 02.05.2020
3751 Clouds 17 1023 100 10000 1 240 05:29 02.05.2020
3752 Clouds 17 1022 93 10000 1.5 240 04:48 02.05.2020
3753 Clouds 17 1022 93 10000 1.5 240 04:24 02.05.2020
3754 Clouds 17 1021 100 10000 2.1 170 02:44 02.05.2020
3755 Clouds 17 1023 100 10000 3.1 180 02:23 02.05.2020
3756 Clouds 18 1023 93 10000 3.6 170 01:48 02.05.2020
3757 Clouds 18 1024 77 10000 2.6 180 00:46 02.05.2020
3758 Clouds 18 1023 93 10000 3.1 180 00:28 02.05.2020
3759 Clouds 18 1023 93 10000 3.1 180 23:58 01.05.2020
3760 Clouds 17 1023 93 10000 1.29 133 23:39 01.05.2020
3761 Clouds 17 1023 93 10000 1.41 126 23:20 01.05.2020
3762 Clouds 17 1023 93 10000 1.41 126 22:55 01.05.2020
3763 Clouds 17 1023 93 10000 1.41 126 22:55 01.05.2020
3764 Clouds 18 1024 88 10000 2.1 140 22:37 01.05.2020
3765 Clouds 18 1024 88 10000 2.1 140 22:18 01.05.2020
3766 Clouds 18 1024 88 10000 2.1 140 21:55 01.05.2020
3767 Clouds 19 1023 88 10000 2.58 100 21:36 01.05.2020
3768 Clouds 19 1023 88 10000 2.78 95 21:18 01.05.2020
3769 Clouds 19 1023 88 10000 2.78 95 20:54 01.05.2020
3770 Clouds 19 1022 88 10000 2.78 95 20:36 01.05.2020
3771 Clouds 19 1022 88 10000 2.87 86 20:18 01.05.2020
3772 Clouds 20 1021 82 10000 3.1 130 19:41 01.05.2020
3773 Clouds 20 1021 82 10000 3.1 130 19:22 01.05.2020
3774 Clouds 21 1022 77 10000 4.6 140 18:57 01.05.2020
3775 Clouds 22 1021 68 10000 5.1 110 18:38 01.05.2020
3776 Clouds 22 1021 68 10000 5.1 110 18:19 01.05.2020
3777 Clouds 22 1021 68 10000 5.1 110 17:56 01.05.2020
3778 Clouds 23 1020 64 10000 6.2 130 17:37 01.05.2020
3779 Clouds 23 1020 64 10000 6.2 130 17:19 01.05.2020
3780 Clouds 23 1020 64 10000 6.2 130 16:55 01.05.2020
3781 Clouds 23 1020 64 10000 7.2 120 16:36 01.05.2020
3782 Clouds 23 1020 64 10000 7.2 120 16:18 01.05.2020
3783 Clouds 24 1021 53 10000 5.1 140 15:42 01.05.2020
3784 Clouds 24 1021 53 10000 5.1 140 15:23 01.05.2020
3785 Clouds 25 1022 61 10000 3.1 150 14:54 01.05.2020
3786 Clouds 24 1022 60 10000 5.1 140 14:36 01.05.2020
3787 Clouds 24 1022 60 10000 5.1 140 14:18 01.05.2020
3788 Clouds 24 1023 60 10000 3.1 160 13:40 01.05.2020
3789 Clouds 24 1023 60 10000 3.1 160 13:22 01.05.2020
3790 Clouds 24 1023 60 10000 3.1 160 12:56 01.05.2020
3791 Clouds 23 1024 64 10000 2.1 140 12:37 01.05.2020
3792 Clouds 23 1024 64 10000 2.1 140 12:19 01.05.2020
3793 Clouds 23 1024 64 10000 2.1 140 11:43 01.05.2020
3794 Clouds 21 1024 77 10000 3.08 151 11:25 01.05.2020
3795 Clouds 21 1024 77 10000 3.08 151 10:59 01.05.2020
3796 Clouds 20 1024 82 10000 2.1 160 10:40 01.05.2020
3797 Clouds 20 1024 82 10000 2.1 160 10:20 01.05.2020
3798 Clouds 20 1026 77 10000 2.1 220 09:44 01.05.2020
3799 Clouds 19 1025 82 10000 2.6 150 09:20 01.05.2020
3800 Clouds 18 1025 82 10000 2.6 150 08:59 01.05.2020
3801 Clouds 16 1024 100 10000 3.6 180 08:41 01.05.2020
3802 Clouds 16 1024 100 10000 3.6 180 08:22 01.05.2020
3803 Clouds 16 1024 100 10000 3.6 180 07:46 01.05.2020
3804 Clouds 16 1024 100 10000 2.6 190 07:23 01.05.2020
3805 Clouds 16 1024 100 10000 2.6 190 06:51 01.05.2020
3806 Clouds 18 1024 93 10000 5.1 150 05:36 01.05.2020
3807 Clouds 18 1024 93 10000 5.1 150 04:47 01.05.2020
3808 Rain 18 1023 93 10000 3.1 160 03:31 01.05.2020
3809 Rain 18 1023 93 10000 3.1 160 02:45 01.05.2020
3810 Clouds 18 1023 93 10000 3.1 140 02:25 01.05.2020
3811 Rain 18 1024 93 10000 1.54 118 01:29 01.05.2020
3812 Rain 18 1024 93 10000 1.54 118 00:59 01.05.2020
3813 Clouds 18 1024 93 10000 1.54 118 00:37 01.05.2020
3814 Clouds 18 1024 93 10000 1.54 118 00:37 01.05.2020
3815 Clouds 18 1024 93 10000 1.4 96 00:19 01.05.2020
3816 Clouds 18 1024 93 10000 1.4 96 23:55 30.04.2020
3817 Clouds 18 1024 93 10000 1.4 96 23:55 30.04.2020
3818 Clouds 18 1025 93 10000 2.6 180 23:37 30.04.2020
3819 Clouds 18 1025 93 10000 2.6 180 23:18 30.04.2020
3820 Clouds 19 1025 88 10000 1.66 92 22:41 30.04.2020
3821 Clouds 19 1025 88 10000 2.12 98 22:21 30.04.2020
3822 Clouds 19 1025 88 10000 2.12 98 21:56 30.04.2020
3823 Clouds 19 1023 88 10000 3.1 180 21:38 30.04.2020
3824 Clouds 19 1023 88 10000 3.1 180 21:19 30.04.2020
3825 Clouds 19 1023 88 10000 3.1 180 20:54 30.04.2020
3826 Clouds 19 1022 93 10000 3.1 150 20:36 30.04.2020
3827 Clouds 19 1022 93 10000 3.1 150 20:18 30.04.2020
3828 Clouds 22 1021 64 10000 5.1 210 19:42 30.04.2020
3829 Clouds 22 1021 64 10000 5.1 210 19:23 30.04.2020
3830 Clouds 22 1021 64 10000 5.1 210 18:56 30.04.2020
3831 Clouds 22 1022 73 10000 5.1 90 18:37 30.04.2020
3832 Clouds 22 1022 73 10000 5.1 90 18:19 30.04.2020
3833 Clouds 22 1022 68 10000 2.6 130 17:56 30.04.2020
3834 Clouds 23 1020 73 10000 2.49 94 17:37 30.04.2020
3835 Clouds 23 1020 73 10000 2.52 120 17:19 30.04.2020
3836 Clouds 24 1020 73 10000 2.52 120 16:54 30.04.2020
3837 Clouds 23 1020 64 10000 5.1 160 16:36 30.04.2020
3838 Clouds 23 1020 64 10000 5.1 160 16:18 30.04.2020
3839 Clouds 25 1021 53 10000 5.1 150 15:44 30.04.2020
3840 Clouds 24 1021 57 10000 5.1 120 15:21 30.04.2020
3841 Clouds 24 1021 57 10000 5.1 120 14:42 30.04.2020
3842 Clouds 24 1022 53 10000 4.1 150 14:22 30.04.2020
3843 Clouds 24 1022 53 10000 4.1 150 13:59 30.04.2020
3844 Clouds 23 1023 64 10000 4.1 130 13:41 30.04.2020
3845 Clouds 23 1023 64 10000 4.1 130 13:22 30.04.2020
3846 Clouds 23 1023 64 10000 4.1 130 12:59 30.04.2020
3847 Rain 23 1014 42 0 4.21 131 12:41 30.04.2020
3848 Rain 24 1015 39 0 4.06 137 12:19 30.04.2020
3849 Clouds 22 1025 68 10000 2.6 180 11:38 30.04.2020
3850 Clouds 22 1025 68 10000 2.6 180 11:19 30.04.2020
3851 Clouds 22 1025 68 10000 2.6 180 10:58 30.04.2020
3852 Clouds 20 1024 88 10000 5.1 120 10:39 30.04.2020
3853 Clouds 20 1024 88 10000 5.1 120 10:20 30.04.2020
3854 Clouds 20 1024 88 10000 5.1 120 09:56 30.04.2020
3855 Clouds 19 1024 88 10000 5.1 170 09:37 30.04.2020
3856 Clouds 19 1024 88 10000 5.1 170 09:18 30.04.2020
3857 Clouds 18 1025 93 10000 2.63 157 08:44 30.04.2020
3858 Clouds 18 1025 93 10000 1.91 158 08:24 30.04.2020
3859 Clouds 18 1025 93 10000 2.1 180 07:43 30.04.2020
3860 Clouds 17 1023 100 10000 1.47 144 07:25 30.04.2020
3861 Clouds 17 1023 100 10000 1.47 144 06:52 30.04.2020
3862 Clouds 17 1023 100 10000 1.68 132 06:18 30.04.2020
3863 Clouds 17 1023 100 10000 1.68 132 05:44 30.04.2020
3864 Clouds 18 1023 93 10000 1.5 190 04:36 30.04.2020
3865 Clouds 18 1023 93 10000 2.1 200 03:58 30.04.2020
3866 Clouds 18 1023 93 10000 1.5 230 02:47 30.04.2020
3867 Clouds 18 1023 93 10000 1.5 220 02:25 30.04.2020
3868 Clouds 19 1025 88 10000 2.1 200 01:36 30.04.2020
3869 Rain 14 1014 94 0 1.55 88 00:42 30.04.2020
3870 Clouds 19 1025 88 10000 3.6 140 00:20 30.04.2020
3871 Clouds 19 1025 88 10000 3.6 140 23:57 29.04.2020
3872 Clouds 18 1024 100 10000 1.74 97 23:37 29.04.2020
3873 Clouds 18 1024 100 10000 1.74 97 23:37 29.04.2020
3874 Clouds 18 1024 100 10000 1.6 98 23:19 29.04.2020
3875 Clouds 19 1024 93 10000 3.6 170 22:40 29.04.2020
3876 Clouds 19 1023 88 10000 1.61 96 22:22 29.04.2020
3877 Clouds 19 1024 93 10000 4.6 180 21:59 29.04.2020
3878 Clouds 19 1023 93 10000 2.2 77 21:37 29.04.2020
3879 Clouds 19 1023 93 10000 2.55 66 21:19 29.04.2020
3880 Clouds 19 1023 93 10000 2.55 66 20:56 29.04.2020
3881 Clouds 20 1022 88 10000 2.55 66 20:37 29.04.2020
3882 Clouds 20 1022 88 10000 2.42 63 20:18 29.04.2020
3883 Clouds 21 1021 77 10000 2.42 63 19:43 29.04.2020
3884 Clouds 21 1021 77 10000 2.59 75 19:22 29.04.2020
3885 Clouds 21 1021 77 10000 2.59 75 18:57 29.04.2020
3886 Clouds 22 1020 73 10000 3.1 160 18:38 29.04.2020
3887 Clouds 22 1020 73 10000 3.1 160 18:18 29.04.2020
3888 Clouds 24 1019 64 10000 6.2 130 17:42 29.04.2020
3889 Clouds 24 1019 64 10000 6.2 130 17:21 29.04.2020
3890 Clouds 24 1019 64 10000 6.2 130 16:56 29.04.2020
3891 Clouds 23 1020 69 10000 2.6 140 16:36 29.04.2020
3892 Clouds 23 1020 69 10000 2.6 140 16:18 29.04.2020
3893 Clouds 23 1020 69 10000 4.6 150 15:55 29.04.2020
3894 Clouds 24 1021 57 10000 4.1 160 15:36 29.04.2020
3895 Clouds 24 1021 57 10000 4.1 160 15:18 29.04.2020
3896 Clouds 24 1022 64 10000 1 0 14:42 29.04.2020
3897 Rain 23 1023 60 10000 3.1 160 14:23 29.04.2020
3898 Rain 23 1023 60 10000 3.1 160 13:56 29.04.2020
3899 Clouds 23 1023 64 10000 4.1 140 13:38 29.04.2020
3900 Clouds 23 1023 64 10000 4.1 140 13:38 29.04.2020
3901 Clouds 23 1023 64 10000 4.1 140 13:18 29.04.2020
3902 Clouds 23 1023 64 10000 2.1 150 12:41 29.04.2020
3903 Clouds 23 1023 64 10000 2.1 150 12:19 29.04.2020
3904 Clouds 23 1023 64 10000 2.1 150 12:19 29.04.2020
3905 Clouds 23 1023 64 10000 2.1 150 11:58 29.04.2020
3906 Clouds 22 1024 68 10000 3.1 140 11:38 29.04.2020
3907 Clouds 22 1024 68 10000 3.1 140 11:20 29.04.2020
3908 Clouds 21 1024 73 10000 4.1 30 10:39 29.04.2020
3909 Clouds 21 1024 73 10000 4.1 30 10:20 29.04.2020
3910 Clouds 21 1024 73 10000 4.1 30 09:59 29.04.2020
3911 Clouds 20 1024 82 10000 2.58 118 09:40 29.04.2020
3912 Clouds 19 1024 82 10000 1.96 121 09:19 29.04.2020
3913 Clouds 19 1025 88 10000 3.1 180 08:43 29.04.2020
3914 Clouds 18 1023 88 10000 1.47 111 08:25 29.04.2020
3915 Clouds 18 1023 88 10000 1.47 111 07:53 29.04.2020
3916 Clouds 17 1023 93 10000 1.3 112 07:28 29.04.2020
3917 Clouds 17 1023 93 10000 1.3 112 06:52 29.04.2020
3918 Clouds 17 1023 93 10000 1.3 112 06:32 29.04.2020
3919 Clouds 17 1023 93 10000 1.64 114 05:43 29.04.2020
3920 Clouds 17 1022 93 10000 2.16 125 05:19 29.04.2020
3921 Clouds 17 1022 93 10000 2.26 144 04:20 29.04.2020
3922 Clouds 17 1023 93 10000 1.94 158 03:28 29.04.2020
3923 Clouds 18 1023 100 10000 2.6 130 01:56 29.04.2020
3924 Clouds 18 1022 93 10000 1.6 130 01:28 29.04.2020
3925 Clouds 18 1022 93 10000 1.6 130 00:56 29.04.2020
3926 Clouds 18 1023 93 10000 1.6 130 00:37 29.04.2020
3927 Clouds 18 1023 93 10000 1.62 91 00:18 29.04.2020
3928 Clouds 18 1023 93 10000 1.62 91 23:43 28.04.2020
3929 Clouds 18 1023 100 10000 1.62 91 23:43 28.04.2020
3930 Clouds 18 1023 100 10000 1.59 78 23:21 28.04.2020
3931 Clouds 18 1023 100 10000 1.71 65 22:39 28.04.2020
3932 Clouds 18 1023 100 10000 1.71 65 22:20 28.04.2020
3933 Clouds 18 1023 100 10000 1.71 65 21:59 28.04.2020
3934 Clouds 19 1022 93 10000 2.6 90 21:40 28.04.2020
3935 Clouds 19 1022 93 10000 2.6 90 21:22 28.04.2020
3936 Clouds 19 1022 93 10000 2.6 90 20:59 28.04.2020
3937 Clouds 20 1022 88 10000 2.79 65 20:40 28.04.2020
3938 Clouds 20 1022 88 10000 2.79 65 20:40 28.04.2020
3939 Clouds 20 1022 88 10000 3.12 72 20:20 28.04.2020
3940 Clouds 20 1022 88 10000 3.12 72 19:56 28.04.2020
3941 Clouds 20 1021 88 10000 2.6 130 19:38 28.04.2020
3942 Clouds 20 1021 88 10000 2.6 130 19:19 28.04.2020
3943 Clouds 20 1021 88 10000 2.6 130 18:55 28.04.2020
3944 Clouds 21 1020 77 10000 3.08 73 18:37 28.04.2020
3945 Clouds 21 1020 77 10000 3.01 81 18:18 28.04.2020
3946 Rain 23 1019 60 10000 5.1 80 17:37 28.04.2020
3947 Rain 23 1019 60 10000 5.1 80 17:19 28.04.2020
3948 Rain 23 1019 60 10000 5.1 80 17:19 28.04.2020
3949 Rain 23 1019 60 10000 5.1 80 16:57 28.04.2020
3950 Clouds 24 1019 60 10000 4.1 140 16:39 28.04.2020
3951 Clouds 24 1019 60 10000 4.1 140 16:21 28.04.2020
3952 Clouds 24 1019 60 10000 4.1 140 15:55 28.04.2020
3953 Clouds 23 1020 69 10000 3.6 170 15:37 28.04.2020
3954 Clouds 23 1020 69 10000 3.6 170 15:19 28.04.2020
3955 Clouds 23 1020 69 10000 3.6 170 14:54 28.04.2020
3956 Rain 24 1021 57 10000 3.1 60 14:36 28.04.2020
3957 Rain 24 1021 57 10000 3.1 60 14:18 28.04.2020
3958 Rain 23 1021 57 10000 3.1 60 13:55 28.04.2020
3959 Clouds 23 1023 60 10000 2.6 150 13:36 28.04.2020
3960 Clouds 23 1023 60 10000 2.6 150 13:18 28.04.2020
3961 Clouds 23 1023 64 10000 2.6 80 12:41 28.04.2020
3962 Clouds 23 1023 64 10000 2.6 80 12:22 28.04.2020
3963 Clouds 22 1025 68 10000 2.6 140 11:42 28.04.2020
3964 Clouds 22 1025 68 10000 2.6 140 11:23 28.04.2020
3965 Clouds 22 1025 68 10000 2.1 180 10:58 28.04.2020
3966 Clouds 22 1025 64 10000 2.1 0 10:38 28.04.2020
3967 Clouds 22 1025 64 10000 2.1 0 10:38 28.04.2020
3968 Clouds 22 1025 64 10000 2.6 100 10:18 28.04.2020
3969 Clouds 21 1025 68 10000 1.5 40 09:45 28.04.2020
3970 Clouds 21 1025 68 10000 1.5 40 09:26 28.04.2020
3971 Clouds 20 1025 77 10000 1.5 150 08:57 28.04.2020
3972 Clouds 19 1024 82 10000 1 0 08:38 28.04.2020
3973 Clouds 19 1024 82 10000 1 0 08:20 28.04.2020
3974 Clouds 16 1023 93 10000 1 220 07:44 28.04.2020
3975 Clouds 16 1022 93 10000 1.76 56 07:19 28.04.2020
3976 Mist 14 1022 100 5000 2.1 240 06:43 28.04.2020
3977 Clouds 15 1021 93 10000 1.32 30 05:53 28.04.2020
3978 Clouds 14 1022 100 10000 2.1 240 05:35 28.04.2020
3979 Clouds 15 1022 93 10000 2.1 270 04:39 28.04.2020
3980 Clouds 16 1023 100 10000 1 280 02:39 28.04.2020
3981 Clouds 16 1023 100 10000 1.5 270 01:58 28.04.2020
3982 Clouds 16 1024 100 10000 3.1 240 01:22 28.04.2020
3983 Clouds 16 1024 100 10000 1.5 240 00:49 28.04.2020
3984 Clouds 17 1024 93 10000 1 220 00:19 28.04.2020
3985 Clouds 18 1024 93 10000 1.5 230 23:43 27.04.2020
3986 Clouds 18 1024 93 10000 1.5 230 23:21 27.04.2020
3987 Clouds 18 1024 88 10000 1 0 22:43 27.04.2020
3988 Rain 18 1023 93 10000 3.2 67 22:24 27.04.2020
3989 Rain 18 1023 93 10000 3.2 67 21:58 27.04.2020
3990 Clouds 18 1024 93 10000 3.1 160 21:39 27.04.2020
3991 Clouds 18 1024 93 10000 3.1 160 21:20 27.04.2020
3992 Clouds 19 1023 88 10000 2.1 170 20:59 27.04.2020
3993 Clouds 19 1023 88 10000 3.1 150 20:40 27.04.2020
3994 Clouds 19 1023 88 10000 3.1 150 20:21 27.04.2020
3995 Clouds 20 1022 82 10000 2.6 170 19:57 27.04.2020
3996 Clouds 20 1022 82 10000 3.1 130 19:38 27.04.2020
3997 Clouds 20 1022 82 10000 3.1 130 19:19 27.04.2020
3998 Clouds 20 1022 82 10000 3.1 90 18:56 27.04.2020
3999 Clouds 20 1021 82 10000 2.1 70 18:37 27.04.2020
4000 Clouds 21 1021 83 10000 4.6 90 18:18 27.04.2020
4001 Clouds 21 1021 83 10000 4.6 90 17:43 27.04.2020
4002 Clouds 21 1021 77 10000 0.5 0 17:21 27.04.2020
4003 Rain 20 1021 82 10000 3.1 190 16:56 27.04.2020
4004 Rain 21 1021 77 10000 4.1 130 16:38 27.04.2020
4005 Rain 21 1021 77 10000 4.1 130 16:20 27.04.2020
4006 Clouds 23 1021 64 10000 1 0 15:56 27.04.2020
4007 Clouds 23 1021 60 10000 2.6 20 15:37 27.04.2020
4008 Clouds 23 1021 60 10000 2.6 20 15:18 27.04.2020
4009 Rain 23 1012 43 0 3.95 125 14:41 27.04.2020
4010 Rain 23 1013 45 0 4.15 119 14:20 27.04.2020
4011 Rain 23 1013 45 0 4.15 119 13:57 27.04.2020
4012 Rain 23 1013 45 0 4.15 119 13:39 27.04.2020
4013 Rain 23 1013 45 0 4.15 119 13:39 27.04.2020
4014 Rain 23 1013 45 0 4.15 119 13:19 27.04.2020
4015 Rain 23 1013 45 0 4.15 119 12:43 27.04.2020
4016 Rain 23 1015 42 0 3.59 118 12:23 27.04.2020
4017 Rain 23 1015 42 0 3.59 118 11:59 27.04.2020
4018 Rain 23 1015 42 0 3.59 118 11:40 27.04.2020
4019 Rain 23 1015 42 0 3.59 118 11:19 27.04.2020
4020 Rain 18 1015 72 0 1.79 127 10:54 27.04.2020
4021 Rain 18 1015 72 0 1.79 127 10:36 27.04.2020
4022 Rain 18 1015 71 0 2.24 121 10:18 27.04.2020
4023 Rain 18 1016 70 0 0.45 114 09:42 27.04.2020
4024 Clouds 18 1015 71 0 0.89 113 09:18 27.04.2020
4025 Clouds 14 1016 86 0 0.9 76 08:53 27.04.2020
4026 Clouds 14 1016 86 0 0.9 76 08:33 27.04.2020
4027 Clouds 14 1016 86 0 0.9 76 07:55 27.04.2020
4028 Clouds 14 1016 86 0 0.9 76 07:36 27.04.2020
4029 Clouds 14 1016 86 0 0.9 76 07:18 27.04.2020
4030 Clouds 12 1015 88 0 0.45 107 06:39 27.04.2020
4031 Clouds 12 1015 90 0 1.31 43 06:19 27.04.2020
4032 Clouds 13 1015 92 0 1.31 43 05:48 27.04.2020
4033 Clouds 13 1014 93 0 1.34 107 04:40 27.04.2020
4034 Clouds 14 1014 93 0 1.34 107 03:48 27.04.2020
4035 Rain 14 1014 93 0 2.68 111 02:40 27.04.2020
4036 Rain 14 1014 93 0 2.24 100 01:22 27.04.2020
4037 Rain 14 1014 93 0 0.89 82 00:45 27.04.2020
4038 Rain 14 1014 93 0 1.35 53 00:19 27.04.2020
4039 Rain 14 1014 93 0 0.45 82 23:55 26.04.2020
4040 Rain 14 1015 92 0 0.45 82 23:37 26.04.2020
4041 Rain 14 1015 92 0 1.35 53 23:18 26.04.2020
4042 Rain 14 1015 92 0 1.34 82 22:55 26.04.2020
4043 Rain 15 1015 92 0 0.89 82 22:37 26.04.2020
4044 Rain 15 1015 91 0 1.34 82 22:18 26.04.2020
4045 Rain 15 1015 91 0 0.45 82 21:55 26.04.2020
4046 Rain 15 1014 91 0 1.35 53 21:37 26.04.2020
4047 Rain 15 1014 91 0 1.34 82 21:18 26.04.2020
4048 Rain 15 1014 92 0 0.89 81 20:39 26.04.2020
4049 Rain 15 1014 92 0 1.34 81 20:20 26.04.2020
4050 Rain 14 1014 92 0 0.89 79 19:59 26.04.2020
4051 Rain 14 1013 93 0 0.89 57 19:38 26.04.2020
4052 Rain 14 1013 93 0 0.89 57 19:19 26.04.2020
4053 Rain 14 1013 93 0 1.79 57 18:44 26.04.2020
4054 Rain 20 1012 55 0 2.34 119 18:25 26.04.2020
4055 Rain 20 1012 55 0 2.34 119 17:57 26.04.2020
4056 Rain 20 1012 55 0 2.34 119 17:39 26.04.2020
4057 Rain 20 1012 55 0 2.34 119 17:19 26.04.2020
4058 Rain 20 1012 55 0 2.34 119 16:42 26.04.2020
4059 Rain 20 1012 55 0 2.34 119 16:23 26.04.2020
4060 Rain 20 1012 55 0 2.34 119 15:59 26.04.2020
4061 Rain 20 1012 55 0 2.34 119 15:41 26.04.2020
4062 Rain 23 1011 46 0 3.31 134 15:21 26.04.2020
4063 Rain 23 1011 46 0 3.31 134 14:57 26.04.2020
4064 Rain 23 1012 48 0 2.92 140 14:38 26.04.2020
4065 Rain 23 1012 48 0 2.92 140 14:18 26.04.2020
4066 Rain 23 1012 48 0 2.92 140 13:55 26.04.2020
4067 Rain 23 1012 48 0 2.92 140 13:37 26.04.2020
4068 Rain 23 1012 48 0 2.92 140 13:18 26.04.2020
4069 Rain 23 1012 48 0 2.92 140 12:40 26.04.2020
4070 Rain 23 1015 45 0 2.8 165 12:21 26.04.2020
4071 Rain 19 1012 82 0 2.8 165 11:59 26.04.2020
4072 Rain 19 1013 81 0 2.8 165 11:40 26.04.2020
4073 Rain 19 1013 77 0 2.8 165 11:22 26.04.2020
4074 Rain 20 1014 77 0 2.8 165 10:56 26.04.2020
4075 Rain 20 1014 77 0 2.8 165 10:56 26.04.2020
4076 Rain 21 1014 74 0 2.8 165 10:38 26.04.2020
4077 Rain 19 1015 78 0 2.8 165 10:20 26.04.2020
4078 Rain 17 1015 88 0 2.8 165 09:40 26.04.2020
4079 Clouds 16 1015 89 0 2.52 198 09:22 26.04.2020
4080 Clouds 16 1015 94 0 2.52 198 08:58 26.04.2020
4081 Clouds 15 1015 95 0 2.52 198 08:40 26.04.2020
4082 Clouds 14 1015 95 0 2.52 198 08:20 26.04.2020
4083 Clouds 14 1015 95 0 2.52 198 07:46 26.04.2020
4084 Clouds 13 1015 94 0 2.52 198 07:21 26.04.2020
4085 Clouds 13 1014 94 0 2.52 198 06:44 26.04.2020
4086 Rain 13 1014 94 0 0.45 57 05:59 26.04.2020
4087 Rain 13 1014 94 0 0.89 57 05:41 26.04.2020
4088 Rain 13 1014 94 0 0.89 57 05:22 26.04.2020
4089 Rain 13 1013 94 0 0.57 208 04:23 26.04.2020
4090 Rain 13 1013 94 0 0.09 87 02:53 26.04.2020
4091 Rain 13 1013 94 0 0.09 87 02:32 26.04.2020
4092 Rain 13 1013 93 0 0.18 137 01:51 26.04.2020
4093 Rain 14 1013 93 0 0.18 137 01:27 26.04.2020
4094 Rain 14 1013 92 0 0.18 137 00:40 26.04.2020
4095 Rain 14 1014 92 0 0.7 63 00:19 26.04.2020
4096 Rain 14 1014 92 0 0.7 63 23:39 25.04.2020
4097 Rain 14 1014 92 0 0.7 63 23:21 25.04.2020
4098 Rain 14 1014 91 0 0.7 63 22:58 25.04.2020
4099 Clouds 19 1023 88 10000 3.1 60 22:40 25.04.2020
4100 Clouds 19 1023 88 10000 3.1 60 22:19 25.04.2020
4101 Clouds 19 1023 88 10000 3.1 60 21:54 25.04.2020
4102 Clouds 20 1021 88 10000 0.7 63 21:36 25.04.2020
4103 Clouds 20 1021 88 10000 0.94 75 21:18 25.04.2020
4104 Clouds 20 1020 77 10000 0.94 75 20:42 25.04.2020
4105 Clouds 20 1020 77 10000 0.94 75 20:22 25.04.2020
4106 Clouds 20 1020 77 10000 0.94 75 19:55 25.04.2020
4107 Clouds 20 1019 82 10000 0.94 75 19:37 25.04.2020
4108 Clouds 20 1019 82 10000 0.94 75 19:19 25.04.2020
4109 Clouds 22 1019 73 10000 5.1 150 18:41 25.04.2020
4110 Clouds 22 1019 73 10000 3.6 150 18:21 25.04.2020
4111 Clouds 22 1019 73 10000 3.6 150 17:58 25.04.2020
4112 Clouds 22 1018 68 10000 4.1 150 17:38 25.04.2020
4113 Clouds 22 1018 68 10000 4.1 150 17:19 25.04.2020
4114 Clouds 22 1018 68 10000 4.1 150 16:57 25.04.2020
4115 Clouds 21 1019 73 10000 3.1 150 16:38 25.04.2020
4116 Clouds 21 1019 73 10000 3.1 150 16:19 25.04.2020
4117 Clouds 20 1019 77 10000 2.13 86 15:42 25.04.2020
4118 Clouds 20 1019 77 10000 2.9 19 15:21 25.04.2020
4119 Clouds 20 1019 77 10000 2.9 19 14:58 25.04.2020
4120 Clouds 19 1020 82 0 2.9 19 14:39 25.04.2020
4121 Clouds 19 1020 82 0 2.88 16 14:20 25.04.2020
4122 Clouds 19 1020 82 0 2.88 16 13:55 25.04.2020
4123 Clouds 19 1021 82 10000 5.1 180 13:37 25.04.2020
4124 Clouds 19 1021 82 10000 5.1 180 13:18 25.04.2020
4125 Clouds 19 1021 82 10000 5.1 180 12:54 25.04.2020
4126 Clouds 19 1021 88 10000 5.1 150 12:36 25.04.2020
4127 Clouds 19 1021 88 10000 5.1 150 12:18 25.04.2020
4128 Rain 18 1023 88 10000 3.33 16 11:41 25.04.2020
4129 Rain 18 1023 88 10000 3.33 16 11:23 25.04.2020
4130 Rain 18 1023 88 10000 3.33 16 10:55 25.04.2020
4131 Clouds 17 1023 88 10000 3.1 360 10:37 25.04.2020
4132 Clouds 17 1023 88 10000 3.1 360 10:18 25.04.2020
4133 Rain 17 1023 93 10000 2.1 360 09:41 25.04.2020
4134 Rain 17 1022 93 9000 2.6 360 09:21 25.04.2020
4135 Rain 17 1022 93 9000 2.6 360 08:55 25.04.2020
4136 Rain 16 1022 93 9000 3.14 19 08:36 25.04.2020
4137 Rain 16 1022 93 9000 3.14 19 08:18 25.04.2020
4138 Rain 16 1021 100 9000 3.14 19 07:42 25.04.2020
4139 Rain 16 1021 100 9000 3.14 19 07:19 25.04.2020
4140 Clouds 17 1022 93 10000 3.14 19 06:42 25.04.2020
4141 Rain 16 1019 100 10000 1.7 14 05:44 25.04.2020
4142 Clouds 17 1021 93 10000 1 0 05:26 25.04.2020
4143 Clouds 17 1021 93 10000 2.1 230 04:20 25.04.2020
4144 Clouds 17 1022 93 10000 1.5 240 02:38 25.04.2020
4145 Clouds 17 1022 93 10000 1.5 240 02:18 25.04.2020
4146 Clouds 17 1022 93 10000 1.5 240 01:45 25.04.2020
4147 Clouds 17 1022 93 10000 1.5 250 01:19 25.04.2020
4148 Rain 13 1013 95 0 1.43 25 00:42 25.04.2020
4149 Clouds 17 1021 93 10000 2.6 60 00:18 25.04.2020
4150 Clouds 17 1022 93 10000 1.5 100 23:42 24.04.2020
4151 Rain 17 1021 93 10000 2.6 60 23:21 24.04.2020
4152 Rain 18 1021 93 10000 2.6 70 22:41 24.04.2020
4153 Rain 18 1021 93 10000 2.6 70 22:21 24.04.2020
4154 Rain 18 1021 93 10000 2.6 70 21:59 24.04.2020
4155 Rain 18 1021 93 10000 2.6 70 21:59 24.04.2020
4156 Rain 18 1022 93 10000 1.5 60 21:41 24.04.2020
4157 Rain 18 1021 93 10000 3.1 60 21:23 24.04.2020
4158 Rain 18 1021 93 10000 3.1 60 20:59 24.04.2020
4159 Rain 18 1021 93 10000 3.1 60 20:59 24.04.2020
4160 Clouds 18 1021 93 10000 2.6 30 20:40 24.04.2020
4161 Rain 19 1020 88 10000 2.6 30 20:19 24.04.2020
4162 Rain 19 1020 88 10000 2.6 30 19:57 24.04.2020
4163 Clouds 19 1019 88 10000 1.87 70 19:38 24.04.2020
4164 Clouds 19 1019 88 10000 1.87 70 19:20 24.04.2020
4165 Thunderstorm 18 1020 93 10000 4.1 360 18:40 24.04.2020
4166 Rain 19 1018 82 9000 5.1 360 18:22 24.04.2020
4167 Rain 19 1019 88 10000 6.2 60 17:44 24.04.2020
4168 Clouds 21 1017 64 10000 6.2 120 17:25 24.04.2020
4169 Clouds 23 1017 64 10000 6.2 120 16:59 24.04.2020
4170 Rain 25 1018 57 10000 4.1 180 16:41 24.04.2020
4171 Clouds 25 1017 57 10000 7.7 180 16:22 24.04.2020
4172 Clouds 26 1017 57 10000 7.7 180 15:59 24.04.2020
4173 Clouds 25 1018 57 10000 7.7 180 15:39 24.04.2020
4174 Clouds 25 1018 57 10000 7.7 180 15:19 24.04.2020
4175 Clouds 25 1019 57 10000 5.1 270 14:40 24.04.2020
4176 Clouds 25 1019 57 10000 5.1 270 14:40 24.04.2020
4177 Clouds 25 1019 57 10000 5.1 270 14:22 24.04.2020
4178 Clouds 25 1019 57 10000 5.1 270 13:57 24.04.2020
4179 Clouds 25 1019 57 10000 5.1 270 13:57 24.04.2020
4180 Clouds 24 1020 64 10000 4.1 270 13:39 24.04.2020
4181 Clouds 24 1020 64 10000 4.1 270 13:20 24.04.2020
4182 Clouds 24 1021 60 10000 3.1 220 12:45 24.04.2020
4183 Clouds 23 1021 69 10000 4.1 210 12:25 24.04.2020
4184 Clouds 23 1021 69 10000 4.1 210 11:59 24.04.2020
4185 Clouds 22 1022 73 10000 4.1 180 11:39 24.04.2020
4186 Clouds 22 1022 73 10000 4.1 180 11:20 24.04.2020
4187 Clouds 22 1022 73 10000 4.1 180 10:56 24.04.2020
4188 Clouds 22 1023 73 10000 2.11 185 10:37 24.04.2020
4189 Clouds 22 1023 73 10000 2.11 185 10:19 24.04.2020
4190 Clouds 22 1023 73 10000 2.11 185 09:47 24.04.2020
4191 Clouds 19 1022 88 10000 1.44 203 09:24 24.04.2020
4192 Clouds 19 1022 88 10000 1.44 203 08:58 24.04.2020
4193 Clouds 18 1021 88 10000 3.1 150 08:40 24.04.2020
4194 Clouds 18 1021 88 10000 3.1 150 08:40 24.04.2020
4195 Clouds 18 1021 88 10000 3.1 150 08:18 24.04.2020
4196 Clouds 18 1021 88 10000 3.1 150 07:47 24.04.2020
4197 Clouds 16 1021 93 10000 1.44 203 07:27 24.04.2020
4198 Clouds 16 1021 93 10000 1.44 203 06:59 24.04.2020
4199 Clouds 16 1021 93 10000 2.6 280 06:40 24.04.2020
4200 Clouds 16 1021 93 10000 2.6 280 05:49 24.04.2020
4201 Clouds 15 1021 100 10000 2.1 240 04:46 24.04.2020
4202 Clouds 16 1021 100 10000 1.07 229 03:27 24.04.2020
4203 Rain 16 1021 100 10000 1 280 02:47 24.04.2020
4204 Clouds 16 1021 100 10000 1 0 02:20 24.04.2020
4205 Clouds 16 1022 100 10000 2.1 240 01:37 24.04.2020
4206 Clouds 17 1022 93 10000 1.5 280 00:46 24.04.2020
4207 Clouds 17 1022 93 10000 1.5 250 00:18 24.04.2020
4208 Clouds 17 1022 93 10000 1 270 23:45 23.04.2020
4209 Clouds 17 1022 93 10000 0.43 248 23:27 23.04.2020
4210 Clouds 17 1022 93 10000 0.43 248 22:57 23.04.2020
4211 Clouds 17 1021 93 10000 0.43 248 22:38 23.04.2020
4212 Clouds 17 1021 93 10000 0.43 248 22:19 23.04.2020
4213 Clouds 17 1021 93 10000 0.43 248 21:57 23.04.2020
4214 Clouds 17 1021 93 10000 0.43 248 21:57 23.04.2020
4215 Clouds 17 1021 93 10000 0.43 248 21:38 23.04.2020
4216 Clouds 17 1021 93 10000 0.69 163 21:38 23.04.2020
4217 Clouds 17 1021 93 10000 0.45 290 21:20 23.04.2020
4218 Clouds 17 1021 93 10000 0.45 290 20:56 23.04.2020
4219 Clouds 19 1020 77 10000 0.45 290 20:37 23.04.2020
4220 Clouds 19 1020 77 10000 0.45 290 20:18 23.04.2020
4221 Clouds 19 1020 77 10000 0.45 290 19:55 23.04.2020
4222 Clouds 19 1019 77 10000 4.1 270 19:37 23.04.2020
4223 Clouds 19 1019 77 10000 4.1 270 19:19 23.04.2020
4224 Clouds 19 1018 77 10000 3.1 270 18:40 23.04.2020
4225 Clouds 19 1018 77 10000 3.1 270 18:22 23.04.2020
4226 Clouds 19 1018 77 10000 3.1 270 17:57 23.04.2020
4227 Clouds 20 1018 77 10000 5.1 270 17:39 23.04.2020
4228 Clouds 20 1018 77 10000 5.1 270 17:21 23.04.2020
4229 Clouds 20 1019 77 10000 7.7 270 16:44 23.04.2020
4230 Clouds 20 1019 77 10000 7.7 270 16:44 23.04.2020
4231 Clouds 20 1019 77 10000 7.7 270 16:21 23.04.2020
4232 -273 0 0 0 0 0 15:59 23.04.2020
4233 Clouds 21 1020 73 10000 6.2 280 15:40 23.04.2020
4234 Clouds 20 1020 82 10000 7.7 250 15:22 23.04.2020
4235 Clouds 20 1020 82 10000 7.7 250 14:54 23.04.2020
4236 Clouds 20 1021 82 10000 7.7 250 14:36 23.04.2020
4237 Clouds 20 1021 82 10000 7.7 250 14:18 23.04.2020
4238 Clouds 21 1022 68 10000 4.6 250 13:40 23.04.2020
4239 Clouds 20 1022 77 10000 5.1 270 13:22 23.04.2020
4240 Clouds 20 1022 77 10000 5.1 270 12:57 23.04.2020
4241 Clouds 20 1023 77 10000 6.2 260 12:38 23.04.2020
4242 Clouds 20 1023 77 10000 6.2 260 12:20 23.04.2020
4243 Clouds 19 1023 77 10000 6.2 260 11:47 23.04.2020
4244 Clouds 19 1023 93 10000 5.1 270 11:27 23.04.2020
4245 Clouds 18 1023 93 10000 5.1 270 10:58 23.04.2020
4246 Clouds 19 1024 82 10000 4.1 230 10:39 23.04.2020
4247 Clouds 18 1023 88 10000 5.1 270 10:20 23.04.2020
4248 Rain 17 1023 88 10000 1.15 195 09:40 23.04.2020
4249 Rain 17 1023 88 10000 1.21 40 09:18 23.04.2020
4250 Rain 17 1023 88 10000 1.21 40 08:50 23.04.2020
4251 Rain 16 1022 100 10000 1.21 40 08:30 23.04.2020
4252 Rain 16 1022 100 10000 1.21 40 07:57 23.04.2020
4253 Clouds 16 1021 100 10000 1.21 40 07:39 23.04.2020
4254 Clouds 16 1021 100 10000 1.21 40 07:21 23.04.2020
4255 Rain 17 1022 93 4000 3.1 200 06:45 23.04.2020
4256 Rain 16 1021 100 10000 1.29 351 05:54 23.04.2020
4257 Rain 16 1021 100 10000 1.29 351 05:54 23.04.2020
4258 Rain 16 1020 100 10000 1.29 351 05:21 23.04.2020
4259 Rain 16 1020 100 10000 1.29 351 03:48 23.04.2020
4260 Rain 17 1020 93 10000 1.54 5 02:23 23.04.2020
4261 Rain 17 1022 93 4000 1.5 140 01:40 23.04.2020
4262 Rain 17 1022 93 3000 1.5 350 00:56 23.04.2020
4263 Rain 18 1021 93 10000 2.6 360 00:28 23.04.2020
4264 Rain 18 1021 93 10000 2.6 360 00:28 23.04.2020
4265 Rain 18 1021 93 10000 2.6 360 23:58 22.04.2020
4266 Rain 18 1021 93 10000 5.1 360 23:40 22.04.2020
4267 Rain 18 1021 93 10000 5.1 360 23:19 22.04.2020
4268 Clouds 18 1021 93 10000 2.06 5 22:41 22.04.2020
4269 Clouds 18 1021 93 10000 2.06 5 22:20 22.04.2020
4270 Clouds 18 1021 93 10000 2.06 5 21:59 22.04.2020
4271 Clouds 18 1021 93 10000 2.06 5 21:59 22.04.2020
4272 Rain 18 1020 93 10000 2.48 27 21:41 22.04.2020
4273 Rain 18 1020 93 10000 2.53 57 21:22 22.04.2020
4274 Rain 18 1020 93 10000 2.53 57 20:59 22.04.2020
4275 Rain 18 1020 93 10000 2.53 57 20:59 22.04.2020
4276 Rain 14 1013 94 0 2.53 57 20:41 22.04.2020
4277 Rain 15 1012 93 0 2.53 57 20:19 22.04.2020
4278 Rain 15 1012 93 0 2.53 57 19:57 22.04.2020
4279 Rain 15 1012 93 0 2.53 57 19:38 22.04.2020
4280 Rain 15 1012 93 0 2.53 57 19:18 22.04.2020
4281 Thunderstorm 20 1020 88 10000 2.1 150 18:57 22.04.2020
4282 Thunderstorm 20 1020 88 10000 2.1 150 18:57 22.04.2020
4283 Thunderstorm 20 1020 88 10000 2.1 150 18:57 22.04.2020
4284 Thunderstorm 20 1018 88 4000 2.53 57 18:38 22.04.2020
4285 Thunderstorm 20 1018 88 4000 1.51 100 18:20 22.04.2020
4286 Rain 21 1018 83 10000 3.6 350 17:43 22.04.2020
4287 Rain 20 1017 88 10000 1.51 100 17:25 22.04.2020
4288 Rain 21 1017 88 10000 1.51 100 16:58 22.04.2020
4289 Rain 22 1017 78 10000 2.1 60 16:39 22.04.2020
4290 Rain 22 1017 78 10000 2.1 60 16:20 22.04.2020
4291 Clouds 23 1017 69 10000 1.51 100 15:41 22.04.2020
4292 Clouds 23 1017 69 10000 1.67 173 15:22 22.04.2020
4293 Clouds 23 1017 69 10000 1.67 173 14:58 22.04.2020
4294 Clouds 23 1019 73 10000 5.1 100 14:38 22.04.2020
4295 Clouds 23 1019 73 10000 5.1 100 14:19 22.04.2020
4296 Clouds 23 1019 73 10000 5.1 100 13:45 22.04.2020
4297 Clouds 21 1020 82 10000 2.05 176 13:21 22.04.2020
4298 Clouds 20 1020 82 10000 2.05 176 12:57 22.04.2020
4299 Clouds 20 1021 82 10000 2.6 60 12:39 22.04.2020
4300 Clouds 20 1021 82 10000 2.6 60 12:21 22.04.2020
4301 Clouds 19 1023 88 10000 2.6 60 11:40 22.04.2020
4302 Clouds 19 1023 88 10000 2.6 60 11:20 22.04.2020
4303 Clouds 19 1023 88 10000 2.6 60 10:59 22.04.2020
4304 Rain 18 1022 88 10000 3.1 30 10:39 22.04.2020
4305 Rain 18 1022 88 10000 3.1 30 10:20 22.04.2020
4306 Clouds 18 1022 93 10000 2.18 191 09:39 22.04.2020
4307 Clouds 18 1022 93 10000 0.21 230 09:21 22.04.2020
4308 Clouds 18 1022 93 10000 0.21 230 08:57 22.04.2020
4309 Rain 17 1021 93 10000 0.21 230 08:38 22.04.2020
4310 Rain 17 1021 93 10000 0.21 230 08:20 22.04.2020
4311 Rain 17 1021 93 10000 0.21 230 07:53 22.04.2020
4312 Clouds 17 1020 93 10000 0.21 230 07:28 22.04.2020
4313 Clouds 17 1020 93 10000 0.21 230 07:28 22.04.2020
4314 Clouds 17 1020 93 10000 0.21 230 06:53 22.04.2020
4315 Clouds 16 1021 100 10000 3.1 60 06:53 22.04.2020
4316 Clouds 17 1020 93 10000 0.22 73 06:18 22.04.2020
4317 Clouds 17 1020 93 10000 2.1 60 05:37 22.04.2020
4318 Clouds 16 1020 100 10000 2.1 60 04:20 22.04.2020
4319 Clouds 16 1020 100 10000 3.6 90 02:50 22.04.2020
4320 Rain 17 1019 93 10000 0.3 18 01:52 22.04.2020
4321 Rain 17 1021 93 10000 0.3 18 01:25 22.04.2020
4322 Thunderstorm 18 1021 88 10000 4.1 350 00:54 22.04.2020
4323 Thunderstorm 18 1022 93 10000 4.6 350 00:36 22.04.2020
4324 Thunderstorm 18 1022 93 10000 4.6 350 00:18 22.04.2020
4325 Clouds 19 1022 93 10000 0.5 0 23:41 21.04.2020
4326 Clouds 19 1022 93 10000 0.5 0 23:19 21.04.2020
4327 Clouds 18 1021 93 10000 0.32 349 22:40 21.04.2020
4328 Clouds 18 1021 93 10000 0.32 349 22:22 21.04.2020
4329 Clouds 18 1021 93 10000 0.32 349 21:59 21.04.2020
4330 Clouds 19 1019 88 10000 0.32 349 21:41 21.04.2020
4331 Clouds 19 1019 88 10000 0.11 174 21:22 21.04.2020
4332 Clouds 19 1019 88 10000 0.11 174 20:56 21.04.2020
4333 Clouds 19 1019 82 10000 0.33 63 20:37 21.04.2020
4334 Clouds 20 1019 82 10000 0.33 63 20:19 21.04.2020
4335 Clouds 21 1018 77 10000 0.11 174 19:41 21.04.2020
4336 Clouds 20 1019 82 10000 3.6 210 19:20 21.04.2020
4337 Clouds 20 1019 82 10000 3.6 210 18:57 21.04.2020
4338 Clouds 22 1018 73 10000 0.33 63 18:38 21.04.2020
4339 Clouds 22 1018 73 10000 1.54 169 18:19 21.04.2020
4340 Clouds 23 1018 73 10000 1.54 169 17:55 21.04.2020
4341 Clouds 23 1018 69 10000 4.6 260 17:37 21.04.2020
4342 Clouds 23 1018 69 10000 4.6 260 17:18 21.04.2020
4343 Clouds 25 1018 57 10000 5.1 270 16:39 21.04.2020
4344 Clouds 25 1018 57 10000 5.1 270 16:19 21.04.2020
4345 Clouds 25 1018 57 10000 5.1 270 16:19 21.04.2020
4346 Clouds 25 1018 57 10000 5.1 270 15:57 21.04.2020
4347 Clouds 25 1018 57 10000 10.3 240 15:39 21.04.2020
4348 Clouds 25 1018 57 10000 10.3 240 15:21 21.04.2020
4349 Clouds 26 1019 54 10000 5.1 270 14:57 21.04.2020
4350 Clouds 24 1019 69 10000 5.1 270 14:39 21.04.2020
4351 Clouds 24 1019 69 10000 5.1 270 14:21 21.04.2020
4352 Clouds 23 1020 69 10000 2.6 270 13:41 21.04.2020
4353 Clouds 23 1020 69 10000 2.6 270 13:22 21.04.2020
4354 Clouds 23 1020 69 10000 2.6 270 12:55 21.04.2020
4355 Clouds 21 1021 77 10000 2.6 250 12:37 21.04.2020
4356 Clouds 21 1021 77 10000 2.6 250 12:18 21.04.2020
4357 Clouds 21 1021 77 10000 2.6 250 11:55 21.04.2020
4358 Clouds 19 1022 82 10000 3.1 210 11:36 21.04.2020
4359 Clouds 19 1022 82 10000 3.1 210 11:18 21.04.2020
4360 Clouds 19 1022 82 10000 3.1 210 11:18 21.04.2020
4361 Clouds 19 1023 88 10000 3.6 230 10:56 21.04.2020
4362 Rain 18 1023 93 10000 2.6 170 10:37 21.04.2020
4363 Rain 18 1023 93 10000 2.6 170 10:19 21.04.2020
4364 Rain 17 1022 93 10000 1.87 208 09:37 21.04.2020
4365 Rain 17 1022 93 10000 1.23 220 09:19 21.04.2020
4366 Rain 17 1022 93 10000 1.23 220 08:57 21.04.2020
4367 Clouds 17 1021 93 9000 1.23 220 08:38 21.04.2020
4368 Clouds 17 1021 93 9000 1.23 220 08:19 21.04.2020
4369 Clouds 17 1021 93 9000 1.23 220 07:43 21.04.2020
4370 Rain 16 1021 100 9000 1.23 220 07:22 21.04.2020
4371 Rain 16 1021 100 10000 1.23 220 06:47 21.04.2020
4372 Rain 16 1021 100 10000 0.86 246 06:20 21.04.2020
4373 Rain 16 1021 100 10000 0.86 246 05:48 21.04.2020
4374 Clouds 16 1021 100 10000 1 80 04:19 21.04.2020
4375 Rain 16 1014 60 0 0.86 246 03:42 21.04.2020
4376 Rain 17 1022 93 5000 0.18 256 01:46 21.04.2020
4377 Rain 17 1022 93 8000 2.6 150 00:58 21.04.2020
4378 Rain 17 1022 93 8000 0.12 147 00:33 21.04.2020
4379 Rain 18 1023 93 5000 2.6 80 23:44 20.04.2020
4380 Rain 18 1021 88 10000 2.1 40 23:25 20.04.2020
4381 Rain 18 1021 88 10000 2.1 40 22:57 20.04.2020
4382 Clouds 18 1021 88 10000 2.6 240 22:38 20.04.2020
4383 Clouds 18 1021 88 10000 2.6 240 22:19 20.04.2020
4384 Clouds 18 1021 88 10000 2.6 240 21:57 20.04.2020
4385 Clouds 18 1019 88 10000 2.6 270 21:38 20.04.2020
4386 Clouds 18 1019 88 10000 2.6 270 21:19 20.04.2020
4387 Clouds 18 1019 88 10000 2.6 270 20:57 20.04.2020
4388 Clouds 18 1020 93 10000 2.6 210 20:38 20.04.2020
4389 Clouds 18 1020 93 10000 2.6 210 20:18 20.04.2020
4390 Clouds 18 1020 93 10000 2.6 210 20:18 20.04.2020
4391 Clouds 18 1020 93 10000 2.6 210 19:57 20.04.2020
4392 Rain 19 1019 88 10000 2.6 210 19:38 20.04.2020
4393 Rain 19 1019 88 10000 2.6 210 19:19 20.04.2020
4394 Clouds 19 1018 93 10000 4.6 190 18:42 20.04.2020
4395 Clouds 20 1018 88 10000 2.6 170 18:22 20.04.2020
4396 Clouds 20 1018 88 10000 2.6 170 17:56 20.04.2020
4397 Clouds 21 1018 77 10000 1.5 120 17:37 20.04.2020
4398 Clouds 21 1018 77 10000 1.5 120 17:19 20.04.2020
4399 Clouds 21 1018 77 10000 1.5 120 16:58 20.04.2020
4400 Clouds 21 1017 68 10000 2.1 360 16:39 20.04.2020
4401 Clouds 21 1017 68 10000 2.1 360 16:18 20.04.2020
4402 Clouds 19 1018 88 10000 1.5 340 15:43 20.04.2020
4403 Clouds 21 1018 68 10000 2.1 360 15:23 20.04.2020
4404 Clouds 21 1018 68 10000 2.1 360 14:56 20.04.2020
4405 Clouds 23 1019 64 10000 5.1 280 14:38 20.04.2020
4406 Clouds 22 1019 64 10000 5.1 280 14:18 20.04.2020
4407 Clouds 23 1019 64 10000 5.1 280 13:54 20.04.2020
4408 Clouds 23 1020 69 10000 5.1 200 13:36 20.04.2020
4409 Clouds 21 1020 69 10000 5.1 200 13:18 20.04.2020
4410 Clouds 21 1021 61 10000 5.1 190 12:42 20.04.2020
4411 Clouds 22 1021 64 10000 3.6 270 12:19 20.04.2020
4412 Clouds 20 1022 69 10000 5.7 190 11:41 20.04.2020
4413 Clouds 21 1021 64 10000 1.97 231 11:22 20.04.2020
4414 Clouds 21 1021 64 10000 1.97 231 10:57 20.04.2020
4415 Clouds 20 1022 77 10000 2.6 30 10:39 20.04.2020
4416 Clouds 20 1022 77 10000 2.6 30 10:19 20.04.2020
4417 Clouds 20 1022 77 10000 2.6 30 09:58 20.04.2020
4418 Clouds 18 1022 82 10000 3.1 300 09:39 20.04.2020
4419 Clouds 18 1022 82 10000 3.1 300 09:20 20.04.2020
4420 Clouds 17 1023 88 10000 2.6 250 08:41 20.04.2020
4421 Clouds 16 1023 93 10000 2.1 250 08:22 20.04.2020
4422 Clouds 16 1023 93 10000 2.1 250 07:53 20.04.2020
4423 Clouds 15 1022 93 10000 1.8 225 07:29 20.04.2020
4424 Clouds 15 1022 93 10000 1.8 225 06:58 20.04.2020
4425 Clouds 15 1021 93 10000 1.5 230 06:36 20.04.2020
4426 Rain 13 1014 95 0 0.42 275 05:44 20.04.2020
4427 Clouds 15 1020 93 10000 4.1 200 04:28 20.04.2020
4428 Clouds 16 1021 88 10000 4.1 190 02:47 20.04.2020
4429 Clouds 16 1021 93 10000 3.1 230 01:56 20.04.2020
4430 Clouds 16 1022 93 10000 2.6 240 01:28 20.04.2020
4431 Clouds 16 1022 93 10000 1.5 220 00:42 20.04.2020
4432 Clouds 16 1022 93 10000 1.5 220 23:59 19.04.2020
4433 Clouds 16 1022 93 10000 1.5 220 23:59 19.04.2020
4434 Clouds 16 1022 93 10000 2.6 230 23:39 19.04.2020
4435 Clouds 16 1022 93 10000 2.6 230 23:21 19.04.2020
4436 Clouds 16 1022 93 10000 2.6 230 22:55 19.04.2020
4437 Clouds 17 1021 88 10000 3.1 270 22:36 19.04.2020
4438 Clouds 17 1021 88 10000 3.1 270 22:18 19.04.2020
4439 Clouds 17 1022 82 10000 3.1 230 21:42 19.04.2020
4440 Clouds 17 1021 93 10000 3.1 240 21:23 19.04.2020
4441 Clouds 17 1021 93 10000 3.1 240 20:56 19.04.2020
4442 Clouds 18 1020 77 10000 3.1 240 20:38 19.04.2020
4443 Clouds 18 1020 77 10000 3.1 240 20:20 19.04.2020
4444 Clouds 18 1020 77 10000 3.1 240 19:55 19.04.2020
4445 Clouds 18 1019 77 10000 4.1 210 19:37 19.04.2020
4446 Clouds 18 1019 77 10000 4.1 210 19:19 19.04.2020
4447 Clouds 18 1019 77 10000 4.1 210 18:54 19.04.2020
4448 Clouds 19 1018 68 10000 5.1 210 18:36 19.04.2020
4449 Clouds 21 1018 68 10000 5.1 210 18:18 19.04.2020
4450 Clouds 23 1018 69 10000 5.1 170 17:42 19.04.2020
4451 Clouds 23 1018 69 10000 5.1 170 17:23 19.04.2020
4452 Clouds 21 1018 69 10000 5.1 170 17:00 19.04.2020
4453 Clouds 21 1018 69 10000 6.2 180 16:39 19.04.2020
4454 Clouds 21 1018 69 10000 6.2 180 16:39 19.04.2020
4455 Clouds 21 1018 69 10000 6.2 180 16:21 19.04.2020
4456 Clouds 21 1018 69 10000 6.2 180 15:57 19.04.2020
4457 Clouds 20 1019 73 10000 5.1 160 15:39 19.04.2020
4458 Clouds 22 1019 73 10000 5.1 160 15:18 19.04.2020
4459 Clouds 21 1020 73 10000 5.1 270 14:39 19.04.2020
4460 Clouds 21 1020 73 10000 5.1 270 14:20 19.04.2020
4461 Clouds 21 1020 73 10000 5.1 270 13:56 19.04.2020
4462 Clouds 20 1021 77 10000 7.7 250 13:36 19.04.2020
4463 Clouds 20 1021 77 10000 7.7 250 13:18 19.04.2020
4464 Clouds 20 1022 77 10000 7.7 270 12:43 19.04.2020
4465 Clouds 20 1022 77 10000 7.7 270 12:24 19.04.2020
4466 Clouds 20 1023 77 10000 5.1 270 11:39 19.04.2020
4467 Clouds 19 1023 77 10000 5.1 270 11:20 19.04.2020
4468 Clouds 19 1023 77 10000 5.1 270 10:59 19.04.2020
4469 Clouds 18 1023 82 10000 3.6 270 10:41 19.04.2020
4470 Clouds 18 1022 82 10000 5.1 270 10:21 19.04.2020
4471 Clouds 19 1022 82 10000 5.1 270 09:56 19.04.2020
4472 Clouds 18 1022 88 10000 5.1 270 09:38 19.04.2020
4473 Clouds 17 1022 88 10000 5.1 270 09:18 19.04.2020
4474 Clouds 17 1020 82 10000 7.2 270 08:40 19.04.2020
4475 Clouds 17 1020 82 10000 7.2 270 08:21 19.04.2020
4476 Clouds 17 1020 82 10000 7.2 270 07:45 19.04.2020
4477 Clouds 16 1020 88 10000 2.6 240 07:25 19.04.2020
4478 Clouds 16 1020 88 10000 2.6 240 06:56 19.04.2020
4479 Clouds 15 1020 100 10000 3.6 270 06:22 19.04.2020
4480 Clouds 15 1019 93 10000 1.28 219 05:34 19.04.2020
4481 Clouds 15 1020 100 10000 2.1 180 03:40 19.04.2020
4482 Rain 15 1020 100 10000 0.37 278 02:23 19.04.2020
4483 Rain 15 1020 100 10000 0.37 278 01:58 19.04.2020
4484 Rain 15 1021 100 10000 0.37 278 01:22 19.04.2020
4485 Rain 15 1022 100 5000 4.1 240 00:41 19.04.2020
4486 Rain 16 1021 93 10000 2.6 140 00:19 19.04.2020
4487 Rain 16 1023 93 7000 4.6 190 23:42 18.04.2020
4488 Rain 17 1021 93 10000 2.1 270 23:19 18.04.2020
4489 Rain 17 1021 100 10000 3.1 240 22:44 18.04.2020
4490 Rain 17 1021 100 10000 3.1 240 22:24 18.04.2020
4491 Rain 17 1021 100 10000 3.1 240 21:59 18.04.2020
4492 Thunderstorm 17 1020 93 10000 5.1 20 21:41 18.04.2020
4493 Thunderstorm 17 1020 93 10000 5.1 20 21:22 18.04.2020
4494 Thunderstorm 17 1020 93 10000 5.1 20 20:58 18.04.2020
4495 Clouds 18 1020 93 10000 0.89 200 20:40 18.04.2020
4496 Clouds 18 1020 93 10000 0.89 200 20:20 18.04.2020
4497 Clouds 17 1020 93 10000 2.6 140 19:42 18.04.2020
4498 Clouds 18 1019 93 10000 0.89 200 19:24 18.04.2020
4499 Clouds 18 1017 88 10000 2.6 150 18:40 18.04.2020
4500 Clouds 18 1017 88 10000 2.6 150 18:20 18.04.2020
4501 Clouds 18 1017 88 10000 2.6 150 17:59 18.04.2020
4502 Rain 18 1017 93 10000 3.1 190 17:40 18.04.2020
4503 Rain 17 1017 93 10000 3.1 190 17:20 18.04.2020
4504 Clouds 18 1017 83 10000 8.2 240 16:43 18.04.2020
4505 Thunderstorm 18 1017 93 10000 4.1 120 16:23 18.04.2020
4506 Thunderstorm 19 1017 93 10000 4.1 120 15:58 18.04.2020
4507 Thunderstorm 23 1016 57 10000 3.6 170 15:38 18.04.2020
4508 Thunderstorm 23 1016 57 10000 3.6 170 15:38 18.04.2020
4509 Thunderstorm 26 1016 57 10000 3.6 170 15:19 18.04.2020
4510 Clouds 26 1017 61 10000 3.1 230 14:44 18.04.2020
4511 Clouds 25 1017 61 10000 3.1 300 14:25 18.04.2020
4512 Clouds 24 1017 61 10000 3.1 300 13:54 18.04.2020
4513 Clouds 24 1019 61 10000 5.1 220 13:36 18.04.2020
4514 Clouds 25 1019 61 10000 5.1 220 13:18 18.04.2020
4515 Clouds 24 1020 69 10000 2.1 90 12:41 18.04.2020
4516 Clouds 23 1020 69 10000 2.1 90 12:22 18.04.2020
4517 Clouds 24 1021 64 10000 1.5 130 11:43 18.04.2020
4518 Clouds 23 1021 73 10000 2.85 144 11:23 18.04.2020
4519 Clouds 23 1021 73 10000 2.85 144 10:57 18.04.2020
4520 Clouds 21 1021 83 10000 2.85 144 10:37 18.04.2020
4521 Clouds 21 1021 83 10000 2.85 144 10:18 18.04.2020
4522 Clouds 20 1021 88 10000 2.6 200 09:42 18.04.2020
4523 Clouds 19 1021 88 10000 2.6 200 09:23 18.04.2020
4524 Clouds 20 1021 88 10000 2.6 200 08:44 18.04.2020
4525 Clouds 18 1020 93 10000 5.1 180 08:26 18.04.2020
4526 Clouds 18 1020 93 10000 5.1 180 07:58 18.04.2020
4527 Clouds 18 1018 93 10000 1.74 121 07:36 18.04.2020
4528 Clouds 17 1018 93 10000 1.74 121 06:55 18.04.2020
4529 Clouds 17 1019 93 10000 1.05 65 06:29 18.04.2020
4530 Clouds 17 1019 93 10000 1.05 65 05:36 18.04.2020
4531 Clouds 16 1018 93 10000 2.1 260 04:47 18.04.2020
4532 Clouds 16 1018 93 10000 2.1 260 04:25 18.04.2020
4533 Clouds 17 1018 93 10000 2.1 220 02:48 18.04.2020
4534 Clouds 17 1019 93 10000 1.5 190 02:23 18.04.2020
4535 Clouds 17 1019 93 10000 0.5 240 01:53 18.04.2020
4536 Clouds 17 1020 93 10000 0.5 0 01:34 18.04.2020
4537 Clouds 18 1020 93 10000 1 0 00:44 18.04.2020
4538 Clouds 17 1020 93 10000 0.5 30 00:22 18.04.2020
4539 Clouds 18 1020 93 10000 2.1 50 23:55 17.04.2020
4540 Clouds 18 1020 93 10000 3.1 40 23:37 17.04.2020
4541 Clouds 18 1020 93 10000 3.1 40 23:18 17.04.2020
4542 Clouds 18 1020 88 10000 3.6 40 22:55 17.04.2020
4543 Clouds 19 1019 82 10000 2.6 60 22:36 17.04.2020
4544 Clouds 19 1019 82 10000 2.6 60 22:18 17.04.2020
4545 Clouds 18 1020 88 10000 3.6 20 21:41 17.04.2020
4546 Clouds 19 1018 82 10000 3.6 30 21:21 17.04.2020
4547 Clouds 19 1018 82 10000 3.6 30 20:56 17.04.2020
4548 Clouds 19 1018 82 10000 1.83 79 20:37 17.04.2020
4549 Clouds 19 1018 82 10000 1.83 79 20:18 17.04.2020
4550 Clouds 19 1018 82 10000 1.83 79 19:56 17.04.2020
4551 Clouds 20 1017 77 10000 2.6 360 19:38 17.04.2020
4552 Clouds 20 1017 77 10000 2.6 360 19:20 17.04.2020
4553 Clouds 19 1018 83 10000 2.1 360 18:42 17.04.2020
4554 Clouds 22 1016 69 10000 2.6 150 18:23 17.04.2020
4555 Clouds 22 1016 69 10000 2.6 150 17:55 17.04.2020
4556 Clouds 23 1016 69 10000 2.37 112 17:36 17.04.2020
4557 Clouds 23 1016 69 10000 2.37 112 17:18 17.04.2020
4558 Clouds 23 1016 78 10000 2.6 150 16:41 17.04.2020
4559 Clouds 23 1016 78 10000 2.6 150 16:22 17.04.2020
4560 Clouds 20 1016 78 10000 4.1 140 15:41 17.04.2020
4561 Clouds 22 1016 78 10000 9.3 150 15:23 17.04.2020
4562 Clouds 22 1016 78 10000 9.3 150 14:55 17.04.2020
4563 Clouds 24 1017 64 10000 9.3 130 14:37 17.04.2020
4564 Clouds 23 1017 64 10000 9.3 130 14:19 17.04.2020
4565 Clouds 24 1018 64 10000 2.6 90 13:40 17.04.2020
4566 Clouds 24 1018 64 10000 2.6 90 13:20 17.04.2020
4567 Clouds 24 1018 64 10000 2.6 90 12:58 17.04.2020
4568 Clouds 23 1019 64 10000 2.6 90 12:40 17.04.2020
4569 Clouds 23 1019 64 10000 2.6 90 12:21 17.04.2020
4570 Clouds 23 1019 64 10000 3.1 120 11:40 17.04.2020
4571 Clouds 23 1019 64 10000 3.1 120 11:19 17.04.2020
4572 Clouds 23 1019 64 10000 3.1 120 10:44 17.04.2020
4573 Clouds 22 1019 64 10000 5.1 120 10:23 17.04.2020
4574 Clouds 22 1019 64 10000 5.1 120 09:57 17.04.2020
4575 Rain 19 1010 78 0 2.63 150 09:39 17.04.2020
4576 Clouds 19 1010 76 0 1.79 105 09:19 17.04.2020
4577 Clouds 21 1019 68 10000 0.78 93 08:49 17.04.2020
4578 Clouds 21 1019 68 10000 0.78 93 08:28 17.04.2020
4579 Clouds 19 1018 88 10000 0.78 93 07:58 17.04.2020
4580 Clouds 18 1018 88 10000 0.78 93 07:40 17.04.2020
4581 Clouds 17 1018 93 10000 5.1 290 07:19 17.04.2020
4582 Clouds 16 1018 93 10000 5.1 290 06:44 17.04.2020
4583 Clouds 15 1018 93 10000 2.6 300 06:20 17.04.2020
4584 Clouds 16 1019 100 10000 0.74 43 03:36 17.04.2020
4585 Clouds 16 1019 93 10000 1.2 10 03:18 17.04.2020
4586 Clouds 16 1019 93 10000 1.5 210 01:52 17.04.2020
4587 Clouds 16 1020 93 10000 1.5 260 01:22 17.04.2020
4588 Clouds 16 1020 100 10000 0.25 34 00:26 17.04.2020
4589 Clouds 16 1020 100 10000 2.1 220 23:55 16.04.2020
4590 Clouds 17 1020 93 10000 0.25 34 23:37 16.04.2020
4591 Clouds 18 1020 93 10000 0.25 34 23:19 16.04.2020
4592 Clouds 18 1020 93 10000 0.25 34 22:40 16.04.2020
4593 Clouds 18 1020 93 10000 0.25 34 22:22 16.04.2020
4594 Clouds 17 1020 93 10000 0.25 34 21:59 16.04.2020
4595 Clouds 17 1020 88 10000 2.85 81 21:41 16.04.2020
4596 Clouds 17 1020 88 10000 0.36 7 21:41 16.04.2020
4597 Clouds 17 1020 88 10000 2.85 81 21:19 16.04.2020
4598 Clouds 17 1020 93 10000 2.6 250 20:43 16.04.2020
4599 Rain 17 1018 93 10000 4.1 150 20:23 16.04.2020
4600 Rain 17 1018 93 10000 4.1 150 19:59 16.04.2020
4601 Rain 17 1018 93 10000 4.1 150 19:39 16.04.2020
4602 Thunderstorm 18 1018 88 10000 7.7 180 19:20 16.04.2020
4603 Thunderstorm 18 1018 88 10000 7.7 180 18:57 16.04.2020
4604 Clouds 18 1018 88 10000 7.7 180 18:38 16.04.2020
4605 Clouds 19 1018 88 10000 7.7 180 18:20 16.04.2020
4606 Clouds 18 1018 88 10000 7.7 180 17:45 16.04.2020
4607 Clouds 18 1018 88 10000 7.7 180 17:26 16.04.2020
4608 Thunderstorm 20 1017 77 10000 10.3 180 17:00 16.04.2020
4609 Clouds 21 1017 73 10000 5.7 70 16:41 16.04.2020
4610 Clouds 25 1016 48 10000 6.2 150 16:19 16.04.2020
4611 Clouds 25 1016 48 10000 6.2 150 15:44 16.04.2020
4612 Clouds 28 1017 48 10000 6.2 150 15:19 16.04.2020
4613 Clouds 28 1017 48 10000 6.2 150 14:58 16.04.2020
4614 Clouds 28 1017 48 10000 6.2 150 14:39 16.04.2020
4615 Clouds 27 1018 47 10000 4.1 120 14:19 16.04.2020
4616 Clouds 27 1018 47 10000 4.1 120 13:56 16.04.2020
4617 Clouds 27 1018 47 10000 4.1 120 13:37 16.04.2020
4618 Clouds 27 1019 44 10000 3.1 110 13:18 16.04.2020
4619 Clouds 27 1019 44 10000 3.1 110 12:56 16.04.2020
4620 Clouds 27 1019 44 10000 3.1 110 12:56 16.04.2020
4621 Clouds 27 1019 44 10000 3.1 110 12:37 16.04.2020
4622 Clouds 24 1020 50 10000 3.1 100 12:18 16.04.2020
4623 Clouds 25 1020 50 10000 3.1 100 11:55 16.04.2020
4624 Clouds 25 1020 50 10000 3.1 100 11:36 16.04.2020
4625 Clouds 24 1021 53 10000 2.6 180 11:18 16.04.2020
4626 Clouds 23 1021 53 10000 2.6 180 10:40 16.04.2020
4627 Clouds 22 1021 73 10000 2.6 150 10:19 16.04.2020
4628 Clouds 22 1021 73 10000 2.6 150 09:58 16.04.2020
4629 Clouds 21 1021 73 10000 2.6 150 09:38 16.04.2020
4630 Clouds 19 1021 88 10000 2.6 150 09:19 16.04.2020
4631 Clouds 19 1021 88 10000 2.6 150 09:19 16.04.2020
4632 Clouds 18 1021 88 10000 2.6 150 08:42 16.04.2020
4633 Clouds 18 1021 82 10000 3.6 290 08:23 16.04.2020
4634 Clouds 16 1021 82 10000 3.6 290 07:46 16.04.2020
4635 Clouds 16 1021 82 10000 3.6 290 07:28 16.04.2020
4636 Clouds 16 1021 82 10000 3.6 290 07:28 16.04.2020
4637 Clouds 15 1020 88 10000 4.1 270 06:46 16.04.2020
4638 Clouds 15 1020 93 10000 4.1 300 06:27 16.04.2020
4639 Clouds 15 1020 93 10000 4.1 300 05:59 16.04.2020
4640 Clouds 15 1021 100 10000 1.5 180 04:44 16.04.2020
4641 Clouds 17 1021 93 10000 2.6 110 03:25 16.04.2020
4642 Rain 16 1021 93 10000 3.6 40 02:57 16.04.2020
4643 Rain 16 1021 93 10000 3.6 40 02:33 16.04.2020
4644 Rain 15 1022 93 10000 3.1 360 01:22 16.04.2020
4645 Clouds 16 1023 88 10000 0.95 22 00:39 16.04.2020
4646 Clouds 17 1023 88 10000 1.05 19 00:18 16.04.2020
4647 Clouds 16 1023 88 10000 1.05 19 23:43 15.04.2020
4648 Clouds 16 1023 88 10000 1.05 19 23:24 15.04.2020
4649 Clouds 16 1023 93 10000 4.1 330 22:58 15.04.2020
4650 Clouds 17 1023 82 10000 4.1 30 22:37 15.04.2020
4651 Clouds 17 1023 82 10000 4.1 30 22:19 15.04.2020
4652 Clouds 17 1023 82 10000 4.1 30 21:42 15.04.2020
4653 Thunderstorm 17 1021 82 10000 2.6 330 21:23 15.04.2020
4654 Thunderstorm 17 1021 82 10000 2.6 330 20:59 15.04.2020
4655 Thunderstorm 17 1021 82 10000 2.6 330 20:41 15.04.2020
4656 Clouds 18 1021 82 10000 4.1 330 20:22 15.04.2020
4657 Clouds 18 1021 82 10000 4.1 330 19:59 15.04.2020
4658 Clouds 18 1021 82 10000 4.1 330 19:39 15.04.2020
4659 Thunderstorm 19 1019 77 10000 5.1 300 19:18 15.04.2020
4660 Thunderstorm 19 1019 77 10000 5.1 300 18:41 15.04.2020
4661 Thunderstorm 21 1019 64 10000 3.1 300 18:22 15.04.2020
4662 Thunderstorm 21 1019 64 10000 3.1 300 17:58 15.04.2020
4663 Thunderstorm 21 1019 64 10000 3.1 300 17:38 15.04.2020
4664 Thunderstorm 24 1018 61 10000 4.1 150 17:20 15.04.2020
4665 Thunderstorm 24 1018 61 10000 4.1 150 16:55 15.04.2020
4666 Thunderstorm 23 1018 61 10000 4.1 150 16:37 15.04.2020
4667 Clouds 24 1018 47 10000 4.1 180 16:18 15.04.2020
4668 Clouds 27 1018 47 10000 4.1 180 15:56 15.04.2020
4669 Clouds 27 1018 47 10000 4.1 180 15:37 15.04.2020
4670 Clouds 27 1018 47 10000 4.1 180 15:37 15.04.2020
4671 Clouds 27 1018 47 10000 4.1 150 15:19 15.04.2020
4672 Clouds 27 1018 47 10000 4.1 150 15:19 15.04.2020
4673 Clouds 27 1018 47 10000 4.1 150 14:55 15.04.2020
4674 Clouds 27 1018 47 10000 4.1 150 14:37 15.04.2020
4675 Clouds 26 1019 57 10000 3.1 110 14:18 15.04.2020
4676 Clouds 26 1019 57 10000 3.1 110 13:40 15.04.2020
4677 Clouds 26 1020 57 10000 4.1 180 13:21 15.04.2020
4678 Clouds 26 1020 57 10000 4.1 180 12:59 15.04.2020
4679 Clouds 26 1020 57 10000 4.1 180 12:41 15.04.2020
4680 Clouds 25 1020 57 10000 4.1 180 12:23 15.04.2020
4681 Clouds 24 1022 54 10000 3.1 200 11:58 15.04.2020
4682 Clouds 25 1022 60 10000 3.1 150 11:39 15.04.2020
4683 Clouds 24 1022 60 10000 3.1 150 11:21 15.04.2020
4684 Clouds 23 1022 60 10000 3.1 150 10:39 15.04.2020
4685 Clouds 22 1023 64 10000 2.6 230 10:21 15.04.2020
4686 Clouds 21 1023 64 10000 2.6 230 09:57 15.04.2020
4687 Clouds 22 1023 64 10000 2.6 230 09:39 15.04.2020
4688 Clouds 20 1022 73 10000 1.1 229 09:21 15.04.2020
4689 Clouds 21 1022 73 10000 1.1 229 08:55 15.04.2020
4690 Clouds 21 1022 73 10000 1.1 229 08:37 15.04.2020
4691 Clouds 18 1022 88 10000 1.1 229 08:19 15.04.2020
4692 Clouds 17 1022 88 10000 1.1 229 07:49 15.04.2020
4693 Clouds 16 1021 88 10000 1.1 229 07:30 15.04.2020
4694 Clouds 15 1021 88 10000 0.34 359 06:33 15.04.2020
4695 Clouds 15 1021 93 10000 2.6 300 05:50 15.04.2020
4696 Clouds 16 1020 93 10000 0.34 359 04:49 15.04.2020
4697 Clouds 16 1020 93 10000 0.34 359 04:26 15.04.2020
4698 Clouds 16 1021 93 10000 0.84 49 03:26 15.04.2020
4699 Clouds 17 1021 93 10000 0.84 49 02:52 15.04.2020
4700 Clouds 16 1023 88 10000 2.1 300 01:54 15.04.2020
4701 Clouds 16 1022 88 10000 2.6 300 01:25 15.04.2020
4702 Clouds 17 1022 88 10000 2.6 300 00:52 15.04.2020
4703 Clouds 17 1022 88 10000 2.6 300 00:31 15.04.2020
4704 Clouds 17 1023 82 10000 3.6 340 23:57 14.04.2020
4705 Clouds 18 1022 93 10000 5.1 300 23:39 14.04.2020
4706 Clouds 18 1022 93 10000 5.1 300 23:21 14.04.2020
4707 Clouds 18 1022 93 10000 5.1 300 22:58 14.04.2020
4708 Clouds 18 1022 93 10000 5.1 300 22:39 14.04.2020
4709 Clouds 18 1022 93 10000 1.47 36 22:21 14.04.2020
4710 Clouds 18 1022 93 10000 1.47 36 21:59 14.04.2020
4711 Clouds 18 1022 93 10000 1.47 36 21:40 14.04.2020
4712 Clouds 17 1021 93 10000 1.83 50 21:20 14.04.2020
4713 Clouds 17 1021 93 10000 1.83 50 21:00 14.04.2020
4714 Clouds 17 1021 93 10000 1.69 61 20:40 14.04.2020
4715 Clouds 18 1021 88 10000 1.69 61 20:21 14.04.2020
4716 Clouds 18 1021 88 10000 1.69 61 19:57 14.04.2020
4717 Thunderstorm 18 1020 88 10000 4.6 160 19:38 14.04.2020
4718 Thunderstorm 19 1020 88 10000 4.6 160 19:19 14.04.2020
4719 Thunderstorm 19 1020 88 10000 4.6 160 18:41 14.04.2020
4720 Thunderstorm 22 1018 78 10000 2.6 210 18:22 14.04.2020
4721 Thunderstorm 22 1018 78 10000 2.6 210 17:58 14.04.2020
4722 Clouds 25 1019 61 10000 5.1 80 17:58 14.04.2020
4723 Rain 25 1019 61 10000 5.1 180 17:39 14.04.2020
4724 Rain 23 1019 61 10000 5.1 180 17:21 14.04.2020
4725 Rain 23 1019 61 10000 5.1 180 16:58 14.04.2020
4726 Rain 23 1019 61 10000 5.1 180 16:39 14.04.2020
4727 Clouds 24 1018 57 10000 5.1 160 16:21 14.04.2020
4728 Clouds 24 1018 57 10000 5.1 160 15:57 14.04.2020
4729 Clouds 24 1018 57 10000 5.1 160 15:38 14.04.2020
4730 Clouds 26 1018 54 10000 2.6 90 15:19 14.04.2020
4731 Clouds 26 1018 54 10000 2.6 90 14:57 14.04.2020
4732 Clouds 25 1018 54 10000 2.6 90 14:39 14.04.2020
4733 Clouds 25 1019 54 10000 4.6 80 14:21 14.04.2020
4734 Clouds 27 1020 54 10000 1 0 13:43 14.04.2020
4735 Clouds 26 1020 53 10000 3.1 120 13:24 14.04.2020
4736 Clouds 26 1020 53 10000 3.1 120 12:57 14.04.2020
4737 Clouds 25 1020 53 10000 3.1 120 12:39 14.04.2020
4738 Clouds 25 1020 53 10000 3.1 120 12:39 14.04.2020
4739 Clouds 25 1021 57 10000 4.1 180 12:20 14.04.2020
4740 Clouds 25 1021 57 10000 4.1 180 11:54 14.04.2020
4741 Clouds 25 1021 57 10000 4.1 180 11:36 14.04.2020
4742 Clouds 23 1022 73 10000 1.36 116 11:18 14.04.2020
4743 Clouds 22 1022 73 10000 1.36 116 10:40 14.04.2020
4744 Clouds 22 1022 73 10000 2.6 150 10:21 14.04.2020
4745 Clouds 22 1022 73 10000 2.6 150 09:42 14.04.2020
4746 Clouds 20 1022 82 10000 0.69 54 09:24 14.04.2020
4747 Clouds 20 1022 82 10000 0.69 54 08:57 14.04.2020
4748 Clouds 20 1022 82 10000 0.69 54 08:39 14.04.2020
4749 Rain 19 1017 53 0 0.69 54 08:21 14.04.2020
4750 Clouds 17 1021 93 10000 0.69 54 07:52 14.04.2020
4751 Rain 19 1017 53 0 0.69 54 07:28 14.04.2020
4752 Clouds 16 1021 93 10000 0.69 54 06:46 14.04.2020
4753 Rain 16 1014 58 0 0.84 11 05:54 14.04.2020
4754 Clouds 15 1020 100 10000 0.5 0 03:52 14.04.2020
4755 Clouds 16 1020 88 10000 0.98 24 02:44 14.04.2020
4756 Rain 16 1021 93 10000 2.6 10 01:38 14.04.2020
4757 Rain 16 1021 93 8000 3.6 360 01:18 14.04.2020
4758 Clouds 17 1022 93 10000 5.7 30 00:32 14.04.2020
4759 Clouds 17 1021 93 10000 2.6 80 23:59 13.04.2020
4760 Clouds 18 1021 88 10000 3.6 90 23:39 13.04.2020
4761 Clouds 17 1021 93 10000 2.1 60 23:21 13.04.2020
4762 Clouds 17 1021 93 10000 2.1 60 22:56 13.04.2020
4763 Clouds 17 1021 88 10000 2.6 50 22:37 13.04.2020
4764 Clouds 17 1021 93 10000 3.1 70 22:18 13.04.2020
4765 Clouds 17 1021 93 10000 3.1 70 21:54 13.04.2020
4766 Clouds 19 1021 77 10000 1.5 70 21:36 13.04.2020
4767 Clouds 19 1021 77 10000 1.5 70 21:18 13.04.2020
4768 Clouds 19 1021 77 10000 1.5 70 20:40 13.04.2020
4769 Clouds 20 1020 73 10000 4.1 90 20:20 13.04.2020
4770 Clouds 20 1020 73 10000 4.1 90 19:58 13.04.2020
4771 Clouds 20 1020 73 10000 4.1 90 19:37 13.04.2020
4772 Clouds 20 1020 73 10000 4.1 90 19:37 13.04.2020
4773 Clouds 20 1019 73 10000 5.1 60 19:19 13.04.2020
4774 Clouds 20 1019 73 10000 5.1 60 18:57 13.04.2020
4775 Clouds 21 1019 73 10000 5.1 60 18:38 13.04.2020
4776 Clouds 23 1018 69 10000 4.1 90 18:19 13.04.2020
4777 Clouds 22 1018 69 10000 4.1 90 17:57 13.04.2020
4778 Clouds 22 1018 69 10000 4.1 90 17:37 13.04.2020
4779 Clouds 22 1018 69 10000 10.3 90 17:19 13.04.2020
4780 Clouds 22 1018 69 10000 10.3 90 17:19 13.04.2020
4781 Clouds 22 1018 69 10000 10.3 90 17:19 13.04.2020
4782 Clouds 22 1018 69 10000 10.3 90 16:58 13.04.2020
4783 Clouds 23 1018 69 10000 10.3 90 16:38 13.04.2020
4784 Clouds 23 1018 60 10000 5.1 120 16:19 13.04.2020
4785 Clouds 23 1018 60 10000 5.1 120 15:55 13.04.2020
4786 Clouds 23 1018 60 10000 5.1 120 15:37 13.04.2020
4787 Clouds 25 1018 54 10000 7.7 90 15:18 13.04.2020
4788 Clouds 25 1018 54 10000 7.7 90 14:41 13.04.2020
4789 Clouds 25 1018 54 10000 7.7 90 14:22 13.04.2020
4790 Clouds 24 1019 54 10000 4.1 60 13:56 13.04.2020
4791 Clouds 24 1020 57 10000 4.1 360 13:38 13.04.2020
4792 Clouds 24 1020 57 10000 4.1 360 13:20 13.04.2020
4793 Clouds 24 1020 57 10000 4.1 360 12:59 13.04.2020
4794 Clouds 24 1020 57 10000 4.1 360 12:40 13.04.2020
4795 Clouds 22 1021 61 10000 3.1 50 12:20 13.04.2020
4796 Clouds 25 1021 61 10000 3.1 50 11:58 13.04.2020
4797 Clouds 24 1022 69 10000 2.6 50 11:40 13.04.2020
4798 Clouds 23 1022 69 10000 2.6 50 11:18 13.04.2020
4799 Clouds 22 1022 69 10000 2.6 50 10:55 13.04.2020
4800 Clouds 22 1022 69 10000 2.6 50 10:37 13.04.2020
4801 Clouds 21 1022 77 10000 1.81 149 10:18 13.04.2020
4802 Clouds 20 1022 77 10000 1.81 149 09:44 13.04.2020
4803 Clouds 20 1022 77 10000 0.25 193 09:25 13.04.2020
4804 Clouds 19 1022 88 10000 0.25 193 08:46 13.04.2020
4805 Clouds 19 1022 88 10000 0.25 193 08:46 13.04.2020
4806 Clouds 19 1022 88 10000 0.25 193 08:27 13.04.2020
4807 Clouds 18 1021 93 10000 0.25 193 07:58 13.04.2020
4808 Clouds 17 1021 93 10000 0.25 193 07:38 13.04.2020
4809 Clouds 17 1021 100 10000 2.6 170 07:19 13.04.2020
4810 Clouds 17 1021 100 10000 2.6 170 06:46 13.04.2020
4811 Clouds 18 1020 93 10000 0.68 93 05:53 13.04.2020
4812 Clouds 18 1020 93 10000 0.68 93 05:27 13.04.2020
4813 Clouds 19 1020 93 10000 3.6 160 04:50 13.04.2020
4814 Clouds 16 1020 93 10000 2.6 170 04:20 13.04.2020
4815 Clouds 19 1019 93 10000 3.6 180 03:43 13.04.2020
4816 Clouds 18 1019 93 10000 2.6 180 02:41 13.04.2020
4817 Clouds 19 1020 93 10000 0.83 61 01:48 13.04.2020
4818 Clouds 19 1020 93 10000 0.83 61 01:30 13.04.2020
4819 Clouds 19 1021 93 10000 3.6 70 00:51 13.04.2020
4820 Clouds 18 1021 88 10000 0.77 49 00:30 13.04.2020
4821 Clouds 18 1021 88 10000 0.77 49 23:57 12.04.2020
4822 Clouds 18 1021 82 10000 0.77 49 23:39 12.04.2020
4823 Clouds 18 1021 88 10000 2.6 70 23:20 12.04.2020
4824 Clouds 18 1021 88 10000 2.6 70 22:55 12.04.2020
4825 Clouds 19 1021 73 10000 0.77 49 22:36 12.04.2020
4826 Clouds 19 1021 73 10000 0.77 49 22:18 12.04.2020
4827 Clouds 19 1021 73 10000 1 53 21:38 12.04.2020
4828 Clouds 19 1020 73 10000 4.1 180 21:20 12.04.2020
4829 Clouds 20 1020 73 10000 4.1 180 20:54 12.04.2020
4830 Clouds 20 1020 73 10000 4.1 180 20:36 12.04.2020
4831 Clouds 20 1019 73 10000 1.93 66 20:18 12.04.2020
4832 Clouds 20 1019 73 10000 1.93 66 19:41 12.04.2020
4833 Clouds 21 1018 68 10000 1.93 66 19:20 12.04.2020
4834 Clouds 21 1018 68 10000 1.93 66 18:59 12.04.2020
4835 Clouds 21 1018 68 10000 1.93 66 18:40 12.04.2020
4836 Clouds 23 1018 60 10000 1.5 180 18:19 12.04.2020
4837 Clouds 23 1018 61 10000 3.6 180 17:55 12.04.2020
4838 Clouds 23 1018 56 10000 5.1 210 17:37 12.04.2020
4839 Clouds 23 1018 56 10000 5.1 210 17:18 12.04.2020
4840 Clouds 24 1018 56 10000 5.1 210 16:42 12.04.2020
4841 Clouds 25 1018 47 10000 5.1 130 16:22 12.04.2020
4842 Clouds 25 1018 47 10000 5.1 130 15:55 12.04.2020
4843 Clouds 26 1018 47 10000 5.1 130 15:37 12.04.2020
4844 Clouds 26 1018 44 10000 4.1 90 15:18 12.04.2020
4845 Clouds 26 1018 44 10000 4.1 90 14:39 12.04.2020
4846 Clouds 25 1019 47 10000 4.1 120 14:21 12.04.2020
4847 Clouds 25 1019 47 10000 4.1 120 13:57 12.04.2020
4848 Clouds 25 1019 47 10000 4.1 120 13:37 12.04.2020
4849 Clouds 26 1020 50 10000 5.1 140 13:18 12.04.2020
4850 Clouds 24 1020 50 10000 5.1 140 12:45 12.04.2020
4851 Clouds 24 1021 60 10000 4.1 150 12:21 12.04.2020
4852 Clouds 23 1021 60 10000 4.1 150 11:58 12.04.2020
4853 Clouds 23 1021 60 10000 4.1 150 11:38 12.04.2020
4854 Clouds 22 1021 60 10000 3.1 230 11:19 12.04.2020
4855 Clouds 23 1021 60 10000 3.1 230 10:56 12.04.2020
4856 Clouds 23 1021 60 10000 3.1 230 10:38 12.04.2020
4857 Clouds 21 1021 68 10000 3.1 140 10:19 12.04.2020
4858 Clouds 22 1021 68 10000 3.1 140 09:56 12.04.2020
4859 Clouds 21 1021 68 10000 3.1 140 09:37 12.04.2020
4860 Clouds 19 1021 82 10000 0.96 213 09:19 12.04.2020
4861 Clouds 19 1021 82 10000 0.96 213 08:50 12.04.2020
4862 Clouds 19 1021 82 10000 0.96 213 08:30 12.04.2020
4863 Clouds 17 1021 88 10000 3.1 210 07:47 12.04.2020
4864 Clouds 17 1020 93 10000 2.1 210 07:19 12.04.2020
4865 Clouds 14 1011 93 0 0.96 213 06:54 12.04.2020
4866 Clouds 16 1020 93 10000 0.61 345 06:26 12.04.2020
4867 Clouds 16 1020 93 10000 3.1 190 05:42 12.04.2020
4868 Clouds 16 1019 93 10000 0.61 345 04:26 12.04.2020
4869 Clouds 17 1020 88 10000 0.85 22 03:29 12.04.2020
4870 Clouds 16 1020 100 10000 1.5 220 02:47 12.04.2020
4871 Clouds 16 1020 100 10000 1.5 220 02:27 12.04.2020
4872 Clouds 16 1021 93 10000 1.5 250 01:22 12.04.2020
4873 Clouds 16 1021 93 10000 1.5 250 01:22 12.04.2020
4874 Clouds 17 1021 88 10000 0.62 18 00:43 12.04.2020
4875 Clouds 17 1021 88 10000 1 52 00:21 12.04.2020
4876 Clouds 17 1021 88 10000 1 52 23:47 11.04.2020
4877 Clouds 17 1021 88 10000 1 52 23:26 11.04.2020
4878 Clouds 17 1021 88 10000 2.6 180 22:59 11.04.2020
4879 Clouds 18 1020 77 10000 1 52 22:37 11.04.2020
4880 Clouds 18 1021 82 10000 3.1 200 22:18 11.04.2020
4881 Clouds 18 1021 88 10000 2.1 170 21:55 11.04.2020
4882 Clouds 19 1020 73 10000 0.91 62 21:36 11.04.2020
4883 Clouds 18 1021 82 10000 3.1 90 21:18 11.04.2020
4884 Clouds 18 1021 82 10000 3.1 90 20:55 11.04.2020
4885 Clouds 18 1021 77 10000 3.1 80 20:37 11.04.2020
4886 Clouds 19 1020 77 10000 3.6 80 20:19 11.04.2020
4887 Clouds 19 1020 77 10000 3.6 80 20:19 11.04.2020
4888 Clouds 19 1020 77 10000 3.6 80 19:56 11.04.2020
4889 Clouds 19 1020 68 10000 3.1 80 19:38 11.04.2020
4890 Clouds 19 1020 68 10000 3.1 80 19:18 11.04.2020
4891 Clouds 20 1020 68 10000 3.1 80 18:55 11.04.2020
4892 Clouds 22 1018 56 10000 3.1 140 18:37 11.04.2020
4893 Clouds 22 1018 56 10000 3.1 140 18:18 11.04.2020
4894 Clouds 22 1018 56 10000 3.1 140 17:57 11.04.2020
4895 Clouds 22 1018 56 10000 3.1 140 17:57 11.04.2020
4896 Clouds 22 1019 47 10000 4.6 100 17:37 11.04.2020
4897 Clouds 22 1019 47 10000 4.6 100 17:37 11.04.2020
4898 Clouds 22 1018 44 10000 5.1 100 17:19 11.04.2020
4899 Clouds 23 1018 44 10000 5.1 120 16:42 11.04.2020
4900 Clouds 24 1018 50 10000 5.1 90 16:21 11.04.2020
4901 Clouds 24 1018 50 10000 5.1 90 16:21 11.04.2020
4902 Clouds 25 1018 47 10000 6.2 110 15:42 11.04.2020
4903 Clouds 26 1018 47 10000 6.2 110 15:21 11.04.2020
4904 Clouds 25 1018 47 10000 6.2 110 14:59 11.04.2020
4905 Clouds 26 1019 50 10000 4.6 120 14:40 11.04.2020
4906 Clouds 27 1019 47 10000 3.6 90 14:22 11.04.2020
4907 Clouds 26 1021 50 10000 5.7 160 13:46 11.04.2020
4908 Clouds 25 1021 53 10000 3.1 170 13:26 11.04.2020
4909 Clouds 25 1021 53 10000 3.1 170 12:59 11.04.2020
4910 Clouds 25 1021 53 10000 3.1 170 12:38 11.04.2020
4911 Clouds 24 1021 57 10000 4.1 180 12:18 11.04.2020
4912 Clouds 24 1021 57 10000 4.1 180 11:54 11.04.2020
4913 Clouds 24 1022 60 10000 4.6 180 11:36 11.04.2020
4914 Clouds 23 1022 60 10000 4.6 180 11:18 11.04.2020
4915 Clouds 23 1022 60 10000 4.6 180 10:41 11.04.2020
4916 Clouds 22 1022 68 10000 5.1 170 10:21 11.04.2020
4917 Clouds 21 1022 68 10000 5.1 170 09:57 11.04.2020
4918 Clouds 22 1022 68 10000 5.1 170 09:39 11.04.2020
4919 Clouds 20 1022 77 10000 2.6 200 09:20 11.04.2020
4920 Clouds 19 1022 77 10000 2.6 200 08:45 11.04.2020
4921 Clouds 19 1022 77 10000 2.6 200 08:27 11.04.2020
4922 Clouds 17 1022 82 10000 1.59 170 07:49 11.04.2020
4923 Clouds 15 1022 82 10000 1.59 170 07:28 11.04.2020
4924 Clouds 14 1021 93 10000 1.59 170 06:48 11.04.2020
4925 Clouds 15 1020 93 10000 0.61 360 06:18 11.04.2020
4926 Clouds 15 1020 93 10000 0.61 360 05:24 11.04.2020
4927 Clouds 15 1020 93 10000 0.61 360 03:40 11.04.2020
4928 Clouds 16 1021 93 10000 0.74 30 01:55 11.04.2020
4929 Clouds 16 1021 93 10000 0.74 30 01:23 11.04.2020
4930 Clouds 16 1021 93 10000 0.74 30 00:44 11.04.2020
4931 Clouds 17 1022 88 10000 0.48 109 00:19 11.04.2020
4932 Clouds 16 1023 93 10000 2.1 230 23:57 10.04.2020
4933 Clouds 16 1022 93 10000 0.48 109 23:38 10.04.2020
4934 Clouds 16 1022 93 10000 0.48 109 23:19 10.04.2020
4935 Clouds 16 1022 93 10000 0.48 109 22:43 10.04.2020
4936 Clouds 18 1021 77 10000 0.48 109 22:22 10.04.2020
4937 Clouds 18 1021 77 10000 0.48 109 21:58 10.04.2020
4938 Clouds 18 1021 77 10000 0.48 109 21:40 10.04.2020
4939 Rain 18 1021 77 10000 5.1 170 21:20 10.04.2020
4940 Rain 18 1021 77 10000 5.1 170 20:44 10.04.2020
4941 Clouds 20 1020 53 10000 5.1 80 20:24 10.04.2020
4942 Clouds 20 1020 53 10000 5.1 80 19:59 10.04.2020
4943 Clouds 20 1020 53 10000 5.1 80 19:41 10.04.2020
4944 Clouds 22 1020 50 10000 5.1 80 19:21 10.04.2020
4945 Clouds 22 1020 50 10000 5.1 80 19:21 10.04.2020
4946 Clouds 22 1020 50 10000 5.1 80 18:58 10.04.2020
4947 Clouds 22 1020 50 10000 5.1 80 18:40 10.04.2020
4948 Clouds 24 1019 53 10000 5.1 90 18:21 10.04.2020
4949 Clouds 22 1019 53 10000 5.1 90 17:58 10.04.2020
4950 Clouds 22 1019 53 10000 5.1 90 17:58 10.04.2020
4951 Clouds 23 1019 53 10000 5.1 90 17:40 10.04.2020
4952 Clouds 23 1019 50 10000 5.1 90 17:21 10.04.2020
4953 Clouds 22 1020 50 10000 3.1 80 16:57 10.04.2020
4954 Clouds 24 1019 47 10000 5.1 50 16:38 10.04.2020
4955 Clouds 24 1019 47 10000 5.1 50 16:20 10.04.2020
4956 Clouds 24 1019 47 10000 5.1 50 15:56 10.04.2020
4957 Clouds 24 1019 47 10000 5.1 50 15:56 10.04.2020
4958 Clouds 26 1019 47 10000 5.1 50 15:37 10.04.2020
4959 Clouds 25 1020 50 10000 5.1 120 15:19 10.04.2020
4960 Clouds 25 1020 50 10000 5.1 120 14:57 10.04.2020
4961 Clouds 24 1020 50 10000 5.1 120 14:38 10.04.2020
4962 Clouds 24 1020 53 10000 5.1 150 14:19 10.04.2020
4963 Clouds 24 1021 57 10000 1.5 0 13:43 10.04.2020
4964 Clouds 24 1021 57 10000 2.6 90 13:22 10.04.2020
4965 Clouds 23 1021 57 10000 2.6 90 12:45 10.04.2020
4966 Clouds 23 1021 57 10000 2.6 90 12:24 10.04.2020
4967 Clouds 23 1023 60 10000 2.6 60 11:58 10.04.2020
4968 Clouds 23 1023 60 10000 2.6 60 11:40 10.04.2020
4969 Clouds 22 1023 73 10000 5.1 160 11:22 10.04.2020
4970 Clouds 22 1023 73 10000 5.1 160 10:56 10.04.2020
4971 Clouds 21 1023 73 10000 5.1 160 10:37 10.04.2020
4972 Clouds 20 1023 77 10000 2.6 180 10:18 10.04.2020
4973 Clouds 20 1023 77 10000 2.6 180 09:42 10.04.2020
4974 Clouds 19 1023 88 10000 1.49 87 09:20 10.04.2020
4975 Clouds 18 1024 93 10000 0.5 0 08:47 10.04.2020
4976 Clouds 18 1023 93 10000 1.49 87 08:26 10.04.2020
4977 Clouds 18 1023 93 10000 1.49 87 07:49 10.04.2020
4978 Clouds 18 1023 93 10000 1.49 87 07:28 10.04.2020
4979 Clouds 16 1021 93 10000 1.49 87 06:59 10.04.2020
4980 Clouds 16 1021 93 10000 1.49 87 06:30 10.04.2020
4981 Clouds 16 1021 93 10000 1.49 87 06:30 10.04.2020
4982 Clouds 16 1020 93 10000 1.15 37 05:56 10.04.2020
4983 Clouds 16 1020 93 10000 1.15 37 05:22 10.04.2020
4984 Clouds 15 1021 100 10000 1.5 220 04:42 10.04.2020
4985 Clouds 15 1021 100 10000 1 190 03:32 10.04.2020
4986 Mist 16 1021 88 5000 1.5 350 02:50 10.04.2020
4987 Mist 16 1021 88 5000 1.5 350 02:31 10.04.2020
4988 Clouds 15 1022 93 10000 1 0 01:30 10.04.2020
4989 Clouds 15 1022 93 10000 1 0 00:55 10.04.2020
4990 Clouds 17 1021 88 10000 0.98 31 00:37 10.04.2020
4991 Clouds 17 1021 88 10000 1.22 67 00:18 10.04.2020
4992 Clouds 17 1021 88 10000 1.22 67 23:41 09.04.2020
4993 Clouds 18 1022 88 10000 4.1 90 23:22 09.04.2020
4994 Clouds 18 1022 88 10000 4.1 90 22:56 09.04.2020
4995 Clouds 18 1022 88 10000 4.1 90 22:38 09.04.2020
4996 Clouds 17 1022 88 10000 2.1 80 22:19 09.04.2020
4997 Clouds 18 1021 77 10000 3.1 80 21:38 09.04.2020
4998 Clouds 19 1021 77 10000 3.1 80 21:19 09.04.2020
4999 Clouds 19 1021 68 10000 4.1 90 20:47 09.04.2020
5000 Clouds 19 1021 68 10000 4.1 90 20:22 09.04.2020
5001 Clouds 19 1021 68 10000 4.1 90 19:59 09.04.2020
5002 Clouds 19 1021 68 10000 4.1 90 19:38 09.04.2020
5003 Clouds 21 1020 60 10000 5.1 90 19:20 09.04.2020
5004 Clouds 21 1020 60 10000 5.1 90 18:42 09.04.2020
5005 Clouds 22 1019 57 10000 5.1 90 18:21 09.04.2020
5006 Clouds 22 1019 57 10000 5.1 90 17:57 09.04.2020
5007 Clouds 23 1019 57 10000 5.1 90 17:38 09.04.2020
5008 Clouds 23 1019 53 10000 4.1 70 17:18 09.04.2020
5009 Clouds 24 1019 53 10000 4.1 70 16:39 09.04.2020
5010 Clouds 23 1019 47 10000 5.1 70 16:20 09.04.2020
5011 Clouds 24 1019 47 10000 5.1 70 15:56 09.04.2020
5012 Clouds 23 1020 50 10000 4.6 90 15:56 09.04.2020
5013 Clouds 24 1020 50 10000 5.1 50 15:37 09.04.2020
5014 Clouds 24 1020 50 10000 5.1 50 15:19 09.04.2020
5015 Clouds 24 1020 50 10000 5.1 50 14:42 09.04.2020
5016 Clouds 24 1020 53 10000 6.2 80 14:21 09.04.2020
5017 Clouds 24 1020 53 10000 6.2 80 13:58 09.04.2020
5018 Clouds 24 1020 53 10000 6.2 80 13:40 09.04.2020
5019 Clouds 23 1022 56 10000 3.1 70 13:21 09.04.2020
5020 Clouds 23 1022 56 10000 3.1 70 12:54 09.04.2020
5021 Clouds 23 1022 56 10000 3.1 70 12:36 09.04.2020
5022 Clouds 23 1023 56 10000 3.1 110 12:18 09.04.2020
5023 Clouds 24 1023 60 10000 3.1 80 11:42 09.04.2020
5024 Clouds 22 1024 60 10000 3.1 50 11:20 09.04.2020
5025 Clouds 22 1024 60 10000 3.1 50 10:58 09.04.2020
5026 Clouds 21 1024 60 10000 3.1 50 10:40 09.04.2020
5027 Clouds 20 1024 77 10000 4.1 70 10:21 09.04.2020
5028 Clouds 20 1024 77 10000 4.1 70 09:56 09.04.2020
5029 Clouds 20 1024 77 10000 4.1 70 09:56 09.04.2020
5030 Clouds 20 1024 77 10000 4.1 70 09:38 09.04.2020
5031 Clouds 19 1023 82 10000 3.1 50 09:20 09.04.2020
5032 Clouds 19 1023 82 10000 3.1 50 08:44 09.04.2020
5033 Clouds 18 1022 93 10000 1.82 87 08:23 09.04.2020
5034 Clouds 18 1022 93 10000 1.82 87 07:56 09.04.2020
5035 Clouds 17 1022 93 10000 1.82 87 07:27 09.04.2020
5036 Fog 16 1022 93 5000 1 0 06:57 09.04.2020
5037 Clouds 16 1021 93 10000 1.01 63 06:25 09.04.2020
5038 Clouds 16 1021 93 10000 1.01 63 05:43 09.04.2020
5039 Mist 16 1021 93 3000 1 0 04:26 09.04.2020
5040 Clouds 17 1021 93 10000 3.6 60 02:32 09.04.2020
5041 Clouds 17 1021 93 10000 3.6 40 01:42 09.04.2020
5042 Clouds 17 1021 93 10000 3.6 70 01:24 09.04.2020
5043 Clouds 18 1021 88 10000 7.2 60 00:43 09.04.2020
5044 Clouds 18 1021 88 10000 7.2 60 00:20 09.04.2020
5045 Clouds 18 1021 88 10000 7.2 60 23:59 08.04.2020
5046 Clouds 18 1021 88 10000 7.2 60 23:41 08.04.2020
5047 Clouds 18 1021 88 10000 5.1 80 23:21 08.04.2020
5048 Clouds 18 1021 88 10000 5.1 80 22:44 08.04.2020
5049 Clouds 19 1021 72 10000 3.1 80 22:24 08.04.2020
5050 Clouds 19 1021 72 10000 3.1 80 21:57 08.04.2020
5051 Clouds 19 1021 72 10000 3.1 80 21:38 08.04.2020
5052 Rain 18 1022 77 10000 3.6 70 21:19 08.04.2020
5053 Rain 18 1022 77 10000 3.6 70 20:58 08.04.2020
5054 Rain 20 1020 64 10000 3.1 50 20:38 08.04.2020
5055 Rain 20 1020 64 10000 3.1 50 20:20 08.04.2020
5056 Rain 20 1020 64 10000 3.1 50 19:55 08.04.2020
5057 Rain 20 1020 64 10000 3.1 50 19:36 08.04.2020
5058 Clouds 21 1019 56 10000 5.1 70 19:18 08.04.2020
5059 Clouds 21 1019 56 10000 5.1 70 19:18 08.04.2020
5060 Clouds 21 1019 56 10000 5.1 70 18:41 08.04.2020
5061 Clouds 24 1019 53 10000 5.1 50 18:23 08.04.2020
5062 Clouds 22 1019 53 10000 5.1 50 17:54 08.04.2020
5063 Clouds 22 1019 53 10000 5.1 50 17:36 08.04.2020
5064 Clouds 23 1018 50 10000 5.1 50 17:18 08.04.2020
5065 Clouds 24 1018 50 10000 5.1 50 16:42 08.04.2020
5066 Clouds 24 1019 50 10000 6.2 80 16:23 08.04.2020
5067 Clouds 24 1019 50 10000 6.2 80 15:55 08.04.2020
5068 Clouds 24 1019 50 10000 6.2 80 15:37 08.04.2020
5069 Clouds 25 1019 50 10000 6.2 50 15:18 08.04.2020
5070 Clouds 25 1019 50 10000 6.2 50 14:42 08.04.2020
5071 Clouds 25 1019 50 10000 6.2 50 14:24 08.04.2020
5072 Clouds 25 1020 50 10000 7.2 50 13:45 08.04.2020
5073 Clouds 25 1020 50 10000 7.2 50 13:23 08.04.2020
5074 Clouds 25 1021 50 10000 5.1 70 13:00 08.04.2020
5075 Clouds 25 1021 50 10000 5.1 70 12:41 08.04.2020
5076 Clouds 23 1023 57 10000 4.1 50 12:18 08.04.2020
5077 Clouds 24 1023 57 10000 4.1 50 11:55 08.04.2020
5078 Clouds 24 1023 57 10000 4.1 50 11:37 08.04.2020
5079 Clouds 23 1023 64 10000 4.1 70 11:19 08.04.2020
5080 Clouds 23 1023 64 10000 4.1 70 10:55 08.04.2020
5081 Clouds 22 1023 64 10000 4.1 70 10:37 08.04.2020
5082 Clouds 22 1025 69 10000 4.1 40 10:18 08.04.2020
5083 Clouds 20 1024 88 10000 2.6 360 09:42 08.04.2020
5084 Clouds 19 1024 88 10000 2.6 360 09:20 08.04.2020
5085 Clouds 19 1024 88 10000 2.6 360 08:59 08.04.2020
5086 Clouds 19 1024 88 10000 2.6 360 08:59 08.04.2020
5087 Clouds 19 1024 88 10000 2.6 360 08:40 08.04.2020
5088 Clouds 18 1023 88 10000 4.1 50 08:21 08.04.2020
5089 Clouds 18 1023 88 10000 4.1 50 07:43 08.04.2020
5090 Clouds 17 1022 93 10000 2.1 45 07:22 08.04.2020
5091 Clouds 16 1022 93 10000 2.1 45 06:43 08.04.2020
5092 Clouds 14 1013 86 0 0.89 76 05:49 08.04.2020
5093 Clouds 14 1011 86 0 0.45 26 03:22 08.04.2020
5094 Clouds 14 1011 86 0 1.34 79 02:38 08.04.2020
5095 Clouds 14 1011 86 0 1.02 23 02:18 08.04.2020
5096 Clouds 17 1022 93 10000 3.6 60 01:30 08.04.2020
5097 Clouds 17 1022 93 10000 3.6 60 00:57 08.04.2020
5098 Clouds 17 1022 93 10000 3.6 50 00:39 08.04.2020
5099 Clouds 17 1023 93 10000 2.1 30 00:19 08.04.2020
5100 Clouds 18 1022 88 10000 3.1 70 23:39 07.04.2020
5101 Clouds 18 1022 88 10000 3.1 70 23:20 07.04.2020
5102 Clouds 18 1022 88 10000 3.1 70 22:56 07.04.2020
5103 Clouds 18 1022 82 10000 3.1 80 22:38 07.04.2020
5104 Clouds 19 1022 82 10000 3.1 80 22:19 07.04.2020
5105 Clouds 19 1022 82 10000 3.1 80 21:55 07.04.2020
5106 Clouds 19 1022 82 10000 3.1 80 21:37 07.04.2020
5107 Clouds 19 1021 82 10000 2.96 55 21:18 07.04.2020
5108 Clouds 19 1021 82 10000 2.96 55 20:55 07.04.2020
5109 Clouds 19 1021 82 10000 2.96 55 20:55 07.04.2020
5110 Clouds 19 1021 82 10000 2.96 55 20:36 07.04.2020
5111 Clouds 19 1020 77 10000 2.6 60 20:18 07.04.2020
5112 Clouds 19 1020 77 10000 2.6 60 19:55 07.04.2020
5113 Clouds 19 1020 77 10000 2.6 60 19:36 07.04.2020
5114 Clouds 20 1020 77 10000 2.6 360 19:18 07.04.2020
5115 Clouds 20 1020 77 10000 2.6 360 18:41 07.04.2020
5116 Clouds 21 1019 77 10000 2.6 360 18:21 07.04.2020
5117 Clouds 22 1019 77 10000 2.6 360 17:56 07.04.2020
5118 Clouds 22 1019 77 10000 2.6 360 17:37 07.04.2020
5119 Clouds 25 1018 57 10000 6.2 50 17:19 07.04.2020
5120 Clouds 25 1018 57 10000 6.2 50 16:44 07.04.2020
5121 Clouds 25 1018 57 10000 10.3 60 16:26 07.04.2020
5122 Clouds 25 1018 57 10000 10.3 60 16:26 07.04.2020
5123 Clouds 25 1018 57 10000 10.3 60 15:46 07.04.2020
5124 Clouds 25 1019 53 10000 10.3 70 15:26 07.04.2020
5125 Clouds 25 1019 53 10000 10.3 70 14:56 07.04.2020
5126 Clouds 24 1019 53 10000 10.3 70 14:38 07.04.2020
5127 Clouds 24 1020 64 10000 5.1 70 14:19 07.04.2020
5128 Clouds 23 1020 64 10000 5.1 70 13:42 07.04.2020
5129 Clouds 23 1023 64 10000 5.1 70 13:20 07.04.2020
5130 Clouds 23 1023 64 10000 5.1 70 12:58 07.04.2020
5131 Clouds 23 1023 64 10000 5.1 70 12:39 07.04.2020
5132 Clouds 23 1023 73 10000 7.2 60 12:21 07.04.2020
5133 Clouds 23 1023 73 10000 7.2 60 11:58 07.04.2020
5134 Clouds 22 1023 73 10000 7.2 60 11:40 07.04.2020
5135 Clouds 22 1024 73 10000 4.1 60 11:19 07.04.2020
5136 Clouds 21 1025 77 10000 5.7 70 10:54 07.04.2020
5137 Clouds 21 1025 77 10000 5.7 70 10:36 07.04.2020
5138 Clouds 21 1025 83 10000 3.6 50 10:18 07.04.2020
5139 Clouds 21 1023 77 10000 5.1 70 09:40 07.04.2020
5140 Clouds 19 1025 88 10000 3.1 30 09:18 07.04.2020
5141 Clouds 19 1024 94 10000 3.1 60 08:40 07.04.2020
5142 Clouds 19 1024 93 10000 3.1 50 08:22 07.04.2020
5143 Clouds 18 1024 93 10000 3.1 60 07:55 07.04.2020
5144 Clouds 18 1024 93 10000 3.1 60 07:37 07.04.2020
5145 Clouds 17 1023 93 10000 2.6 80 07:18 07.04.2020
5146 Clouds 17 1021 93 10000 2.6 60 06:39 07.04.2020
5147 Clouds 17 1021 93 10000 2.6 60 06:18 07.04.2020
5148 Clouds 16 1022 93 10000 2.6 50 05:26 07.04.2020
5149 Clouds 16 1022 93 10000 2.1 50 04:31 07.04.2020
5150 Clouds 16 1022 100 10000 2.6 20 03:23 07.04.2020
5151 Clouds 17 1022 93 10000 4.6 10 02:47 07.04.2020
5152 Clouds 17 1022 88 10000 2.6 30 01:43 07.04.2020
5153 Clouds 17 1022 88 10000 2.6 30 01:23 07.04.2020
5154 Clouds 17 1023 82 10000 2.6 10 00:26 07.04.2020
5155 Clouds 17 1024 82 10000 2.6 360 23:44 06.04.2020
5156 Clouds 17 1024 88 10000 3.6 20 23:23 06.04.2020
5157 Clouds 17 1024 88 10000 3.6 20 22:56 06.04.2020
5158 Clouds 17 1024 88 10000 3.6 20 22:37 06.04.2020
5159 Clouds 17 1024 82 10000 3.6 10 22:19 06.04.2020
5160 Clouds 17 1024 82 10000 3.6 10 21:56 06.04.2020
5161 Clouds 19 1022 73 10000 5.1 64 21:37 06.04.2020
5162 Clouds 18 1023 82 10000 6.2 40 21:18 06.04.2020
5163 Clouds 18 1023 82 10000 6.2 40 20:42 06.04.2020
5164 Clouds 18 1022 82 10000 4.1 50 20:23 06.04.2020
5165 Clouds 18 1023 82 10000 6.2 40 20:23 06.04.2020
5166 Clouds 18 1022 82 10000 4.1 50 19:58 06.04.2020
5167 Clouds 18 1021 73 10000 4.1 50 19:40 06.04.2020
5168 Clouds 19 1021 68 10000 5.1 50 19:22 06.04.2020
5169 Clouds 19 1021 64 10000 5.1 50 18:55 06.04.2020
5170 Clouds 19 1021 64 10000 5.1 50 18:37 06.04.2020
5171 Clouds 19 1020 64 10000 5.1 40 18:19 06.04.2020
5172 Clouds 20 1020 60 10000 5.7 60 17:42 06.04.2020
5173 Clouds 23 1019 53 10000 6.2 70 17:19 06.04.2020
5174 Clouds 23 1019 53 10000 6.2 70 17:19 06.04.2020
5175 Clouds 23 1019 50 10000 3.1 90 16:50 06.04.2020
5176 Clouds 23 1019 50 10000 3.1 90 16:31 06.04.2020
5177 Clouds 23 1019 50 10000 3.1 90 15:40 06.04.2020
5178 Clouds 23 1019 50 10000 3.1 90 15:40 06.04.2020
5179 Clouds 26 1020 47 10000 6.2 40 13:46 06.04.2020
5180 Clouds 24 1021 60 10000 5.1 40 13:24 06.04.2020
5181 Clouds 24 1021 60 10000 5.1 40 12:56 06.04.2020
5182 Clouds 24 1021 60 10000 5.1 40 12:56 06.04.2020
5183 Clouds 24 1021 60 10000 5.1 40 12:56 06.04.2020
5184 Clouds 24 1021 60 10000 5.1 40 12:56 06.04.2020
5185 Clouds 24 1021 60 10000 5.1 40 12:56 06.04.2020
5186 Clouds 24 1021 60 10000 5.1 40 12:21 06.04.2020
5187 Clouds 23 1023 64 10000 3.1 60 11:54 06.04.2020
5188 Clouds 23 1023 64 10000 3.1 60 11:32 06.04.2020
5189 Clouds 23 1023 64 10000 3.1 60 11:32 06.04.2020
5190 Clouds 23 1023 64 10000 3.1 60 11:32 06.04.2020
5191 Clouds 23 1023 64 10000 3.1 60 11:31 06.04.2020
5192 Clouds 23 1023 64 10000 3.1 60 11:31 06.04.2020
5193 Clouds 22 1023 64 10000 2.6 40 10:50 06.04.2020
5194 Clouds 22 1023 64 10000 2.6 40 10:50 06.04.2020
5195 Clouds 22 1023 64 10000 2.6 40 10:50 06.04.2020
5196 Clouds 22 1023 64 10000 2.6 40 10:50 06.04.2020
5197 Clouds 22 1023 64 10000 2.6 40 10:50 06.04.2020
5198 Clouds 22 1023 64 10000 2.6 40 10:21 06.04.2020
5199 Clouds 21 1024 73 10000 5.1 40 09:47 06.04.2020
5200 Clouds 21 1024 73 10000 5.1 40 09:47 06.04.2020
5201 Clouds 21 1024 73 10000 5.1 40 09:47 06.04.2020
5202 Clouds 21 1024 73 10000 5.1 40 09:47 06.04.2020
5203 Clouds 20 1024 73 10000 5.1 40 09:20 06.04.2020
5204 Clouds 19 1024 88 10000 1.93 51 08:54 06.04.2020
5205 Clouds 19 1024 88 10000 1.93 51 08:30 06.04.2020
5206 Clouds 18 1023 93 10000 4.1 70 07:30 06.04.2020
5207 Clouds 18 1023 93 10000 4.1 70 07:30 06.04.2020
5208 Clouds 18 1023 93 10000 4.1 70 07:30 06.04.2020
5209 Clouds 17 1022 100 10000 1.93 51 06:41 06.04.2020
5210 Clouds 17 1022 100 10000 1.93 51 06:22 06.04.2020
5211 Rain 16 1021 93 10000 1.46 22 04:19 06.04.2020
5212 Rain 16 1021 93 5000 5.1 50 02:57 06.04.2020
5213 Rain 17 1021 93 10000 1.37 28 02:25 06.04.2020
5214 Clouds 17 1022 88 10000 2.1 70 01:23 06.04.2020
5215 Clouds 17 1022 88 10000 3.6 90 00:41 06.04.2020
5216 Clouds 18 1023 88 10000 4.1 8 00:23 06.04.2020
5217 Clouds 18 1023 88 10000 4.1 8 23:43 05.04.2020
5218 Clouds 18 1023 88 10000 4.1 8 23:25 05.04.2020
5219 Clouds 18 1023 88 10000 4.1 8 23:25 05.04.2020
5220 Clouds 18 1023 88 10000 4.1 8 23:25 05.04.2020
5221 Clouds 17 1023 88 10000 2.6 60 22:55 05.04.2020
5222 Clouds 17 1023 88 10000 2.6 60 22:55 05.04.2020
5223 Clouds 17 1024 82 10000 2.6 70 22:37 05.04.2020
5224 Clouds 19 1023 73 10000 5.1 50 22:18 05.04.2020
5225 Clouds 19 1023 73 10000 5.1 50 21:46 05.04.2020
5226 Clouds 19 1023 73 10000 5.1 50 21:24 05.04.2020
5227 Clouds 19 1023 73 10000 5.1 50 21:24 05.04.2020
5228 Clouds 19 1023 73 10000 5.1 50 21:24 05.04.2020
5229 Clouds 19 1022 68 10000 4.1 30 20:27 05.04.2020
5230 Clouds 20 1021 64 10000 5.1 40 20:00 05.04.2020
5231 Clouds 20 1021 64 10000 5.1 40 19:37 05.04.2020
5232 Clouds 20 1021 64 10000 5.1 40 19:19 05.04.2020
5233 Clouds 19 1021 64 10000 5.7 60 18:44 05.04.2020
5234 Clouds 20 1020 56 10000 5.1 60 18:44 05.04.2020
5235 Clouds 20 1020 56 10000 5.1 60 18:44 05.04.2020
5236 Clouds 20 1020 56 10000 5.1 60 18:44 05.04.2020
5237 Clouds 20 1020 56 10000 5.1 60 18:44 05.04.2020
5238 Clouds 22 1020 53 10000 7.7 80 17:52 05.04.2020
5239 Clouds 22 1020 53 10000 7.7 80 17:52 05.04.2020
5240 Clouds 22 1020 53 10000 7.7 80 17:52 05.04.2020
5241 Clouds 22 1020 53 10000 7.7 80 17:52 05.04.2020
5242 Clouds 22 1020 53 10000 7.7 80 17:52 05.04.2020
5243 Clouds 22 1020 53 10000 7.7 80 17:24 05.04.2020
5244 Clouds 24 1019 50 10000 5.1 60 16:47 05.04.2020
5245 -273 0 0 0 0 0 16:20 05.04.2020
5246 Clouds 26 1019 44 10000 5.1 50 15:51 05.04.2020
5247 Clouds 26 1019 44 10000 5.1 50 15:32 05.04.2020
5248 Clouds 25 1020 44 10000 7.7 40 14:49 05.04.2020
5249 Clouds 25 1020 44 10000 7.7 40 14:49 05.04.2020
5250 Clouds 26 1020 44 10000 7.7 40 14:25 05.04.2020
5251 Clouds 26 1020 44 10000 7.7 40 14:25 05.04.2020
5252 Clouds 24 1021 47 10000 5.1 80 13:43 05.04.2020
5253 Clouds 24 1022 50 10000 7.7 70 12:48 05.04.2020
5254 Clouds 24 1023 53 10000 5.1 30 11:41 05.04.2020
5255 Clouds 23 1023 53 10000 5.1 30 11:20 05.04.2020
5256 Clouds 23 1023 53 10000 5.1 30 11:20 05.04.2020
5257 Clouds 22 1024 60 10000 4.1 60 10:49 05.04.2020
5258 Clouds 21 1024 60 10000 4.1 60 10:24 05.04.2020
5259 Clouds 21 1024 60 10000 4.1 60 10:24 05.04.2020
5260 Clouds 21 1024 68 10000 2.6 50 09:57 05.04.2020
5261 Clouds 21 1024 68 10000 2.6 50 09:31 05.04.2020
5262 Clouds 19 1024 77 10000 4.1 70 09:02 05.04.2020
5263 Clouds 19 1024 77 10000 4.1 70 09:02 05.04.2020
5264 Clouds 19 1024 77 10000 4.1 70 09:02 05.04.2020
5265 Clouds 17 1023 93 10000 5.1 90 07:31 05.04.2020
5266 Clouds 16 1021 93 10000 2.1 80 04:36 05.04.2020
5267 Clouds 17 1021 88 10000 2.1 80 03:31 05.04.2020
5268 Clouds 17 1021 88 10000 2.1 80 02:49 05.04.2020
5269 Clouds 17 1022 88 10000 4.1 100 01:47 05.04.2020
5270 Clouds 17 1022 88 10000 4.1 100 01:28 05.04.2020
5271 Clouds 17 1022 88 10000 3.1 80 00:44 05.04.2020
5272 Clouds 18 1021 88 10000 5.1 90 00:21 05.04.2020
5273 Clouds 18 1021 88 10000 5.1 90 23:55 04.04.2020
5274 Clouds 17 1022 88 10000 3.1 80 23:36 04.04.2020
5275 Clouds 18 1021 82 10000 2.6 90 23:18 04.04.2020
5276 Clouds 17 1023 88 10000 2.1 60 22:40 04.04.2020
5277 Clouds 19 1021 73 10000 4.1 60 22:21 04.04.2020
5278 Clouds 19 1021 73 10000 4.1 60 21:58 04.04.2020
5279 Clouds 19 1021 73 10000 4.1 60 21:40 04.04.2020
5280 Clouds 19 1021 73 10000 4.1 60 21:19 04.04.2020
5281 Clouds 19 1021 73 10000 5.1 90 20:59 04.04.2020
5282 Clouds 19 1021 73 10000 5.1 90 20:40 04.04.2020
5283 Clouds 20 1021 73 10000 5.1 90 20:21 04.04.2020
5284 Clouds 20 1021 64 10000 5.1 80 19:57 04.04.2020
5285 Clouds 20 1021 64 10000 5.1 80 19:37 04.04.2020
5286 Clouds 20 1021 64 10000 5.1 80 19:19 04.04.2020
5287 Clouds 20 1020 56 10000 5.1 60 18:56 04.04.2020
5288 Clouds 21 1020 56 10000 5.1 60 18:38 04.04.2020
5289 Clouds 23 1020 56 10000 5.1 60 18:19 04.04.2020
5290 Clouds 23 1020 56 10000 6.2 70 17:56 04.04.2020
5291 Clouds 24 1020 53 10000 7.2 70 17:38 04.04.2020
5292 Clouds 25 1019 50 10000 5.1 90 17:18 04.04.2020
5293 Clouds 25 1019 50 10000 5.1 90 16:42 04.04.2020
5294 Clouds 23 1019 50 10000 5.1 90 16:22 04.04.2020
5295 Clouds 25 1019 44 10000 5.1 60 15:55 04.04.2020
5296 Clouds 25 1019 44 10000 5.1 60 15:37 04.04.2020
5297 Clouds 25 1019 44 10000 5.1 60 15:18 04.04.2020
5298 Clouds 25 1019 44 10000 5.1 60 15:18 04.04.2020
5299 Clouds 25 1020 47 10000 5.1 40 14:42 04.04.2020
5300 Clouds 25 1020 47 10000 5.1 40 14:22 04.04.2020
5301 Clouds 25 1021 47 10000 5.1 60 13:56 04.04.2020
5302 Clouds 25 1021 47 10000 5.1 60 13:38 04.04.2020
5303 Clouds 25 1021 47 10000 5.1 60 13:19 04.04.2020
5304 Clouds 24 1022 53 10000 5.1 30 12:45 04.04.2020
5305 Clouds 24 1022 53 10000 5.1 30 12:24 04.04.2020
5306 Clouds 23 1023 57 10000 4.1 60 11:59 04.04.2020
5307 Clouds 24 1023 57 10000 4.1 60 11:38 04.04.2020
5308 Clouds 23 1023 57 10000 4.1 60 11:19 04.04.2020
5309 Clouds 22 1023 64 10000 2.1 60 10:56 04.04.2020
5310 Clouds 22 1023 64 10000 2.1 60 10:38 04.04.2020
5311 Clouds 22 1023 64 10000 2.1 60 10:19 04.04.2020
5312 Clouds 21 1023 77 10000 2.6 30 09:54 04.04.2020
5313 Clouds 20 1023 77 10000 2.6 30 09:36 04.04.2020
5314 Clouds 20 1023 77 10000 2.6 30 09:18 04.04.2020
5315 Clouds 19 1022 82 10000 3.6 60 08:41 04.04.2020
5316 Clouds 19 1022 82 10000 3.6 60 08:21 04.04.2020
5317 Clouds 17 1021 100 10000 1.51 50 07:46 04.04.2020
5318 Clouds 17 1021 100 10000 1.51 50 07:26 04.04.2020
5319 Clouds 16 1022 93 10000 1 0 06:53 04.04.2020
5320 Clouds 15 1022 93 10000 1 40 06:20 04.04.2020
5321 Mist 16 1020 93 5000 2.1 70 05:43 04.04.2020
5322 Mist 16 1020 93 5000 2.1 70 05:43 04.04.2020
5323 Mist 15 1020 93 5000 2.1 70 05:24 04.04.2020
5324 Fog 15 1020 93 7000 2.6 80 04:31 04.04.2020
5325 Mist 16 1020 93 5000 2.6 50 03:53 04.04.2020
5326 Clouds 16 1021 93 10000 1.5 10 02:54 04.04.2020
5327 Clouds 17 1021 93 10000 1.5 10 02:34 04.04.2020
5328 Clouds 17 1021 93 10000 1.5 10 01:57 04.04.2020
5329 Clouds 17 1021 93 10000 1.5 10 01:25 04.04.2020
5330 Rain 15 1009 87 0 4.92 59 00:50 04.04.2020
5331 Rain 17 1022 93 10000 3.1 40 00:30 04.04.2020
5332 Rain 17 1022 93 10000 3.1 40 23:41 03.04.2020
5333 Rain 17 1022 93 10000 3.1 40 23:21 03.04.2020
5334 Rain 16 1022 93 10000 3.6 40 22:59 03.04.2020
5335 Rain 16 1022 93 10000 3.6 40 22:39 03.04.2020
5336 Rain 16 1022 93 10000 3.6 40 22:39 03.04.2020
5337 Clouds 18 1020 82 10000 4.1 60 22:19 03.04.2020
5338 Clouds 18 1020 82 10000 4.1 60 21:45 03.04.2020
5339 Clouds 19 1020 82 10000 4.1 60 21:27 03.04.2020
5340 Clouds 19 1020 77 10000 3.1 40 20:59 03.04.2020
5341 Clouds 19 1020 77 10000 3.1 40 20:40 03.04.2020
5342 Clouds 19 1020 77 10000 3.1 40 20:22 03.04.2020
5343 Clouds 20 1019 60 10000 5.1 60 19:58 03.04.2020
5344 Clouds 20 1019 60 10000 5.1 60 19:39 03.04.2020
5345 Clouds 21 1018 56 10000 5.1 70 19:21 03.04.2020
5346 Clouds 21 1018 56 10000 5.1 70 19:00 03.04.2020
5347 Clouds 21 1018 56 10000 5.1 70 19:00 03.04.2020
5348 Clouds 21 1018 56 10000 5.1 70 18:41 03.04.2020
5349 Clouds 21 1018 56 10000 5.1 70 18:23 03.04.2020
5350 Clouds 22 1018 53 10000 9.3 70 17:58 03.04.2020
5351 Clouds 22 1018 53 10000 9.3 70 17:39 03.04.2020
5352 Clouds 22 1018 53 10000 9.3 70 17:19 03.04.2020
5353 Clouds 23 1017 47 10000 7.7 30 16:46 03.04.2020
5354 Clouds 24 1017 47 10000 7.7 30 16:22 03.04.2020
5355 Clouds 24 1017 50 10000 6.2 90 15:59 03.04.2020
5356 Clouds 24 1017 50 10000 6.2 90 15:40 03.04.2020
5357 Clouds 25 1017 50 10000 6.2 90 15:21 03.04.2020
5358 Rain 25 1010 35 0 4.58 69 14:56 03.04.2020
5359 Rain 20 1008 70 0 4.02 121 14:38 03.04.2020
5360 Clouds 24 1019 50 10000 7.7 60 14:20 03.04.2020
5361 Clouds 24 1019 50 10000 7.7 60 13:45 03.04.2020
5362 Clouds 24 1019 50 10000 7.7 60 13:26 03.04.2020
5363 Clouds 24 1020 53 10000 9.3 90 12:56 03.04.2020
5364 Clouds 24 1020 53 10000 9.3 90 12:37 03.04.2020
5365 Clouds 24 1021 60 10000 9.3 90 12:18 03.04.2020
5366 Clouds 24 1021 60 10000 9.3 90 11:55 03.04.2020
5367 Clouds 24 1021 60 10000 9.3 90 11:37 03.04.2020
5368 Clouds 23 1021 60 10000 9.3 90 11:18 03.04.2020
5369 Clouds 23 1022 60 10000 5.1 90 10:55 03.04.2020
5370 Clouds 22 1022 60 10000 5.1 90 10:36 03.04.2020
5371 Clouds 22 1022 64 10000 5.1 70 10:18 03.04.2020
5372 Clouds 22 1022 64 10000 5.1 70 09:40 03.04.2020
5373 Clouds 21 1022 64 10000 5.1 70 09:22 03.04.2020
5374 Clouds 19 1021 77 10000 5.1 70 08:59 03.04.2020
5375 Clouds 19 1021 77 10000 5.1 70 08:40 03.04.2020
5376 Clouds 20 1021 77 10000 5.1 70 08:40 03.04.2020
5377 Clouds 20 1021 77 10000 5.1 70 08:22 03.04.2020
5378 Clouds 18 1021 88 10000 4.1 60 07:50 03.04.2020
5379 Clouds 18 1021 88 10000 4.1 60 07:32 03.04.2020
5380 Clouds 17 1020 93 10000 3.6 60 06:55 03.04.2020
5381 Clouds 17 1020 93 10000 3.6 60 06:25 03.04.2020
5382 Clouds 17 1019 93 10000 3.6 90 05:42 03.04.2020
5383 Clouds 16 1019 93 10000 2.6 50 03:47 03.04.2020
5384 Clouds 16 1019 93 10000 2.6 50 03:29 03.04.2020
5385 Clouds 16 1019 100 10000 2.1 20 02:29 03.04.2020
5386 Clouds 17 1020 93 10000 1.5 50 01:24 03.04.2020
5387 Clouds 17 1020 93 10000 2.1 40 00:41 03.04.2020
5388 Clouds 17 1020 93 10000 2.1 40 00:20 03.04.2020
5389 Clouds 18 1021 88 10000 2.1 30 23:43 02.04.2020
5390 Clouds 18 1021 88 10000 2.1 30 23:42 02.04.2020
5391 Clouds 18 1021 88 10000 2.1 30 23:24 02.04.2020
5392 Clouds 18 1021 93 10000 2.1 30 22:59 02.04.2020
5393 Clouds 18 1021 93 10000 2.1 40 22:41 02.04.2020
5394 Rain 19 1020 88 10000 1.94 43 22:21 02.04.2020
5395 Rain 19 1020 88 10000 1.94 43 21:57 02.04.2020
5396 Rain 19 1020 88 10000 1.94 43 21:36 02.04.2020
5397 Rain 19 1020 88 10000 3.89 66 21:18 02.04.2020
5398 Rain 19 1019 82 10000 4.1 60 20:44 02.04.2020
5399 Rain 19 1019 82 10000 4.1 60 20:24 02.04.2020
5400 Clouds 19 1019 77 10000 5.1 70 19:56 02.04.2020
5401 Clouds 20 1019 77 10000 5.1 70 19:37 02.04.2020
5402 Clouds 20 1019 77 10000 5.1 70 19:19 02.04.2020
5403 Clouds 21 1018 64 10000 9.3 60 18:42 02.04.2020
5404 Clouds 22 1018 64 10000 9.3 60 18:21 02.04.2020
5405 Clouds 24 1018 64 10000 6.2 60 17:59 02.04.2020
5406 Clouds 24 1018 64 10000 6.2 60 17:59 02.04.2020
5407 Clouds 24 1018 64 10000 6.2 60 17:40 02.04.2020
5408 Clouds 24 1018 64 10000 6.2 60 17:22 02.04.2020
5409 Clouds 24 1018 47 10000 7.7 60 16:57 02.04.2020
5410 Clouds 24 1018 47 10000 7.7 60 16:39 02.04.2020
5411 Clouds 24 1018 47 10000 7.7 60 16:21 02.04.2020
5412 Clouds 24 1017 50 10000 11.3 60 15:56 02.04.2020
5413 Clouds 24 1017 50 10000 11.3 60 15:38 02.04.2020
5414 Clouds 25 1017 50 10000 11.3 60 15:18 02.04.2020
5415 Clouds 25 1017 50 10000 11.3 60 15:18 02.04.2020
5416 Clouds 26 1018 50 10000 7.7 60 14:55 02.04.2020
5417 Clouds 27 1019 44 10000 8.2 50 14:37 02.04.2020
5418 Clouds 26 1019 50 10000 7.7 50 14:18 02.04.2020
5419 Clouds 26 1020 50 10000 8.7 60 13:40 02.04.2020
5420 Clouds 25 1020 53 10000 7.7 60 13:21 02.04.2020
5421 Clouds 25 1020 53 10000 7.7 60 12:59 02.04.2020
5422 Clouds 25 1020 53 10000 7.7 60 12:41 02.04.2020
5423 Clouds 25 1020 53 10000 7.7 70 12:19 02.04.2020
5424 Clouds 25 1020 53 10000 7.7 60 12:19 02.04.2020
5425 Clouds 25 1020 53 10000 7.7 60 12:19 02.04.2020
5426 Clouds 25 1020 53 10000 7.7 60 12:19 02.04.2020
5427 Clouds 25 1020 53 10000 7.7 70 11:57 02.04.2020
5428 Clouds 24 1020 53 10000 7.7 70 11:38 02.04.2020
5429 Clouds 24 1020 53 10000 7.7 70 11:19 02.04.2020
5430 Clouds 24 1020 53 10000 7.7 70 11:19 02.04.2020
5431 Clouds 24 1021 60 10000 6.2 80 10:55 02.04.2020
5432 Clouds 24 1021 60 10000 6.2 80 10:37 02.04.2020
5433 Clouds 22 1021 82 10000 5.1 70 10:19 02.04.2020
5434 Clouds 21 1021 82 10000 5.1 70 09:56 02.04.2020
5435 Clouds 21 1021 82 10000 5.1 70 09:38 02.04.2020
5436 Clouds 21 1021 82 0 4.1 40 09:19 02.04.2020
5437 Clouds 20 1021 82 0 4.1 40 08:46 02.04.2020
5438 Clouds 20 1021 82 0 4.1 40 08:26 02.04.2020
5439 Clouds 19 1021 88 0 1.89 46 07:45 02.04.2020
5440 Clouds 18 1021 88 0 1.89 46 07:21 02.04.2020
5441 Clouds 17 1020 88 0 1.89 46 06:59 02.04.2020
5442 Clouds 15 1020 100 10000 0.5 0 06:22 02.04.2020
5443 Clear 15 1020 93 10000 1 0 05:45 02.04.2020
5444 Clouds 17 1019 88 10000 3.1 40 04:46 02.04.2020
5445 Clouds 16 1020 100 10000 1 10 01:54 02.04.2020
5446 Clouds 16 1021 93 10000 1.5 330 00:51 02.04.2020
5447 Clouds 17 1021 82 10000 1.56 20 00:29 02.04.2020
5448 Clouds 16 1022 88 10000 1.5 330 23:59 01.04.2020
5449 Clouds 17 1022 88 10000 1.5 360 23:37 01.04.2020
5450 Clouds 17 1022 88 10000 1.5 360 23:18 01.04.2020
5451 Clouds 17 1022 93 10000 3.6 20 22:41 01.04.2020
5452 Clouds 17 1022 93 10000 3.6 20 22:22 01.04.2020
5453 Clouds 17 1022 93 10000 3.1 20 21:58 01.04.2020
5454 Clouds 17 1022 93 10000 3.1 20 21:58 01.04.2020
5455 Clouds 17 1022 88 10000 3.6 30 21:39 01.04.2020
5456 Rain 17 1022 88 10000 3.6 30 21:19 01.04.2020
5457 Rain 17 1022 88 10000 3.6 30 21:19 01.04.2020
5458 Rain 18 1022 82 10000 3.6 30 20:55 01.04.2020
5459 Rain 18 1022 82 10000 2.6 40 20:37 01.04.2020
5460 Rain 19 1021 68 10000 4.1 70 20:18 01.04.2020
5461 Rain 19 1021 68 10000 4.1 70 19:43 01.04.2020
5462 Rain 19 1021 68 10000 4.1 70 19:43 01.04.2020
5463 Clouds 20 1020 64 10000 3.1 80 19:23 01.04.2020
5464 Clouds 20 1020 64 10000 3.1 80 18:59 01.04.2020
5465 Clouds 20 1020 64 10000 3.1 80 18:41 01.04.2020
5466 Clouds 22 1020 64 10000 3.1 80 18:21 01.04.2020
5467 Clouds 23 1019 57 10000 6.2 90 17:56 01.04.2020
5468 Clouds 24 1019 57 10000 6.2 90 17:37 01.04.2020
5469 Clouds 24 1019 57 10000 6.2 90 17:18 01.04.2020
5470 Clouds 22 1020 64 10000 7.7 90 16:54 01.04.2020
5471 Clouds 22 1019 61 10000 7.2 110 16:36 01.04.2020
5472 Clouds 24 1019 42 10000 7.2 70 16:18 01.04.2020
5473 Clouds 25 1019 42 10000 7.2 70 15:42 01.04.2020
5474 Clouds 27 1019 42 10000 7.2 70 15:22 01.04.2020
5475 Clouds 26 1020 44 10000 8.2 40 14:58 01.04.2020
5476 Clouds 26 1020 54 10000 7.2 60 14:39 01.04.2020
5477 Clouds 26 1021 50 10000 10.3 50 14:20 01.04.2020
5478 Clouds 26 1021 50 10000 10.3 50 13:59 01.04.2020
5479 Clouds 26 1021 50 10000 10.3 50 13:38 01.04.2020
5480 Clouds 25 1022 57 10000 5.1 80 13:20 01.04.2020
5481 Clouds 25 1022 57 10000 5.1 80 12:57 01.04.2020
5482 Clouds 25 1022 57 10000 5.1 80 12:37 01.04.2020
5483 Clouds 25 1022 57 10000 5.1 80 12:18 01.04.2020
5484 Clouds 25 1021 53 10000 9.3 40 11:56 01.04.2020
5485 Clouds 25 1021 53 10000 9.3 40 11:37 01.04.2020
5486 Clouds 25 1021 53 10000 9.3 40 11:37 01.04.2020
5487 Clouds 25 1021 53 10000 9.3 40 11:37 01.04.2020
5488 Clouds 24 1021 53 10000 9.3 40 11:18 01.04.2020
5489 Clouds 22 1023 64 10000 4.1 360 10:38 01.04.2020
5490 Clouds 22 1023 64 10000 4.1 360 10:20 01.04.2020
5491 Clouds 22 1023 73 10000 5.1 70 09:58 01.04.2020
5492 Clouds 21 1023 73 10000 5.1 70 09:39 01.04.2020
5493 Clouds 21 1023 73 10000 5.1 70 09:19 01.04.2020
5494 Clouds 19 1023 82 10000 4.1 30 08:44 01.04.2020
5495 Clouds 19 1023 82 10000 4.1 30 08:19 01.04.2020
5496 Clouds 18 1023 93 10000 2.6 70 07:56 01.04.2020
5497 Clouds 18 1023 93 10000 2.6 70 07:38 01.04.2020
5498 Clouds 17 1023 93 10000 2.6 70 07:18 01.04.2020
5499 Fog 16 1021 100 500 1.91 42 06:39 01.04.2020
5500 Fog 16 1021 100 500 1.08 28 06:20 01.04.2020
5501 Clouds 16 1021 93 10000 1.08 28 05:24 01.04.2020
5502 Clouds 16 1021 93 10000 1.5 10 03:39 01.04.2020
5503 Clouds 17 1020 88 10000 1.11 52 02:59 01.04.2020
5504 Clouds 17 1021 88 10000 1.42 36 02:31 01.04.2020
5505 Clouds 16 1021 93 10000 2.1 50 01:49 01.04.2020
5506 Clouds 16 1022 93 10000 2.6 40 01:24 01.04.2020
5507 Clouds 17 1022 93 10000 2.6 40 00:47 01.04.2020
5508 Clouds 18 1021 93 10000 5.1 70 00:22 01.04.2020
5509 Clouds 18 1021 93 10000 5.1 70 23:55 31.03.2020
5510 Clouds 18 1021 93 10000 5.1 70 23:37 31.03.2020
5511 Clouds 17 1023 88 10000 3.1 60 23:19 31.03.2020
5512 Clouds 17 1022 88 10000 2.6 60 22:40 31.03.2020
5513 Clouds 18 1021 88 10000 5.1 50 22:21 31.03.2020
5514 Clouds 18 1021 88 10000 5.1 50 21:58 31.03.2020
5515 Clouds 18 1021 88 10000 5.1 50 21:39 31.03.2020
5516 Clouds 19 1021 88 10000 5.1 50 21:21 31.03.2020
5517 Clouds 19 1020 77 10000 5.1 70 20:57 31.03.2020
5518 Clouds 19 1020 77 10000 5.1 70 20:37 31.03.2020
5519 Clouds 20 1020 73 10000 4.1 70 20:19 31.03.2020
5520 Clouds 20 1020 73 10000 4.1 70 19:55 31.03.2020
5521 Clouds 20 1020 73 10000 4.1 70 19:37 31.03.2020
5522 Clouds 21 1019 64 10000 5.1 60 19:18 31.03.2020
5523 Clouds 21 1019 64 10000 5.1 60 18:43 31.03.2020
5524 Clouds 25 1019 53 10000 7.7 80 18:20 31.03.2020
5525 Clouds 25 1019 53 10000 7.7 80 17:56 31.03.2020
5526 Clouds 25 1019 53 10000 7.7 80 17:56 31.03.2020
5527 Clouds 25 1019 53 10000 7.7 80 17:38 31.03.2020
5528 Clouds 25 1019 53 10000 7.7 80 17:38 31.03.2020
5529 Clouds 25 1019 53 10000 7.7 80 17:20 31.03.2020
5530 Clouds 24 1018 53 10000 10.3 90 16:42 31.03.2020
5531 Clouds 24 1018 53 10000 10.3 90 16:20 31.03.2020
5532 Clouds 25 1018 50 10000 10.3 70 15:59 31.03.2020
5533 Clouds 24 1018 50 10000 10.3 70 15:41 31.03.2020
5534 Clouds 26 1018 50 10000 10.3 70 15:23 31.03.2020
5535 Clouds 26 1019 47 10000 5.1 90 15:00 31.03.2020
5536 Clouds 26 1019 47 10000 5.1 90 15:00 31.03.2020
5537 Clouds 26 1019 47 10000 5.1 90 14:41 31.03.2020
5538 Clouds 26 1020 47 10000 5.1 70 14:22 31.03.2020
5539 Clouds 25 1020 47 10000 5.1 70 13:58 31.03.2020
5540 Clouds 24 1020 54 10000 7.7 70 13:39 31.03.2020
5541 Clouds 25 1021 53 10000 6.2 60 13:19 31.03.2020
5542 Clouds 24 1021 53 10000 6.2 60 12:44 31.03.2020
5543 Clouds 25 1021 53 10000 6.2 60 12:20 31.03.2020
5544 Clouds 25 1021 53 10000 6.2 60 12:20 31.03.2020
5545 Clouds 25 1022 61 10000 5.1 60 11:56 31.03.2020
5546 Clouds 23 1023 69 10000 5.1 60 11:36 31.03.2020
5547 Clouds 23 1023 69 10000 5.1 60 11:18 31.03.2020
5548 Clouds 23 1023 69 10000 5.1 60 10:55 31.03.2020
5549 Clouds 22 1023 69 10000 5.1 60 10:37 31.03.2020
5550 Clouds 22 1023 69 10000 5.1 60 10:37 31.03.2020
5551 Clouds 22 1023 69 10000 5.1 60 10:18 31.03.2020
5552 Clouds 21 1023 73 10000 4.1 70 09:43 31.03.2020
5553 Clouds 21 1023 73 10000 4.1 70 09:24 31.03.2020
5554 Clouds 19 1023 88 10000 3.6 40 08:57 31.03.2020
5555 Clouds 18 1023 88 10000 3.1 60 08:39 31.03.2020
5556 Clouds 19 1021 88 10000 4.1 70 08:19 31.03.2020
5557 Clouds 18 1021 88 10000 4.1 70 07:56 31.03.2020
5558 Clouds 18 1021 88 10000 4.1 70 07:38 31.03.2020
5559 Clouds 18 1021 88 10000 4.1 70 07:19 31.03.2020
5560 Clouds 17 1020 88 10000 1.72 54 06:47 31.03.2020
5561 Clouds 17 1020 88 10000 0.99 15 06:23 31.03.2020
5562 Clouds 17 1020 93 10000 0.99 15 05:40 31.03.2020
5563 Clouds 16 1020 93 10000 3.1 40 03:43 31.03.2020
5564 Clouds 16 1020 93 10000 2.6 30 02:19 31.03.2020
5565 Clouds 17 1020 93 10000 2.6 60 01:45 31.03.2020
5566 Clouds 18 1020 88 10000 1 37 00:51 31.03.2020
5567 Clouds 18 1020 88 10000 1.66 38 00:25 31.03.2020
5568 Clouds 18 1020 88 10000 1.66 38 23:58 30.03.2020
5569 Clouds 18 1021 82 10000 2.1 60 23:38 30.03.2020
5570 Clouds 18 1021 82 10000 2.1 60 23:18 30.03.2020
5571 Clouds 18 1021 82 10000 1.66 38 22:55 30.03.2020
5572 Clouds 18 1021 88 10000 1.5 10 22:36 30.03.2020
5573 Clouds 18 1021 88 10000 1.5 10 22:18 30.03.2020
5574 Clouds 18 1021 88 10000 1 350 21:55 30.03.2020
5575 Clouds 18 1021 88 10000 2.1 10 21:36 30.03.2020
5576 Clouds 18 1021 88 10000 2.1 10 21:18 30.03.2020
5577 Clouds 18 1021 88 10000 2.6 10 20:42 30.03.2020
5578 Clouds 18 1020 88 10000 3.6 60 20:24 30.03.2020
5579 Clouds 18 1020 88 10000 3.6 60 19:59 30.03.2020
5580 Clouds 18 1020 82 10000 3.1 70 19:40 30.03.2020
5581 Clouds 18 1020 82 10000 3.1 70 19:21 30.03.2020
5582 Clouds 18 1019 88 10000 4.1 80 18:56 30.03.2020
5583 Clouds 19 1019 68 10000 5.1 90 18:38 30.03.2020
5584 Clouds 19 1019 68 10000 5.1 90 18:38 30.03.2020
5585 Clouds 23 1018 64 10000 7.7 90 18:19 30.03.2020
5586 Clouds 23 1018 64 10000 7.7 90 17:56 30.03.2020
5587 Clouds 23 1018 64 10000 7.7 90 17:56 30.03.2020
5588 Clouds 23 1018 64 10000 7.7 90 17:37 30.03.2020
5589 Clouds 23 1018 64 10000 7.7 90 17:37 30.03.2020
5590 Clouds 23 1018 64 10000 7.7 90 17:18 30.03.2020
5591 Clouds 24 1017 60 10000 7.7 60 16:54 30.03.2020
5592 Clouds 24 1017 60 10000 7.7 60 16:36 30.03.2020
5593 Clouds 22 1017 60 10000 7.7 60 16:18 30.03.2020
5594 Clouds 23 1016 57 10000 3.62 77 15:41 30.03.2020
5595 Clouds 25 1016 57 10000 4.85 75 15:22 30.03.2020
5596 Clouds 25 1017 57 10000 7.7 60 14:59 30.03.2020
5597 Clouds 25 1017 57 10000 7.7 60 14:39 30.03.2020
5598 Clouds 26 1018 54 10000 7.7 70 14:19 30.03.2020
5599 Clouds 26 1018 54 10000 7.7 70 14:19 30.03.2020
5600 Clouds 26 1018 54 10000 7.7 70 13:58 30.03.2020
5601 Clouds 24 1018 54 10000 7.7 70 13:40 30.03.2020
5602 Clouds 24 1018 54 10000 7.7 70 13:20 30.03.2020
5603 Rain 20 1009 79 0 4.34 73 12:54 30.03.2020
5604 Rain 20 1009 77 0 0.45 84 12:36 30.03.2020
5605 Rain 20 1009 77 0 0.45 84 12:36 30.03.2020
5606 Clouds 24 1020 60 10000 5.1 60 12:18 30.03.2020
5607 Clouds 24 1013 38 0 1.27 61 11:42 30.03.2020
5608 Clouds 23 1021 69 10000 6.2 70 11:24 30.03.2020
5609 Clouds 23 1021 69 10000 6.2 70 10:57 30.03.2020
5610 Clouds 24 1013 38 0 1.27 61 10:38 30.03.2020
5611 Clouds 21 1021 73 10000 4.1 50 10:20 30.03.2020
5612 Clouds 21 1021 73 10000 4.1 50 09:54 30.03.2020
5613 Clouds 21 1021 73 10000 4.1 50 09:36 30.03.2020
5614 Clouds 21 1021 73 10000 4.1 50 09:18 30.03.2020
5615 Clouds 19 1021 82 10000 5.1 60 08:39 30.03.2020
5616 Clouds 19 1021 82 10000 5.1 60 08:20 30.03.2020
5617 Clouds 19 1020 82 10000 3.6 60 07:45 30.03.2020
5618 Clouds 18 1020 82 10000 3.6 60 07:23 30.03.2020
5619 Clouds 16 1020 93 10000 1.05 32 06:47 30.03.2020
5620 Clouds 15 1019 93 10000 1.05 32 06:29 30.03.2020
5621 Clear 13 1012 93 0 0.8 5 05:46 30.03.2020
5622 Clear 13 1011 93 0 0.8 5 04:40 30.03.2020
5623 Clouds 16 1020 93 10000 0.8 5 04:20 30.03.2020
5624 Clouds 16 1020 93 10000 0.67 7 03:19 30.03.2020
5625 Clouds 17 1020 93 10000 0.9 15 01:59 30.03.2020
5626 Clouds 17 1020 93 10000 0.9 15 01:24 30.03.2020
5627 Clouds 17 1021 88 10000 0.9 15 00:30 30.03.2020
5628 Clouds 17 1021 88 10000 1.36 18 23:59 29.03.2020
5629 Clouds 17 1021 88 10000 1.36 18 23:41 29.03.2020
5630 Clouds 17 1021 88 10000 1.36 18 23:22 29.03.2020
5631 Thunderstorm 18 1021 82 10000 7.2 30 22:56 29.03.2020
5632 Thunderstorm 18 1021 82 10000 7.2 30 22:37 29.03.2020
5633 Thunderstorm 18 1021 82 10000 7.2 30 22:18 29.03.2020
5634 Clouds 18 1020 77 10000 1.36 18 21:40 29.03.2020
5635 Clouds 18 1020 77 10000 1.78 49 21:21 29.03.2020
5636 Clouds 18 1020 77 10000 1.78 49 20:56 29.03.2020
5637 Clouds 17 1021 77 10000 2.6 50 20:38 29.03.2020
5638 Clouds 19 1020 68 10000 2.6 60 20:19 29.03.2020
5639 Clouds 19 1020 68 10000 2.6 60 19:59 29.03.2020
5640 Clouds 19 1020 68 10000 2.6 60 19:41 29.03.2020
5641 Clouds 19 1020 68 10000 2.6 60 19:23 29.03.2020
5642 Clouds 20 1018 64 10000 5.1 70 18:57 29.03.2020
5643 Clouds 20 1018 64 10000 5.1 70 18:39 29.03.2020
5644 Clouds 22 1018 64 10000 5.1 70 18:20 29.03.2020
5645 Clouds 24 1018 53 10000 5.1 30 17:56 29.03.2020
5646 Clouds 24 1019 57 10000 5.7 60 17:38 29.03.2020
5647 Clouds 23 1018 47 10000 5.1 70 17:19 29.03.2020
5648 Clouds 23 1018 47 10000 5.1 70 16:57 29.03.2020
5649 Clouds 23 1018 47 10000 5.1 70 16:38 29.03.2020
5650 Clouds 23 1018 47 10000 5.1 70 16:19 29.03.2020
5651 Clouds 23 1018 50 10000 5.1 60 15:43 29.03.2020
5652 Clouds 25 1018 50 10000 5.1 60 15:25 29.03.2020
5653 Clouds 25 1019 47 10000 5.1 70 14:59 29.03.2020
5654 Clouds 25 1019 47 10000 5.1 70 14:40 29.03.2020
5655 Clouds 25 1019 47 10000 5.1 70 14:20 29.03.2020
5656 Clouds 24 1019 53 10000 2.6 70 13:58 29.03.2020
5657 Clouds 24 1019 53 10000 2.6 70 13:40 29.03.2020
5658 Clouds 25 1019 53 10000 2.6 70 13:21 29.03.2020
5659 Clouds 24 1021 44 10000 2.6 90 12:57 29.03.2020
5660 Clouds 24 1021 44 10000 2.6 90 12:38 29.03.2020
5661 Clouds 24 1021 44 10000 2.6 90 12:19 29.03.2020
5662 Clouds 25 1021 44 10000 5.1 60 11:57 29.03.2020
5663 Clouds 25 1021 44 10000 5.1 60 11:37 29.03.2020
5664 Clouds 23 1021 44 10000 5.1 60 11:19 29.03.2020
5665 Clouds 24 1022 57 10000 4.1 20 10:39 29.03.2020
5666 Clouds 21 1022 68 10000 3.6 170 10:19 29.03.2020
5667 Clouds 21 1022 68 10000 3.6 170 09:54 29.03.2020
5668 Clouds 20 1023 68 10000 2.6 190 09:36 29.03.2020
5669 Clouds 20 1021 77 10000 0.33 189 09:18 29.03.2020
5670 Clouds 19 1021 77 10000 0.66 250 08:41 29.03.2020
5671 Clouds 19 1021 77 10000 0.66 250 08:22 29.03.2020
5672 Clouds 16 1021 88 10000 0.66 250 07:45 29.03.2020
5673 Clouds 16 1021 88 10000 0.66 250 07:23 29.03.2020
5674 Clouds 14 1022 93 10000 3.1 290 05:59 29.03.2020
5675 Rain 15 1021 93 10000 3.1 280 04:56 29.03.2020
5676 Rain 15 1023 93 10000 2.6 70 03:41 29.03.2020
5677 Rain 15 1022 93 10000 4.1 50 01:57 29.03.2020
5678 Rain 15 1022 93 10000 4.1 50 01:39 29.03.2020
5679 Rain 15 1022 93 10000 4.1 50 01:20 29.03.2020
5680 Rain 15 1023 93 10000 4.1 20 00:40 29.03.2020
5681 Rain 15 1023 93 10000 6.2 30 00:18 29.03.2020
5682 Clouds 16 1022 93 10000 2.6 310 23:40 28.03.2020
5683 Clouds 16 1022 93 10000 2.6 310 23:40 28.03.2020
5684 Clouds 16 1022 93 10000 3.1 270 23:22 28.03.2020
5685 Clouds 16 1022 93 10000 3.1 270 22:43 28.03.2020
5686 Clouds 16 1022 93 10000 3.1 270 22:22 28.03.2020
5687 Rain 16 1022 93 10000 4.1 270 21:57 28.03.2020
5688 Clouds 16 1021 93 10000 3.1 300 21:39 28.03.2020
5689 Clouds 16 1021 93 10000 3.1 300 21:20 28.03.2020
5690 Clouds 16 1021 93 10000 3.1 300 20:57 28.03.2020
5691 Clouds 16 1021 93 10000 3.1 300 20:38 28.03.2020
5692 Clouds 16 1021 93 10000 3.1 300 20:19 28.03.2020
5693 Rain 16 1021 93 10000 2.1 180 19:55 28.03.2020
5694 Rain 16 1021 93 10000 2.1 180 19:36 28.03.2020
5695 Rain 16 1021 93 10000 2.1 180 19:18 28.03.2020
5696 Clouds 17 1020 93 10000 5.1 270 18:42 28.03.2020
5697 Clouds 17 1021 82 10000 3.1 300 18:20 28.03.2020
5698 Rain 17 1020 82 10000 3.1 290 17:43 28.03.2020
5699 Rain 19 1019 77 3000 7.2 200 17:24 28.03.2020
5700 Rain 19 1019 77 3000 7.2 200 16:59 28.03.2020
5701 Clouds 19 1020 73 10000 6.2 70 16:40 28.03.2020
5702 Clouds 21 1018 69 10000 3.1 170 16:18 28.03.2020
5703 Clouds 21 1018 69 10000 3.1 170 15:55 28.03.2020
5704 Clouds 22 1018 69 10000 3.1 170 15:37 28.03.2020
5705 Clouds 22 1018 69 10000 3.1 170 15:18 28.03.2020
5706 Clouds 23 1018 50 10000 4.1 90 14:41 28.03.2020
5707 Clouds 23 1018 50 10000 4.1 90 14:21 28.03.2020
5708 Clouds 23 1018 50 10000 4.1 90 14:21 28.03.2020
5709 Clouds 23 1019 50 10000 4.1 100 13:43 28.03.2020
5710 Clouds 23 1019 50 10000 4.1 100 13:24 28.03.2020
5711 Clouds 23 1020 50 10000 4.1 80 12:57 28.03.2020
5712 Clouds 23 1020 50 10000 4.1 80 12:37 28.03.2020
5713 Clouds 22 1021 57 10000 4.1 50 12:18 28.03.2020
5714 Clouds 22 1021 57 10000 4.1 50 11:41 28.03.2020
5715 Clouds 22 1021 57 10000 4.1 50 11:21 28.03.2020
5716 Clouds 21 1023 73 10000 3.1 40 10:41 28.03.2020
5717 Clouds 21 1023 73 10000 3.1 40 10:22 28.03.2020
5718 Clouds 21 1023 64 10000 4.1 300 09:59 28.03.2020
5719 Clouds 21 1023 64 10000 4.1 300 09:39 28.03.2020
5720 -273 0 0 0 0 0 09:20 28.03.2020
5721 Clouds 21 1023 64 10000 1.63 212 08:42 28.03.2020
5722 Clouds 21 1023 64 10000 1.86 252 08:23 28.03.2020
5723 Clouds 20 1023 68 10000 2.6 270 07:49 28.03.2020
5724 Clouds 19 1024 77 10000 1 0 07:31 28.03.2020
5725 Clouds 18 1023 82 10000 2.1 250 06:42 28.03.2020
5726 Clouds 17 1022 93 10000 5.1 290 06:18 28.03.2020
5727 Clouds 16 1022 93 10000 5.1 290 05:24 28.03.2020
5728 Clouds 15 1022 87 10000 2.6 230 04:48 28.03.2020
5729 Rain 15 1022 93 10000 2.6 250 04:28 28.03.2020
5730 Rain 15 1021 93 10000 1.5 250 02:46 28.03.2020
5731 Rain 18 1021 93 10000 0.74 270 01:46 28.03.2020
5732 Rain 18 1021 93 10000 0.48 327 01:20 28.03.2020
5733 Clouds 16 1022 93 10000 0.5 0 00:47 28.03.2020
5734 Clouds 16 1022 93 10000 1 0 00:21 28.03.2020
5735 Clouds 17 1023 93 10000 2.1 30 23:43 27.03.2020
5736 Clouds 17 1023 88 10000 1 10 23:24 27.03.2020
5737 Clouds 17 1023 88 10000 1 10 22:57 27.03.2020
5738 Clouds 17 1023 93 10000 2.1 10 22:39 27.03.2020
5739 Clouds 17 1023 88 10000 2.6 30 22:20 27.03.2020
5740 Clouds 17 1023 88 10000 2.6 30 21:57 27.03.2020
5741 Clouds 17 1023 88 10000 3.1 40 21:38 27.03.2020
5742 Clouds 17 1023 88 10000 3.1 40 21:20 27.03.2020
5743 Clouds 17 1023 88 10000 3.1 40 20:55 27.03.2020
5744 Clouds 17 1023 88 10000 3.1 40 20:37 27.03.2020
5745 Clouds 18 1021 77 10000 1.83 50 20:18 27.03.2020
5746 Clouds 18 1021 77 10000 1.83 50 19:42 27.03.2020
5747 Clouds 19 1021 77 10000 1.83 50 19:23 27.03.2020
5748 Clouds 19 1020 73 10000 2.6 70 18:56 27.03.2020
5749 Clouds 19 1020 73 10000 2.6 70 18:38 27.03.2020
5750 Clouds 19 1020 73 10000 2.6 70 18:38 27.03.2020
5751 Clouds 18 1021 73 10000 4.1 70 18:19 27.03.2020
5752 Clouds 19 1020 68 10000 4.6 80 17:40 27.03.2020
5753 Clouds 24 1018 57 10000 5.1 90 17:20 27.03.2020
5754 Clouds 24 1018 57 10000 5.1 90 16:55 27.03.2020
5755 Clouds 24 1019 60 10000 5.1 90 16:37 27.03.2020
5756 Clouds 24 1019 60 10000 5.1 90 16:19 27.03.2020
5757 Clouds 25 1018 50 10000 5.1 80 15:42 27.03.2020
5758 Clouds 25 1018 50 10000 5.1 80 15:24 27.03.2020
5759 Clouds 25 1018 50 10000 5.1 80 14:46 27.03.2020
5760 Clouds 25 1019 50 10000 2.6 360 14:25 27.03.2020
5761 Clouds 25 1019 50 10000 2.6 360 13:57 27.03.2020
5762 Clouds 25 1019 50 10000 2.6 360 13:38 27.03.2020
5763 Clouds 25 1019 50 10000 2.6 360 13:20 27.03.2020
5764 Clouds 24 1020 57 10000 4.1 30 12:57 27.03.2020
5765 Clouds 24 1020 57 10000 3.6 50 12:38 27.03.2020
5766 Clouds 23 1019 56 10000 5.1 60 12:18 27.03.2020
5767 Clouds 23 1019 56 10000 5.1 60 11:41 27.03.2020
5768 Clouds 23 1019 56 10000 5.1 60 11:23 27.03.2020
5769 Clouds 22 1021 64 10000 2.6 330 10:55 27.03.2020
5770 Clouds 22 1021 64 10000 2.6 330 10:37 27.03.2020
5771 Clouds 21 1023 68 10000 2.6 40 10:18 27.03.2020
5772 Clouds 21 1023 68 10000 2.6 40 09:56 27.03.2020
5773 Clouds 21 1023 68 10000 2.6 350 09:37 27.03.2020
5774 Clouds 21 1023 68 10000 2.6 350 09:18 27.03.2020
5775 Clouds 18 1024 88 10000 1 0 08:56 27.03.2020
5776 Rain 24 1013 36 0 2.08 214 08:37 27.03.2020
5777 Rain 20 1016 45 0 1.63 276 08:19 27.03.2020
5778 Rain 20 1016 46 0 1.39 310 07:50 27.03.2020
5779 Clouds 17 1021 93 10000 1.39 310 07:23 27.03.2020
5780 Rain 20 1016 46 0 1.39 310 06:51 27.03.2020
5781 Rain 20 1016 46 0 1.39 310 06:33 27.03.2020
5782 Clouds 16 1022 100 10000 1.78 327 04:23 27.03.2020
5783 Clouds 17 1019 93 10000 1.78 327 02:32 27.03.2020
5784 Rain 16 1013 59 0 1.36 297 01:23 27.03.2020
5785 Rain 17 1012 57 0 0.3 50 00:48 27.03.2020
5786 Rain 17 1012 57 0 0.3 50 00:23 27.03.2020
5787 Rain 17 1012 57 0 0.3 50 23:44 26.03.2020
5788 Rain 17 1021 93 10000 2.1 330 23:22 26.03.2020
5789 Rain 17 1021 93 10000 2.1 330 22:58 26.03.2020
5790 Rain 17 1021 93 10000 2.1 330 22:38 26.03.2020
5791 Rain 17 1021 93 10000 2.1 330 22:19 26.03.2020
5792 Rain 17 1022 93 10000 2.6 200 21:56 26.03.2020
5793 Rain 17 1022 93 10000 2.6 190 21:37 26.03.2020
5794 Thunderstorm 17 1019 93 10000 1.17 36 21:18 26.03.2020
5795 Thunderstorm 17 1019 93 10000 1.17 36 20:56 26.03.2020
5796 Thunderstorm 17 1019 93 10000 1.17 36 20:37 26.03.2020
5797 Thunderstorm 17 1019 93 10000 1.96 62 20:19 26.03.2020
5798 Rain 18 1020 93 10000 2.1 210 19:54 26.03.2020
5799 Rain 18 1020 93 10000 2.1 160 19:36 26.03.2020
5800 Thunderstorm 18 1018 93 10000 3.6 160 19:18 26.03.2020
5801 Thunderstorm 18 1018 93 10000 1.5 180 18:41 26.03.2020
5802 Thunderstorm 18 1018 93 10000 1.5 180 18:23 26.03.2020
5803 Thunderstorm 17 1018 93 10000 5.7 310 17:55 26.03.2020
5804 Thunderstorm 17 1017 93 3000 7.2 330 17:37 26.03.2020
5805 Rain 22 1008 46 0 3.55 77 17:18 26.03.2020
5806 Rain 22 1008 46 0 3.55 77 16:40 26.03.2020
5807 Clouds 25 1014 57 10000 7.2 130 16:21 26.03.2020
5808 Clouds 25 1014 57 10000 7.2 130 15:57 26.03.2020
5809 Clouds 25 1014 57 10000 7.2 130 15:57 26.03.2020
5810 Rain 22 1008 46 0 3.55 77 15:39 26.03.2020
5811 -273 0 0 0 0 0 15:20 26.03.2020
5812 Clouds 27 1014 44 10000 4.1 140 14:57 26.03.2020
5813 Rain 22 1008 46 0 3.55 77 14:37 26.03.2020
5814 Clouds 28 1014 51 10000 2.59 108 14:18 26.03.2020
5815 Clouds 29 1015 45 10000 2.6 0 13:41 26.03.2020
5816 Clouds 27 1016 50 10000 2.6 180 13:22 26.03.2020
5817 Clouds 27 1016 50 10000 2.6 180 12:56 26.03.2020
5818 Clouds 27 1017 51 10000 2.6 0 12:37 26.03.2020
5819 Clouds 26 1017 50 10000 5.1 190 12:18 26.03.2020
5820 Clouds 26 1018 54 10000 2.1 0 11:44 26.03.2020
5821 Clouds 25 1018 57 10000 5.1 240 11:20 26.03.2020
5822 Clouds 25 1018 57 10000 5.1 240 10:55 26.03.2020
5823 Clouds 25 1019 61 10000 3.1 210 10:36 26.03.2020
5824 Clouds 25 1019 57 10000 5.1 210 10:18 26.03.2020
5825 Clouds 24 1019 57 10000 5.1 210 09:42 26.03.2020
5826 Clouds 24 1019 57 10000 5.1 210 09:19 26.03.2020
5827 Clouds 23 1020 64 10000 1 127 08:46 26.03.2020
5828 Clouds 23 1021 73 10000 1.5 0 08:27 26.03.2020
5829 Clouds 22 1020 73 10000 1 0 07:58 26.03.2020
5830 Clouds 21 1020 83 10000 3.1 220 07:40 26.03.2020
5831 Clouds 20 1019 93 10000 0.87 343 07:20 26.03.2020
5832 Clouds 20 1019 93 10000 0.87 343 06:46 26.03.2020
5833 Clouds 18 1018 93 10000 0.87 343 05:52 26.03.2020
5834 Clouds 18 1018 93 10000 2.1 60 03:58 26.03.2020
5835 Clouds 18 1018 93 10000 2.1 60 03:35 26.03.2020
5836 Clouds 18 1019 88 10000 0.42 33 02:53 26.03.2020
5837 Clouds 18 1018 88 10000 3.6 40 01:44 26.03.2020
5838 Clouds 18 1018 88 10000 3.1 30 00:43 26.03.2020
5839 Clouds 19 1019 88 10000 2.6 10 23:45 25.03.2020
5840 Clouds 19 1019 93 10000 2.6 30 23:27 25.03.2020
5841 Clouds 19 1019 93 10000 2.6 30 22:58 25.03.2020
5842 Clouds 19 1019 88 10000 3.1 20 22:38 25.03.2020
5843 Clouds 19 1018 93 10000 4.1 20 22:19 25.03.2020
5844 Clouds 19 1018 93 10000 4.1 20 21:55 25.03.2020
5845 Clouds 20 1019 82 10000 3.1 30 21:37 25.03.2020
5846 Clouds 20 1018 82 10000 2.6 60 21:18 25.03.2020
5847 Clouds 20 1018 82 10000 2.6 60 21:18 25.03.2020
5848 Clouds 20 1019 82 10000 3.1 30 20:40 25.03.2020
5849 Clouds 21 1017 77 10000 5.1 70 20:20 25.03.2020
5850 Clouds 21 1017 77 10000 5.1 70 19:59 25.03.2020
5851 Clouds 20 1018 82 10000 3.1 60 19:41 25.03.2020
5852 Clouds 20 1016 88 10000 3.1 60 19:21 25.03.2020
5853 Clouds 20 1016 88 10000 3.1 60 18:56 25.03.2020
5854 Clouds 21 1017 73 10000 4.1 60 18:37 25.03.2020
5855 Clouds 21 1015 83 10000 2.24 82 18:19 25.03.2020
5856 Clouds 20 1016 82 10000 2.1 250 17:42 25.03.2020
5857 Clouds 21 1015 73 10000 2.24 82 17:23 25.03.2020
5858 Clouds 22 1015 73 10000 3.82 116 16:59 25.03.2020
5859 Clouds 22 1015 73 10000 2.6 140 16:41 25.03.2020
5860 Clouds 22 1015 73 10000 2.6 140 16:21 25.03.2020
5861 Clouds 20 1015 82 10000 3.6 170 15:55 25.03.2020
5862 Clouds 20 1015 82 10000 3.6 170 15:37 25.03.2020
5863 Clouds 18 1015 88 10000 7.2 160 15:18 25.03.2020
5864 Clouds 19 1016 88 10000 8.2 200 14:40 25.03.2020
5865 Clouds 20 1015 83 10000 5.1 210 14:21 25.03.2020
5866 Clouds 20 1015 83 10000 5.1 210 13:46 25.03.2020
5867 Rain 27 1016 44 10000 3.1 80 13:25 25.03.2020
5868 Rain 27 1016 44 10000 3.1 80 12:55 25.03.2020
5869 Clouds 27 1017 47 10000 3.6 90 12:37 25.03.2020
5870 Clouds 26 1018 50 10000 2.1 120 12:18 25.03.2020
5871 Clouds 26 1018 50 10000 2.1 120 11:41 25.03.2020
5872 Clouds 26 1019 53 10000 5.1 80 11:21 25.03.2020
5873 Clouds 26 1018 50 10000 2.1 120 11:21 25.03.2020
5874 Clouds 26 1019 53 10000 5.1 80 10:59 25.03.2020
5875 Clouds 26 1019 54 10000 2.1 150 10:40 25.03.2020
5876 Clouds 25 1019 57 10000 2.6 210 10:19 25.03.2020
5877 Clouds 24 1019 57 10000 2.6 210 09:59 25.03.2020
5878 Clouds 24 1019 57 10000 2.6 210 09:40 25.03.2020
5879 Clouds 24 1019 57 10000 2.6 210 09:22 25.03.2020
5880 Clouds 23 1019 64 10000 2.6 120 08:54 25.03.2020
5881 Clouds 23 1020 69 10000 1.5 80 08:36 25.03.2020
5882 Clouds 22 1020 68 10000 4.1 30 08:18 25.03.2020
5883 Clouds 21 1020 77 10000 1 0 07:39 25.03.2020
5884 Clouds 20 1019 77 10000 0.57 25 07:19 25.03.2020
5885 Clouds 19 1020 88 10000 2.1 30 06:45 25.03.2020
5886 Clouds 18 1019 88 10000 0.57 25 06:25 25.03.2020
5887 Mist 18 1020 93 4000 2.6 30 05:50 25.03.2020
5888 Clouds 17 1019 93 10000 1.21 22 04:59 25.03.2020
5889 Clouds 18 1019 93 10000 1 0 04:39 25.03.2020
5890 Clouds 18 1019 93 10000 0.5 0 03:35 25.03.2020
5891 Clouds 16 1019 93 10000 2.1 290 01:57 25.03.2020
5892 Clouds 16 1019 93 10000 2.6 250 01:20 25.03.2020
5893 Clouds 16 1019 93 10000 3.1 230 00:47 25.03.2020
5894 Clouds 17 1019 93 10000 1.01 23 00:19 25.03.2020
5895 Clouds 17 1020 88 10000 2.1 200 23:45 24.03.2020
5896 Clouds 17 1020 88 10000 2.1 200 23:25 24.03.2020
5897 Clouds 18 1020 88 10000 2.1 230 22:56 24.03.2020
5898 Clouds 19 1020 88 10000 2.1 50 22:37 24.03.2020
5899 Clouds 19 1020 88 10000 2.1 50 22:19 24.03.2020
5900 Clouds 19 1020 88 10000 2.1 50 21:55 24.03.2020
5901 Clouds 19 1021 88 10000 2.6 50 21:36 24.03.2020
5902 Clouds 20 1020 73 10000 2.6 90 21:18 24.03.2020
5903 Clouds 19 1020 88 10000 2.6 60 20:43 24.03.2020
5904 Clouds 19 1020 88 10000 2.1 40 20:24 24.03.2020
5905 Clouds 19 1020 88 10000 2.1 40 19:57 24.03.2020
5906 Clouds 20 1019 82 10000 3.6 80 19:39 24.03.2020
5907 Clouds 21 1018 73 10000 5.1 90 19:18 24.03.2020
5908 Clouds 21 1018 73 10000 5.1 90 18:55 24.03.2020
5909 Clouds 21 1018 73 10000 5.1 90 18:36 24.03.2020
5910 Clouds 21 1018 73 10000 5.1 90 18:18 24.03.2020
5911 Clouds 22 1017 64 10000 5.1 80 17:42 24.03.2020
5912 Clouds 22 1017 64 10000 5.1 80 17:22 24.03.2020
5913 Clouds 22 1018 68 10000 4.6 80 16:58 24.03.2020
5914 Clouds 23 1017 64 10000 5.1 90 16:39 24.03.2020
5915 Clouds 23 1017 64 10000 5.1 90 16:21 24.03.2020
5916 Clouds 22 1017 57 10000 8.7 90 15:57 24.03.2020
5917 Clouds 23 1017 57 10000 8.7 90 15:37 24.03.2020
5918 Clouds 24 1017 57 10000 8.7 90 15:19 24.03.2020
5919 Clouds 24 1017 47 10000 6.7 70 14:42 24.03.2020
5920 Clouds 27 1018 47 10000 6.2 70 14:19 24.03.2020
5921 Clouds 26 1018 54 10000 5.1 60 13:43 24.03.2020
5922 Clouds 26 1018 54 10000 5.1 60 13:24 24.03.2020
5923 Clouds 26 1018 54 10000 6.2 60 12:55 24.03.2020
5924 Clouds 27 1019 51 10000 4.1 100 12:37 24.03.2020
5925 Clouds 26 1020 47 10000 2.6 90 12:18 24.03.2020
5926 Clouds 26 1020 47 10000 2.6 90 11:39 24.03.2020
5927 Clouds 25 1021 50 10000 3.1 60 11:20 24.03.2020
5928 Clouds 25 1020 50 10000 4.1 40 10:43 24.03.2020
5929 Clouds 24 1021 64 10000 2.6 360 10:20 24.03.2020
5930 Clouds 24 1021 64 10000 2.6 360 09:59 24.03.2020
5931 Clouds 23 1021 57 10000 4.1 70 09:41 24.03.2020
5932 Clouds 23 1021 57 10000 4.1 70 09:22 24.03.2020
5933 Clouds 22 1021 64 10000 2.6 30 08:39 24.03.2020
5934 Clouds 22 1021 64 10000 2.6 30 08:21 24.03.2020
5935 Clouds 21 1022 68 10000 3.6 80 07:50 24.03.2020
5936 Clouds 19 1021 77 10000 3.1 70 07:25 24.03.2020
5937 Clouds 19 1022 82 10000 2.1 60 06:58 24.03.2020
5938 Clouds 18 1021 88 10000 1.14 171 06:32 24.03.2020
5939 Clouds 16 1022 93 10000 1 0 05:29 24.03.2020
5940 Clouds 17 1021 63 10000 0.65 269 04:41 24.03.2020
5941 Clouds 17 1021 93 10000 1 350 03:19 24.03.2020
5942 Clouds 17 1021 93 10000 1.02 127 01:59 24.03.2020
5943 Clouds 16 1021 93 10000 1.5 320 00:52 24.03.2020
5944 Clouds 17 1021 93 10000 2.1 30 00:26 24.03.2020
5945 Clouds 17 1022 93 10000 2.1 40 23:50 23.03.2020
5946 Clouds 18 1022 93 10000 2.1 50 23:29 23.03.2020
5947 Clouds 18 1022 88 10000 2.1 40 22:59 23.03.2020
5948 Clouds 17 1022 88 10000 1 20 22:40 23.03.2020
5949 Clouds 18 1022 88 10000 1 20 22:22 23.03.2020
5950 Clouds 17 1022 77 10000 2.6 60 21:44 23.03.2020
5951 Clouds 18 1022 77 10000 3.1 70 21:21 23.03.2020
5952 Clouds 18 1022 77 10000 3.1 70 21:00 23.03.2020
5953 Clouds 18 1022 77 10000 2.6 80 20:41 23.03.2020
5954 Clouds 19 1022 77 10000 2.6 80 20:23 23.03.2020
5955 Clouds 19 1021 77 10000 1.5 60 19:55 23.03.2020
5956 Clouds 19 1021 77 10000 2.1 70 19:37 23.03.2020
5957 Clouds 20 1021 73 10000 2.1 80 19:18 23.03.2020
5958 Clouds 20 1020 64 10000 3.1 80 18:43 23.03.2020
5959 Clouds 20 1020 64 10000 3.1 80 18:24 23.03.2020
5960 Clouds 21 1020 60 10000 4.1 90 17:58 23.03.2020
5961 Clouds 21 1019 64 10000 5.1 70 17:39 23.03.2020
5962 Clouds 21 1019 60 10000 5.7 80 17:19 23.03.2020
5963 Clouds 22 1019 53 10000 7.2 90 16:43 23.03.2020
5964 Clouds 23 1019 53 10000 7.2 90 16:25 23.03.2020
5965 Clouds 25 1018 42 10000 9.3 70 15:44 23.03.2020
5966 Clouds 23 1019 44 10000 5.7 70 15:21 23.03.2020
5967 Clouds 24 1019 44 10000 5.7 70 14:57 23.03.2020
5968 Clouds 24 1019 44 10000 6.2 60 14:37 23.03.2020
5969 Clouds 26 1019 44 10000 6.2 60 14:18 23.03.2020
5970 Clouds 27 1019 42 10000 5.7 50 13:54 23.03.2020
5971 Clouds 27 1019 42 10000 5.7 50 13:54 23.03.2020
5972 Clouds 27 1019 39 10000 6.2 60 13:36 23.03.2020
5973 Clouds 27 1019 39 10000 6.2 60 13:36 23.03.2020
5974 Clouds 26 1019 39 10000 6.2 60 13:18 23.03.2020
5975 Clouds 26 1019 34 10000 6.2 60 12:41 23.03.2020
5976 Clouds 25 1021 44 10000 5.1 40 12:22 23.03.2020
5977 Clouds 25 1022 50 10000 4.1 50 11:55 23.03.2020
5978 Clouds 25 1022 50 10000 4.1 50 11:37 23.03.2020
5979 Clouds 24 1022 53 10000 4.6 60 11:18 23.03.2020
5980 Clouds 24 1023 53 10000 3.1 80 10:41 23.03.2020
5981 Clouds 24 1023 57 10000 2.6 0 10:23 23.03.2020
5982 Clouds 24 1023 57 10000 2.6 0 09:59 23.03.2020
5983 Clouds 23 1023 69 10000 1.5 100 09:40 23.03.2020
5984 Clouds 22 1023 69 10000 1.5 100 09:19 23.03.2020
5985 Clouds 21 1024 68 10000 1.5 0 08:38 23.03.2020
5986 Clouds 20 1024 68 10000 1.5 0 08:19 23.03.2020
5987 Clouds 20 1024 73 10000 1.5 50 07:51 23.03.2020
5988 Clouds 20 1023 77 10000 2.1 50 07:33 23.03.2020
5989 Clouds 18 1024 77 10000 2.1 300 06:55 23.03.2020
5990 Clouds 17 1023 88 10000 2.1 40 06:33 23.03.2020
5991 Clouds 15 1021 93 10000 1.35 36 05:44 23.03.2020
5992 Fog 14 1022 100 800 1 0 03:54 23.03.2020
5993 Clouds 16 1020 82 10000 3.6 100 02:44 23.03.2020
5994 Clouds 16 1020 87 10000 2.1 100 01:50 23.03.2020
5995 Clouds 16 1021 82 10000 2.1 310 00:46 23.03.2020
5996 Clouds 16 1021 82 10000 3.1 340 00:26 23.03.2020
5997 Clouds 17 1022 82 10000 2.6 350 23:42 22.03.2020
5998 Clouds 17 1022 82 10000 2.6 350 23:24 22.03.2020
5999 Clouds 18 1021 77 10000 1.18 80 22:42 22.03.2020
6000 Clouds 18 1021 72 10000 2.6 10 22:21 22.03.2020
6001 Clouds 18 1021 72 10000 2.6 10 21:41 22.03.2020
6002 Clouds 18 1021 72 10000 2.6 10 21:23 22.03.2020
6003 Clouds 18 1022 77 10000 1.5 340 20:59 22.03.2020
6004 Clouds 18 1021 68 10000 2.6 40 20:40 22.03.2020
6005 Clouds 19 1021 68 10000 2.6 40 20:22 22.03.2020
6006 Clouds 18 1022 77 10000 1.5 80 19:56 22.03.2020
6007 Clouds 19 1021 64 10000 3.1 90 19:38 22.03.2020
6008 Clouds 19 1021 64 10000 3.1 90 19:19 22.03.2020
6009 Clouds 20 1021 72 10000 3.6 80 18:58 22.03.2020
6010 Clouds 20 1020 60 10000 5.1 70 18:40 22.03.2020
6011 Clouds 20 1020 60 10000 5.1 70 18:21 22.03.2020
6012 Clouds 20 1021 64 10000 4.6 90 17:57 22.03.2020
6013 Clouds 21 1020 53 10000 5.1 90 17:38 22.03.2020
6014 Clouds 23 1020 56 10000 5.1 70 17:20 22.03.2020
6015 Clouds 23 1020 56 10000 5.1 70 16:57 22.03.2020
6016 Clouds 25 1020 47 10000 5.1 70 16:39 22.03.2020
6017 Clouds 25 1020 47 10000 5.1 70 16:39 22.03.2020
6018 Clouds 25 1020 47 10000 5.1 70 16:20 22.03.2020
6019 Clouds 24 1019 41 10000 5.1 80 15:40 22.03.2020
6020 Clouds 24 1019 41 10000 5.1 80 15:20 22.03.2020
6021 Clouds 24 1019 39 10000 6.7 50 14:46 22.03.2020
6022 Clouds 24 1019 39 10000 6.7 50 14:46 22.03.2020
6023 Clouds 26 1019 39 10000 6.7 50 14:19 22.03.2020
6024 Clouds 26 1019 39 10000 6.7 50 14:19 22.03.2020
6025 Clouds 26 1019 36 10000 8.7 90 13:44 22.03.2020
6026 Clouds 26 1019 36 10000 8.7 90 13:20 22.03.2020
6027 Clouds 26 1019 36 10000 8.7 90 13:20 22.03.2020
6028 Clouds 25 1021 47 10000 6.2 60 12:59 22.03.2020
6029 Clouds 24 1020 41 10000 6.7 70 12:41 22.03.2020
6030 Clouds 24 1022 53 10000 5.7 70 12:19 22.03.2020
6031 Clouds 24 1021 44 10000 7.7 90 11:43 22.03.2020
6032 Clouds 25 1021 44 10000 7.7 90 11:25 22.03.2020
6033 Clouds 23 1023 56 10000 4.6 70 10:58 22.03.2020
6034 Clouds 24 1022 47 10000 3.6 60 10:40 22.03.2020
6035 Clouds 23 1022 47 10000 3.6 60 10:22 22.03.2020
6036 Clouds 22 1024 56 10000 4.6 70 09:46 22.03.2020
6037 Clouds 22 1023 60 10000 6.2 30 09:27 22.03.2020
6038 Clouds 20 1024 73 10000 4.1 60 08:48 22.03.2020
6039 Clouds 20 1023 72 10000 4.6 70 08:30 22.03.2020
6040 Clouds 19 1024 82 10000 4.1 60 07:55 22.03.2020
6041 Clouds 17 1023 88 10000 3.6 50 07:37 22.03.2020
6042 Clouds 17 1021 88 10000 4.1 60 06:41 22.03.2020
6043 Clouds 16 1021 93 10000 2.6 60 05:51 22.03.2020
6044 Clouds 16 1021 93 10000 2.6 80 04:39 22.03.2020
6045 Clouds 15 1021 87 10000 3.1 40 01:47 22.03.2020
6046 Clouds 15 1021 93 10000 1 50 00:50 22.03.2020
6047 Clouds 16 1021 88 10000 1.44 57 00:31 22.03.2020
6048 Clouds 15 1021 82 10000 2.1 350 23:46 21.03.2020
6049 Clouds 15 1021 82 10000 2.1 20 23:22 21.03.2020
6050 Clouds 15 1021 82 10000 2.1 50 22:59 21.03.2020
6051 Clouds 15 1021 77 10000 3.6 100 22:38 21.03.2020
6052 Clouds 16 1021 77 10000 3.6 100 22:38 21.03.2020
6053 Clouds 17 1021 77 10000 3.6 100 22:20 21.03.2020
6054 Clouds 17 1021 77 10000 4.6 100 21:58 21.03.2020
6055 Clouds 15 1021 82 10000 4.6 90 21:38 21.03.2020
6056 Clouds 16 1021 82 10000 4.6 90 21:20 21.03.2020
6057 Clouds 16 1021 82 10000 4.6 80 20:43 21.03.2020
6058 Clouds 17 1021 82 10000 4.6 80 20:22 21.03.2020
6059 Clouds 17 1021 77 10000 5.1 80 19:56 21.03.2020
6060 Clouds 17 1020 77 10000 4.6 90 19:38 21.03.2020
6061 Clouds 18 1020 77 10000 4.6 90 19:19 21.03.2020
6062 Clouds 18 1021 77 10000 3.6 90 18:54 21.03.2020
6063 Clouds 19 1019 68 10000 5.1 90 18:36 21.03.2020
6064 Clouds 19 1020 64 10000 5.7 100 18:18 21.03.2020
6065 Clouds 19 1020 60 10000 6.2 100 17:42 21.03.2020
6066 Clouds 23 1019 53 10000 7.2 100 17:22 21.03.2020
6067 Clouds 24 1018 50 10000 6.2 70 16:43 21.03.2020
6068 Clouds 24 1018 50 10000 6.2 70 16:43 21.03.2020
6069 Clouds 23 1018 50 10000 6.2 70 16:24 21.03.2020
6070 Clouds 23 1018 50 10000 6.2 70 16:24 21.03.2020
6071 Clouds 23 1019 47 10000 7.2 90 15:59 21.03.2020
6072 Clouds 23 1019 47 10000 6.7 90 15:41 21.03.2020
6073 Clouds 23 1019 47 10000 6.7 90 15:23 21.03.2020
6074 Clouds 23 1019 47 10000 7.2 90 14:57 21.03.2020
6075 Clouds 24 1019 44 10000 7.7 90 14:39 21.03.2020
6076 Clouds 26 1019 44 10000 7.7 90 14:20 21.03.2020
6077 Clouds 26 1018 41 10000 8.7 60 13:58 21.03.2020
6078 Clouds 26 1018 41 10000 8.7 60 13:39 21.03.2020
6079 Clouds 26 1018 41 10000 8.7 60 13:21 21.03.2020
6080 Clouds 26 1010 39 0 6.32 76 12:58 21.03.2020
6081 Clouds 26 1010 39 0 6.32 76 12:37 21.03.2020
6082 Clouds 26 1010 39 0 6.32 76 12:19 21.03.2020
6083 Clouds 26 1010 39 0 6.32 76 11:55 21.03.2020
6084 Clouds 26 1010 39 0 6.32 76 11:37 21.03.2020
6085 Clouds 25 1014 43 0 5.91 71 11:18 21.03.2020
6086 Clouds 25 1014 43 0 5.91 71 10:56 21.03.2020
6087 Clouds 25 1014 43 0 5.91 71 10:38 21.03.2020
6088 Clouds 20 1010 62 0 2.24 345 10:19 21.03.2020
6089 Clouds 25 1014 43 0 5.91 71 09:55 21.03.2020
6090 Clouds 25 1014 43 0 5.91 71 09:36 21.03.2020
6091 Clouds 25 1014 43 0 5.91 71 09:18 21.03.2020
6092 Clouds 25 1014 43 0 5.91 71 08:41 21.03.2020
6093 Clouds 25 1014 45 0 5.75 71 08:23 21.03.2020
6094 Clouds 20 1017 74 0 2.77 64 07:42 21.03.2020
6095 Clouds 19 1022 88 10000 5.1 70 07:23 21.03.2020
6096 Clouds 19 1022 88 10000 5.1 70 06:46 21.03.2020
6097 Clouds 19 1022 88 10000 5.1 70 06:27 21.03.2020
6098 Clouds 18 1020 93 0 5.1 90 05:46 21.03.2020
6099 Clouds 18 1020 93 0 4.1 80 04:46 21.03.2020
6100 Clouds 15 1016 96 0 1.29 70 02:48 21.03.2020
6101 Clouds 15 1016 96 0 1.29 70 02:30 21.03.2020
6102 Clouds 16 1014 95 0 1.47 71 01:32 21.03.2020
6103 Clouds 16 1014 95 0 1.47 71 00:48 21.03.2020
6104 Clouds 16 1014 95 0 1.47 71 00:25 21.03.2020
6105 Clouds 16 1014 95 0 1.47 71 23:49 20.03.2020
6106 Clouds 19 1021 88 10000 5.1 50 23:26 20.03.2020
6107 Clouds 19 1021 88 10000 5.1 50 22:57 20.03.2020
6108 Clouds 19 1021 88 10000 5.1 50 22:39 20.03.2020
6109 Clouds 19 1021 88 10000 5.1 50 22:20 20.03.2020
6110 Clouds 19 1021 82 10000 2.1 60 21:55 20.03.2020
6111 Clouds 19 1021 82 10000 2.1 60 21:37 20.03.2020
6112 Clouds 19 1021 82 10000 2.1 60 21:18 20.03.2020
6113 Clouds 18 1022 88 10000 4.1 50 20:55 20.03.2020
6114 Clouds 16 1010 84 0 5.36 99 20:37 20.03.2020
6115 Clouds 16 1010 86 0 3.13 105 20:18 20.03.2020
6116 Clouds 16 1011 84 0 2.68 119 19:44 20.03.2020
6117 Clouds 16 1010 84 0 3.13 82 19:18 20.03.2020
6118 Clouds 18 1020 73 10000 4.6 50 18:54 20.03.2020
6119 Clouds 19 1020 73 10000 4.6 50 18:36 20.03.2020
6120 Clouds 20 1020 73 10000 4.6 50 18:18 20.03.2020
6121 Clouds 20 1020 73 10000 4.6 50 18:18 20.03.2020
6122 Clouds 21 1019 68 10000 9.3 70 17:39 20.03.2020
6123 Clouds 23 1019 68 10000 5.1 80 17:21 20.03.2020
6124 Clouds 23 1019 68 10000 5.1 80 16:57 20.03.2020
6125 Clouds 22 1019 57 10000 9.3 80 16:39 20.03.2020
6126 Clouds 22 1019 57 10000 9.3 80 16:39 20.03.2020
6127 Clouds 23 1019 57 10000 9.3 80 16:18 20.03.2020
6128 Clouds 24 1018 53 10000 6.2 70 15:42 20.03.2020
6129 Clouds 24 1018 53 10000 6.2 70 15:21 20.03.2020
6130 Clouds 24 1019 57 10000 6.2 100 14:55 20.03.2020
6131 Clouds 24 1018 57 10000 4.1 80 14:37 20.03.2020
6132 Clouds 25 1018 57 10000 4.1 80 14:18 20.03.2020
6133 Rain 24 1019 53 10000 9.3 90 13:42 20.03.2020
6134 Clouds 24 1020 50 10000 5.7 60 13:19 20.03.2020
6135 Clouds 26 1020 50 10000 5.7 50 12:40 20.03.2020
6136 Clouds 25 1021 57 10000 5.7 70 12:22 20.03.2020
6137 Clouds 25 1021 57 10000 5.7 70 11:57 20.03.2020
6138 Clouds 24 1021 60 10000 5.7 60 11:38 20.03.2020
6139 Clouds 25 1022 61 10000 5.7 60 11:19 20.03.2020
6140 Clouds 24 1022 53 10000 7.2 90 10:41 20.03.2020
6141 Clouds 24 1022 53 10000 7.2 90 10:21 20.03.2020
6142 Clouds 23 1023 64 10000 5.1 60 09:57 20.03.2020
6143 Clouds 23 1022 64 10000 5.1 80 09:39 20.03.2020
6144 Clouds 22 1022 64 10000 5.1 80 09:19 20.03.2020
6145 Clouds 20 1022 77 10000 6.2 70 08:42 20.03.2020
6146 Clouds 20 1022 77 10000 6.2 70 08:22 20.03.2020
6147 Clouds 19 1023 82 10000 4.6 80 07:54 20.03.2020
6148 Clouds 19 1022 88 10000 5.1 80 07:36 20.03.2020
6149 Clouds 18 1023 93 10000 4.1 70 07:18 20.03.2020
6150 Clouds 18 1021 93 10000 4.1 80 06:41 20.03.2020
6151 Fog 16 1021 100 900 3.6 90 04:51 20.03.2020
6152 Mist 16 1021 100 2000 3.6 90 03:22 20.03.2020
6153 Clouds 16 1020 93 10000 2.6 20 01:58 20.03.2020
6154 Clouds 17 1021 93 10000 3.1 30 00:59 20.03.2020
6155 Clouds 17 1021 93 10000 3.1 30 00:30 20.03.2020
6156 Clouds 17 1022 93 10000 2.1 20 23:47 19.03.2020
6157 Clouds 17 1022 93 10000 2.1 20 23:28 19.03.2020
6158 Clouds 17 1022 93 10000 1.5 10 22:57 19.03.2020
6159 Clouds 18 1022 88 10000 2.1 50 22:38 19.03.2020
6160 Clouds 18 1022 88 10000 2.1 50 22:20 19.03.2020
6161 Clouds 18 1023 88 10000 3.1 40 21:42 19.03.2020
6162 Clouds 18 1022 88 10000 1.5 40 21:20 19.03.2020
6163 Clouds 18 1023 88 10000 3.1 60 20:59 19.03.2020
6164 Clouds 18 1021 82 10000 4.1 70 20:41 19.03.2020
6165 Clouds 19 1021 82 10000 4.1 70 20:23 19.03.2020
6166 Clouds 18 1023 82 10000 3.6 50 19:55 19.03.2020
6167 Clouds 18 1022 82 10000 4.6 70 19:37 19.03.2020
6168 Clouds 19 1022 82 10000 4.6 70 19:19 19.03.2020
6169 Clouds 18 1021 52 10000 3.1 60 18:55 19.03.2020
6170 Clouds 19 1021 52 10000 3.1 60 18:37 19.03.2020
6171 Clouds 19 1021 52 10000 3.1 60 18:37 19.03.2020
6172 Clouds 20 1021 52 10000 3.1 60 18:19 19.03.2020
6173 Clouds 20 1020 68 10000 6.2 80 17:41 19.03.2020
6174 Clouds 22 1020 73 10000 4.6 70 17:19 19.03.2020
6175 Clouds 21 1019 60 10000 5.1 70 16:44 19.03.2020
6176 Clouds 21 1019 60 10000 5.1 70 16:24 19.03.2020
6177 Clouds 22 1019 60 10000 5.1 70 16:24 19.03.2020
6178 Clouds 23 1019 53 10000 9.3 90 15:54 19.03.2020
6179 Clouds 23 1019 53 10000 9.3 90 15:36 19.03.2020
6180 Clouds 23 1019 53 10000 9.3 90 15:18 19.03.2020
6181 Clouds 24 1019 47 10000 4.1 70 14:42 19.03.2020
6182 Clouds 25 1019 47 10000 4.1 70 14:21 19.03.2020
6183 Clouds 26 1019 47 10000 5.1 80 13:41 19.03.2020
6184 Clouds 26 1019 47 10000 5.1 80 13:19 19.03.2020
6185 Clouds 25 1021 50 10000 5.7 60 12:57 19.03.2020
6186 Clouds 24 1021 53 10000 5.1 70 12:39 19.03.2020
6187 Clouds 24 1021 53 10000 5.1 70 12:20 19.03.2020
6188 Clouds 24 1022 57 10000 5.1 50 11:42 19.03.2020
6189 Clouds 24 1022 57 10000 5.1 50 11:23 19.03.2020
6190 Clouds 23 1023 60 10000 4.6 70 10:57 19.03.2020
6191 Clouds 23 1023 64 10000 4.1 80 10:38 19.03.2020
6192 Clouds 22 1023 69 10000 4.6 60 10:19 19.03.2020
6193 Clouds 22 1023 69 10000 4.6 60 09:45 19.03.2020
6194 Clouds 22 1023 68 10000 5.1 60 09:27 19.03.2020
6195 Clouds 20 1024 77 10000 4.1 50 08:58 19.03.2020
6196 Clouds 20 1023 72 10000 4.1 30 08:40 19.03.2020
6197 Clouds 20 1023 72 10000 4.1 30 08:19 19.03.2020
6198 Clouds 18 1023 72 10000 2.1 60 07:44 19.03.2020
6199 Clouds 18 1023 72 10000 2.1 60 07:23 19.03.2020
6200 Clouds 16 1022 88 10000 3.04 40 06:34 19.03.2020
6201 Clouds 15 1023 93 10000 3.1 20 05:47 19.03.2020
6202 Rain 15 1022 93 10000 6.7 10 04:53 19.03.2020
6203 Rain 15 1021 93 10000 2.6 20 04:34 19.03.2020
6204 Clouds 17 1021 93 10000 7.2 10 02:34 19.03.2020
6205 Clouds 17 1021 88 10000 3.1 80 00:57 19.03.2020
6206 Clouds 17 1021 88 10000 1 30 00:22 19.03.2020
6207 Clouds 17 1021 88 10000 1 360 23:48 18.03.2020
6208 Clouds 17 1021 88 10000 1 360 23:27 18.03.2020
6209 Clouds 17 1021 88 10000 3.33 40 22:44 18.03.2020
6210 Clouds 17 1021 88 10000 3.33 40 22:24 18.03.2020
6211 Clouds 18 1022 88 10000 2.1 60 21:59 18.03.2020
6212 Clouds 17 1022 88 10000 3.1 50 21:41 18.03.2020
6213 Clouds 18 1022 88 10000 3.1 50 21:21 18.03.2020
6214 Clouds 18 1022 82 10000 2.1 30 20:57 18.03.2020
6215 Clouds 19 1021 77 10000 3.33 40 20:39 18.03.2020
6216 Rain 19 1021 77 10000 4.16 63 20:20 18.03.2020
6217 Clouds 19 1022 82 10000 4.6 50 19:56 18.03.2020
6218 Clouds 19 1022 82 10000 4.6 50 19:56 18.03.2020
6219 Clouds 19 1021 77 10000 3.6 30 19:36 18.03.2020
6220 Clouds 19 1021 77 10000 3.1 60 19:18 18.03.2020
6221 Clouds 20 1020 68 10000 8.2 30 18:41 18.03.2020
6222 Clouds 19 1021 82 10000 3.6 70 18:20 18.03.2020
6223 Clouds 20 1020 77 10000 4.1 80 17:58 18.03.2020
6224 Clouds 21 1019 64 10000 5.7 80 17:39 18.03.2020
6225 Clouds 22 1019 64 10000 5.7 80 17:21 18.03.2020
6226 Clouds 23 1019 64 10000 6.2 80 16:55 18.03.2020
6227 Clouds 23 1019 53 10000 7.2 70 16:37 18.03.2020
6228 Clouds 23 1019 53 10000 7.2 70 16:19 18.03.2020
6229 Clouds 23 1018 47 10000 8.2 80 15:44 18.03.2020
6230 Clouds 24 1018 47 10000 8.2 80 15:20 18.03.2020
6231 Clouds 25 1017 41 10000 10.3 80 14:45 18.03.2020
6232 Clouds 27 1018 44 10000 7.2 70 14:22 18.03.2020
6233 Clouds 25 1018 44 10000 7.2 70 13:58 18.03.2020
6234 Clouds 26 1018 47 10000 6.7 50 13:36 18.03.2020
6235 Clouds 26 1018 44 10000 8.2 40 13:18 18.03.2020
6236 Clouds 25 1020 57 10000 6.2 70 12:41 18.03.2020
6237 Clouds 25 1020 57 10000 6.2 70 12:19 18.03.2020
6238 Clouds 26 1020 47 10000 5.1 60 11:40 18.03.2020
6239 Clouds 24 1022 61 10000 5.7 70 11:21 18.03.2020
6240 Clouds 24 1022 61 10000 5.7 70 10:58 18.03.2020
6241 Clouds 23 1022 64 10000 5.1 60 10:39 18.03.2020
6242 Clouds 23 1022 64 10000 5.1 60 10:20 18.03.2020
6243 Clouds 22 1022 64 10000 5.1 60 09:44 18.03.2020
6244 Clouds 22 1022 68 10000 6.2 60 09:26 18.03.2020
6245 Clouds 21 1023 73 10000 4.6 90 08:58 18.03.2020
6246 Clouds 21 1022 73 10000 4.1 50 08:39 18.03.2020
6247 Clouds 21 1022 73 10000 4.1 50 08:21 18.03.2020
6248 Clouds 19 1021 82 10000 5.1 90 07:49 18.03.2020
6249 Clouds 19 1021 82 10000 5.1 90 07:30 18.03.2020
6250 Clouds 16 1021 93 10000 4.6 90 06:45 18.03.2020
6251 Clouds 17 1021 93 10000 4.6 90 06:23 18.03.2020
6252 Clouds 17 1020 93 10000 5.1 80 05:35 18.03.2020
6253 Clouds 17 1020 93 10000 4.1 70 04:27 18.03.2020
6254 Clouds 17 1020 88 10000 4.1 90 02:49 18.03.2020
6255 Clouds 18 1019 93 10000 4.1 80 01:48 18.03.2020
6256 Clouds 18 1019 93 10000 4.1 80 01:27 18.03.2020
6257 Clouds 18 1021 93 10000 2.6 80 00:26 18.03.2020
6258 Clouds 18 1021 88 10000 2.6 20 23:57 17.03.2020
6259 Clouds 18 1021 88 10000 2.6 10 23:37 17.03.2020
6260 Clouds 18 1021 88 10000 2.6 20 23:18 17.03.2020
6261 Clouds 19 1021 82 10000 4.1 60 22:41 17.03.2020
6262 Clouds 19 1021 82 10000 4.1 60 22:22 17.03.2020
6263 Clouds 18 1022 88 10000 2.6 20 21:42 17.03.2020
6264 Clouds 18 1022 88 10000 2.6 20 21:22 17.03.2020
6265 Clouds 19 1020 88 10000 2.1 60 20:41 17.03.2020
6266 Clouds 19 1020 88 10000 2.1 60 20:23 17.03.2020
6267 Clouds 19 1021 82 10000 4.6 70 19:59 17.03.2020
6268 Clouds 20 1020 77 10000 2.6 50 19:40 17.03.2020
6269 Clouds 20 1020 77 10000 2.6 50 19:18 17.03.2020
6270 Clouds 20 1020 77 10000 3.6 50 18:56 17.03.2020
6271 Clouds 20 1018 73 10000 3.6 40 18:38 17.03.2020
6272 Clouds 20 1018 73 10000 3.6 40 18:38 17.03.2020
6273 Clouds 20 1019 73 10000 4.6 50 18:20 17.03.2020
6274 Clouds 21 1018 64 10000 4.1 20 17:41 17.03.2020
6275 Clouds 21 1018 64 10000 4.1 20 17:41 17.03.2020
6276 Clouds 21 1018 64 10000 4.1 20 17:41 17.03.2020
6277 Clouds 23 1018 60 10000 8.2 60 17:22 17.03.2020
6278 Clouds 23 1018 60 10000 8.2 60 16:56 17.03.2020
6279 Clouds 24 1017 57 10000 5.1 20 16:38 17.03.2020
6280 Clouds 24 1017 57 10000 5.1 20 16:18 17.03.2020
6281 Clouds 26 1016 50 10000 10.3 60 15:43 17.03.2020
6282 Clouds 24 1016 50 10000 10.3 60 15:21 17.03.2020
6283 Clouds 25 1016 47 10000 7.7 60 14:44 17.03.2020
6284 Clouds 27 1016 47 10000 7.7 60 14:21 17.03.2020
6285 Clouds 27 1017 51 10000 6.7 50 13:46 17.03.2020
6286 Clouds 27 1017 47 10000 7.7 70 13:28 17.03.2020
6287 Clouds 26 1018 54 10000 6.7 50 12:59 17.03.2020
6288 Clouds 26 1018 54 10000 4.1 70 12:40 17.03.2020
6289 Clouds 26 1018 54 10000 4.1 70 12:22 17.03.2020
6290 Clouds 26 1019 54 10000 6.2 50 11:47 17.03.2020
6291 Clouds 25 1019 57 10000 5.1 60 11:29 17.03.2020
6292 Clouds 25 1020 57 10000 5.1 50 10:58 17.03.2020
6293 Clouds 25 1020 53 10000 5.1 60 10:38 17.03.2020
6294 Clouds 23 1021 64 10000 5.1 60 10:20 17.03.2020
6295 Clouds 23 1021 64 10000 5.1 60 09:59 17.03.2020
6296 Clouds 24 1021 57 10000 4.1 90 09:40 17.03.2020
6297 Clouds 24 1021 57 10000 4.1 90 09:19 17.03.2020
6298 Clouds 22 1021 73 10000 5.1 60 08:48 17.03.2020
6299 Clouds 22 1021 73 10000 5.1 60 08:23 17.03.2020
6300 Clouds 21 1022 78 10000 4.1 70 07:50 17.03.2020
6301 Clouds 21 1021 83 10000 2.6 60 07:28 17.03.2020
6302 Clouds 20 1022 88 10000 2.1 50 06:59 17.03.2020
6303 Clouds 19 1021 82 10000 4.1 60 06:34 17.03.2020
6304 Clouds 19 1021 82 10000 1.5 90 05:56 17.03.2020
6305 Clouds 18 1019 88 10000 1.5 350 03:56 17.03.2020
6306 Clouds 18 1018 88 10000 1.5 70 02:46 17.03.2020
6307 Clouds 18 1019 88 10000 2.6 350 01:49 17.03.2020
6308 Clouds 18 1018 82 10000 2.35 43 01:25 17.03.2020
6309 Clouds 18 1019 88 10000 3.6 330 00:46 17.03.2020
6310 Clouds 18 1020 82 10000 2.1 40 23:48 16.03.2020
6311 Clouds 19 1020 82 10000 1 360 23:30 16.03.2020
6312 Clouds 19 1020 73 10000 2.95 60 22:42 16.03.2020
6313 Clouds 19 1020 73 10000 2.95 60 22:24 16.03.2020
6314 Clouds 20 1021 68 10000 2.6 40 21:58 16.03.2020
6315 Clouds 20 1019 64 10000 2.1 40 21:40 16.03.2020
6316 Clouds 20 1019 64 10000 2.1 40 21:22 16.03.2020
6317 Clouds 21 1020 77 10000 3.1 350 20:56 16.03.2020
6318 Clouds 21 1019 64 10000 2.6 10 20:37 16.03.2020
6319 Clouds 21 1019 64 10000 2.6 10 20:19 16.03.2020
6320 Clouds 21 1018 64 10000 4.1 70 19:41 16.03.2020
6321 Clouds 21 1018 64 10000 4.1 70 19:21 16.03.2020
6322 Clouds 21 1019 73 10000 5.1 50 18:56 16.03.2020
6323 Clouds 21 1017 64 10000 4.1 50 18:37 16.03.2020
6324 Clouds 21 1018 68 10000 5.1 50 18:18 16.03.2020
6325 Clouds 22 1016 60 10000 6.2 60 17:42 16.03.2020
6326 Clouds 22 1016 60 10000 6.2 60 17:22 16.03.2020
6327 Clouds 24 1017 57 10000 6.7 70 16:45 16.03.2020
6328 Clouds 25 1015 47 10000 7.2 70 16:27 16.03.2020
6329 Clouds 25 1016 51 10000 6.7 50 15:56 16.03.2020
6330 Clouds 26 1014 44 10000 6.2 70 15:37 16.03.2020
6331 Clouds 26 1014 44 10000 6.2 70 15:18 16.03.2020
6332 Clouds 27 1015 37 10000 8.2 90 14:39 16.03.2020
6333 Clouds 27 1016 45 10000 6.2 60 14:19 16.03.2020
6334 Clouds 27 1016 34 10000 8.2 80 13:41 16.03.2020
6335 Clouds 27 1016 34 10000 8.2 80 13:22 16.03.2020
6336 Clouds 27 1017 39 10000 6.2 30 12:45 16.03.2020
6337 Clouds 27 1017 39 10000 6.2 30 12:26 16.03.2020
6338 Clouds 27 1018 42 10000 5.1 50 11:58 16.03.2020
6339 Clouds 27 1018 42 10000 7.2 50 11:39 16.03.2020
6340 Clouds 25 1020 57 10000 4.6 40 11:18 16.03.2020
6341 Clouds 26 1019 54 10000 4.1 90 10:41 16.03.2020
6342 Clouds 26 1019 54 10000 4.1 90 10:19 16.03.2020
6343 Clouds 24 1019 61 10000 5.1 50 09:44 16.03.2020
6344 Clouds 24 1019 61 10000 5.1 50 09:24 16.03.2020
6345 Clouds 22 1019 73 10000 4.6 60 08:54 16.03.2020
6346 Clouds 21 1020 77 10000 3.6 60 08:25 16.03.2020
6347 Clouds 21 1020 77 10000 3.6 60 07:50 16.03.2020
6348 Clouds 20 1021 94 10000 3.1 40 07:27 16.03.2020
6349 Fog 19 1021 93 7000 2.1 50 06:54 16.03.2020
6350 Clouds 19 1020 88 10000 2.6 30 06:26 16.03.2020
6351 Fog 17 1020 100 400 2.6 80 05:50 16.03.2020
6352 Clouds 18 1018 93 10000 1.61 43 02:45 16.03.2020
6353 Clouds 18 1018 88 10000 2.7 35 01:20 16.03.2020
6354 Clouds 19 1019 93 10000 2.7 35 00:40 16.03.2020
6355 Clouds 19 1019 88 10000 2.7 35 23:48 15.03.2020
6356 Clouds 19 1019 88 10000 2.09 40 23:20 15.03.2020
6357 Clouds 19 1019 83 10000 2.09 40 22:43 15.03.2020
6358 Clouds 20 1019 83 10000 2.09 40 22:23 15.03.2020
6359 Clouds 20 1021 88 10000 2.6 80 21:59 15.03.2020
6360 Clouds 20 1020 83 10000 2.09 40 21:38 15.03.2020
6361 Clouds 20 1020 83 10000 2.09 40 21:19 15.03.2020
6362 Clouds 20 1020 83 10000 3.1 70 20:43 15.03.2020
6363 Clouds 20 1020 83 10000 4.6 70 20:22 15.03.2020
6364 Clouds 20 1019 83 10000 3.6 50 19:58 15.03.2020
6365 Clouds 20 1018 73 10000 3.6 60 19:40 15.03.2020
6366 Clouds 20 1019 83 10000 3.1 70 19:21 15.03.2020
6367 Clouds 21 1019 83 10000 3.1 70 18:56 15.03.2020
6368 Clouds 21 1017 60 10000 5.1 80 18:38 15.03.2020
6369 Clouds 21 1017 60 10000 5.1 80 18:20 15.03.2020
6370 Clouds 21 1018 64 10000 6.2 70 17:41 15.03.2020
6371 Clouds 25 1018 64 10000 6.2 70 17:22 15.03.2020
6372 Clouds 25 1017 57 10000 6.7 70 16:59 15.03.2020
6373 Clouds 26 1016 50 10000 6.7 70 16:40 15.03.2020
6374 Clouds 26 1016 50 10000 6.7 70 16:21 15.03.2020
6375 Clouds 27 1017 47 10000 6.7 60 15:54 15.03.2020
6376 Clouds 25 1016 44 10000 6.2 50 15:36 15.03.2020
6377 Clouds 25 1016 44 10000 6.2 50 15:18 15.03.2020
6378 Clouds 26 1016 42 10000 6.2 80 14:39 15.03.2020
6379 Clouds 28 1016 42 10000 6.2 80 14:21 15.03.2020
6380 Clouds 28 1017 45 10000 6.2 80 13:56 15.03.2020
6381 Clouds 27 1017 37 10000 5.1 40 13:37 15.03.2020
6382 Clouds 27 1017 37 10000 5.1 40 13:18 15.03.2020
6383 Clouds 25 1019 47 10000 5.1 60 12:40 15.03.2020
6384 Clouds 26 1019 47 10000 5.1 60 12:22 15.03.2020
6385 Clouds 26 1019 42 10000 4.1 80 11:44 15.03.2020
6386 Clouds 27 1019 42 10000 4.1 80 11:25 15.03.2020
6387 Clouds 25 1020 50 10000 4.1 70 10:59 15.03.2020
6388 Clouds 25 1020 41 10000 5.1 70 10:40 15.03.2020
6389 Clouds 25 1020 41 10000 5.1 70 10:21 15.03.2020
6390 Clouds 25 1021 57 10000 2.6 90 09:59 15.03.2020
6391 Clouds 24 1020 57 10000 3.1 70 09:38 15.03.2020
6392 Clouds 24 1020 57 10000 3.1 70 09:19 15.03.2020
6393 Mist 23 1021 60 10000 2.6 110 08:41 15.03.2020
6394 Mist 23 1021 60 10000 2.6 110 08:19 15.03.2020
6395 Clouds 21 1022 69 10000 2.6 80 07:48 15.03.2020
6396 Clouds 18 1022 93 10000 1.5 200 07:22 15.03.2020
6397 Fog 18 1021 93 600 2.43 23 06:43 15.03.2020
6398 Mist 16 1021 93 5000 1.5 240 05:48 15.03.2020
6399 Mist 16 1021 93 4000 1.5 200 04:57 15.03.2020
6400 Mist 16 1020 88 4000 1.5 0 04:38 15.03.2020
6401 Mist 17 1020 88 4000 1.5 0 04:20 15.03.2020
6402 Clouds 17 1020 93 10000 1.5 60 03:19 15.03.2020
6403 Clouds 18 1019 88 10000 1.92 35 02:22 15.03.2020
6404 Clouds 17 1021 88 10000 2.6 10 00:59 15.03.2020
6405 Clouds 18 1021 88 10000 2.6 10 00:40 15.03.2020
6406 Clouds 18 1021 88 10000 2.6 10 00:19 15.03.2020
6407 Clouds 19 1021 82 10000 2.6 20 23:39 14.03.2020
6408 Clouds 19 1021 82 10000 2.6 40 23:20 14.03.2020
6409 Clouds 19 1021 82 10000 2.6 40 22:56 14.03.2020
6410 Clouds 19 1021 88 10000 1.5 70 22:37 14.03.2020
6411 Clouds 19 1021 88 10000 1.5 70 22:37 14.03.2020
6412 Clouds 19 1021 88 10000 1.5 70 22:19 14.03.2020
6413 Clouds 19 1022 82 10000 3.1 70 21:55 14.03.2020
6414 Clouds 20 1021 73 10000 4.1 70 21:36 14.03.2020
6415 Clouds 20 1021 73 10000 4.1 70 21:18 14.03.2020
6416 Clouds 19 1022 82 10000 2.6 40 20:56 14.03.2020
6417 Clouds 19 1022 82 10000 2.6 40 20:56 14.03.2020
6418 Clouds 19 1020 73 10000 2.6 30 20:38 14.03.2020
6419 Clouds 20 1020 73 10000 2.6 30 20:18 14.03.2020
6420 Clouds 19 1021 73 10000 3.1 20 19:41 14.03.2020
6421 Clouds 20 1021 73 10000 3.1 20 19:20 14.03.2020
6422 Clouds 21 1020 68 10000 4.1 40 18:40 14.03.2020
6423 Clouds 21 1020 68 10000 4.1 60 18:21 14.03.2020
6424 Clouds 21 1019 60 10000 5.1 70 17:43 14.03.2020
6425 Clouds 23 1019 60 10000 5.1 70 17:24 14.03.2020
6426 Clouds 24 1019 60 10000 5.7 70 16:59 14.03.2020
6427 Clouds 24 1018 57 10000 5.1 90 16:39 14.03.2020
6428 Clouds 25 1019 57 10000 5.7 60 16:20 14.03.2020
6429 Clouds 25 1019 57 10000 5.7 60 15:48 14.03.2020
6430 Clouds 26 1018 50 10000 7.7 60 15:25 14.03.2020
6431 Clouds 27 1018 47 10000 4.1 90 14:45 14.03.2020
6432 Clouds 26 1019 54 10000 5.1 0 14:23 14.03.2020
6433 Clouds 26 1019 54 10000 5.1 0 13:57 14.03.2020
6434 Clouds 26 1019 54 10000 5.1 0 13:39 14.03.2020
6435 Clouds 26 1019 54 10000 5.1 0 13:20 14.03.2020
6436 Clouds 21 1009 76 0 0.45 318 12:44 14.03.2020
6437 Clouds 24 1021 50 10000 2.6 30 12:26 14.03.2020
6438 Clouds 24 1021 50 10000 2.6 30 11:48 14.03.2020
6439 Clouds 24 1021 50 10000 2.6 30 11:28 14.03.2020
6440 Clouds 24 1022 61 10000 5.7 70 10:59 14.03.2020
6441 Clouds 24 1021 57 10000 5.1 90 10:41 14.03.2020
6442 Clouds 24 1021 57 10000 5.1 90 10:23 14.03.2020
6443 Clouds 23 1023 64 10000 3.6 20 09:44 14.03.2020
6444 Clouds 22 1022 69 10000 3.6 60 09:24 14.03.2020
6445 Clouds 21 1023 78 10000 4.1 50 08:48 14.03.2020
6446 Clouds 21 1022 73 10000 6.2 50 08:29 14.03.2020
6447 Clouds 20 1023 83 10000 3.6 60 07:55 14.03.2020
6448 Clouds 20 1022 82 10000 3.6 70 07:37 14.03.2020
6449 Clouds 19 1022 82 10000 3.6 70 07:19 14.03.2020
6450 Clouds 18 1021 88 10000 2.09 17 06:40 14.03.2020
6451 Clouds 17 1022 93 10000 1 0 05:24 14.03.2020
6452 Clouds 17 1021 88 10000 1 180 03:46 14.03.2020
6453 Clouds 18 1021 88 10000 0.84 321 03:24 14.03.2020
6454 Clouds 18 1020 82 10000 0.84 321 02:22 14.03.2020
6455 Clouds 18 1021 88 10000 1 20 00:46 14.03.2020
6456 Clouds 17 1022 88 10000 2.1 30 23:46 13.03.2020
6457 Clouds 18 1022 88 10000 2.1 30 23:28 13.03.2020
6458 Clouds 19 1023 82 10000 2.1 50 22:49 13.03.2020
6459 Clouds 19 1022 77 10000 3.1 80 22:26 13.03.2020
6460 Clouds 18 1023 82 10000 2.6 60 21:44 13.03.2020
6461 Clouds 19 1022 82 10000 3.6 70 21:22 13.03.2020
6462 Clouds 19 1022 82 10000 3.6 70 20:59 13.03.2020
6463 Clouds 19 1022 77 10000 2.6 60 20:40 13.03.2020
6464 Clouds 20 1022 77 10000 2.6 60 20:20 13.03.2020
6465 Clouds 20 1021 77 10000 3.6 40 19:48 13.03.2020
6466 Clouds 20 1020 73 10000 4.1 70 19:30 13.03.2020
6467 Clouds 20 1021 73 10000 3.6 40 18:49 13.03.2020
6468 Clouds 21 1019 68 10000 7.2 50 18:31 13.03.2020
6469 Clouds 21 1020 68 10000 5.1 50 17:57 13.03.2020
6470 Clouds 21 1018 60 10000 5.7 60 17:38 13.03.2020
6471 Clouds 23 1018 60 10000 5.7 60 17:20 13.03.2020
6472 Clouds 24 1018 57 10000 7.2 70 16:42 13.03.2020
6473 Clouds 23 1018 57 10000 7.2 70 16:24 13.03.2020
6474 Clouds 23 1018 60 10000 6.2 70 15:56 13.03.2020
6475 Clouds 23 1018 53 10000 6.7 70 15:37 13.03.2020
6476 Clouds 23 1018 53 10000 6.7 70 15:19 13.03.2020
6477 Clouds 25 1017 53 10000 7.7 70 14:41 13.03.2020
6478 Clouds 26 1018 54 10000 6.7 70 14:22 13.03.2020
6479 Clouds 26 1018 54 10000 6.7 70 13:57 13.03.2020
6480 Clouds 25 1019 53 10000 6.2 70 13:39 13.03.2020
6481 Clouds 26 1019 54 10000 5.1 70 13:19 13.03.2020
6482 Clouds 26 1019 54 10000 5.1 70 12:54 13.03.2020
6483 Clouds 24 1019 54 10000 6.2 70 12:36 13.03.2020
6484 Clouds 25 1019 54 10000 6.2 70 12:18 13.03.2020
6485 Clouds 25 1021 57 10000 5.7 70 11:42 13.03.2020
6486 Clouds 25 1021 57 10000 5.7 70 11:24 13.03.2020
6487 Clouds 25 1021 53 10000 5.1 60 10:57 13.03.2020
6488 Clouds 23 1021 60 10000 4.6 60 10:38 13.03.2020
6489 Clouds 23 1021 60 10000 4.6 60 10:20 13.03.2020
6490 Clouds 23 1021 64 10000 3.1 50 09:43 13.03.2020
6491 Clouds 22 1022 69 10000 5.7 60 09:24 13.03.2020
6492 Clouds 21 1022 73 10000 4.1 40 08:46 13.03.2020
6493 Clouds 20 1022 77 10000 5.1 50 08:23 13.03.2020
6494 Clouds 20 1022 77 10000 5.1 50 07:58 13.03.2020
6495 Clouds 20 1022 82 10000 5.1 60 07:38 13.03.2020
6496 Clouds 20 1022 88 10000 4.6 60 07:18 13.03.2020
6497 Clouds 18 1021 93 10000 3.1 40 06:43 13.03.2020
6498 Clouds 18 1021 93 10000 2.6 40 05:56 13.03.2020
6499 Clouds 18 1021 93 10000 2.6 50 05:37 13.03.2020
6500 Clouds 17 1020 93 10000 3.1 70 04:38 13.03.2020
6501 Clouds 18 1020 88 10000 2.6 50 03:46 13.03.2020
6502 Clouds 17 1019 93 10000 2.1 350 01:48 13.03.2020
6503 Clouds 18 1019 93 10000 2.1 350 01:19 13.03.2020
6504 Clouds 18 1019 88 10000 2.6 10 00:56 13.03.2020
6505 Clouds 18 1020 88 10000 1.5 10 00:29 13.03.2020
6506 Clouds 18 1020 88 10000 2.1 30 23:59 12.03.2020
6507 Clouds 18 1021 88 10000 2.6 40 23:29 12.03.2020
6508 Clouds 18 1021 88 10000 2.1 50 22:58 12.03.2020
6509 Clouds 17 1021 88 10000 2.1 40 22:40 12.03.2020
6510 Clouds 18 1021 88 10000 2.1 40 22:22 12.03.2020
6511 Clouds 18 1020 82 10000 2.1 60 21:46 12.03.2020
6512 Clouds 18 1020 82 10000 2.1 60 21:28 12.03.2020
6513 Clouds 19 1021 82 10000 3.1 70 20:59 12.03.2020
6514 Clouds 18 1020 82 10000 3.6 40 20:40 12.03.2020
6515 Clouds 19 1020 82 10000 3.6 40 20:19 12.03.2020
6516 Clouds 19 1020 77 10000 3.6 30 19:42 12.03.2020
6517 Clouds 19 1020 77 10000 3.6 30 19:21 12.03.2020
6518 Clouds 19 1019 73 10000 3.6 50 18:45 12.03.2020
6519 Clouds 20 1019 73 10000 3.6 50 18:25 12.03.2020
6520 Clouds 21 1019 68 10000 4.6 60 17:57 12.03.2020
6521 Clouds 21 1018 68 10000 4.1 60 17:39 12.03.2020
6522 Clouds 21 1018 68 10000 4.1 60 17:21 12.03.2020
6523 Clouds 23 1018 69 10000 6.7 60 16:58 12.03.2020
6524 Clouds 23 1017 69 10000 7.7 60 16:38 12.03.2020
6525 Clouds 21 1017 57 10000 8.2 70 16:19 12.03.2020
6526 Clouds 22 1017 57 10000 9.8 70 15:45 12.03.2020
6527 Clouds 23 1017 57 10000 9.8 70 15:27 12.03.2020
6528 Clouds 24 1016 47 10000 5.1 60 14:43 12.03.2020
6529 Clouds 24 1016 47 10000 5.1 60 14:24 12.03.2020
6530 Clouds 26 1017 50 10000 6.7 60 13:57 12.03.2020
6531 Clouds 26 1017 47 10000 8.2 70 13:37 12.03.2020
6532 Clouds 26 1017 47 10000 8.2 70 13:19 12.03.2020
6533 Clouds 26 1018 44 10000 8.2 40 12:41 12.03.2020
6534 Clouds 26 1018 44 10000 8.2 40 12:22 12.03.2020
6535 Clouds 25 1019 57 10000 5.7 40 11:58 12.03.2020
6536 Clouds 23 1020 60 10000 6.2 40 11:39 12.03.2020
6537 Clouds 23 1020 60 10000 6.2 40 11:20 12.03.2020
6538 Clouds 24 1020 53 10000 6.7 40 10:59 12.03.2020
6539 Clouds 23 1021 57 10000 7.7 40 10:41 12.03.2020
6540 Clouds 23 1021 57 10000 7.7 40 10:22 12.03.2020
6541 Clouds 23 1020 60 10000 5.1 30 09:48 12.03.2020
6542 Clouds 23 1020 60 10000 5.1 30 09:28 12.03.2020
6543 Clouds 23 1020 60 10000 5.1 30 09:28 12.03.2020
6544 Clouds 22 1022 69 10000 5.7 40 08:54 12.03.2020
6545 Clouds 21 1021 77 10000 4.1 20 08:36 12.03.2020
6546 Clouds 20 1022 83 10000 4.6 40 08:18 12.03.2020
6547 Clouds 20 1021 77 10000 3.1 40 07:45 12.03.2020
6548 Clouds 20 1021 77 10000 3.1 40 07:21 12.03.2020
6549 Clouds 17 1021 93 10000 3.1 10 05:57 12.03.2020
6550 Clouds 17 1019 88 10000 2.6 50 05:27 12.03.2020
6551 Clouds 17 1019 93 10000 2.6 40 02:47 12.03.2020
6552 Clouds 18 1019 88 10000 2.6 30 01:39 12.03.2020
6553 Clouds 18 1019 88 10000 2.6 30 01:20 12.03.2020
6554 Clouds 18 1019 88 10000 4.1 60 00:41 12.03.2020
6555 Clouds 18 1021 93 10000 2.1 10 23:56 11.03.2020
6556 Clouds 18 1021 100 10000 2.6 20 23:27 11.03.2020
6557 Clouds 19 1020 88 10000 3.1 30 22:55 11.03.2020
6558 Clouds 19 1020 88 10000 3.1 30 22:37 11.03.2020
6559 Clouds 19 1020 88 10000 3.1 30 22:18 11.03.2020
6560 Clouds 19 1021 94 10000 2.6 40 21:54 11.03.2020
6561 Clouds 19 1020 88 10000 5.1 50 21:36 11.03.2020
6562 Clouds 19 1020 88 10000 5.1 50 21:18 11.03.2020
6563 Clouds 19 1021 94 10000 4.1 40 20:55 11.03.2020
6564 Clouds 19 1019 88 10000 5.1 40 20:36 11.03.2020
6565 Clouds 19 1020 94 10000 4.1 30 20:18 11.03.2020
6566 Clouds 19 1018 83 10000 3.1 60 19:41 11.03.2020
6567 Clouds 19 1018 83 10000 3.1 60 19:22 11.03.2020
6568 Clouds 19 1019 82 10000 4.6 30 18:56 11.03.2020
6569 Clouds 20 1018 77 10000 5.1 50 18:36 11.03.2020
6570 Clouds 20 1018 77 10000 5.1 50 18:18 11.03.2020
6571 Clouds 22 1017 64 10000 7.7 70 17:40 11.03.2020
6572 Clouds 22 1017 64 10000 7.7 70 17:21 11.03.2020
6573 Clouds 23 1017 64 10000 6.7 70 16:56 11.03.2020
6574 Clouds 23 1016 50 10000 5.1 80 16:37 11.03.2020
6575 Clouds 24 1017 47 10000 4.6 60 16:19 11.03.2020
6576 Clouds 24 1016 47 10000 4.1 60 15:42 11.03.2020
6577 Clouds 25 1016 47 10000 4.1 60 15:23 11.03.2020
6578 Clouds 25 1016 50 10000 2.6 30 14:44 11.03.2020
6579 Clouds 25 1016 50 10000 2.6 30 14:24 11.03.2020
6580 Clouds 26 1017 54 10000 5.1 40 13:59 11.03.2020
6581 Clouds 26 1018 54 10000 4.6 40 13:40 11.03.2020
6582 Clouds 26 1018 54 10000 4.6 40 13:22 11.03.2020
6583 Clouds 26 1018 57 10000 5.1 50 12:55 11.03.2020
6584 Clouds 25 1018 53 10000 6.2 70 12:37 11.03.2020
6585 Clouds 25 1018 53 10000 6.2 70 12:18 11.03.2020
6586 Clouds 25 1019 53 10000 5.1 40 11:40 11.03.2020
6587 Clouds 25 1020 57 10000 5.1 60 11:20 11.03.2020
6588 Clouds 23 1020 60 10000 3.1 60 10:46 11.03.2020
6589 Clouds 23 1020 60 10000 3.1 60 10:20 11.03.2020
6590 Clouds 22 1021 73 10000 3.6 30 09:55 11.03.2020
6591 Clouds 22 1021 68 10000 5.1 60 09:36 11.03.2020
6592 Clouds 22 1021 68 10000 5.1 60 09:18 11.03.2020
6593 Clouds 21 1021 77 10000 2.6 60 08:42 11.03.2020
6594 Clouds 21 1021 77 10000 2.6 60 08:42 11.03.2020
6595 Clouds 21 1021 77 10000 2.6 60 08:23 11.03.2020
6596 Clouds 20 1021 83 10000 2.6 20 07:47 11.03.2020
6597 Clouds 20 1021 77 10000 4.1 30 07:20 11.03.2020
6598 Clouds 18 1021 88 10000 2.1 70 06:49 11.03.2020
6599 Clouds 18 1019 88 10000 3.1 90 06:20 11.03.2020
6600 Clouds 17 1019 93 10000 3.1 60 05:23 11.03.2020
6601 Drizzle 17 1019 100 10000 5.7 70 02:36 11.03.2020
6602 Clouds 17 1019 100 10000 2.6 70 01:44 11.03.2020
6603 Clouds 18 1019 93 10000 3.6 60 00:53 11.03.2020
6604 Clouds 17 1020 93 10000 2.1 40 00:31 11.03.2020
6605 Clouds 17 1020 93 10000 2.1 40 23:47 10.03.2020
6606 Clouds 18 1020 88 10000 2.1 20 23:22 10.03.2020
6607 Clouds 18 1021 88 10000 2.1 10 22:55 10.03.2020
6608 Clouds 18 1020 93 10000 2.88 58 22:36 10.03.2020
6609 Clouds 18 1020 93 10000 2.88 58 22:18 10.03.2020
6610 Clouds 18 1021 93 10000 2.1 360 21:55 10.03.2020
6611 Clouds 18 1021 93 10000 2.6 360 21:37 10.03.2020
6612 Clouds 18 1021 93 10000 2.6 360 21:18 10.03.2020
6613 Clouds 18 1021 93 10000 2.6 10 21:18 10.03.2020
6614 Clouds 18 1020 88 10000 3.1 30 20:42 10.03.2020
6615 Rain 18 1020 88 10000 3.1 30 20:19 10.03.2020
6616 Rain 19 1020 88 10000 2.6 50 19:58 10.03.2020
6617 Rain 18 1020 88 10000 3.1 30 19:40 10.03.2020
6618 Rain 19 1020 88 10000 3.1 30 19:21 10.03.2020
6619 Clouds 18 1019 82 10000 3.1 50 18:55 10.03.2020
6620 Clouds 19 1019 82 10000 3.6 60 18:36 10.03.2020
6621 Clouds 20 1019 82 10000 3.6 60 18:18 10.03.2020
6622 Clouds 21 1018 68 10000 5.1 60 17:41 10.03.2020
6623 Clouds 22 1018 68 10000 5.1 60 17:22 10.03.2020
6624 Clouds 22 1018 68 10000 5.7 60 16:54 10.03.2020
6625 Clouds 23 1017 69 10000 7.2 70 16:36 10.03.2020
6626 Clouds 24 1017 64 10000 8.2 70 16:18 10.03.2020
6627 Clouds 23 1016 53 10000 7.7 90 15:41 10.03.2020
6628 Clouds 24 1016 53 10000 7.7 90 15:20 10.03.2020
6629 Clouds 25 1017 54 10000 6.2 60 14:58 10.03.2020
6630 Clouds 25 1016 50 10000 5.1 60 14:40 10.03.2020
6631 Clouds 25 1016 50 10000 5.1 60 14:19 10.03.2020
6632 Clouds 25 1017 50 10000 5.1 90 13:43 10.03.2020
6633 Clouds 26 1017 50 10000 5.1 90 13:25 10.03.2020
6634 Clouds 25 1018 57 10000 4.6 50 12:55 10.03.2020
6635 Clouds 25 1018 57 10000 7.7 70 12:37 10.03.2020
6636 Clouds 25 1019 61 10000 4.6 30 12:18 10.03.2020
6637 Clouds 25 1019 57 10000 5.1 30 11:42 10.03.2020
6638 Clouds 24 1019 57 10000 5.1 30 11:24 10.03.2020
6639 Clouds 24 1020 65 10000 4.6 40 11:24 10.03.2020
6640 Clouds 24 1020 65 10000 4.6 40 10:57 10.03.2020
6641 Clouds 23 1020 60 10000 4.1 40 10:39 10.03.2020
6642 Clouds 23 1020 60 10000 4.1 40 10:19 10.03.2020
6643 Clouds 22 1020 73 10000 3.1 30 09:45 10.03.2020
6644 Clouds 21 1022 78 10000 3.6 50 09:20 10.03.2020
6645 Clouds 21 1022 78 10000 3.6 50 08:58 10.03.2020
6646 Clouds 21 1021 77 10000 5.1 60 08:40 10.03.2020
6647 Clouds 19 1021 83 10000 2.6 30 08:20 10.03.2020
6648 Clouds 18 1021 88 10000 1.93 229 07:42 10.03.2020
6649 Clouds 18 1021 88 10000 1.93 229 07:23 10.03.2020
6650 Clouds 17 1020 100 9000 1.93 229 06:38 10.03.2020
6651 Clouds 17 1020 93 10000 1 250 05:55 10.03.2020
6652 Clouds 16 1020 93 10000 2.6 160 05:36 10.03.2020
6653 Clouds 17 1018 93 10000 1.2 244 04:33 10.03.2020
6654 Clouds 17 1019 100 10000 2.1 230 03:19 10.03.2020
6655 Clouds 18 1019 93 10000 3.1 190 01:43 10.03.2020
6656 Clouds 16 1019 93 10000 3.1 190 00:52 10.03.2020
6657 Clouds 17 1020 93 10000 2.1 230 00:29 10.03.2020
6658